<?xml version="1.0" encoding="UTF-8" standalone="no" ?>
<gpx xmlns="http://www.topografix.com/GPX/1/1" xmlns:xsi="http://www.w3.org/2001/XMLSchema-instance" xsi:schemaLocation="http://www.topografix.com/GPX/1/1 http://www.topografix.com/GPX/1/1/gpx.xsd" version="1.1" creator="VisuGPX - https://www.visugpx.com">
  <metadata>
    <name>Trabsbaronnie jour 1</name>
    <desc><![CDATA[Transbaronnie 2014 jour 1]]></desc>
  </metadata>
  <trk>
    <name><![CDATA[Transbaronnie 1]]></name>
    <trkseg>
      <trkpt lat="44.36296" lon="5.13991">
        <ele>283.60000610352</ele>
        <time>2014-05-03T07:35:28.000Z</time>
      </trkpt>
      <trkpt lat="44.36328" lon="5.14012">
        <ele>286.60000610352</ele>
        <time>2014-05-03T07:35:46.000Z</time>
      </trkpt>
      <trkpt lat="44.36335" lon="5.1402">
        <ele>289.20001220703</ele>
        <time>2014-05-03T07:35:52.000Z</time>
      </trkpt>
      <trkpt lat="44.36341" lon="5.14023">
        <ele>290.79998779297</ele>
        <time>2014-05-03T07:35:56.000Z</time>
      </trkpt>
      <trkpt lat="44.36347" lon="5.14023">
        <ele>292</ele>
        <time>2014-05-03T07:35:59.000Z</time>
      </trkpt>
      <trkpt lat="44.36354" lon="5.14022">
        <ele>293.39999389648</ele>
        <time>2014-05-03T07:36:03.000Z</time>
      </trkpt>
      <trkpt lat="44.3637" lon="5.14025">
        <ele>297</ele>
        <time>2014-05-03T07:36:13.000Z</time>
      </trkpt>
      <trkpt lat="44.36374" lon="5.14025">
        <ele>298.20001220703</ele>
        <time>2014-05-03T07:36:16.000Z</time>
      </trkpt>
      <trkpt lat="44.36392" lon="5.14031">
        <ele>301.20001220703</ele>
        <time>2014-05-03T07:36:30.000Z</time>
      </trkpt>
      <trkpt lat="44.36394" lon="5.1403">
        <ele>302.79998779297</ele>
        <time>2014-05-03T07:36:50.000Z</time>
      </trkpt>
      <trkpt lat="44.36401" lon="5.1403">
        <ele>302.79998779297</ele>
        <time>2014-05-03T07:36:53.000Z</time>
      </trkpt>
      <trkpt lat="44.36435" lon="5.14033">
        <ele>305.20001220703</ele>
        <time>2014-05-03T07:37:02.000Z</time>
      </trkpt>
      <trkpt lat="44.36449" lon="5.1405">
        <ele>308</ele>
        <time>2014-05-03T07:37:11.000Z</time>
      </trkpt>
      <trkpt lat="44.36471" lon="5.14046">
        <ele>311.20001220703</ele>
        <time>2014-05-03T07:37:23.000Z</time>
      </trkpt>
      <trkpt lat="44.36495" lon="5.1404">
        <ele>314.39999389648</ele>
        <time>2014-05-03T07:37:36.000Z</time>
      </trkpt>
      <trkpt lat="44.36515" lon="5.14037">
        <ele>316.20001220703</ele>
        <time>2014-05-03T07:37:51.000Z</time>
      </trkpt>
      <trkpt lat="44.3652" lon="5.14037">
        <ele>317</ele>
        <time>2014-05-03T07:38:07.000Z</time>
      </trkpt>
      <trkpt lat="44.3652" lon="5.14037">
        <ele>317.79998779297</ele>
        <time>2014-05-03T07:38:25.000Z</time>
      </trkpt>
      <trkpt lat="44.36527" lon="5.14036">
        <ele>317.20001220703</ele>
        <time>2014-05-03T07:38:38.000Z</time>
      </trkpt>
      <trkpt lat="44.36528" lon="5.14035">
        <ele>317.39999389648</ele>
        <time>2014-05-03T07:38:39.000Z</time>
      </trkpt>
      <trkpt lat="44.36531" lon="5.14034">
        <ele>320.39999389648</ele>
        <time>2014-05-03T07:39:00.000Z</time>
      </trkpt>
      <trkpt lat="44.36539" lon="5.14038">
        <ele>320.79998779297</ele>
        <time>2014-05-03T07:39:18.000Z</time>
      </trkpt>
      <trkpt lat="44.3654" lon="5.14037">
        <ele>324.20001220703</ele>
        <time>2014-05-03T07:39:28.000Z</time>
      </trkpt>
      <trkpt lat="44.36546" lon="5.14038">
        <ele>323.39999389648</ele>
        <time>2014-05-03T07:39:52.000Z</time>
      </trkpt>
      <trkpt lat="44.36548" lon="5.14039">
        <ele>322.79998779297</ele>
        <time>2014-05-03T07:39:59.000Z</time>
      </trkpt>
      <trkpt lat="44.36559" lon="5.14038">
        <ele>322.79998779297</ele>
        <time>2014-05-03T07:40:13.000Z</time>
      </trkpt>
      <trkpt lat="44.36567" lon="5.14041">
        <ele>324</ele>
        <time>2014-05-03T07:40:33.000Z</time>
      </trkpt>
      <trkpt lat="44.36569" lon="5.14041">
        <ele>324.79998779297</ele>
        <time>2014-05-03T07:40:35.000Z</time>
      </trkpt>
      <trkpt lat="44.36584" lon="5.14047">
        <ele>327.39999389648</ele>
        <time>2014-05-03T07:40:47.000Z</time>
      </trkpt>
      <trkpt lat="44.36597" lon="5.1405">
        <ele>329.20001220703</ele>
        <time>2014-05-03T07:41:00.000Z</time>
      </trkpt>
      <trkpt lat="44.36618" lon="5.1405">
        <ele>332.39999389648</ele>
        <time>2014-05-03T07:41:17.000Z</time>
      </trkpt>
      <trkpt lat="44.36639" lon="5.14047">
        <ele>335</ele>
        <time>2014-05-03T07:41:33.000Z</time>
      </trkpt>
      <trkpt lat="44.36652" lon="5.14046">
        <ele>338.20001220703</ele>
        <time>2014-05-03T07:41:43.000Z</time>
      </trkpt>
      <trkpt lat="44.3666" lon="5.14046">
        <ele>341.39999389648</ele>
        <time>2014-05-03T07:41:49.000Z</time>
      </trkpt>
      <trkpt lat="44.36675" lon="5.14044">
        <ele>343.79998779297</ele>
        <time>2014-05-03T07:42:00.000Z</time>
      </trkpt>
      <trkpt lat="44.36683" lon="5.14041">
        <ele>346.79998779297</ele>
        <time>2014-05-03T07:42:07.000Z</time>
      </trkpt>
      <trkpt lat="44.36684" lon="5.1404">
        <ele>346.79998779297</ele>
        <time>2014-05-03T07:42:08.000Z</time>
      </trkpt>
      <trkpt lat="44.36696" lon="5.14033">
        <ele>349</ele>
        <time>2014-05-03T07:42:14.000Z</time>
      </trkpt>
      <trkpt lat="44.36703" lon="5.14027">
        <ele>350.39999389648</ele>
        <time>2014-05-03T07:42:17.000Z</time>
      </trkpt>
      <trkpt lat="44.36727" lon="5.13986">
        <ele>353.20001220703</ele>
        <time>2014-05-03T07:42:31.000Z</time>
      </trkpt>
      <trkpt lat="44.36729" lon="5.13957">
        <ele>354.79998779297</ele>
        <time>2014-05-03T07:42:42.000Z</time>
      </trkpt>
      <trkpt lat="44.36729" lon="5.13956">
        <ele>356.39999389648</ele>
        <time>2014-05-03T07:43:09.000Z</time>
      </trkpt>
      <trkpt lat="44.36729" lon="5.13957">
        <ele>354.39999389648</ele>
        <time>2014-05-03T07:43:19.000Z</time>
      </trkpt>
      <trkpt lat="44.36729" lon="5.13956">
        <ele>357.20001220703</ele>
        <time>2014-05-03T07:43:38.000Z</time>
      </trkpt>
      <trkpt lat="44.3673" lon="5.13948">
        <ele>358.39999389648</ele>
        <time>2014-05-03T07:43:55.000Z</time>
      </trkpt>
      <trkpt lat="44.36732" lon="5.13914">
        <ele>355.39999389648</ele>
        <time>2014-05-03T07:44:02.000Z</time>
      </trkpt>
      <trkpt lat="44.36732" lon="5.13895">
        <ele>354</ele>
        <time>2014-05-03T07:44:06.000Z</time>
      </trkpt>
      <trkpt lat="44.36727" lon="5.13892">
        <ele>352.39999389648</ele>
        <time>2014-05-03T07:44:09.000Z</time>
      </trkpt>
      <trkpt lat="44.36705" lon="5.13889">
        <ele>348.60000610352</ele>
        <time>2014-05-03T07:44:14.000Z</time>
      </trkpt>
      <trkpt lat="44.36677" lon="5.13878">
        <ele>343.20001220703</ele>
        <time>2014-05-03T07:44:18.000Z</time>
      </trkpt>
      <trkpt lat="44.36671" lon="5.13875">
        <ele>341.60000610352</ele>
        <time>2014-05-03T07:44:19.000Z</time>
      </trkpt>
      <trkpt lat="44.36654" lon="5.13853">
        <ele>339</ele>
        <time>2014-05-03T07:44:23.000Z</time>
      </trkpt>
      <trkpt lat="44.36643" lon="5.13836">
        <ele>337.60000610352</ele>
        <time>2014-05-03T07:44:26.000Z</time>
      </trkpt>
      <trkpt lat="44.3663" lon="5.13837">
        <ele>334.79998779297</ele>
        <time>2014-05-03T07:44:29.000Z</time>
      </trkpt>
      <trkpt lat="44.36607" lon="5.13845">
        <ele>333.20001220703</ele>
        <time>2014-05-03T07:44:37.000Z</time>
      </trkpt>
      <trkpt lat="44.36603" lon="5.13803">
        <ele>334.60000610352</ele>
        <time>2014-05-03T07:44:51.000Z</time>
      </trkpt>
      <trkpt lat="44.36602" lon="5.13796">
        <ele>335.39999389648</ele>
        <time>2014-05-03T07:44:53.000Z</time>
      </trkpt>
      <trkpt lat="44.36597" lon="5.13764">
        <ele>338.39999389648</ele>
        <time>2014-05-03T07:45:03.000Z</time>
      </trkpt>
      <trkpt lat="44.36603" lon="5.13708">
        <ele>341.20001220703</ele>
        <time>2014-05-03T07:45:18.000Z</time>
      </trkpt>
      <trkpt lat="44.36616" lon="5.13642">
        <ele>344.39999389648</ele>
        <time>2014-05-03T07:45:37.000Z</time>
      </trkpt>
      <trkpt lat="44.36623" lon="5.13589">
        <ele>347.60000610352</ele>
        <time>2014-05-03T07:45:52.000Z</time>
      </trkpt>
      <trkpt lat="44.36625" lon="5.13543">
        <ele>350.60000610352</ele>
        <time>2014-05-03T07:46:05.000Z</time>
      </trkpt>
      <trkpt lat="44.36626" lon="5.13537">
        <ele>351.39999389648</ele>
        <time>2014-05-03T07:46:07.000Z</time>
      </trkpt>
      <trkpt lat="44.36634" lon="5.13539">
        <ele>352.60000610352</ele>
        <time>2014-05-03T07:46:13.000Z</time>
      </trkpt>
      <trkpt lat="44.36635" lon="5.13542">
        <ele>352.60000610352</ele>
        <time>2014-05-03T07:46:15.000Z</time>
      </trkpt>
      <trkpt lat="44.36637" lon="5.13557">
        <ele>350.79998779297</ele>
        <time>2014-05-03T07:46:25.000Z</time>
      </trkpt>
      <trkpt lat="44.36637" lon="5.13562">
        <ele>349.79998779297</ele>
        <time>2014-05-03T07:46:27.000Z</time>
      </trkpt>
      <trkpt lat="44.3664" lon="5.13578">
        <ele>351.39999389648</ele>
        <time>2014-05-03T07:46:32.000Z</time>
      </trkpt>
      <trkpt lat="44.36647" lon="5.136">
        <ele>355</ele>
        <time>2014-05-03T07:46:38.000Z</time>
      </trkpt>
      <trkpt lat="44.36665" lon="5.13652">
        <ele>357.60000610352</ele>
        <time>2014-05-03T07:46:54.000Z</time>
      </trkpt>
      <trkpt lat="44.36677" lon="5.1368">
        <ele>360.60000610352</ele>
        <time>2014-05-03T07:47:04.000Z</time>
      </trkpt>
      <trkpt lat="44.36698" lon="5.13728">
        <ele>361.79998779297</ele>
        <time>2014-05-03T07:47:20.000Z</time>
      </trkpt>
      <trkpt lat="44.36715" lon="5.13759">
        <ele>364.39999389648</ele>
        <time>2014-05-03T07:47:31.000Z</time>
      </trkpt>
      <trkpt lat="44.36724" lon="5.13747">
        <ele>365.20001220703</ele>
        <time>2014-05-03T07:47:37.000Z</time>
      </trkpt>
      <trkpt lat="44.3673" lon="5.13692">
        <ele>368</ele>
        <time>2014-05-03T07:47:53.000Z</time>
      </trkpt>
      <trkpt lat="44.36751" lon="5.13654">
        <ele>370.39999389648</ele>
        <time>2014-05-03T07:48:07.000Z</time>
      </trkpt>
      <trkpt lat="44.36769" lon="5.13621">
        <ele>373.79998779297</ele>
        <time>2014-05-03T07:48:20.000Z</time>
      </trkpt>
      <trkpt lat="44.36775" lon="5.13609">
        <ele>375.60000610352</ele>
        <time>2014-05-03T07:48:31.000Z</time>
      </trkpt>
      <trkpt lat="44.36775" lon="5.1361">
        <ele>375.60000610352</ele>
        <time>2014-05-03T07:48:50.000Z</time>
      </trkpt>
      <trkpt lat="44.36791" lon="5.13594">
        <ele>376.39999389648</ele>
        <time>2014-05-03T07:49:02.000Z</time>
      </trkpt>
      <trkpt lat="44.36818" lon="5.13567">
        <ele>379.39999389648</ele>
        <time>2014-05-03T07:49:14.000Z</time>
      </trkpt>
      <trkpt lat="44.36845" lon="5.13548">
        <ele>382.79998779297</ele>
        <time>2014-05-03T07:49:25.000Z</time>
      </trkpt>
      <trkpt lat="44.36871" lon="5.13532">
        <ele>386</ele>
        <time>2014-05-03T07:49:35.000Z</time>
      </trkpt>
      <trkpt lat="44.36899" lon="5.13519">
        <ele>389.39999389648</ele>
        <time>2014-05-03T07:49:45.000Z</time>
      </trkpt>
      <trkpt lat="44.36932" lon="5.13489">
        <ele>392.39999389648</ele>
        <time>2014-05-03T07:49:59.000Z</time>
      </trkpt>
      <trkpt lat="44.36958" lon="5.13452">
        <ele>395.39999389648</ele>
        <time>2014-05-03T07:50:12.000Z</time>
      </trkpt>
      <trkpt lat="44.36973" lon="5.1342">
        <ele>398.60000610352</ele>
        <time>2014-05-03T07:50:22.000Z</time>
      </trkpt>
      <trkpt lat="44.37008" lon="5.13385">
        <ele>401.39999389648</ele>
        <time>2014-05-03T07:50:37.000Z</time>
      </trkpt>
      <trkpt lat="44.37059" lon="5.13386">
        <ele>404.60000610352</ele>
        <time>2014-05-03T07:50:55.000Z</time>
      </trkpt>
      <trkpt lat="44.37087" lon="5.13376">
        <ele>406.39999389648</ele>
        <time>2014-05-03T07:51:06.000Z</time>
      </trkpt>
      <trkpt lat="44.37088" lon="5.13393">
        <ele>408.20001220703</ele>
        <time>2014-05-03T07:51:12.000Z</time>
      </trkpt>
      <trkpt lat="44.37051" lon="5.13433">
        <ele>411.20001220703</ele>
        <time>2014-05-03T07:51:29.000Z</time>
      </trkpt>
      <trkpt lat="44.37023" lon="5.13469">
        <ele>413.60000610352</ele>
        <time>2014-05-03T07:51:44.000Z</time>
      </trkpt>
      <trkpt lat="44.37027" lon="5.13526">
        <ele>415.20001220703</ele>
        <time>2014-05-03T07:51:55.000Z</time>
      </trkpt>
      <trkpt lat="44.37013" lon="5.13553">
        <ele>416</ele>
        <time>2014-05-03T07:52:01.000Z</time>
      </trkpt>
      <trkpt lat="44.36989" lon="5.13605">
        <ele>417.39999389648</ele>
        <time>2014-05-03T07:52:15.000Z</time>
      </trkpt>
      <trkpt lat="44.36988" lon="5.13648">
        <ele>420.60000610352</ele>
        <time>2014-05-03T07:52:26.000Z</time>
      </trkpt>
      <trkpt lat="44.36994" lon="5.137">
        <ele>423.60000610352</ele>
        <time>2014-05-03T07:52:43.000Z</time>
      </trkpt>
      <trkpt lat="44.36996" lon="5.13702">
        <ele>424</ele>
        <time>2014-05-03T07:52:44.000Z</time>
      </trkpt>
      <trkpt lat="44.3701" lon="5.1368">
        <ele>425.79998779297</ele>
        <time>2014-05-03T07:52:54.000Z</time>
      </trkpt>
      <trkpt lat="44.37041" lon="5.13629">
        <ele>429</ele>
        <time>2014-05-03T07:53:09.000Z</time>
      </trkpt>
      <trkpt lat="44.37052" lon="5.13618">
        <ele>430.60000610352</ele>
        <time>2014-05-03T07:53:13.000Z</time>
      </trkpt>
      <trkpt lat="44.37074" lon="5.13597">
        <ele>433.79998779297</ele>
        <time>2014-05-03T07:53:22.000Z</time>
      </trkpt>
      <trkpt lat="44.37083" lon="5.13589">
        <ele>435.60000610352</ele>
        <time>2014-05-03T07:53:26.000Z</time>
      </trkpt>
      <trkpt lat="44.371" lon="5.13572">
        <ele>438.79998779297</ele>
        <time>2014-05-03T07:53:33.000Z</time>
      </trkpt>
      <trkpt lat="44.37104" lon="5.13556">
        <ele>440.60000610352</ele>
        <time>2014-05-03T07:53:37.000Z</time>
      </trkpt>
      <trkpt lat="44.37122" lon="5.13521">
        <ele>443.60000610352</ele>
        <time>2014-05-03T07:53:47.000Z</time>
      </trkpt>
      <trkpt lat="44.3713" lon="5.1351">
        <ele>445.20001220703</ele>
        <time>2014-05-03T07:53:51.000Z</time>
      </trkpt>
      <trkpt lat="44.37134" lon="5.13528">
        <ele>447.20001220703</ele>
        <time>2014-05-03T07:53:57.000Z</time>
      </trkpt>
      <trkpt lat="44.37127" lon="5.13578">
        <ele>450.79998779297</ele>
        <time>2014-05-03T07:54:09.000Z</time>
      </trkpt>
      <trkpt lat="44.37131" lon="5.13621">
        <ele>454</ele>
        <time>2014-05-03T07:54:23.000Z</time>
      </trkpt>
      <trkpt lat="44.37116" lon="5.13649">
        <ele>455.39999389648</ele>
        <time>2014-05-03T07:54:35.000Z</time>
      </trkpt>
      <trkpt lat="44.37105" lon="5.13691">
        <ele>458.39999389648</ele>
        <time>2014-05-03T07:54:50.000Z</time>
      </trkpt>
      <trkpt lat="44.37104" lon="5.1372">
        <ele>461.60000610352</ele>
        <time>2014-05-03T07:55:02.000Z</time>
      </trkpt>
      <trkpt lat="44.3711" lon="5.13743">
        <ele>464.60000610352</ele>
        <time>2014-05-03T07:55:12.000Z</time>
      </trkpt>
      <trkpt lat="44.37118" lon="5.13771">
        <ele>467.60000610352</ele>
        <time>2014-05-03T07:55:25.000Z</time>
      </trkpt>
      <trkpt lat="44.37124" lon="5.138">
        <ele>470.60000610352</ele>
        <time>2014-05-03T07:55:37.000Z</time>
      </trkpt>
      <trkpt lat="44.37129" lon="5.13835">
        <ele>473.79998779297</ele>
        <time>2014-05-03T07:55:51.000Z</time>
      </trkpt>
      <trkpt lat="44.37126" lon="5.13868">
        <ele>477</ele>
        <time>2014-05-03T07:56:03.000Z</time>
      </trkpt>
      <trkpt lat="44.37117" lon="5.13897">
        <ele>480</ele>
        <time>2014-05-03T07:56:14.000Z</time>
      </trkpt>
      <trkpt lat="44.37106" lon="5.1392">
        <ele>483.20001220703</ele>
        <time>2014-05-03T07:56:24.000Z</time>
      </trkpt>
      <trkpt lat="44.371" lon="5.13934">
        <ele>485</ele>
        <time>2014-05-03T07:56:30.000Z</time>
      </trkpt>
      <trkpt lat="44.37088" lon="5.13961">
        <ele>488</ele>
        <time>2014-05-03T07:56:44.000Z</time>
      </trkpt>
      <trkpt lat="44.37081" lon="5.13987">
        <ele>491.20001220703</ele>
        <time>2014-05-03T07:56:58.000Z</time>
      </trkpt>
      <trkpt lat="44.37081" lon="5.13994">
        <ele>491.79998779297</ele>
        <time>2014-05-03T07:57:01.000Z</time>
      </trkpt>
      <trkpt lat="44.37097" lon="5.14019">
        <ele>495.20001220703</ele>
        <time>2014-05-03T07:57:16.000Z</time>
      </trkpt>
      <trkpt lat="44.37111" lon="5.1404">
        <ele>498</ele>
        <time>2014-05-03T07:57:29.000Z</time>
      </trkpt>
      <trkpt lat="44.37116" lon="5.14061">
        <ele>501.20001220703</ele>
        <time>2014-05-03T07:57:38.000Z</time>
      </trkpt>
      <trkpt lat="44.37109" lon="5.14082">
        <ele>504.39999389648</ele>
        <time>2014-05-03T07:57:47.000Z</time>
      </trkpt>
      <trkpt lat="44.37095" lon="5.14107">
        <ele>508</ele>
        <time>2014-05-03T07:57:58.000Z</time>
      </trkpt>
      <trkpt lat="44.37091" lon="5.14123">
        <ele>511</ele>
        <time>2014-05-03T07:58:04.000Z</time>
      </trkpt>
      <trkpt lat="44.3709" lon="5.14129">
        <ele>511.60000610352</ele>
        <time>2014-05-03T07:58:06.000Z</time>
      </trkpt>
      <trkpt lat="44.37094" lon="5.14154">
        <ele>514.59997558594</ele>
        <time>2014-05-03T07:58:15.000Z</time>
      </trkpt>
      <trkpt lat="44.37097" lon="5.14171">
        <ele>517.79998779297</ele>
        <time>2014-05-03T07:58:21.000Z</time>
      </trkpt>
      <trkpt lat="44.37115" lon="5.142">
        <ele>521.20001220703</ele>
        <time>2014-05-03T07:58:34.000Z</time>
      </trkpt>
      <trkpt lat="44.37142" lon="5.14223">
        <ele>523.40002441406</ele>
        <time>2014-05-03T07:58:47.000Z</time>
      </trkpt>
      <trkpt lat="44.37192" lon="5.14263">
        <ele>519.79998779297</ele>
        <time>2014-05-03T07:59:00.000Z</time>
      </trkpt>
      <trkpt lat="44.37227" lon="5.14286">
        <ele>515.79998779297</ele>
        <time>2014-05-03T07:59:06.000Z</time>
      </trkpt>
      <trkpt lat="44.37239" lon="5.14292">
        <ele>515</ele>
        <time>2014-05-03T07:59:08.000Z</time>
      </trkpt>
      <trkpt lat="44.37246" lon="5.14294">
        <ele>515</ele>
        <time>2014-05-03T07:59:09.000Z</time>
      </trkpt>
      <trkpt lat="44.37274" lon="5.14298">
        <ele>516.59997558594</ele>
        <time>2014-05-03T07:59:13.000Z</time>
      </trkpt>
      <trkpt lat="44.37304" lon="5.1431">
        <ele>514.40002441406</ele>
        <time>2014-05-03T07:59:17.000Z</time>
      </trkpt>
      <trkpt lat="44.37326" lon="5.14314">
        <ele>513</ele>
        <time>2014-05-03T07:59:20.000Z</time>
      </trkpt>
      <trkpt lat="44.37355" lon="5.14323">
        <ele>514.79998779297</ele>
        <time>2014-05-03T07:59:24.000Z</time>
      </trkpt>
      <trkpt lat="44.37374" lon="5.14334">
        <ele>515</ele>
        <time>2014-05-03T07:59:27.000Z</time>
      </trkpt>
      <trkpt lat="44.37402" lon="5.14334">
        <ele>516.40002441406</ele>
        <time>2014-05-03T07:59:33.000Z</time>
      </trkpt>
      <trkpt lat="44.37414" lon="5.14332">
        <ele>518.59997558594</ele>
        <time>2014-05-03T07:59:37.000Z</time>
      </trkpt>
      <trkpt lat="44.37445" lon="5.14317">
        <ele>520.20001220703</ele>
        <time>2014-05-03T07:59:51.000Z</time>
      </trkpt>
      <trkpt lat="44.37481" lon="5.14297">
        <ele>522.59997558594</ele>
        <time>2014-05-03T08:00:07.000Z</time>
      </trkpt>
      <trkpt lat="44.37522" lon="5.14298">
        <ele>524.40002441406</ele>
        <time>2014-05-03T08:00:19.000Z</time>
      </trkpt>
      <trkpt lat="44.37544" lon="5.14308">
        <ele>524.40002441406</ele>
        <time>2014-05-03T08:00:26.000Z</time>
      </trkpt>
      <trkpt lat="44.37556" lon="5.14307">
        <ele>525.40002441406</ele>
        <time>2014-05-03T08:00:29.000Z</time>
      </trkpt>
      <trkpt lat="44.3758" lon="5.14294">
        <ele>529.20001220703</ele>
        <time>2014-05-03T08:00:36.000Z</time>
      </trkpt>
      <trkpt lat="44.37626" lon="5.14271">
        <ele>531.40002441406</ele>
        <time>2014-05-03T08:00:49.000Z</time>
      </trkpt>
      <trkpt lat="44.37654" lon="5.14263">
        <ele>530.79998779297</ele>
        <time>2014-05-03T08:00:58.000Z</time>
      </trkpt>
      <trkpt lat="44.37674" lon="5.14238">
        <ele>532.79998779297</ele>
        <time>2014-05-03T08:01:05.000Z</time>
      </trkpt>
      <trkpt lat="44.3772" lon="5.14194">
        <ele>533.79998779297</ele>
        <time>2014-05-03T08:01:19.000Z</time>
      </trkpt>
      <trkpt lat="44.37734" lon="5.1418">
        <ele>534.59997558594</ele>
        <time>2014-05-03T08:01:23.000Z</time>
      </trkpt>
      <trkpt lat="44.37742" lon="5.14173">
        <ele>534.59997558594</ele>
        <time>2014-05-03T08:01:25.000Z</time>
      </trkpt>
      <trkpt lat="44.37763" lon="5.14148">
        <ele>535</ele>
        <time>2014-05-03T08:01:31.000Z</time>
      </trkpt>
      <trkpt lat="44.37775" lon="5.14137">
        <ele>536</ele>
        <time>2014-05-03T08:01:34.000Z</time>
      </trkpt>
      <trkpt lat="44.37791" lon="5.14131">
        <ele>538</ele>
        <time>2014-05-03T08:01:38.000Z</time>
      </trkpt>
      <trkpt lat="44.3781" lon="5.14131">
        <ele>539</ele>
        <time>2014-05-03T08:01:42.000Z</time>
      </trkpt>
      <trkpt lat="44.37837" lon="5.14139">
        <ele>541.20001220703</ele>
        <time>2014-05-03T08:01:48.000Z</time>
      </trkpt>
      <trkpt lat="44.37887" lon="5.14168">
        <ele>543</ele>
        <time>2014-05-03T08:02:02.000Z</time>
      </trkpt>
      <trkpt lat="44.37907" lon="5.14172">
        <ele>539</ele>
        <time>2014-05-03T08:02:08.000Z</time>
      </trkpt>
      <trkpt lat="44.37918" lon="5.14171">
        <ele>535.79998779297</ele>
        <time>2014-05-03T08:02:10.000Z</time>
      </trkpt>
      <trkpt lat="44.37923" lon="5.1417">
        <ele>534.40002441406</ele>
        <time>2014-05-03T08:02:11.000Z</time>
      </trkpt>
      <trkpt lat="44.37944" lon="5.14152">
        <ele>537</ele>
        <time>2014-05-03T08:02:17.000Z</time>
      </trkpt>
      <trkpt lat="44.37954" lon="5.14145">
        <ele>539.59997558594</ele>
        <time>2014-05-03T08:02:23.000Z</time>
      </trkpt>
      <trkpt lat="44.37972" lon="5.14147">
        <ele>540.40002441406</ele>
        <time>2014-05-03T08:02:32.000Z</time>
      </trkpt>
      <trkpt lat="44.37978" lon="5.14154">
        <ele>540.79998779297</ele>
        <time>2014-05-03T08:02:35.000Z</time>
      </trkpt>
      <trkpt lat="44.37992" lon="5.14164">
        <ele>543.40002441406</ele>
        <time>2014-05-03T08:02:41.000Z</time>
      </trkpt>
      <trkpt lat="44.37996" lon="5.14165">
        <ele>544.20001220703</ele>
        <time>2014-05-03T08:02:43.000Z</time>
      </trkpt>
      <trkpt lat="44.37998" lon="5.14165">
        <ele>544.59997558594</ele>
        <time>2014-05-03T08:02:44.000Z</time>
      </trkpt>
      <trkpt lat="44.38009" lon="5.14165">
        <ele>546.79998779297</ele>
        <time>2014-05-03T08:02:49.000Z</time>
      </trkpt>
      <trkpt lat="44.38021" lon="5.14138">
        <ele>545.59997558594</ele>
        <time>2014-05-03T08:02:59.000Z</time>
      </trkpt>
      <trkpt lat="44.38032" lon="5.14136">
        <ele>543.79998779297</ele>
        <time>2014-05-03T08:03:03.000Z</time>
      </trkpt>
      <trkpt lat="44.38036" lon="5.14138">
        <ele>542.79998779297</ele>
        <time>2014-05-03T08:03:05.000Z</time>
      </trkpt>
      <trkpt lat="44.38042" lon="5.14146">
        <ele>540.40002441406</ele>
        <time>2014-05-03T08:03:12.000Z</time>
      </trkpt>
      <trkpt lat="44.38053" lon="5.14154">
        <ele>543.79998779297</ele>
        <time>2014-05-03T08:03:26.000Z</time>
      </trkpt>
      <trkpt lat="44.38057" lon="5.14169">
        <ele>546.79998779297</ele>
        <time>2014-05-03T08:03:46.000Z</time>
      </trkpt>
      <trkpt lat="44.38062" lon="5.14182">
        <ele>546.79998779297</ele>
        <time>2014-05-03T08:03:52.000Z</time>
      </trkpt>
      <trkpt lat="44.38072" lon="5.14186">
        <ele>546.79998779297</ele>
        <time>2014-05-03T08:03:57.000Z</time>
      </trkpt>
      <trkpt lat="44.38098" lon="5.14179">
        <ele>546.79998779297</ele>
        <time>2014-05-03T08:04:09.000Z</time>
      </trkpt>
      <trkpt lat="44.38102" lon="5.14177">
        <ele>546.79998779297</ele>
        <time>2014-05-03T08:04:11.000Z</time>
      </trkpt>
      <trkpt lat="44.38114" lon="5.14184">
        <ele>545.59997558594</ele>
        <time>2014-05-03T08:04:15.000Z</time>
      </trkpt>
      <trkpt lat="44.38126" lon="5.14193">
        <ele>542</ele>
        <time>2014-05-03T08:04:19.000Z</time>
      </trkpt>
      <trkpt lat="44.38132" lon="5.142">
        <ele>540.59997558594</ele>
        <time>2014-05-03T08:04:21.000Z</time>
      </trkpt>
      <trkpt lat="44.3813" lon="5.14231">
        <ele>539.40002441406</ele>
        <time>2014-05-03T08:04:26.000Z</time>
      </trkpt>
      <trkpt lat="44.38132" lon="5.14263">
        <ele>533.79998779297</ele>
        <time>2014-05-03T08:04:29.000Z</time>
      </trkpt>
      <trkpt lat="44.38134" lon="5.14283">
        <ele>533</ele>
        <time>2014-05-03T08:04:31.000Z</time>
      </trkpt>
      <trkpt lat="44.38154" lon="5.14297">
        <ele>537.20001220703</ele>
        <time>2014-05-03T08:04:37.000Z</time>
      </trkpt>
      <trkpt lat="44.38175" lon="5.14287">
        <ele>541</ele>
        <time>2014-05-03T08:04:44.000Z</time>
      </trkpt>
      <trkpt lat="44.38179" lon="5.14288">
        <ele>541.79998779297</ele>
        <time>2014-05-03T08:04:46.000Z</time>
      </trkpt>
      <trkpt lat="44.38204" lon="5.14309">
        <ele>544.79998779297</ele>
        <time>2014-05-03T08:04:58.000Z</time>
      </trkpt>
      <trkpt lat="44.38192" lon="5.14352">
        <ele>545.20001220703</ele>
        <time>2014-05-03T08:05:07.000Z</time>
      </trkpt>
      <trkpt lat="44.38181" lon="5.14405">
        <ele>545.20001220703</ele>
        <time>2014-05-03T08:05:17.000Z</time>
      </trkpt>
      <trkpt lat="44.38181" lon="5.1441">
        <ele>544.59997558594</ele>
        <time>2014-05-03T08:05:18.000Z</time>
      </trkpt>
      <trkpt lat="44.38183" lon="5.14428">
        <ele>542.79998779297</ele>
        <time>2014-05-03T08:05:21.000Z</time>
      </trkpt>
      <trkpt lat="44.3821" lon="5.14438">
        <ele>540.59997558594</ele>
        <time>2014-05-03T08:05:27.000Z</time>
      </trkpt>
      <trkpt lat="44.38215" lon="5.14435">
        <ele>540.20001220703</ele>
        <time>2014-05-03T08:05:28.000Z</time>
      </trkpt>
      <trkpt lat="44.38228" lon="5.14427">
        <ele>537.40002441406</ele>
        <time>2014-05-03T08:05:32.000Z</time>
      </trkpt>
      <trkpt lat="44.38238" lon="5.14412">
        <ele>537</ele>
        <time>2014-05-03T08:05:37.000Z</time>
      </trkpt>
      <trkpt lat="44.38241" lon="5.1441">
        <ele>537</ele>
        <time>2014-05-03T08:05:39.000Z</time>
      </trkpt>
      <trkpt lat="44.38262" lon="5.14375">
        <ele>534.20001220703</ele>
        <time>2014-05-03T08:05:49.000Z</time>
      </trkpt>
      <trkpt lat="44.38267" lon="5.14368">
        <ele>533.40002441406</ele>
        <time>2014-05-03T08:05:51.000Z</time>
      </trkpt>
      <trkpt lat="44.3828" lon="5.14355">
        <ele>530.59997558594</ele>
        <time>2014-05-03T08:05:55.000Z</time>
      </trkpt>
      <trkpt lat="44.38298" lon="5.14339">
        <ele>527</ele>
        <time>2014-05-03T08:06:00.000Z</time>
      </trkpt>
      <trkpt lat="44.38314" lon="5.14327">
        <ele>523.40002441406</ele>
        <time>2014-05-03T08:06:05.000Z</time>
      </trkpt>
      <trkpt lat="44.38319" lon="5.14325">
        <ele>522.79998779297</ele>
        <time>2014-05-03T08:06:06.000Z</time>
      </trkpt>
      <trkpt lat="44.38346" lon="5.14314">
        <ele>520.40002441406</ele>
        <time>2014-05-03T08:06:13.000Z</time>
      </trkpt>
      <trkpt lat="44.38359" lon="5.14294">
        <ele>516.40002441406</ele>
        <time>2014-05-03T08:06:18.000Z</time>
      </trkpt>
      <trkpt lat="44.38369" lon="5.14283">
        <ele>514</ele>
        <time>2014-05-03T08:06:21.000Z</time>
      </trkpt>
      <trkpt lat="44.38383" lon="5.14263">
        <ele>510</ele>
        <time>2014-05-03T08:06:25.000Z</time>
      </trkpt>
      <trkpt lat="44.38393" lon="5.14249">
        <ele>508</ele>
        <time>2014-05-03T08:06:28.000Z</time>
      </trkpt>
      <trkpt lat="44.384" lon="5.14235">
        <ele>506.60000610352</ele>
        <time>2014-05-03T08:06:31.000Z</time>
      </trkpt>
      <trkpt lat="44.38402" lon="5.14231">
        <ele>506</ele>
        <time>2014-05-03T08:06:32.000Z</time>
      </trkpt>
      <trkpt lat="44.38412" lon="5.14211">
        <ele>502.39999389648</ele>
        <time>2014-05-03T08:06:36.000Z</time>
      </trkpt>
      <trkpt lat="44.38419" lon="5.14204">
        <ele>500.20001220703</ele>
        <time>2014-05-03T08:06:38.000Z</time>
      </trkpt>
      <trkpt lat="44.3844" lon="5.14182">
        <ele>496.20001220703</ele>
        <time>2014-05-03T08:06:45.000Z</time>
      </trkpt>
      <trkpt lat="44.38464" lon="5.14165">
        <ele>493.20001220703</ele>
        <time>2014-05-03T08:06:54.000Z</time>
      </trkpt>
      <trkpt lat="44.38479" lon="5.14172">
        <ele>489.20001220703</ele>
        <time>2014-05-03T08:07:02.000Z</time>
      </trkpt>
      <trkpt lat="44.3848" lon="5.14173">
        <ele>488.60000610352</ele>
        <time>2014-05-03T08:07:03.000Z</time>
      </trkpt>
      <trkpt lat="44.38484" lon="5.14178">
        <ele>486.20001220703</ele>
        <time>2014-05-03T08:07:06.000Z</time>
      </trkpt>
      <trkpt lat="44.38496" lon="5.14186">
        <ele>482</ele>
        <time>2014-05-03T08:07:11.000Z</time>
      </trkpt>
      <trkpt lat="44.38504" lon="5.14196">
        <ele>478.79998779297</ele>
        <time>2014-05-03T08:07:14.000Z</time>
      </trkpt>
      <trkpt lat="44.38513" lon="5.14216">
        <ele>474.79998779297</ele>
        <time>2014-05-03T08:07:19.000Z</time>
      </trkpt>
      <trkpt lat="44.38519" lon="5.14232">
        <ele>471.79998779297</ele>
        <time>2014-05-03T08:07:23.000Z</time>
      </trkpt>
      <trkpt lat="44.38527" lon="5.14247">
        <ele>468.20001220703</ele>
        <time>2014-05-03T08:07:27.000Z</time>
      </trkpt>
      <trkpt lat="44.38532" lon="5.14261">
        <ele>464.20001220703</ele>
        <time>2014-05-03T08:07:30.000Z</time>
      </trkpt>
      <trkpt lat="44.38537" lon="5.14275">
        <ele>460.39999389648</ele>
        <time>2014-05-03T08:07:33.000Z</time>
      </trkpt>
      <trkpt lat="44.38542" lon="5.14286">
        <ele>456.79998779297</ele>
        <time>2014-05-03T08:07:36.000Z</time>
      </trkpt>
      <trkpt lat="44.38543" lon="5.14287">
        <ele>456</ele>
        <time>2014-05-03T08:07:37.000Z</time>
      </trkpt>
      <trkpt lat="44.38548" lon="5.14287">
        <ele>454.79998779297</ele>
        <time>2014-05-03T08:07:40.000Z</time>
      </trkpt>
      <trkpt lat="44.38557" lon="5.14298">
        <ele>452.60000610352</ele>
        <time>2014-05-03T08:07:43.000Z</time>
      </trkpt>
      <trkpt lat="44.38583" lon="5.14331">
        <ele>446.60000610352</ele>
        <time>2014-05-03T08:07:48.000Z</time>
      </trkpt>
      <trkpt lat="44.38597" lon="5.1435">
        <ele>441.20001220703</ele>
        <time>2014-05-03T08:07:51.000Z</time>
      </trkpt>
      <trkpt lat="44.38612" lon="5.1436">
        <ele>438</ele>
        <time>2014-05-03T08:07:55.000Z</time>
      </trkpt>
      <trkpt lat="44.38627" lon="5.1439">
        <ele>436.60000610352</ele>
        <time>2014-05-03T08:08:00.000Z</time>
      </trkpt>
      <trkpt lat="44.38635" lon="5.1442">
        <ele>433.39999389648</ele>
        <time>2014-05-03T08:08:05.000Z</time>
      </trkpt>
      <trkpt lat="44.38649" lon="5.14434">
        <ele>428.20001220703</ele>
        <time>2014-05-03T08:08:08.000Z</time>
      </trkpt>
      <trkpt lat="44.38671" lon="5.14453">
        <ele>423.39999389648</ele>
        <time>2014-05-03T08:08:11.000Z</time>
      </trkpt>
      <trkpt lat="44.38688" lon="5.1448">
        <ele>417.20001220703</ele>
        <time>2014-05-03T08:08:14.000Z</time>
      </trkpt>
      <trkpt lat="44.38699" lon="5.14499">
        <ele>412.79998779297</ele>
        <time>2014-05-03T08:08:16.000Z</time>
      </trkpt>
      <trkpt lat="44.38719" lon="5.14519">
        <ele>406.39999389648</ele>
        <time>2014-05-03T08:08:19.000Z</time>
      </trkpt>
      <trkpt lat="44.38727" lon="5.14552">
        <ele>402.60000610352</ele>
        <time>2014-05-03T08:08:26.000Z</time>
      </trkpt>
      <trkpt lat="44.38725" lon="5.14559">
        <ele>400.79998779297</ele>
        <time>2014-05-03T08:08:27.000Z</time>
      </trkpt>
      <trkpt lat="44.3872" lon="5.14577">
        <ele>397.79998779297</ele>
        <time>2014-05-03T08:08:29.000Z</time>
      </trkpt>
      <trkpt lat="44.38728" lon="5.14613">
        <ele>392</ele>
        <time>2014-05-03T08:08:32.000Z</time>
      </trkpt>
      <trkpt lat="44.38732" lon="5.14623">
        <ele>391.20001220703</ele>
        <time>2014-05-03T08:08:33.000Z</time>
      </trkpt>
      <trkpt lat="44.38738" lon="5.14644">
        <ele>389.79998779297</ele>
        <time>2014-05-03T08:08:36.000Z</time>
      </trkpt>
      <trkpt lat="44.38734" lon="5.14668">
        <ele>385.20001220703</ele>
        <time>2014-05-03T08:08:39.000Z</time>
      </trkpt>
      <trkpt lat="44.38729" lon="5.14682">
        <ele>382</ele>
        <time>2014-05-03T08:08:41.000Z</time>
      </trkpt>
      <trkpt lat="44.38727" lon="5.14697">
        <ele>380.20001220703</ele>
        <time>2014-05-03T08:08:44.000Z</time>
      </trkpt>
      <trkpt lat="44.38738" lon="5.14693">
        <ele>379.20001220703</ele>
        <time>2014-05-03T08:08:48.000Z</time>
      </trkpt>
      <trkpt lat="44.38759" lon="5.14658">
        <ele>379</ele>
        <time>2014-05-03T08:08:56.000Z</time>
      </trkpt>
      <trkpt lat="44.38783" lon="5.14636">
        <ele>381.39999389648</ele>
        <time>2014-05-03T08:09:05.000Z</time>
      </trkpt>
      <trkpt lat="44.38781" lon="5.14646">
        <ele>383.20001220703</ele>
        <time>2014-05-03T08:09:08.000Z</time>
      </trkpt>
      <trkpt lat="44.38766" lon="5.14674">
        <ele>383.79998779297</ele>
        <time>2014-05-03T08:09:15.000Z</time>
      </trkpt>
      <trkpt lat="44.38778" lon="5.14663">
        <ele>385</ele>
        <time>2014-05-03T08:09:23.000Z</time>
      </trkpt>
      <trkpt lat="44.38783" lon="5.14655">
        <ele>385.60000610352</ele>
        <time>2014-05-03T08:09:25.000Z</time>
      </trkpt>
      <trkpt lat="44.38809" lon="5.14601">
        <ele>386.79998779297</ele>
        <time>2014-05-03T08:09:39.000Z</time>
      </trkpt>
      <trkpt lat="44.38837" lon="5.14553">
        <ele>388.20001220703</ele>
        <time>2014-05-03T08:09:52.000Z</time>
      </trkpt>
      <trkpt lat="44.38856" lon="5.14526">
        <ele>391.60000610352</ele>
        <time>2014-05-03T08:10:00.000Z</time>
      </trkpt>
      <trkpt lat="44.38881" lon="5.14478">
        <ele>394.79998779297</ele>
        <time>2014-05-03T08:10:12.000Z</time>
      </trkpt>
      <trkpt lat="44.38902" lon="5.14441">
        <ele>398.20001220703</ele>
        <time>2014-05-03T08:10:22.000Z</time>
      </trkpt>
      <trkpt lat="44.38908" lon="5.14429">
        <ele>399.39999389648</ele>
        <time>2014-05-03T08:10:25.000Z</time>
      </trkpt>
      <trkpt lat="44.38916" lon="5.14393">
        <ele>399.79998779297</ele>
        <time>2014-05-03T08:10:32.000Z</time>
      </trkpt>
      <trkpt lat="44.38909" lon="5.14364">
        <ele>399.20001220703</ele>
        <time>2014-05-03T08:10:37.000Z</time>
      </trkpt>
      <trkpt lat="44.38904" lon="5.14352">
        <ele>397.79998779297</ele>
        <time>2014-05-03T08:10:39.000Z</time>
      </trkpt>
      <trkpt lat="44.3891" lon="5.14312">
        <ele>398.60000610352</ele>
        <time>2014-05-03T08:10:45.000Z</time>
      </trkpt>
      <trkpt lat="44.38914" lon="5.14307">
        <ele>398</ele>
        <time>2014-05-03T08:10:46.000Z</time>
      </trkpt>
      <trkpt lat="44.38943" lon="5.14261">
        <ele>397</ele>
        <time>2014-05-03T08:10:55.000Z</time>
      </trkpt>
      <trkpt lat="44.38954" lon="5.14259">
        <ele>398.20001220703</ele>
        <time>2014-05-03T08:10:57.000Z</time>
      </trkpt>
      <trkpt lat="44.38964" lon="5.14258">
        <ele>399</ele>
        <time>2014-05-03T08:10:59.000Z</time>
      </trkpt>
      <trkpt lat="44.38995" lon="5.14217">
        <ele>402.20001220703</ele>
        <time>2014-05-03T08:11:08.000Z</time>
      </trkpt>
      <trkpt lat="44.39" lon="5.14204">
        <ele>402.60000610352</ele>
        <time>2014-05-03T08:11:10.000Z</time>
      </trkpt>
      <trkpt lat="44.3901" lon="5.14165">
        <ele>402.79998779297</ele>
        <time>2014-05-03T08:11:16.000Z</time>
      </trkpt>
      <trkpt lat="44.39025" lon="5.14138">
        <ele>402.79998779297</ele>
        <time>2014-05-03T08:11:21.000Z</time>
      </trkpt>
      <trkpt lat="44.39059" lon="5.14123">
        <ele>405.60000610352</ele>
        <time>2014-05-03T08:11:31.000Z</time>
      </trkpt>
      <trkpt lat="44.39088" lon="5.14086">
        <ele>408.20001220703</ele>
        <time>2014-05-03T08:11:42.000Z</time>
      </trkpt>
      <trkpt lat="44.39113" lon="5.14056">
        <ele>411.20001220703</ele>
        <time>2014-05-03T08:11:52.000Z</time>
      </trkpt>
      <trkpt lat="44.39137" lon="5.14017">
        <ele>414.20001220703</ele>
        <time>2014-05-03T08:12:05.000Z</time>
      </trkpt>
      <trkpt lat="44.39141" lon="5.13999">
        <ele>414.20001220703</ele>
        <time>2014-05-03T08:12:08.000Z</time>
      </trkpt>
      <trkpt lat="44.39156" lon="5.13975">
        <ele>415</ele>
        <time>2014-05-03T08:12:13.000Z</time>
      </trkpt>
      <trkpt lat="44.39171" lon="5.1396">
        <ele>417</ele>
        <time>2014-05-03T08:12:18.000Z</time>
      </trkpt>
      <trkpt lat="44.39188" lon="5.13932">
        <ele>420</ele>
        <time>2014-05-03T08:12:26.000Z</time>
      </trkpt>
      <trkpt lat="44.39204" lon="5.13894">
        <ele>423</ele>
        <time>2014-05-03T08:12:36.000Z</time>
      </trkpt>
      <trkpt lat="44.39216" lon="5.13869">
        <ele>424.79998779297</ele>
        <time>2014-05-03T08:12:43.000Z</time>
      </trkpt>
      <trkpt lat="44.39196" lon="5.1386">
        <ele>427.60000610352</ele>
        <time>2014-05-03T08:12:53.000Z</time>
      </trkpt>
      <trkpt lat="44.39188" lon="5.13882">
        <ele>429</ele>
        <time>2014-05-03T08:12:59.000Z</time>
      </trkpt>
      <trkpt lat="44.39168" lon="5.13922">
        <ele>432.20001220703</ele>
        <time>2014-05-03T08:13:13.000Z</time>
      </trkpt>
      <trkpt lat="44.39162" lon="5.13929">
        <ele>433</ele>
        <time>2014-05-03T08:13:17.000Z</time>
      </trkpt>
      <trkpt lat="44.39139" lon="5.13944">
        <ele>436.20001220703</ele>
        <time>2014-05-03T08:13:30.000Z</time>
      </trkpt>
      <trkpt lat="44.39115" lon="5.13962">
        <ele>438</ele>
        <time>2014-05-03T08:13:37.000Z</time>
      </trkpt>
      <trkpt lat="44.39102" lon="5.13951">
        <ele>439</ele>
        <time>2014-05-03T08:13:42.000Z</time>
      </trkpt>
      <trkpt lat="44.39107" lon="5.13903">
        <ele>442.79998779297</ele>
        <time>2014-05-03T08:13:55.000Z</time>
      </trkpt>
      <trkpt lat="44.39111" lon="5.13857">
        <ele>445.79998779297</ele>
        <time>2014-05-03T08:14:09.000Z</time>
      </trkpt>
      <trkpt lat="44.39106" lon="5.13825">
        <ele>448.79998779297</ele>
        <time>2014-05-03T08:14:19.000Z</time>
      </trkpt>
      <trkpt lat="44.39095" lon="5.13769">
        <ele>452</ele>
        <time>2014-05-03T08:14:34.000Z</time>
      </trkpt>
      <trkpt lat="44.39095" lon="5.13733">
        <ele>455.20001220703</ele>
        <time>2014-05-03T08:14:44.000Z</time>
      </trkpt>
      <trkpt lat="44.39088" lon="5.13704">
        <ele>458.20001220703</ele>
        <time>2014-05-03T08:14:52.000Z</time>
      </trkpt>
      <trkpt lat="44.39082" lon="5.13662">
        <ele>461.60000610352</ele>
        <time>2014-05-03T08:15:04.000Z</time>
      </trkpt>
      <trkpt lat="44.39081" lon="5.13659">
        <ele>461.79998779297</ele>
        <time>2014-05-03T08:15:05.000Z</time>
      </trkpt>
      <trkpt lat="44.39078" lon="5.13629">
        <ele>465</ele>
        <time>2014-05-03T08:15:15.000Z</time>
      </trkpt>
      <trkpt lat="44.39085" lon="5.13594">
        <ele>466</ele>
        <time>2014-05-03T08:15:28.000Z</time>
      </trkpt>
      <trkpt lat="44.3909" lon="5.13587">
        <ele>469.39999389648</ele>
        <time>2014-05-03T08:15:31.000Z</time>
      </trkpt>
      <trkpt lat="44.39118" lon="5.13554">
        <ele>469.39999389648</ele>
        <time>2014-05-03T08:15:44.000Z</time>
      </trkpt>
      <trkpt lat="44.3914" lon="5.13513">
        <ele>469.60000610352</ele>
        <time>2014-05-03T08:15:54.000Z</time>
      </trkpt>
      <trkpt lat="44.39155" lon="5.13433">
        <ele>471.60000610352</ele>
        <time>2014-05-03T08:16:06.000Z</time>
      </trkpt>
      <trkpt lat="44.39162" lon="5.13412">
        <ele>471.60000610352</ele>
        <time>2014-05-03T08:16:09.000Z</time>
      </trkpt>
      <trkpt lat="44.39223" lon="5.13335">
        <ele>471.20001220703</ele>
        <time>2014-05-03T08:16:22.000Z</time>
      </trkpt>
      <trkpt lat="44.39256" lon="5.13323">
        <ele>467.79998779297</ele>
        <time>2014-05-03T08:16:27.000Z</time>
      </trkpt>
      <trkpt lat="44.3928" lon="5.13306">
        <ele>466.79998779297</ele>
        <time>2014-05-03T08:16:31.000Z</time>
      </trkpt>
      <trkpt lat="44.39322" lon="5.13267">
        <ele>463.20001220703</ele>
        <time>2014-05-03T08:16:37.000Z</time>
      </trkpt>
      <trkpt lat="44.39356" lon="5.1326">
        <ele>460.60000610352</ele>
        <time>2014-05-03T08:16:41.000Z</time>
      </trkpt>
      <trkpt lat="44.39369" lon="5.13262">
        <ele>459.60000610352</ele>
        <time>2014-05-03T08:16:43.000Z</time>
      </trkpt>
      <trkpt lat="44.39363" lon="5.13294">
        <ele>460.79998779297</ele>
        <time>2014-05-03T08:16:48.000Z</time>
      </trkpt>
      <trkpt lat="44.39351" lon="5.13301">
        <ele>461.60000610352</ele>
        <time>2014-05-03T08:16:50.000Z</time>
      </trkpt>
      <trkpt lat="44.39336" lon="5.13329">
        <ele>464.79998779297</ele>
        <time>2014-05-03T08:16:55.000Z</time>
      </trkpt>
      <trkpt lat="44.39354" lon="5.13339">
        <ele>466</ele>
        <time>2014-05-03T08:17:00.000Z</time>
      </trkpt>
      <trkpt lat="44.39363" lon="5.13336">
        <ele>466</ele>
        <time>2014-05-03T08:17:02.000Z</time>
      </trkpt>
      <trkpt lat="44.39397" lon="5.13324">
        <ele>469.39999389648</ele>
        <time>2014-05-03T08:17:12.000Z</time>
      </trkpt>
      <trkpt lat="44.39404" lon="5.13327">
        <ele>470.79998779297</ele>
        <time>2014-05-03T08:17:15.000Z</time>
      </trkpt>
      <trkpt lat="44.39429" lon="5.13331">
        <ele>474</ele>
        <time>2014-05-03T08:17:28.000Z</time>
      </trkpt>
      <trkpt lat="44.3943" lon="5.1333">
        <ele>474.39999389648</ele>
        <time>2014-05-03T08:17:29.000Z</time>
      </trkpt>
      <trkpt lat="44.39441" lon="5.13326">
        <ele>477.39999389648</ele>
        <time>2014-05-03T08:17:36.000Z</time>
      </trkpt>
      <trkpt lat="44.39456" lon="5.13318">
        <ele>480.79998779297</ele>
        <time>2014-05-03T08:17:46.000Z</time>
      </trkpt>
      <trkpt lat="44.39474" lon="5.1331">
        <ele>484</ele>
        <time>2014-05-03T08:17:59.000Z</time>
      </trkpt>
      <trkpt lat="44.39489" lon="5.13304">
        <ele>487</ele>
        <time>2014-05-03T08:18:10.000Z</time>
      </trkpt>
      <trkpt lat="44.39493" lon="5.13304">
        <ele>487.20001220703</ele>
        <time>2014-05-03T08:18:13.000Z</time>
      </trkpt>
      <trkpt lat="44.3951" lon="5.13299">
        <ele>490.79998779297</ele>
        <time>2014-05-03T08:18:28.000Z</time>
      </trkpt>
      <trkpt lat="44.39528" lon="5.13299">
        <ele>493.79998779297</ele>
        <time>2014-05-03T08:18:43.000Z</time>
      </trkpt>
      <trkpt lat="44.39538" lon="5.13297">
        <ele>495</ele>
        <time>2014-05-03T08:18:50.000Z</time>
      </trkpt>
      <trkpt lat="44.39547" lon="5.13293">
        <ele>496.39999389648</ele>
        <time>2014-05-03T08:18:57.000Z</time>
      </trkpt>
      <trkpt lat="44.39567" lon="5.13286">
        <ele>499.20001220703</ele>
        <time>2014-05-03T08:19:12.000Z</time>
      </trkpt>
      <trkpt lat="44.39585" lon="5.1327">
        <ele>501.60000610352</ele>
        <time>2014-05-03T08:19:23.000Z</time>
      </trkpt>
      <trkpt lat="44.39592" lon="5.13226">
        <ele>504.20001220703</ele>
        <time>2014-05-03T08:19:38.000Z</time>
      </trkpt>
      <trkpt lat="44.39602" lon="5.13188">
        <ele>507.39999389648</ele>
        <time>2014-05-03T08:19:52.000Z</time>
      </trkpt>
      <trkpt lat="44.39606" lon="5.13177">
        <ele>509.20001220703</ele>
        <time>2014-05-03T08:19:57.000Z</time>
      </trkpt>
      <trkpt lat="44.39612" lon="5.1316">
        <ele>512</ele>
        <time>2014-05-03T08:20:05.000Z</time>
      </trkpt>
      <trkpt lat="44.39621" lon="5.13137">
        <ele>515.40002441406</ele>
        <time>2014-05-03T08:20:16.000Z</time>
      </trkpt>
      <trkpt lat="44.39635" lon="5.13108">
        <ele>518.59997558594</ele>
        <time>2014-05-03T08:20:30.000Z</time>
      </trkpt>
      <trkpt lat="44.39637" lon="5.13106">
        <ele>519.20001220703</ele>
        <time>2014-05-03T08:20:31.000Z</time>
      </trkpt>
      <trkpt lat="44.39658" lon="5.1307">
        <ele>521.79998779297</ele>
        <time>2014-05-03T08:20:47.000Z</time>
      </trkpt>
      <trkpt lat="44.39672" lon="5.13036">
        <ele>524.79998779297</ele>
        <time>2014-05-03T08:21:00.000Z</time>
      </trkpt>
      <trkpt lat="44.39685" lon="5.13005">
        <ele>528</ele>
        <time>2014-05-03T08:21:14.000Z</time>
      </trkpt>
      <trkpt lat="44.39694" lon="5.12988">
        <ele>531</ele>
        <time>2014-05-03T08:21:23.000Z</time>
      </trkpt>
      <trkpt lat="44.39695" lon="5.12986">
        <ele>531.20001220703</ele>
        <time>2014-05-03T08:21:24.000Z</time>
      </trkpt>
      <trkpt lat="44.39707" lon="5.12964">
        <ele>534.59997558594</ele>
        <time>2014-05-03T08:21:36.000Z</time>
      </trkpt>
      <trkpt lat="44.39719" lon="5.12942">
        <ele>537.59997558594</ele>
        <time>2014-05-03T08:21:48.000Z</time>
      </trkpt>
      <trkpt lat="44.3974" lon="5.1291">
        <ele>540.59997558594</ele>
        <time>2014-05-03T08:22:06.000Z</time>
      </trkpt>
      <trkpt lat="44.3975" lon="5.12899">
        <ele>543.59997558594</ele>
        <time>2014-05-03T08:22:14.000Z</time>
      </trkpt>
      <trkpt lat="44.39759" lon="5.1288">
        <ele>546.79998779297</ele>
        <time>2014-05-03T08:22:25.000Z</time>
      </trkpt>
      <trkpt lat="44.39772" lon="5.12862">
        <ele>549.79998779297</ele>
        <time>2014-05-03T08:22:37.000Z</time>
      </trkpt>
      <trkpt lat="44.3979" lon="5.1285">
        <ele>552.79998779297</ele>
        <time>2014-05-03T08:22:50.000Z</time>
      </trkpt>
      <trkpt lat="44.39799" lon="5.12844">
        <ele>555</ele>
        <time>2014-05-03T08:22:56.000Z</time>
      </trkpt>
      <trkpt lat="44.39812" lon="5.12831">
        <ele>558</ele>
        <time>2014-05-03T08:23:06.000Z</time>
      </trkpt>
      <trkpt lat="44.39816" lon="5.12827">
        <ele>558.40002441406</ele>
        <time>2014-05-03T08:23:09.000Z</time>
      </trkpt>
      <trkpt lat="44.39822" lon="5.12824">
        <ele>559</ele>
        <time>2014-05-03T08:23:13.000Z</time>
      </trkpt>
      <trkpt lat="44.39846" lon="5.12818">
        <ele>562.59997558594</ele>
        <time>2014-05-03T08:23:28.000Z</time>
      </trkpt>
      <trkpt lat="44.39872" lon="5.12817">
        <ele>565.59997558594</ele>
        <time>2014-05-03T08:23:43.000Z</time>
      </trkpt>
      <trkpt lat="44.39885" lon="5.12822">
        <ele>568.59997558594</ele>
        <time>2014-05-03T08:23:54.000Z</time>
      </trkpt>
      <trkpt lat="44.39894" lon="5.12823">
        <ele>571.40002441406</ele>
        <time>2014-05-03T08:24:01.000Z</time>
      </trkpt>
      <trkpt lat="44.39911" lon="5.12804">
        <ele>574.40002441406</ele>
        <time>2014-05-03T08:24:15.000Z</time>
      </trkpt>
      <trkpt lat="44.39928" lon="5.12772">
        <ele>576.40002441406</ele>
        <time>2014-05-03T08:24:27.000Z</time>
      </trkpt>
      <trkpt lat="44.39926" lon="5.12738">
        <ele>578.59997558594</ele>
        <time>2014-05-03T08:24:36.000Z</time>
      </trkpt>
      <trkpt lat="44.39933" lon="5.12713">
        <ele>581.59997558594</ele>
        <time>2014-05-03T08:24:47.000Z</time>
      </trkpt>
      <trkpt lat="44.39939" lon="5.12685">
        <ele>583.40002441406</ele>
        <time>2014-05-03T08:25:00.000Z</time>
      </trkpt>
      <trkpt lat="44.39938" lon="5.12661">
        <ele>586.59997558594</ele>
        <time>2014-05-03T08:25:11.000Z</time>
      </trkpt>
      <trkpt lat="44.3995" lon="5.12633">
        <ele>589.79998779297</ele>
        <time>2014-05-03T08:25:27.000Z</time>
      </trkpt>
      <trkpt lat="44.39961" lon="5.1262">
        <ele>592.20001220703</ele>
        <time>2014-05-03T08:25:35.000Z</time>
      </trkpt>
      <trkpt lat="44.39974" lon="5.12607">
        <ele>595.59997558594</ele>
        <time>2014-05-03T08:25:44.000Z</time>
      </trkpt>
      <trkpt lat="44.39982" lon="5.12573">
        <ele>598</ele>
        <time>2014-05-03T08:25:57.000Z</time>
      </trkpt>
      <trkpt lat="44.40002" lon="5.12534">
        <ele>601</ele>
        <time>2014-05-03T08:26:09.000Z</time>
      </trkpt>
      <trkpt lat="44.40019" lon="5.12513">
        <ele>604.20001220703</ele>
        <time>2014-05-03T08:26:22.000Z</time>
      </trkpt>
      <trkpt lat="44.40035" lon="5.12496">
        <ele>607.40002441406</ele>
        <time>2014-05-03T08:26:33.000Z</time>
      </trkpt>
      <trkpt lat="44.40048" lon="5.12481">
        <ele>610.40002441406</ele>
        <time>2014-05-03T08:26:43.000Z</time>
      </trkpt>
      <trkpt lat="44.40057" lon="5.12466">
        <ele>612.79998779297</ele>
        <time>2014-05-03T08:26:50.000Z</time>
      </trkpt>
      <trkpt lat="44.40074" lon="5.12439">
        <ele>613</ele>
        <time>2014-05-03T08:27:02.000Z</time>
      </trkpt>
      <trkpt lat="44.4008" lon="5.12428">
        <ele>614.40002441406</ele>
        <time>2014-05-03T08:27:07.000Z</time>
      </trkpt>
      <trkpt lat="44.40091" lon="5.124">
        <ele>617.79998779297</ele>
        <time>2014-05-03T08:27:17.000Z</time>
      </trkpt>
      <trkpt lat="44.40104" lon="5.12382">
        <ele>621</ele>
        <time>2014-05-03T08:27:26.000Z</time>
      </trkpt>
      <trkpt lat="44.40121" lon="5.12359">
        <ele>623.59997558594</ele>
        <time>2014-05-03T08:27:38.000Z</time>
      </trkpt>
      <trkpt lat="44.40122" lon="5.12357">
        <ele>623.79998779297</ele>
        <time>2014-05-03T08:27:39.000Z</time>
      </trkpt>
      <trkpt lat="44.40123" lon="5.12354">
        <ele>624</ele>
        <time>2014-05-03T08:27:40.000Z</time>
      </trkpt>
      <trkpt lat="44.40127" lon="5.12345">
        <ele>625.79998779297</ele>
        <time>2014-05-03T08:27:44.000Z</time>
      </trkpt>
      <trkpt lat="44.40129" lon="5.12341">
        <ele>626.40002441406</ele>
        <time>2014-05-03T08:27:46.000Z</time>
      </trkpt>
      <trkpt lat="44.40133" lon="5.12333">
        <ele>628.20001220703</ele>
        <time>2014-05-03T08:27:50.000Z</time>
      </trkpt>
      <trkpt lat="44.4015" lon="5.12303">
        <ele>631.20001220703</ele>
        <time>2014-05-03T08:28:04.000Z</time>
      </trkpt>
      <trkpt lat="44.40161" lon="5.12281">
        <ele>634.20001220703</ele>
        <time>2014-05-03T08:28:15.000Z</time>
      </trkpt>
      <trkpt lat="44.40167" lon="5.12269">
        <ele>632.20001220703</ele>
        <time>2014-05-03T08:28:21.000Z</time>
      </trkpt>
      <trkpt lat="44.40174" lon="5.12258">
        <ele>635.20001220703</ele>
        <time>2014-05-03T08:28:27.000Z</time>
      </trkpt>
      <trkpt lat="44.40193" lon="5.12227">
        <ele>636.59997558594</ele>
        <time>2014-05-03T08:28:43.000Z</time>
      </trkpt>
      <trkpt lat="44.40207" lon="5.12194">
        <ele>638.40002441406</ele>
        <time>2014-05-03T08:28:56.000Z</time>
      </trkpt>
      <trkpt lat="44.40211" lon="5.12178">
        <ele>641</ele>
        <time>2014-05-03T08:29:01.000Z</time>
      </trkpt>
      <trkpt lat="44.40233" lon="5.12152">
        <ele>642.79998779297</ele>
        <time>2014-05-03T08:29:14.000Z</time>
      </trkpt>
      <trkpt lat="44.40259" lon="5.12131">
        <ele>645</ele>
        <time>2014-05-03T08:29:27.000Z</time>
      </trkpt>
      <trkpt lat="44.4027" lon="5.12118">
        <ele>648.20001220703</ele>
        <time>2014-05-03T08:29:34.000Z</time>
      </trkpt>
      <trkpt lat="44.40281" lon="5.12106">
        <ele>650.59997558594</ele>
        <time>2014-05-03T08:29:41.000Z</time>
      </trkpt>
      <trkpt lat="44.40303" lon="5.12087">
        <ele>650.79998779297</ele>
        <time>2014-05-03T08:29:54.000Z</time>
      </trkpt>
      <trkpt lat="44.40331" lon="5.1206">
        <ele>654.20001220703</ele>
        <time>2014-05-03T08:30:11.000Z</time>
      </trkpt>
      <trkpt lat="44.4034" lon="5.12042">
        <ele>657.20001220703</ele>
        <time>2014-05-03T08:30:19.000Z</time>
      </trkpt>
      <trkpt lat="44.40344" lon="5.12026">
        <ele>657.40002441406</ele>
        <time>2014-05-03T08:30:24.000Z</time>
      </trkpt>
      <trkpt lat="44.40353" lon="5.11994">
        <ele>654.20001220703</ele>
        <time>2014-05-03T08:30:29.000Z</time>
      </trkpt>
      <trkpt lat="44.40348" lon="5.11969">
        <ele>652.20001220703</ele>
        <time>2014-05-03T08:30:32.000Z</time>
      </trkpt>
      <trkpt lat="44.40341" lon="5.11952">
        <ele>651.59997558594</ele>
        <time>2014-05-03T08:30:34.000Z</time>
      </trkpt>
      <trkpt lat="44.40336" lon="5.11936">
        <ele>651.59997558594</ele>
        <time>2014-05-03T08:30:36.000Z</time>
      </trkpt>
      <trkpt lat="44.40314" lon="5.11908">
        <ele>653.59997558594</ele>
        <time>2014-05-03T08:30:44.000Z</time>
      </trkpt>
      <trkpt lat="44.40315" lon="5.11902">
        <ele>654.40002441406</ele>
        <time>2014-05-03T08:30:46.000Z</time>
      </trkpt>
      <trkpt lat="44.40322" lon="5.11889">
        <ele>655.40002441406</ele>
        <time>2014-05-03T08:30:51.000Z</time>
      </trkpt>
      <trkpt lat="44.40329" lon="5.11866">
        <ele>656.59997558594</ele>
        <time>2014-05-03T08:30:58.000Z</time>
      </trkpt>
      <trkpt lat="44.40334" lon="5.11856">
        <ele>658.20001220703</ele>
        <time>2014-05-03T08:31:02.000Z</time>
      </trkpt>
      <trkpt lat="44.40338" lon="5.1184">
        <ele>658.40002441406</ele>
        <time>2014-05-03T08:31:13.000Z</time>
      </trkpt>
      <trkpt lat="44.40337" lon="5.11839">
        <ele>656.40002441406</ele>
        <time>2014-05-03T08:31:21.000Z</time>
      </trkpt>
      <trkpt lat="44.40339" lon="5.11838">
        <ele>657</ele>
        <time>2014-05-03T08:31:43.000Z</time>
      </trkpt>
      <trkpt lat="44.40339" lon="5.11838">
        <ele>656.40002441406</ele>
        <time>2014-05-03T08:31:44.000Z</time>
      </trkpt>
      <trkpt lat="44.40353" lon="5.1182">
        <ele>655.40002441406</ele>
        <time>2014-05-03T08:31:59.000Z</time>
      </trkpt>
      <trkpt lat="44.40379" lon="5.11797">
        <ele>652.79998779297</ele>
        <time>2014-05-03T08:32:08.000Z</time>
      </trkpt>
      <trkpt lat="44.4039" lon="5.11784">
        <ele>651.40002441406</ele>
        <time>2014-05-03T08:32:13.000Z</time>
      </trkpt>
      <trkpt lat="44.404" lon="5.11773">
        <ele>650</ele>
        <time>2014-05-03T08:32:16.000Z</time>
      </trkpt>
      <trkpt lat="44.40413" lon="5.11753">
        <ele>647</ele>
        <time>2014-05-03T08:32:23.000Z</time>
      </trkpt>
      <trkpt lat="44.40418" lon="5.11746">
        <ele>646.40002441406</ele>
        <time>2014-05-03T08:32:25.000Z</time>
      </trkpt>
      <trkpt lat="44.40426" lon="5.11724">
        <ele>643.59997558594</ele>
        <time>2014-05-03T08:32:35.000Z</time>
      </trkpt>
      <trkpt lat="44.40425" lon="5.11724">
        <ele>643.20001220703</ele>
        <time>2014-05-03T08:32:36.000Z</time>
      </trkpt>
      <trkpt lat="44.40415" lon="5.11725">
        <ele>639.79998779297</ele>
        <time>2014-05-03T08:32:47.000Z</time>
      </trkpt>
      <trkpt lat="44.40412" lon="5.11722">
        <ele>638.20001220703</ele>
        <time>2014-05-03T08:33:00.000Z</time>
      </trkpt>
      <trkpt lat="44.40413" lon="5.11715">
        <ele>636</ele>
        <time>2014-05-03T08:33:06.000Z</time>
      </trkpt>
      <trkpt lat="44.40429" lon="5.11695">
        <ele>632.40002441406</ele>
        <time>2014-05-03T08:33:14.000Z</time>
      </trkpt>
      <trkpt lat="44.40434" lon="5.11688">
        <ele>628.79998779297</ele>
        <time>2014-05-03T08:33:16.000Z</time>
      </trkpt>
      <trkpt lat="44.4045" lon="5.11665">
        <ele>626.79998779297</ele>
        <time>2014-05-03T08:33:24.000Z</time>
      </trkpt>
      <trkpt lat="44.40465" lon="5.11641">
        <ele>624.59997558594</ele>
        <time>2014-05-03T08:33:35.000Z</time>
      </trkpt>
      <trkpt lat="44.40471" lon="5.11629">
        <ele>621.40002441406</ele>
        <time>2014-05-03T08:33:39.000Z</time>
      </trkpt>
      <trkpt lat="44.40479" lon="5.11614">
        <ele>618.40002441406</ele>
        <time>2014-05-03T08:33:44.000Z</time>
      </trkpt>
      <trkpt lat="44.4048" lon="5.11612">
        <ele>617.59997558594</ele>
        <time>2014-05-03T08:33:45.000Z</time>
      </trkpt>
      <trkpt lat="44.40486" lon="5.11601">
        <ele>614.20001220703</ele>
        <time>2014-05-03T08:33:52.000Z</time>
      </trkpt>
      <trkpt lat="44.40491" lon="5.11595">
        <ele>611.59997558594</ele>
        <time>2014-05-03T08:33:59.000Z</time>
      </trkpt>
      <trkpt lat="44.40498" lon="5.11586">
        <ele>608.59997558594</ele>
        <time>2014-05-03T08:34:10.000Z</time>
      </trkpt>
      <trkpt lat="44.40503" lon="5.11581">
        <ele>606.59997558594</ele>
        <time>2014-05-03T08:34:15.000Z</time>
      </trkpt>
      <trkpt lat="44.40511" lon="5.11566">
        <ele>602.79998779297</ele>
        <time>2014-05-03T08:34:21.000Z</time>
      </trkpt>
      <trkpt lat="44.40515" lon="5.11562">
        <ele>601.79998779297</ele>
        <time>2014-05-03T08:34:23.000Z</time>
      </trkpt>
      <trkpt lat="44.40516" lon="5.1156">
        <ele>604.40002441406</ele>
        <time>2014-05-03T08:34:26.000Z</time>
      </trkpt>
      <trkpt lat="44.40521" lon="5.11553">
        <ele>601.79998779297</ele>
        <time>2014-05-03T08:34:35.000Z</time>
      </trkpt>
      <trkpt lat="44.40523" lon="5.11546">
        <ele>601.59997558594</ele>
        <time>2014-05-03T08:34:43.000Z</time>
      </trkpt>
      <trkpt lat="44.40526" lon="5.1154">
        <ele>600</ele>
        <time>2014-05-03T08:34:46.000Z</time>
      </trkpt>
      <trkpt lat="44.40527" lon="5.11539">
        <ele>599.79998779297</ele>
        <time>2014-05-03T08:34:50.000Z</time>
      </trkpt>
      <trkpt lat="44.40532" lon="5.1153">
        <ele>598.79998779297</ele>
        <time>2014-05-03T08:34:54.000Z</time>
      </trkpt>
      <trkpt lat="44.40538" lon="5.1152">
        <ele>596.59997558594</ele>
        <time>2014-05-03T08:34:58.000Z</time>
      </trkpt>
      <trkpt lat="44.40543" lon="5.11509">
        <ele>594.40002441406</ele>
        <time>2014-05-03T08:35:02.000Z</time>
      </trkpt>
      <trkpt lat="44.4055" lon="5.11502">
        <ele>591</ele>
        <time>2014-05-03T08:35:06.000Z</time>
      </trkpt>
      <trkpt lat="44.40553" lon="5.11498">
        <ele>590.40002441406</ele>
        <time>2014-05-03T08:35:08.000Z</time>
      </trkpt>
      <trkpt lat="44.40556" lon="5.11492">
        <ele>588.59997558594</ele>
        <time>2014-05-03T08:35:12.000Z</time>
      </trkpt>
      <trkpt lat="44.40562" lon="5.1148">
        <ele>585.79998779297</ele>
        <time>2014-05-03T08:35:23.000Z</time>
      </trkpt>
      <trkpt lat="44.40567" lon="5.11469">
        <ele>583.79998779297</ele>
        <time>2014-05-03T08:35:32.000Z</time>
      </trkpt>
      <trkpt lat="44.40571" lon="5.1146">
        <ele>582.40002441406</ele>
        <time>2014-05-03T08:35:39.000Z</time>
      </trkpt>
      <trkpt lat="44.40577" lon="5.11449">
        <ele>579.40002441406</ele>
        <time>2014-05-03T08:35:53.000Z</time>
      </trkpt>
      <trkpt lat="44.40578" lon="5.11444">
        <ele>578.79998779297</ele>
        <time>2014-05-03T08:36:09.000Z</time>
      </trkpt>
      <trkpt lat="44.4058" lon="5.11437">
        <ele>577.79998779297</ele>
        <time>2014-05-03T08:36:12.000Z</time>
      </trkpt>
      <trkpt lat="44.4058" lon="5.11431">
        <ele>576.40002441406</ele>
        <time>2014-05-03T08:36:15.000Z</time>
      </trkpt>
      <trkpt lat="44.40584" lon="5.11423">
        <ele>574.59997558594</ele>
        <time>2014-05-03T08:36:19.000Z</time>
      </trkpt>
      <trkpt lat="44.40589" lon="5.11412">
        <ele>571.40002441406</ele>
        <time>2014-05-03T08:36:28.000Z</time>
      </trkpt>
      <trkpt lat="44.40596" lon="5.11398">
        <ele>568.40002441406</ele>
        <time>2014-05-03T08:36:41.000Z</time>
      </trkpt>
      <trkpt lat="44.40603" lon="5.11393">
        <ele>566.40002441406</ele>
        <time>2014-05-03T08:36:45.000Z</time>
      </trkpt>
      <trkpt lat="44.40613" lon="5.1139">
        <ele>564.59997558594</ele>
        <time>2014-05-03T08:36:54.000Z</time>
      </trkpt>
      <trkpt lat="44.40615" lon="5.11385">
        <ele>562</ele>
        <time>2014-05-03T08:37:05.000Z</time>
      </trkpt>
      <trkpt lat="44.40611" lon="5.11381">
        <ele>560.59997558594</ele>
        <time>2014-05-03T08:37:09.000Z</time>
      </trkpt>
      <trkpt lat="44.40608" lon="5.11379">
        <ele>560.40002441406</ele>
        <time>2014-05-03T08:37:11.000Z</time>
      </trkpt>
      <trkpt lat="44.40591" lon="5.11366">
        <ele>558</ele>
        <time>2014-05-03T08:37:18.000Z</time>
      </trkpt>
      <trkpt lat="44.40594" lon="5.11355">
        <ele>557</ele>
        <time>2014-05-03T08:37:27.000Z</time>
      </trkpt>
      <trkpt lat="44.406" lon="5.11349">
        <ele>560</ele>
        <time>2014-05-03T08:37:40.000Z</time>
      </trkpt>
      <trkpt lat="44.40603" lon="5.11345">
        <ele>560.20001220703</ele>
        <time>2014-05-03T08:37:47.000Z</time>
      </trkpt>
      <trkpt lat="44.4061" lon="5.1133">
        <ele>560.20001220703</ele>
        <time>2014-05-03T08:37:55.000Z</time>
      </trkpt>
      <trkpt lat="44.40619" lon="5.11315">
        <ele>560.79998779297</ele>
        <time>2014-05-03T08:38:03.000Z</time>
      </trkpt>
      <trkpt lat="44.40622" lon="5.11306">
        <ele>561</ele>
        <time>2014-05-03T08:38:07.000Z</time>
      </trkpt>
      <trkpt lat="44.40625" lon="5.11287">
        <ele>563.40002441406</ele>
        <time>2014-05-03T08:38:20.000Z</time>
      </trkpt>
      <trkpt lat="44.40634" lon="5.11284">
        <ele>561.40002441406</ele>
        <time>2014-05-03T08:38:25.000Z</time>
      </trkpt>
      <trkpt lat="44.40658" lon="5.11279">
        <ele>561.20001220703</ele>
        <time>2014-05-03T08:38:34.000Z</time>
      </trkpt>
      <trkpt lat="44.40666" lon="5.11257">
        <ele>559.40002441406</ele>
        <time>2014-05-03T08:38:44.000Z</time>
      </trkpt>
      <trkpt lat="44.4067" lon="5.11241">
        <ele>556.20001220703</ele>
        <time>2014-05-03T08:38:49.000Z</time>
      </trkpt>
      <trkpt lat="44.40676" lon="5.11228">
        <ele>552.79998779297</ele>
        <time>2014-05-03T08:38:55.000Z</time>
      </trkpt>
      <trkpt lat="44.40679" lon="5.1122">
        <ele>549.40002441406</ele>
        <time>2014-05-03T08:38:58.000Z</time>
      </trkpt>
      <trkpt lat="44.40682" lon="5.11213">
        <ele>546</ele>
        <time>2014-05-03T08:39:02.000Z</time>
      </trkpt>
      <trkpt lat="44.40682" lon="5.11211">
        <ele>545.20001220703</ele>
        <time>2014-05-03T08:39:04.000Z</time>
      </trkpt>
      <trkpt lat="44.40688" lon="5.11184">
        <ele>545</ele>
        <time>2014-05-03T08:39:16.000Z</time>
      </trkpt>
      <trkpt lat="44.40695" lon="5.11164">
        <ele>548.20001220703</ele>
        <time>2014-05-03T08:39:23.000Z</time>
      </trkpt>
      <trkpt lat="44.40694" lon="5.11159">
        <ele>546.79998779297</ele>
        <time>2014-05-03T08:39:27.000Z</time>
      </trkpt>
      <trkpt lat="44.40703" lon="5.11137">
        <ele>542.79998779297</ele>
        <time>2014-05-03T08:39:34.000Z</time>
      </trkpt>
      <trkpt lat="44.4071" lon="5.11131">
        <ele>541.40002441406</ele>
        <time>2014-05-03T08:39:36.000Z</time>
      </trkpt>
      <trkpt lat="44.4072" lon="5.11115">
        <ele>539.59997558594</ele>
        <time>2014-05-03T08:39:39.000Z</time>
      </trkpt>
      <trkpt lat="44.40726" lon="5.11084">
        <ele>536</ele>
        <time>2014-05-03T08:39:44.000Z</time>
      </trkpt>
      <trkpt lat="44.4073" lon="5.11058">
        <ele>533.20001220703</ele>
        <time>2014-05-03T08:39:48.000Z</time>
      </trkpt>
      <trkpt lat="44.40738" lon="5.11031">
        <ele>529.20001220703</ele>
        <time>2014-05-03T08:39:52.000Z</time>
      </trkpt>
      <trkpt lat="44.40743" lon="5.11012">
        <ele>527.20001220703</ele>
        <time>2014-05-03T08:39:55.000Z</time>
      </trkpt>
      <trkpt lat="44.40744" lon="5.11006">
        <ele>527.20001220703</ele>
        <time>2014-05-03T08:39:56.000Z</time>
      </trkpt>
      <trkpt lat="44.40754" lon="5.10988">
        <ele>525</ele>
        <time>2014-05-03T08:39:59.000Z</time>
      </trkpt>
      <trkpt lat="44.40759" lon="5.10971">
        <ele>523.40002441406</ele>
        <time>2014-05-03T08:40:02.000Z</time>
      </trkpt>
      <trkpt lat="44.40765" lon="5.10943">
        <ele>523.20001220703</ele>
        <time>2014-05-03T08:40:07.000Z</time>
      </trkpt>
      <trkpt lat="44.4077" lon="5.10912">
        <ele>519.79998779297</ele>
        <time>2014-05-03T08:40:12.000Z</time>
      </trkpt>
      <trkpt lat="44.40773" lon="5.10887">
        <ele>518</ele>
        <time>2014-05-03T08:40:16.000Z</time>
      </trkpt>
      <trkpt lat="44.40778" lon="5.10876">
        <ele>517.59997558594</ele>
        <time>2014-05-03T08:40:18.000Z</time>
      </trkpt>
      <trkpt lat="44.40781" lon="5.10859">
        <ele>515.79998779297</ele>
        <time>2014-05-03T08:40:22.000Z</time>
      </trkpt>
      <trkpt lat="44.40791" lon="5.10867">
        <ele>512</ele>
        <time>2014-05-03T08:40:29.000Z</time>
      </trkpt>
      <trkpt lat="44.40799" lon="5.10887">
        <ele>506.79998779297</ele>
        <time>2014-05-03T08:40:33.000Z</time>
      </trkpt>
      <trkpt lat="44.40805" lon="5.10902">
        <ele>503.39999389648</ele>
        <time>2014-05-03T08:40:36.000Z</time>
      </trkpt>
      <trkpt lat="44.40815" lon="5.10921">
        <ele>499.79998779297</ele>
        <time>2014-05-03T08:40:41.000Z</time>
      </trkpt>
      <trkpt lat="44.40818" lon="5.10925">
        <ele>498.79998779297</ele>
        <time>2014-05-03T08:40:42.000Z</time>
      </trkpt>
      <trkpt lat="44.40828" lon="5.10937">
        <ele>495.79998779297</ele>
        <time>2014-05-03T08:40:45.000Z</time>
      </trkpt>
      <trkpt lat="44.40835" lon="5.10945">
        <ele>495</ele>
        <time>2014-05-03T08:40:47.000Z</time>
      </trkpt>
      <trkpt lat="44.40848" lon="5.10957">
        <ele>494.39999389648</ele>
        <time>2014-05-03T08:40:52.000Z</time>
      </trkpt>
      <trkpt lat="44.40861" lon="5.1097">
        <ele>491.20001220703</ele>
        <time>2014-05-03T08:40:57.000Z</time>
      </trkpt>
      <trkpt lat="44.40862" lon="5.10971">
        <ele>491</ele>
        <time>2014-05-03T08:40:58.000Z</time>
      </trkpt>
      <trkpt lat="44.40866" lon="5.11">
        <ele>493</ele>
        <time>2014-05-03T08:41:12.000Z</time>
      </trkpt>
      <trkpt lat="44.40876" lon="5.11023">
        <ele>495</ele>
        <time>2014-05-03T08:41:22.000Z</time>
      </trkpt>
      <trkpt lat="44.40895" lon="5.11061">
        <ele>495.20001220703</ele>
        <time>2014-05-03T08:41:36.000Z</time>
      </trkpt>
      <trkpt lat="44.4091" lon="5.11084">
        <ele>498.79998779297</ele>
        <time>2014-05-03T08:41:45.000Z</time>
      </trkpt>
      <trkpt lat="44.40911" lon="5.11086">
        <ele>499.20001220703</ele>
        <time>2014-05-03T08:41:46.000Z</time>
      </trkpt>
      <trkpt lat="44.40915" lon="5.11093">
        <ele>500.39999389648</ele>
        <time>2014-05-03T08:41:49.000Z</time>
      </trkpt>
      <trkpt lat="44.40936" lon="5.11115">
        <ele>503</ele>
        <time>2014-05-03T08:42:04.000Z</time>
      </trkpt>
      <trkpt lat="44.40944" lon="5.11121">
        <ele>505.20001220703</ele>
        <time>2014-05-03T08:42:10.000Z</time>
      </trkpt>
      <trkpt lat="44.40948" lon="5.11124">
        <ele>506.20001220703</ele>
        <time>2014-05-03T08:42:13.000Z</time>
      </trkpt>
      <trkpt lat="44.40957" lon="5.11124">
        <ele>508.20001220703</ele>
        <time>2014-05-03T08:42:27.000Z</time>
      </trkpt>
      <trkpt lat="44.40957" lon="5.11123">
        <ele>508.20001220703</ele>
        <time>2014-05-03T08:42:53.000Z</time>
      </trkpt>
      <trkpt lat="44.40956" lon="5.11121">
        <ele>509.79998779297</ele>
        <time>2014-05-03T08:43:13.000Z</time>
      </trkpt>
      <trkpt lat="44.40956" lon="5.11122">
        <ele>509.79998779297</ele>
        <time>2014-05-03T08:43:16.000Z</time>
      </trkpt>
      <trkpt lat="44.40962" lon="5.11137">
        <ele>508.39999389648</ele>
        <time>2014-05-03T08:43:21.000Z</time>
      </trkpt>
      <trkpt lat="44.40967" lon="5.11164">
        <ele>503.79998779297</ele>
        <time>2014-05-03T08:43:25.000Z</time>
      </trkpt>
      <trkpt lat="44.40971" lon="5.11185">
        <ele>502.39999389648</ele>
        <time>2014-05-03T08:43:28.000Z</time>
      </trkpt>
      <trkpt lat="44.40978" lon="5.11219">
        <ele>505.60000610352</ele>
        <time>2014-05-03T08:43:33.000Z</time>
      </trkpt>
      <trkpt lat="44.4098" lon="5.11227">
        <ele>505.79998779297</ele>
        <time>2014-05-03T08:43:34.000Z</time>
      </trkpt>
      <trkpt lat="44.40987" lon="5.1126">
        <ele>508.79998779297</ele>
        <time>2014-05-03T08:43:39.000Z</time>
      </trkpt>
      <trkpt lat="44.40992" lon="5.1129">
        <ele>507.60000610352</ele>
        <time>2014-05-03T08:43:44.000Z</time>
      </trkpt>
      <trkpt lat="44.41001" lon="5.11321">
        <ele>504.20001220703</ele>
        <time>2014-05-03T08:43:49.000Z</time>
      </trkpt>
      <trkpt lat="44.41002" lon="5.11328">
        <ele>503.79998779297</ele>
        <time>2014-05-03T08:43:50.000Z</time>
      </trkpt>
      <trkpt lat="44.41005" lon="5.11373">
        <ele>506.39999389648</ele>
        <time>2014-05-03T08:43:57.000Z</time>
      </trkpt>
      <trkpt lat="44.41008" lon="5.11402">
        <ele>504.39999389648</ele>
        <time>2014-05-03T08:44:03.000Z</time>
      </trkpt>
      <trkpt lat="44.41011" lon="5.11418">
        <ele>507.60000610352</ele>
        <time>2014-05-03T08:44:07.000Z</time>
      </trkpt>
      <trkpt lat="44.41015" lon="5.11433">
        <ele>510.20001220703</ele>
        <time>2014-05-03T08:44:11.000Z</time>
      </trkpt>
      <trkpt lat="44.41025" lon="5.11475">
        <ele>510.60000610352</ele>
        <time>2014-05-03T08:44:21.000Z</time>
      </trkpt>
      <trkpt lat="44.41041" lon="5.11546">
        <ele>512.79998779297</ele>
        <time>2014-05-03T08:44:37.000Z</time>
      </trkpt>
      <trkpt lat="44.41062" lon="5.11564">
        <ele>515.79998779297</ele>
        <time>2014-05-03T08:44:47.000Z</time>
      </trkpt>
      <trkpt lat="44.41099" lon="5.1156">
        <ele>514.59997558594</ele>
        <time>2014-05-03T08:45:01.000Z</time>
      </trkpt>
      <trkpt lat="44.41113" lon="5.11558">
        <ele>518.20001220703</ele>
        <time>2014-05-03T08:45:06.000Z</time>
      </trkpt>
      <trkpt lat="44.41119" lon="5.11558">
        <ele>518.79998779297</ele>
        <time>2014-05-03T08:45:08.000Z</time>
      </trkpt>
      <trkpt lat="44.41156" lon="5.11559">
        <ele>519</ele>
        <time>2014-05-03T08:45:18.000Z</time>
      </trkpt>
      <trkpt lat="44.41189" lon="5.11566">
        <ele>520</ele>
        <time>2014-05-03T08:45:28.000Z</time>
      </trkpt>
      <trkpt lat="44.41223" lon="5.11595">
        <ele>522.79998779297</ele>
        <time>2014-05-03T08:45:40.000Z</time>
      </trkpt>
      <trkpt lat="44.41235" lon="5.11616">
        <ele>526.59997558594</ele>
        <time>2014-05-03T08:45:46.000Z</time>
      </trkpt>
      <trkpt lat="44.41254" lon="5.11648">
        <ele>523.40002441406</ele>
        <time>2014-05-03T08:45:55.000Z</time>
      </trkpt>
      <trkpt lat="44.41269" lon="5.11665">
        <ele>525.40002441406</ele>
        <time>2014-05-03T08:46:01.000Z</time>
      </trkpt>
      <trkpt lat="44.41298" lon="5.11692">
        <ele>525</ele>
        <time>2014-05-03T08:46:14.000Z</time>
      </trkpt>
      <trkpt lat="44.41313" lon="5.11704">
        <ele>528.59997558594</ele>
        <time>2014-05-03T08:46:21.000Z</time>
      </trkpt>
      <trkpt lat="44.41317" lon="5.11708">
        <ele>529.40002441406</ele>
        <time>2014-05-03T08:46:23.000Z</time>
      </trkpt>
      <trkpt lat="44.41346" lon="5.11755">
        <ele>530.59997558594</ele>
        <time>2014-05-03T08:46:40.000Z</time>
      </trkpt>
      <trkpt lat="44.41366" lon="5.11787">
        <ele>531.40002441406</ele>
        <time>2014-05-03T08:46:52.000Z</time>
      </trkpt>
      <trkpt lat="44.41379" lon="5.11805">
        <ele>534.20001220703</ele>
        <time>2014-05-03T08:47:00.000Z</time>
      </trkpt>
      <trkpt lat="44.41398" lon="5.11837">
        <ele>538</ele>
        <time>2014-05-03T08:47:13.000Z</time>
      </trkpt>
      <trkpt lat="44.41413" lon="5.11856">
        <ele>538.20001220703</ele>
        <time>2014-05-03T08:47:21.000Z</time>
      </trkpt>
      <trkpt lat="44.41437" lon="5.11889">
        <ele>535.59997558594</ele>
        <time>2014-05-03T08:47:34.000Z</time>
      </trkpt>
      <trkpt lat="44.41447" lon="5.11903">
        <ele>538.20001220703</ele>
        <time>2014-05-03T08:47:39.000Z</time>
      </trkpt>
      <trkpt lat="44.41485" lon="5.11956">
        <ele>539</ele>
        <time>2014-05-03T08:47:58.000Z</time>
      </trkpt>
      <trkpt lat="44.41517" lon="5.11981">
        <ele>542</ele>
        <time>2014-05-03T08:48:10.000Z</time>
      </trkpt>
      <trkpt lat="44.41568" lon="5.12009">
        <ele>544.79998779297</ele>
        <time>2014-05-03T08:48:27.000Z</time>
      </trkpt>
      <trkpt lat="44.41578" lon="5.12016">
        <ele>547.79998779297</ele>
        <time>2014-05-03T08:48:31.000Z</time>
      </trkpt>
      <trkpt lat="44.41628" lon="5.1204">
        <ele>550.20001220703</ele>
        <time>2014-05-03T08:48:49.000Z</time>
      </trkpt>
      <trkpt lat="44.41687" lon="5.12065">
        <ele>553.40002441406</ele>
        <time>2014-05-03T08:49:08.000Z</time>
      </trkpt>
      <trkpt lat="44.41695" lon="5.12066">
        <ele>555.20001220703</ele>
        <time>2014-05-03T08:49:11.000Z</time>
      </trkpt>
      <trkpt lat="44.41713" lon="5.12067">
        <ele>553.59997558594</ele>
        <time>2014-05-03T08:49:17.000Z</time>
      </trkpt>
      <trkpt lat="44.41729" lon="5.12068">
        <ele>555.20001220703</ele>
        <time>2014-05-03T08:49:24.000Z</time>
      </trkpt>
      <trkpt lat="44.41756" lon="5.12068">
        <ele>556.79998779297</ele>
        <time>2014-05-03T08:49:37.000Z</time>
      </trkpt>
      <trkpt lat="44.41786" lon="5.12063">
        <ele>559.79998779297</ele>
        <time>2014-05-03T08:49:50.000Z</time>
      </trkpt>
      <trkpt lat="44.41817" lon="5.12067">
        <ele>562.79998779297</ele>
        <time>2014-05-03T08:50:04.000Z</time>
      </trkpt>
      <trkpt lat="44.41859" lon="5.1208">
        <ele>565.59997558594</ele>
        <time>2014-05-03T08:50:22.000Z</time>
      </trkpt>
      <trkpt lat="44.41872" lon="5.12078">
        <ele>567.40002441406</ele>
        <time>2014-05-03T08:50:27.000Z</time>
      </trkpt>
      <trkpt lat="44.41883" lon="5.12075">
        <ele>569.20001220703</ele>
        <time>2014-05-03T08:50:31.000Z</time>
      </trkpt>
      <trkpt lat="44.41903" lon="5.1207">
        <ele>571</ele>
        <time>2014-05-03T08:50:37.000Z</time>
      </trkpt>
      <trkpt lat="44.41963" lon="5.12052">
        <ele>572.40002441406</ele>
        <time>2014-05-03T08:50:55.000Z</time>
      </trkpt>
      <trkpt lat="44.41979" lon="5.12046">
        <ele>575.59997558594</ele>
        <time>2014-05-03T08:51:01.000Z</time>
      </trkpt>
      <trkpt lat="44.41982" lon="5.12046">
        <ele>575.79998779297</ele>
        <time>2014-05-03T08:51:02.000Z</time>
      </trkpt>
      <trkpt lat="44.41992" lon="5.12044">
        <ele>577.20001220703</ele>
        <time>2014-05-03T08:51:05.000Z</time>
      </trkpt>
      <trkpt lat="44.42034" lon="5.1205">
        <ele>578.59997558594</ele>
        <time>2014-05-03T08:51:19.000Z</time>
      </trkpt>
      <trkpt lat="44.42087" lon="5.12039">
        <ele>581.59997558594</ele>
        <time>2014-05-03T08:51:38.000Z</time>
      </trkpt>
      <trkpt lat="44.42139" lon="5.12035">
        <ele>584</ele>
        <time>2014-05-03T08:51:55.000Z</time>
      </trkpt>
      <trkpt lat="44.42158" lon="5.12048">
        <ele>585.59997558594</ele>
        <time>2014-05-03T08:52:03.000Z</time>
      </trkpt>
      <trkpt lat="44.42197" lon="5.12044">
        <ele>588.40002441406</ele>
        <time>2014-05-03T08:52:19.000Z</time>
      </trkpt>
      <trkpt lat="44.42223" lon="5.12031">
        <ele>591.59997558594</ele>
        <time>2014-05-03T08:52:31.000Z</time>
      </trkpt>
      <trkpt lat="44.42254" lon="5.12035">
        <ele>593.40002441406</ele>
        <time>2014-05-03T08:52:44.000Z</time>
      </trkpt>
      <trkpt lat="44.42273" lon="5.12035">
        <ele>596</ele>
        <time>2014-05-03T08:52:52.000Z</time>
      </trkpt>
      <trkpt lat="44.42307" lon="5.12026">
        <ele>599.20001220703</ele>
        <time>2014-05-03T08:53:06.000Z</time>
      </trkpt>
      <trkpt lat="44.42316" lon="5.12022">
        <ele>602.79998779297</ele>
        <time>2014-05-03T08:53:10.000Z</time>
      </trkpt>
      <trkpt lat="44.42354" lon="5.12002">
        <ele>604.40002441406</ele>
        <time>2014-05-03T08:53:27.000Z</time>
      </trkpt>
      <trkpt lat="44.42378" lon="5.11978">
        <ele>607.40002441406</ele>
        <time>2014-05-03T08:53:40.000Z</time>
      </trkpt>
      <trkpt lat="44.42411" lon="5.11942">
        <ele>608.79998779297</ele>
        <time>2014-05-03T08:53:55.000Z</time>
      </trkpt>
      <trkpt lat="44.42443" lon="5.11902">
        <ele>607.59997558594</ele>
        <time>2014-05-03T08:54:08.000Z</time>
      </trkpt>
      <trkpt lat="44.42467" lon="5.11891">
        <ele>611.40002441406</ele>
        <time>2014-05-03T08:54:18.000Z</time>
      </trkpt>
      <trkpt lat="44.42476" lon="5.11889">
        <ele>613.20001220703</ele>
        <time>2014-05-03T08:54:21.000Z</time>
      </trkpt>
      <trkpt lat="44.42492" lon="5.11886">
        <ele>611.20001220703</ele>
        <time>2014-05-03T08:54:28.000Z</time>
      </trkpt>
      <trkpt lat="44.42504" lon="5.11885">
        <ele>614.40002441406</ele>
        <time>2014-05-03T08:54:34.000Z</time>
      </trkpt>
      <trkpt lat="44.42528" lon="5.11893">
        <ele>614.40002441406</ele>
        <time>2014-05-03T08:54:45.000Z</time>
      </trkpt>
      <trkpt lat="44.4254" lon="5.11894">
        <ele>617.40002441406</ele>
        <time>2014-05-03T08:54:51.000Z</time>
      </trkpt>
      <trkpt lat="44.42566" lon="5.11897">
        <ele>620.40002441406</ele>
        <time>2014-05-03T08:55:03.000Z</time>
      </trkpt>
      <trkpt lat="44.42581" lon="5.11897">
        <ele>623.59997558594</ele>
        <time>2014-05-03T08:55:10.000Z</time>
      </trkpt>
      <trkpt lat="44.42584" lon="5.11897">
        <ele>623.79998779297</ele>
        <time>2014-05-03T08:55:12.000Z</time>
      </trkpt>
      <trkpt lat="44.4258" lon="5.11907">
        <ele>625</ele>
        <time>2014-05-03T08:55:18.000Z</time>
      </trkpt>
      <trkpt lat="44.42569" lon="5.11915">
        <ele>628.40002441406</ele>
        <time>2014-05-03T08:55:24.000Z</time>
      </trkpt>
      <trkpt lat="44.42564" lon="5.11919">
        <ele>629</ele>
        <time>2014-05-03T08:55:27.000Z</time>
      </trkpt>
      <trkpt lat="44.42561" lon="5.11947">
        <ele>630.79998779297</ele>
        <time>2014-05-03T08:55:40.000Z</time>
      </trkpt>
      <trkpt lat="44.42549" lon="5.11968">
        <ele>634</ele>
        <time>2014-05-03T08:55:55.000Z</time>
      </trkpt>
      <trkpt lat="44.42538" lon="5.11972">
        <ele>637.20001220703</ele>
        <time>2014-05-03T08:56:02.000Z</time>
      </trkpt>
      <trkpt lat="44.42522" lon="5.11984">
        <ele>640.79998779297</ele>
        <time>2014-05-03T08:56:14.000Z</time>
      </trkpt>
      <trkpt lat="44.42504" lon="5.12006">
        <ele>643.79998779297</ele>
        <time>2014-05-03T08:56:28.000Z</time>
      </trkpt>
      <trkpt lat="44.42485" lon="5.12027">
        <ele>646.59997558594</ele>
        <time>2014-05-03T08:56:42.000Z</time>
      </trkpt>
      <trkpt lat="44.42468" lon="5.12042">
        <ele>649.79998779297</ele>
        <time>2014-05-03T08:56:53.000Z</time>
      </trkpt>
      <trkpt lat="44.42457" lon="5.12052">
        <ele>652.79998779297</ele>
        <time>2014-05-03T08:57:01.000Z</time>
      </trkpt>
      <trkpt lat="44.4244" lon="5.12068">
        <ele>655.79998779297</ele>
        <time>2014-05-03T08:57:13.000Z</time>
      </trkpt>
      <trkpt lat="44.42431" lon="5.12077">
        <ele>658.79998779297</ele>
        <time>2014-05-03T08:57:21.000Z</time>
      </trkpt>
      <trkpt lat="44.42429" lon="5.1208">
        <ele>659.40002441406</ele>
        <time>2014-05-03T08:57:23.000Z</time>
      </trkpt>
      <trkpt lat="44.42412" lon="5.12108">
        <ele>661.40002441406</ele>
        <time>2014-05-03T08:57:39.000Z</time>
      </trkpt>
      <trkpt lat="44.42403" lon="5.12129">
        <ele>664</ele>
        <time>2014-05-03T08:57:49.000Z</time>
      </trkpt>
      <trkpt lat="44.42399" lon="5.12162">
        <ele>667.20001220703</ele>
        <time>2014-05-03T08:58:03.000Z</time>
      </trkpt>
      <trkpt lat="44.42386" lon="5.12199">
        <ele>670</ele>
        <time>2014-05-03T08:58:20.000Z</time>
      </trkpt>
      <trkpt lat="44.42387" lon="5.12205">
        <ele>670.40002441406</ele>
        <time>2014-05-03T08:58:22.000Z</time>
      </trkpt>
      <trkpt lat="44.42397" lon="5.12204">
        <ele>671.79998779297</ele>
        <time>2014-05-03T08:58:30.000Z</time>
      </trkpt>
      <trkpt lat="44.42413" lon="5.12166">
        <ele>674</ele>
        <time>2014-05-03T08:58:44.000Z</time>
      </trkpt>
      <trkpt lat="44.42434" lon="5.12138">
        <ele>676.20001220703</ele>
        <time>2014-05-03T08:58:55.000Z</time>
      </trkpt>
      <trkpt lat="44.42435" lon="5.12154">
        <ele>677.79998779297</ele>
        <time>2014-05-03T08:59:03.000Z</time>
      </trkpt>
      <trkpt lat="44.42417" lon="5.12201">
        <ele>680</ele>
        <time>2014-05-03T08:59:18.000Z</time>
      </trkpt>
      <trkpt lat="44.42399" lon="5.12258">
        <ele>682.40002441406</ele>
        <time>2014-05-03T08:59:35.000Z</time>
      </trkpt>
      <trkpt lat="44.42396" lon="5.12262">
        <ele>683</ele>
        <time>2014-05-03T08:59:37.000Z</time>
      </trkpt>
      <trkpt lat="44.4238" lon="5.12259">
        <ele>685.59997558594</ele>
        <time>2014-05-03T08:59:48.000Z</time>
      </trkpt>
      <trkpt lat="44.42361" lon="5.12265">
        <ele>688.79998779297</ele>
        <time>2014-05-03T09:00:00.000Z</time>
      </trkpt>
      <trkpt lat="44.42354" lon="5.12286">
        <ele>690.79998779297</ele>
        <time>2014-05-03T09:00:12.000Z</time>
      </trkpt>
      <trkpt lat="44.42344" lon="5.12316">
        <ele>693</ele>
        <time>2014-05-03T09:00:26.000Z</time>
      </trkpt>
      <trkpt lat="44.42339" lon="5.12321">
        <ele>693</ele>
        <time>2014-05-03T09:00:30.000Z</time>
      </trkpt>
      <trkpt lat="44.42333" lon="5.12321">
        <ele>693</ele>
        <time>2014-05-03T09:00:34.000Z</time>
      </trkpt>
      <trkpt lat="44.42327" lon="5.12309">
        <ele>694.79998779297</ele>
        <time>2014-05-03T09:00:40.000Z</time>
      </trkpt>
      <trkpt lat="44.42322" lon="5.12289">
        <ele>698.20001220703</ele>
        <time>2014-05-03T09:00:48.000Z</time>
      </trkpt>
      <trkpt lat="44.4232" lon="5.12286">
        <ele>699</ele>
        <time>2014-05-03T09:00:50.000Z</time>
      </trkpt>
      <trkpt lat="44.42315" lon="5.12295">
        <ele>701.40002441406</ele>
        <time>2014-05-03T09:00:58.000Z</time>
      </trkpt>
      <trkpt lat="44.42316" lon="5.123">
        <ele>702.20001220703</ele>
        <time>2014-05-03T09:01:00.000Z</time>
      </trkpt>
      <trkpt lat="44.42316" lon="5.12302">
        <ele>702.40002441406</ele>
        <time>2014-05-03T09:01:01.000Z</time>
      </trkpt>
      <trkpt lat="44.42325" lon="5.12335">
        <ele>705.20001220703</ele>
        <time>2014-05-03T09:01:14.000Z</time>
      </trkpt>
      <trkpt lat="44.4233" lon="5.12364">
        <ele>706.79998779297</ele>
        <time>2014-05-03T09:01:27.000Z</time>
      </trkpt>
      <trkpt lat="44.42337" lon="5.12396">
        <ele>709.20001220703</ele>
        <time>2014-05-03T09:01:41.000Z</time>
      </trkpt>
      <trkpt lat="44.42353" lon="5.12402">
        <ele>712</ele>
        <time>2014-05-03T09:01:52.000Z</time>
      </trkpt>
      <trkpt lat="44.42369" lon="5.12397">
        <ele>715</ele>
        <time>2014-05-03T09:02:05.000Z</time>
      </trkpt>
      <trkpt lat="44.42386" lon="5.12393">
        <ele>718</ele>
        <time>2014-05-03T09:02:17.000Z</time>
      </trkpt>
      <trkpt lat="44.42387" lon="5.12392">
        <ele>718.40002441406</ele>
        <time>2014-05-03T09:02:18.000Z</time>
      </trkpt>
      <trkpt lat="44.42393" lon="5.12391">
        <ele>719.59997558594</ele>
        <time>2014-05-03T09:02:22.000Z</time>
      </trkpt>
      <trkpt lat="44.42407" lon="5.124">
        <ele>723</ele>
        <time>2014-05-03T09:02:33.000Z</time>
      </trkpt>
      <trkpt lat="44.42418" lon="5.12416">
        <ele>726.20001220703</ele>
        <time>2014-05-03T09:02:44.000Z</time>
      </trkpt>
      <trkpt lat="44.42426" lon="5.12421">
        <ele>729</ele>
        <time>2014-05-03T09:02:51.000Z</time>
      </trkpt>
      <trkpt lat="44.42429" lon="5.12424">
        <ele>729.59997558594</ele>
        <time>2014-05-03T09:02:53.000Z</time>
      </trkpt>
      <trkpt lat="44.42431" lon="5.12429">
        <ele>731.20001220703</ele>
        <time>2014-05-03T09:02:56.000Z</time>
      </trkpt>
      <trkpt lat="44.42422" lon="5.12442">
        <ele>733.40002441406</ele>
        <time>2014-05-03T09:03:07.000Z</time>
      </trkpt>
      <trkpt lat="44.42399" lon="5.12438">
        <ele>736.59997558594</ele>
        <time>2014-05-03T09:03:19.000Z</time>
      </trkpt>
      <trkpt lat="44.42379" lon="5.12453">
        <ele>738.79998779297</ele>
        <time>2014-05-03T09:03:33.000Z</time>
      </trkpt>
      <trkpt lat="44.4237" lon="5.12475">
        <ele>739.59997558594</ele>
        <time>2014-05-03T09:03:44.000Z</time>
      </trkpt>
      <trkpt lat="44.42375" lon="5.12481">
        <ele>739.59997558594</ele>
        <time>2014-05-03T09:03:49.000Z</time>
      </trkpt>
      <trkpt lat="44.42393" lon="5.12488">
        <ele>742.79998779297</ele>
        <time>2014-05-03T09:04:01.000Z</time>
      </trkpt>
      <trkpt lat="44.42411" lon="5.12492">
        <ele>747</ele>
        <time>2014-05-03T09:04:13.000Z</time>
      </trkpt>
      <trkpt lat="44.42416" lon="5.12494">
        <ele>748.40002441406</ele>
        <time>2014-05-03T09:04:16.000Z</time>
      </trkpt>
      <trkpt lat="44.42436" lon="5.12505">
        <ele>751.59997558594</ele>
        <time>2014-05-03T09:04:31.000Z</time>
      </trkpt>
      <trkpt lat="44.42444" lon="5.12511">
        <ele>754.59997558594</ele>
        <time>2014-05-03T09:04:39.000Z</time>
      </trkpt>
      <trkpt lat="44.42447" lon="5.12512">
        <ele>755.40002441406</ele>
        <time>2014-05-03T09:04:41.000Z</time>
      </trkpt>
      <trkpt lat="44.42459" lon="5.12487">
        <ele>757.40002441406</ele>
        <time>2014-05-03T09:04:55.000Z</time>
      </trkpt>
      <trkpt lat="44.42474" lon="5.12441">
        <ele>760</ele>
        <time>2014-05-03T09:05:14.000Z</time>
      </trkpt>
      <trkpt lat="44.42489" lon="5.12414">
        <ele>763.20001220703</ele>
        <time>2014-05-03T09:05:27.000Z</time>
      </trkpt>
      <trkpt lat="44.4249" lon="5.12412">
        <ele>763.40002441406</ele>
        <time>2014-05-03T09:05:28.000Z</time>
      </trkpt>
      <trkpt lat="44.42503" lon="5.12392">
        <ele>766.59997558594</ele>
        <time>2014-05-03T09:05:39.000Z</time>
      </trkpt>
      <trkpt lat="44.4251" lon="5.12383">
        <ele>769.20001220703</ele>
        <time>2014-05-03T09:05:44.000Z</time>
      </trkpt>
      <trkpt lat="44.42522" lon="5.12375">
        <ele>767.59997558594</ele>
        <time>2014-05-03T09:05:51.000Z</time>
      </trkpt>
      <trkpt lat="44.42522" lon="5.124">
        <ele>770.59997558594</ele>
        <time>2014-05-03T09:06:02.000Z</time>
      </trkpt>
      <trkpt lat="44.42516" lon="5.12417">
        <ele>772.40002441406</ele>
        <time>2014-05-03T09:06:11.000Z</time>
      </trkpt>
      <trkpt lat="44.42513" lon="5.12431">
        <ele>775.59997558594</ele>
        <time>2014-05-03T09:06:18.000Z</time>
      </trkpt>
      <trkpt lat="44.4251" lon="5.12459">
        <ele>776.20001220703</ele>
        <time>2014-05-03T09:06:33.000Z</time>
      </trkpt>
      <trkpt lat="44.42509" lon="5.12475">
        <ele>777.79998779297</ele>
        <time>2014-05-03T09:06:42.000Z</time>
      </trkpt>
      <trkpt lat="44.42508" lon="5.12483">
        <ele>780.40002441406</ele>
        <time>2014-05-03T09:06:46.000Z</time>
      </trkpt>
      <trkpt lat="44.42506" lon="5.12498">
        <ele>784.40002441406</ele>
        <time>2014-05-03T09:06:54.000Z</time>
      </trkpt>
      <trkpt lat="44.42506" lon="5.12504">
        <ele>785.59997558594</ele>
        <time>2014-05-03T09:06:57.000Z</time>
      </trkpt>
      <trkpt lat="44.42505" lon="5.12509">
        <ele>787</ele>
        <time>2014-05-03T09:07:00.000Z</time>
      </trkpt>
      <trkpt lat="44.42501" lon="5.1254">
        <ele>790.20001220703</ele>
        <time>2014-05-03T09:07:16.000Z</time>
      </trkpt>
      <trkpt lat="44.425" lon="5.12548">
        <ele>792</ele>
        <time>2014-05-03T09:07:20.000Z</time>
      </trkpt>
      <trkpt lat="44.42501" lon="5.12584">
        <ele>792.59997558594</ele>
        <time>2014-05-03T09:07:36.000Z</time>
      </trkpt>
      <trkpt lat="44.42503" lon="5.12601">
        <ele>796.20001220703</ele>
        <time>2014-05-03T09:07:43.000Z</time>
      </trkpt>
      <trkpt lat="44.42489" lon="5.12634">
        <ele>798.59997558594</ele>
        <time>2014-05-03T09:07:58.000Z</time>
      </trkpt>
      <trkpt lat="44.42463" lon="5.12628">
        <ele>799.79998779297</ele>
        <time>2014-05-03T09:08:11.000Z</time>
      </trkpt>
      <trkpt lat="44.42447" lon="5.12626">
        <ele>800.40002441406</ele>
        <time>2014-05-03T09:08:22.000Z</time>
      </trkpt>
      <trkpt lat="44.42442" lon="5.12636">
        <ele>802.40002441406</ele>
        <time>2014-05-03T09:08:29.000Z</time>
      </trkpt>
      <trkpt lat="44.42445" lon="5.12642">
        <ele>802.40002441406</ele>
        <time>2014-05-03T09:08:33.000Z</time>
      </trkpt>
      <trkpt lat="44.4245" lon="5.12654">
        <ele>805.59997558594</ele>
        <time>2014-05-03T09:08:39.000Z</time>
      </trkpt>
      <trkpt lat="44.42446" lon="5.12675">
        <ele>808.59997558594</ele>
        <time>2014-05-03T09:08:49.000Z</time>
      </trkpt>
      <trkpt lat="44.42428" lon="5.12708">
        <ele>810.20001220703</ele>
        <time>2014-05-03T09:09:02.000Z</time>
      </trkpt>
      <trkpt lat="44.42406" lon="5.12729">
        <ele>812.79998779297</ele>
        <time>2014-05-03T09:09:17.000Z</time>
      </trkpt>
      <trkpt lat="44.42396" lon="5.12735">
        <ele>813.79998779297</ele>
        <time>2014-05-03T09:09:24.000Z</time>
      </trkpt>
      <trkpt lat="44.424" lon="5.12747">
        <ele>816.59997558594</ele>
        <time>2014-05-03T09:09:32.000Z</time>
      </trkpt>
      <trkpt lat="44.42437" lon="5.12726">
        <ele>817.59997558594</ele>
        <time>2014-05-03T09:09:45.000Z</time>
      </trkpt>
      <trkpt lat="44.42466" lon="5.127">
        <ele>820.79998779297</ele>
        <time>2014-05-03T09:09:54.000Z</time>
      </trkpt>
      <trkpt lat="44.4249" lon="5.12685">
        <ele>823.79998779297</ele>
        <time>2014-05-03T09:10:06.000Z</time>
      </trkpt>
      <trkpt lat="44.42494" lon="5.12688">
        <ele>824.20001220703</ele>
        <time>2014-05-03T09:10:08.000Z</time>
      </trkpt>
      <trkpt lat="44.42492" lon="5.12703">
        <ele>825.59997558594</ele>
        <time>2014-05-03T09:10:15.000Z</time>
      </trkpt>
      <trkpt lat="44.42467" lon="5.12729">
        <ele>829</ele>
        <time>2014-05-03T09:10:29.000Z</time>
      </trkpt>
      <trkpt lat="44.42451" lon="5.12748">
        <ele>832.20001220703</ele>
        <time>2014-05-03T09:10:41.000Z</time>
      </trkpt>
      <trkpt lat="44.4243" lon="5.12775">
        <ele>835</ele>
        <time>2014-05-03T09:10:56.000Z</time>
      </trkpt>
      <trkpt lat="44.42402" lon="5.12803">
        <ele>837.40002441406</ele>
        <time>2014-05-03T09:11:13.000Z</time>
      </trkpt>
      <trkpt lat="44.42373" lon="5.12808">
        <ele>840.20001220703</ele>
        <time>2014-05-03T09:11:28.000Z</time>
      </trkpt>
      <trkpt lat="44.42342" lon="5.12825">
        <ele>842</ele>
        <time>2014-05-03T09:11:42.000Z</time>
      </trkpt>
      <trkpt lat="44.42319" lon="5.12839">
        <ele>845</ele>
        <time>2014-05-03T09:11:57.000Z</time>
      </trkpt>
      <trkpt lat="44.4231" lon="5.12848">
        <ele>847.20001220703</ele>
        <time>2014-05-03T09:12:03.000Z</time>
      </trkpt>
      <trkpt lat="44.42293" lon="5.12875">
        <ele>848.40002441406</ele>
        <time>2014-05-03T09:12:16.000Z</time>
      </trkpt>
      <trkpt lat="44.42274" lon="5.129">
        <ele>851.59997558594</ele>
        <time>2014-05-03T09:12:28.000Z</time>
      </trkpt>
      <trkpt lat="44.42241" lon="5.12927">
        <ele>854</ele>
        <time>2014-05-03T09:12:44.000Z</time>
      </trkpt>
      <trkpt lat="44.42213" lon="5.12948">
        <ele>857</ele>
        <time>2014-05-03T09:12:59.000Z</time>
      </trkpt>
      <trkpt lat="44.42176" lon="5.12979">
        <ele>858.79998779297</ele>
        <time>2014-05-03T09:13:15.000Z</time>
      </trkpt>
      <trkpt lat="44.4217" lon="5.12989">
        <ele>861.20001220703</ele>
        <time>2014-05-03T09:13:19.000Z</time>
      </trkpt>
      <trkpt lat="44.42165" lon="5.13003">
        <ele>864.20001220703</ele>
        <time>2014-05-03T09:13:26.000Z</time>
      </trkpt>
      <trkpt lat="44.42155" lon="5.13039">
        <ele>867.40002441406</ele>
        <time>2014-05-03T09:13:38.000Z</time>
      </trkpt>
      <trkpt lat="44.42154" lon="5.13044">
        <ele>867.79998779297</ele>
        <time>2014-05-03T09:13:39.000Z</time>
      </trkpt>
      <trkpt lat="44.42158" lon="5.13072">
        <ele>866</ele>
        <time>2014-05-03T09:13:43.000Z</time>
      </trkpt>
      <trkpt lat="44.42162" lon="5.13085">
        <ele>867.40002441406</ele>
        <time>2014-05-03T09:13:45.000Z</time>
      </trkpt>
      <trkpt lat="44.4216" lon="5.13117">
        <ele>866.20001220703</ele>
        <time>2014-05-03T09:13:54.000Z</time>
      </trkpt>
      <trkpt lat="44.42154" lon="5.1312">
        <ele>863</ele>
        <time>2014-05-03T09:14:05.000Z</time>
      </trkpt>
      <trkpt lat="44.42152" lon="5.13126">
        <ele>860.59997558594</ele>
        <time>2014-05-03T09:14:29.000Z</time>
      </trkpt>
      <trkpt lat="44.42153" lon="5.13125">
        <ele>863.59997558594</ele>
        <time>2014-05-03T09:14:57.000Z</time>
      </trkpt>
      <trkpt lat="44.42157" lon="5.1312">
        <ele>861.79998779297</ele>
        <time>2014-05-03T09:15:15.000Z</time>
      </trkpt>
      <trkpt lat="44.42157" lon="5.13119">
        <ele>861.59997558594</ele>
        <time>2014-05-03T09:15:16.000Z</time>
      </trkpt>
      <trkpt lat="44.42157" lon="5.13118">
        <ele>861.40002441406</ele>
        <time>2014-05-03T09:15:36.000Z</time>
      </trkpt>
      <trkpt lat="44.42156" lon="5.13121">
        <ele>863.20001220703</ele>
        <time>2014-05-03T09:15:44.000Z</time>
      </trkpt>
      <trkpt lat="44.42156" lon="5.13123">
        <ele>863.59997558594</ele>
        <time>2014-05-03T09:16:05.000Z</time>
      </trkpt>
      <trkpt lat="44.42157" lon="5.1312">
        <ele>861.40002441406</ele>
        <time>2014-05-03T09:16:24.000Z</time>
      </trkpt>
      <trkpt lat="44.42156" lon="5.13129">
        <ele>861.40002441406</ele>
        <time>2014-05-03T09:16:40.000Z</time>
      </trkpt>
      <trkpt lat="44.42153" lon="5.13146">
        <ele>863.59997558594</ele>
        <time>2014-05-03T09:16:44.000Z</time>
      </trkpt>
      <trkpt lat="44.42152" lon="5.13167">
        <ele>867.59997558594</ele>
        <time>2014-05-03T09:16:51.000Z</time>
      </trkpt>
      <trkpt lat="44.42152" lon="5.13172">
        <ele>868.20001220703</ele>
        <time>2014-05-03T09:16:53.000Z</time>
      </trkpt>
      <trkpt lat="44.42153" lon="5.13192">
        <ele>870.20001220703</ele>
        <time>2014-05-03T09:17:02.000Z</time>
      </trkpt>
      <trkpt lat="44.42152" lon="5.13198">
        <ele>871.20001220703</ele>
        <time>2014-05-03T09:17:05.000Z</time>
      </trkpt>
      <trkpt lat="44.42151" lon="5.13233">
        <ele>873.59997558594</ele>
        <time>2014-05-03T09:17:20.000Z</time>
      </trkpt>
      <trkpt lat="44.42149" lon="5.13238">
        <ele>874.40002441406</ele>
        <time>2014-05-03T09:17:22.000Z</time>
      </trkpt>
      <trkpt lat="44.4214" lon="5.13271">
        <ele>876.59997558594</ele>
        <time>2014-05-03T09:17:36.000Z</time>
      </trkpt>
      <trkpt lat="44.42139" lon="5.13297">
        <ele>879.59997558594</ele>
        <time>2014-05-03T09:17:45.000Z</time>
      </trkpt>
      <trkpt lat="44.42139" lon="5.133">
        <ele>880.59997558594</ele>
        <time>2014-05-03T09:17:46.000Z</time>
      </trkpt>
      <trkpt lat="44.42148" lon="5.13298">
        <ele>882.79998779297</ele>
        <time>2014-05-03T09:17:53.000Z</time>
      </trkpt>
      <trkpt lat="44.42166" lon="5.1326">
        <ele>884.20001220703</ele>
        <time>2014-05-03T09:18:08.000Z</time>
      </trkpt>
      <trkpt lat="44.42182" lon="5.13236">
        <ele>887.79998779297</ele>
        <time>2014-05-03T09:18:20.000Z</time>
      </trkpt>
      <trkpt lat="44.42183" lon="5.13234">
        <ele>888</ele>
        <time>2014-05-03T09:18:21.000Z</time>
      </trkpt>
      <trkpt lat="44.42195" lon="5.132">
        <ele>888.20001220703</ele>
        <time>2014-05-03T09:18:35.000Z</time>
      </trkpt>
      <trkpt lat="44.42201" lon="5.13192">
        <ele>888.20001220703</ele>
        <time>2014-05-03T09:18:39.000Z</time>
      </trkpt>
      <trkpt lat="44.42209" lon="5.13202">
        <ele>892</ele>
        <time>2014-05-03T09:18:45.000Z</time>
      </trkpt>
      <trkpt lat="44.42204" lon="5.13214">
        <ele>893</ele>
        <time>2014-05-03T09:18:51.000Z</time>
      </trkpt>
      <trkpt lat="44.42204" lon="5.13247">
        <ele>893.79998779297</ele>
        <time>2014-05-03T09:19:05.000Z</time>
      </trkpt>
      <trkpt lat="44.42205" lon="5.13253">
        <ele>890.79998779297</ele>
        <time>2014-05-03T09:19:08.000Z</time>
      </trkpt>
      <trkpt lat="44.42205" lon="5.13255">
        <ele>890.59997558594</ele>
        <time>2014-05-03T09:19:09.000Z</time>
      </trkpt>
      <trkpt lat="44.42207" lon="5.13263">
        <ele>894.59997558594</ele>
        <time>2014-05-03T09:19:13.000Z</time>
      </trkpt>
      <trkpt lat="44.42209" lon="5.13273">
        <ele>897.79998779297</ele>
        <time>2014-05-03T09:19:17.000Z</time>
      </trkpt>
      <trkpt lat="44.42207" lon="5.13286">
        <ele>900</ele>
        <time>2014-05-03T09:19:23.000Z</time>
      </trkpt>
      <trkpt lat="44.422" lon="5.13304">
        <ele>903.40002441406</ele>
        <time>2014-05-03T09:19:32.000Z</time>
      </trkpt>
      <trkpt lat="44.42193" lon="5.13317">
        <ele>905.40002441406</ele>
        <time>2014-05-03T09:19:39.000Z</time>
      </trkpt>
      <trkpt lat="44.42184" lon="5.1335">
        <ele>908.59997558594</ele>
        <time>2014-05-03T09:19:51.000Z</time>
      </trkpt>
      <trkpt lat="44.42178" lon="5.13377">
        <ele>911.59997558594</ele>
        <time>2014-05-03T09:20:00.000Z</time>
      </trkpt>
      <trkpt lat="44.42169" lon="5.13417">
        <ele>913.59997558594</ele>
        <time>2014-05-03T09:20:16.000Z</time>
      </trkpt>
      <trkpt lat="44.42169" lon="5.13451">
        <ele>916.79998779297</ele>
        <time>2014-05-03T09:20:29.000Z</time>
      </trkpt>
      <trkpt lat="44.42175" lon="5.13489">
        <ele>919.79998779297</ele>
        <time>2014-05-03T09:20:43.000Z</time>
      </trkpt>
      <trkpt lat="44.42174" lon="5.13523">
        <ele>923</ele>
        <time>2014-05-03T09:20:55.000Z</time>
      </trkpt>
      <trkpt lat="44.42176" lon="5.13561">
        <ele>924.79998779297</ele>
        <time>2014-05-03T09:21:08.000Z</time>
      </trkpt>
      <trkpt lat="44.42175" lon="5.13595">
        <ele>926.79998779297</ele>
        <time>2014-05-03T09:21:19.000Z</time>
      </trkpt>
      <trkpt lat="44.42164" lon="5.13645">
        <ele>928.59997558594</ele>
        <time>2014-05-03T09:21:33.000Z</time>
      </trkpt>
      <trkpt lat="44.42159" lon="5.1366">
        <ele>930</ele>
        <time>2014-05-03T09:21:38.000Z</time>
      </trkpt>
      <trkpt lat="44.42141" lon="5.13689">
        <ele>933.20001220703</ele>
        <time>2014-05-03T09:21:51.000Z</time>
      </trkpt>
      <trkpt lat="44.42125" lon="5.13709">
        <ele>936.20001220703</ele>
        <time>2014-05-03T09:22:03.000Z</time>
      </trkpt>
      <trkpt lat="44.421" lon="5.1373">
        <ele>939.20001220703</ele>
        <time>2014-05-03T09:22:19.000Z</time>
      </trkpt>
      <trkpt lat="44.42093" lon="5.13733">
        <ele>941</ele>
        <time>2014-05-03T09:22:23.000Z</time>
      </trkpt>
      <trkpt lat="44.42078" lon="5.13761">
        <ele>942.59997558594</ele>
        <time>2014-05-03T09:22:36.000Z</time>
      </trkpt>
      <trkpt lat="44.42074" lon="5.13805">
        <ele>945</ele>
        <time>2014-05-03T09:22:51.000Z</time>
      </trkpt>
      <trkpt lat="44.42063" lon="5.13839">
        <ele>948</ele>
        <time>2014-05-03T09:23:04.000Z</time>
      </trkpt>
      <trkpt lat="44.42061" lon="5.13873">
        <ele>951.20001220703</ele>
        <time>2014-05-03T09:23:15.000Z</time>
      </trkpt>
      <trkpt lat="44.42052" lon="5.13902">
        <ele>954.20001220703</ele>
        <time>2014-05-03T09:23:26.000Z</time>
      </trkpt>
      <trkpt lat="44.42017" lon="5.13946">
        <ele>955.79998779297</ele>
        <time>2014-05-03T09:23:44.000Z</time>
      </trkpt>
      <trkpt lat="44.42009" lon="5.13975">
        <ele>959</ele>
        <time>2014-05-03T09:23:57.000Z</time>
      </trkpt>
      <trkpt lat="44.42006" lon="5.14006">
        <ele>962.20001220703</ele>
        <time>2014-05-03T09:24:10.000Z</time>
      </trkpt>
      <trkpt lat="44.42005" lon="5.14032">
        <ele>965.59997558594</ele>
        <time>2014-05-03T09:24:20.000Z</time>
      </trkpt>
      <trkpt lat="44.42005" lon="5.1405">
        <ele>967.40002441406</ele>
        <time>2014-05-03T09:24:26.000Z</time>
      </trkpt>
      <trkpt lat="44.42007" lon="5.14113">
        <ele>967.79998779297</ele>
        <time>2014-05-03T09:24:43.000Z</time>
      </trkpt>
      <trkpt lat="44.42" lon="5.14165">
        <ele>970.40002441406</ele>
        <time>2014-05-03T09:24:59.000Z</time>
      </trkpt>
      <trkpt lat="44.41969" lon="5.14191">
        <ele>970.40002441406</ele>
        <time>2014-05-03T09:25:10.000Z</time>
      </trkpt>
      <trkpt lat="44.41934" lon="5.14222">
        <ele>968.40002441406</ele>
        <time>2014-05-03T09:25:17.000Z</time>
      </trkpt>
      <trkpt lat="44.4186" lon="5.14286">
        <ele>968</ele>
        <time>2014-05-03T09:25:31.000Z</time>
      </trkpt>
      <trkpt lat="44.41844" lon="5.14297">
        <ele>971.20001220703</ele>
        <time>2014-05-03T09:25:34.000Z</time>
      </trkpt>
      <trkpt lat="44.41799" lon="5.14343">
        <ele>972.79998779297</ele>
        <time>2014-05-03T09:25:46.000Z</time>
      </trkpt>
      <trkpt lat="44.41773" lon="5.14397">
        <ele>975.20001220703</ele>
        <time>2014-05-03T09:25:59.000Z</time>
      </trkpt>
      <trkpt lat="44.41754" lon="5.14443">
        <ele>977.20001220703</ele>
        <time>2014-05-03T09:26:08.000Z</time>
      </trkpt>
      <trkpt lat="44.41737" lon="5.14479">
        <ele>980.40002441406</ele>
        <time>2014-05-03T09:26:17.000Z</time>
      </trkpt>
      <trkpt lat="44.41733" lon="5.14485">
        <ele>981.40002441406</ele>
        <time>2014-05-03T09:26:19.000Z</time>
      </trkpt>
      <trkpt lat="44.41717" lon="5.14518">
        <ele>984.59997558594</ele>
        <time>2014-05-03T09:26:33.000Z</time>
      </trkpt>
      <trkpt lat="44.41713" lon="5.14529">
        <ele>987.20001220703</ele>
        <time>2014-05-03T09:26:39.000Z</time>
      </trkpt>
      <trkpt lat="44.417" lon="5.14553">
        <ele>989.79998779297</ele>
        <time>2014-05-03T09:26:56.000Z</time>
      </trkpt>
      <trkpt lat="44.41693" lon="5.14572">
        <ele>993</ele>
        <time>2014-05-03T09:27:17.000Z</time>
      </trkpt>
      <trkpt lat="44.4169" lon="5.14581">
        <ele>996.20001220703</ele>
        <time>2014-05-03T09:27:26.000Z</time>
      </trkpt>
      <trkpt lat="44.41689" lon="5.14585">
        <ele>997.59997558594</ele>
        <time>2014-05-03T09:27:29.000Z</time>
      </trkpt>
      <trkpt lat="44.41688" lon="5.14598">
        <ele>995.59997558594</ele>
        <time>2014-05-03T09:27:46.000Z</time>
      </trkpt>
      <trkpt lat="44.41687" lon="5.14607">
        <ele>995</ele>
        <time>2014-05-03T09:27:50.000Z</time>
      </trkpt>
      <trkpt lat="44.41686" lon="5.14624">
        <ele>991</ele>
        <time>2014-05-03T09:28:01.000Z</time>
      </trkpt>
      <trkpt lat="44.41687" lon="5.14629">
        <ele>988.79998779297</ele>
        <time>2014-05-03T09:28:04.000Z</time>
      </trkpt>
      <trkpt lat="44.41685" lon="5.1463">
        <ele>988.20001220703</ele>
        <time>2014-05-03T09:28:06.000Z</time>
      </trkpt>
      <trkpt lat="44.41682" lon="5.14627">
        <ele>988</ele>
        <time>2014-05-03T09:28:12.000Z</time>
      </trkpt>
      <trkpt lat="44.41678" lon="5.14628">
        <ele>987.20001220703</ele>
        <time>2014-05-03T09:28:16.000Z</time>
      </trkpt>
      <trkpt lat="44.41679" lon="5.14641">
        <ele>984.59997558594</ele>
        <time>2014-05-03T09:28:25.000Z</time>
      </trkpt>
      <trkpt lat="44.41676" lon="5.14642">
        <ele>984.40002441406</ele>
        <time>2014-05-03T09:28:27.000Z</time>
      </trkpt>
      <trkpt lat="44.41673" lon="5.14642">
        <ele>983</ele>
        <time>2014-05-03T09:28:29.000Z</time>
      </trkpt>
      <trkpt lat="44.4167" lon="5.14635">
        <ele>979.40002441406</ele>
        <time>2014-05-03T09:28:35.000Z</time>
      </trkpt>
      <trkpt lat="44.41663" lon="5.14638">
        <ele>975.59997558594</ele>
        <time>2014-05-03T09:28:39.000Z</time>
      </trkpt>
      <trkpt lat="44.41659" lon="5.14636">
        <ele>973.59997558594</ele>
        <time>2014-05-03T09:28:42.000Z</time>
      </trkpt>
      <trkpt lat="44.41657" lon="5.14635">
        <ele>972.59997558594</ele>
        <time>2014-05-03T09:28:44.000Z</time>
      </trkpt>
      <trkpt lat="44.41649" lon="5.14644">
        <ele>969.40002441406</ele>
        <time>2014-05-03T09:28:51.000Z</time>
      </trkpt>
      <trkpt lat="44.41658" lon="5.14655">
        <ele>966.20001220703</ele>
        <time>2014-05-03T09:28:58.000Z</time>
      </trkpt>
      <trkpt lat="44.41663" lon="5.14658">
        <ele>963.79998779297</ele>
        <time>2014-05-03T09:29:02.000Z</time>
      </trkpt>
      <trkpt lat="44.41668" lon="5.14662">
        <ele>960.40002441406</ele>
        <time>2014-05-03T09:29:07.000Z</time>
      </trkpt>
      <trkpt lat="44.41667" lon="5.1467">
        <ele>957</ele>
        <time>2014-05-03T09:29:14.000Z</time>
      </trkpt>
      <trkpt lat="44.41668" lon="5.14673">
        <ele>956.40002441406</ele>
        <time>2014-05-03T09:29:16.000Z</time>
      </trkpt>
      <trkpt lat="44.41674" lon="5.14677">
        <ele>953.59997558594</ele>
        <time>2014-05-03T09:29:22.000Z</time>
      </trkpt>
      <trkpt lat="44.41673" lon="5.14682">
        <ele>950.79998779297</ele>
        <time>2014-05-03T09:29:26.000Z</time>
      </trkpt>
      <trkpt lat="44.4167" lon="5.14689">
        <ele>947.20001220703</ele>
        <time>2014-05-03T09:29:36.000Z</time>
      </trkpt>
      <trkpt lat="44.4167" lon="5.14688">
        <ele>946</ele>
        <time>2014-05-03T09:29:39.000Z</time>
      </trkpt>
      <trkpt lat="44.41672" lon="5.1469">
        <ele>944.79998779297</ele>
        <time>2014-05-03T09:29:44.000Z</time>
      </trkpt>
      <trkpt lat="44.41679" lon="5.14698">
        <ele>940.59997558594</ele>
        <time>2014-05-03T09:29:50.000Z</time>
      </trkpt>
      <trkpt lat="44.4168" lon="5.147">
        <ele>938.79998779297</ele>
        <time>2014-05-03T09:29:57.000Z</time>
      </trkpt>
      <trkpt lat="44.41678" lon="5.14701">
        <ele>938</ele>
        <time>2014-05-03T09:29:59.000Z</time>
      </trkpt>
      <trkpt lat="44.41679" lon="5.14708">
        <ele>935</ele>
        <time>2014-05-03T09:30:12.000Z</time>
      </trkpt>
      <trkpt lat="44.41683" lon="5.14709">
        <ele>932.79998779297</ele>
        <time>2014-05-03T09:30:18.000Z</time>
      </trkpt>
      <trkpt lat="44.41684" lon="5.14712">
        <ele>932.20001220703</ele>
        <time>2014-05-03T09:30:21.000Z</time>
      </trkpt>
      <trkpt lat="44.41685" lon="5.14719">
        <ele>929.59997558594</ele>
        <time>2014-05-03T09:30:29.000Z</time>
      </trkpt>
      <trkpt lat="44.4169" lon="5.14723">
        <ele>925.40002441406</ele>
        <time>2014-05-03T09:30:32.000Z</time>
      </trkpt>
      <trkpt lat="44.41701" lon="5.14732">
        <ele>922.40002441406</ele>
        <time>2014-05-03T09:30:37.000Z</time>
      </trkpt>
      <trkpt lat="44.41708" lon="5.1474">
        <ele>918.59997558594</ele>
        <time>2014-05-03T09:30:44.000Z</time>
      </trkpt>
      <trkpt lat="44.41696" lon="5.14746">
        <ele>916.40002441406</ele>
        <time>2014-05-03T09:30:56.000Z</time>
      </trkpt>
      <trkpt lat="44.41693" lon="5.14749">
        <ele>913</ele>
        <time>2014-05-03T09:31:03.000Z</time>
      </trkpt>
      <trkpt lat="44.41695" lon="5.14751">
        <ele>911.79998779297</ele>
        <time>2014-05-03T09:31:05.000Z</time>
      </trkpt>
      <trkpt lat="44.41703" lon="5.14759">
        <ele>908.79998779297</ele>
        <time>2014-05-03T09:31:11.000Z</time>
      </trkpt>
      <trkpt lat="44.41713" lon="5.14764">
        <ele>906.59997558594</ele>
        <time>2014-05-03T09:31:16.000Z</time>
      </trkpt>
      <trkpt lat="44.41725" lon="5.1477">
        <ele>903.79998779297</ele>
        <time>2014-05-03T09:31:29.000Z</time>
      </trkpt>
      <trkpt lat="44.41734" lon="5.14775">
        <ele>900.59997558594</ele>
        <time>2014-05-03T09:31:42.000Z</time>
      </trkpt>
      <trkpt lat="44.41744" lon="5.14787">
        <ele>897.40002441406</ele>
        <time>2014-05-03T09:31:49.000Z</time>
      </trkpt>
      <trkpt lat="44.41752" lon="5.14794">
        <ele>893.79998779297</ele>
        <time>2014-05-03T09:31:52.000Z</time>
      </trkpt>
      <trkpt lat="44.41764" lon="5.14802">
        <ele>890.40002441406</ele>
        <time>2014-05-03T09:31:56.000Z</time>
      </trkpt>
      <trkpt lat="44.41771" lon="5.14808">
        <ele>887</ele>
        <time>2014-05-03T09:31:59.000Z</time>
      </trkpt>
      <trkpt lat="44.41774" lon="5.1481">
        <ele>886.20001220703</ele>
        <time>2014-05-03T09:32:01.000Z</time>
      </trkpt>
      <trkpt lat="44.41789" lon="5.14819">
        <ele>883.40002441406</ele>
        <time>2014-05-03T09:32:07.000Z</time>
      </trkpt>
      <trkpt lat="44.418" lon="5.14827">
        <ele>878.40002441406</ele>
        <time>2014-05-03T09:32:10.000Z</time>
      </trkpt>
      <trkpt lat="44.41814" lon="5.14841">
        <ele>874.59997558594</ele>
        <time>2014-05-03T09:32:15.000Z</time>
      </trkpt>
      <trkpt lat="44.41821" lon="5.1485">
        <ele>872.59997558594</ele>
        <time>2014-05-03T09:32:18.000Z</time>
      </trkpt>
      <trkpt lat="44.4183" lon="5.14865">
        <ele>869.20001220703</ele>
        <time>2014-05-03T09:32:23.000Z</time>
      </trkpt>
      <trkpt lat="44.41836" lon="5.14875">
        <ele>866</ele>
        <time>2014-05-03T09:32:26.000Z</time>
      </trkpt>
      <trkpt lat="44.41842" lon="5.14887">
        <ele>863.20001220703</ele>
        <time>2014-05-03T09:32:29.000Z</time>
      </trkpt>
      <trkpt lat="44.4186" lon="5.14899">
        <ele>859.79998779297</ele>
        <time>2014-05-03T09:32:35.000Z</time>
      </trkpt>
      <trkpt lat="44.41864" lon="5.14903">
        <ele>858.79998779297</ele>
        <time>2014-05-03T09:32:36.000Z</time>
      </trkpt>
      <trkpt lat="44.4188" lon="5.1492">
        <ele>854</ele>
        <time>2014-05-03T09:32:40.000Z</time>
      </trkpt>
      <trkpt lat="44.41891" lon="5.14933">
        <ele>849.59997558594</ele>
        <time>2014-05-03T09:32:43.000Z</time>
      </trkpt>
      <trkpt lat="44.41901" lon="5.14947">
        <ele>844.40002441406</ele>
        <time>2014-05-03T09:32:46.000Z</time>
      </trkpt>
      <trkpt lat="44.41913" lon="5.14962">
        <ele>838.40002441406</ele>
        <time>2014-05-03T09:32:50.000Z</time>
      </trkpt>
      <trkpt lat="44.41924" lon="5.14985">
        <ele>834.79998779297</ele>
        <time>2014-05-03T09:32:55.000Z</time>
      </trkpt>
      <trkpt lat="44.41934" lon="5.14998">
        <ele>830</ele>
        <time>2014-05-03T09:32:58.000Z</time>
      </trkpt>
      <trkpt lat="44.41941" lon="5.15006">
        <ele>826.20001220703</ele>
        <time>2014-05-03T09:33:00.000Z</time>
      </trkpt>
      <trkpt lat="44.41954" lon="5.15015">
        <ele>822.20001220703</ele>
        <time>2014-05-03T09:33:03.000Z</time>
      </trkpt>
      <trkpt lat="44.4197" lon="5.15032">
        <ele>817.40002441406</ele>
        <time>2014-05-03T09:33:07.000Z</time>
      </trkpt>
      <trkpt lat="44.41974" lon="5.15037">
        <ele>815.40002441406</ele>
        <time>2014-05-03T09:33:08.000Z</time>
      </trkpt>
      <trkpt lat="44.41981" lon="5.15048">
        <ele>813.20001220703</ele>
        <time>2014-05-03T09:33:10.000Z</time>
      </trkpt>
      <trkpt lat="44.41989" lon="5.15059">
        <ele>812.40002441406</ele>
        <time>2014-05-03T09:33:12.000Z</time>
      </trkpt>
      <trkpt lat="44.42007" lon="5.15083">
        <ele>806.59997558594</ele>
        <time>2014-05-03T09:33:16.000Z</time>
      </trkpt>
      <trkpt lat="44.42012" lon="5.15089">
        <ele>801.59997558594</ele>
        <time>2014-05-03T09:33:17.000Z</time>
      </trkpt>
      <trkpt lat="44.42016" lon="5.15094">
        <ele>797.79998779297</ele>
        <time>2014-05-03T09:33:18.000Z</time>
      </trkpt>
      <trkpt lat="44.42024" lon="5.15106">
        <ele>794.20001220703</ele>
        <time>2014-05-03T09:33:20.000Z</time>
      </trkpt>
      <trkpt lat="44.42034" lon="5.15118">
        <ele>796.79998779297</ele>
        <time>2014-05-03T09:33:22.000Z</time>
      </trkpt>
      <trkpt lat="44.42048" lon="5.15144">
        <ele>792.79998779297</ele>
        <time>2014-05-03T09:33:26.000Z</time>
      </trkpt>
      <trkpt lat="44.42055" lon="5.15158">
        <ele>789.59997558594</ele>
        <time>2014-05-03T09:33:28.000Z</time>
      </trkpt>
      <trkpt lat="44.4206" lon="5.15188">
        <ele>784.79998779297</ele>
        <time>2014-05-03T09:33:33.000Z</time>
      </trkpt>
      <trkpt lat="44.4206" lon="5.15194">
        <ele>784.20001220703</ele>
        <time>2014-05-03T09:33:34.000Z</time>
      </trkpt>
      <trkpt lat="44.42062" lon="5.15206">
        <ele>782</ele>
        <time>2014-05-03T09:33:36.000Z</time>
      </trkpt>
      <trkpt lat="44.42062" lon="5.15247">
        <ele>777.79998779297</ele>
        <time>2014-05-03T09:33:43.000Z</time>
      </trkpt>
      <trkpt lat="44.42055" lon="5.15255">
        <ele>773.59997558594</ele>
        <time>2014-05-03T09:33:45.000Z</time>
      </trkpt>
      <trkpt lat="44.4205" lon="5.15259">
        <ele>772.20001220703</ele>
        <time>2014-05-03T09:33:46.000Z</time>
      </trkpt>
      <trkpt lat="44.42039" lon="5.15269">
        <ele>768</ele>
        <time>2014-05-03T09:33:49.000Z</time>
      </trkpt>
      <trkpt lat="44.42032" lon="5.15274">
        <ele>765.20001220703</ele>
        <time>2014-05-03T09:33:51.000Z</time>
      </trkpt>
      <trkpt lat="44.42019" lon="5.15288">
        <ele>759</ele>
        <time>2014-05-03T09:33:55.000Z</time>
      </trkpt>
      <trkpt lat="44.42012" lon="5.15299">
        <ele>756</ele>
        <time>2014-05-03T09:33:58.000Z</time>
      </trkpt>
      <trkpt lat="44.42001" lon="5.15313">
        <ele>752.20001220703</ele>
        <time>2014-05-03T09:34:04.000Z</time>
      </trkpt>
      <trkpt lat="44.41991" lon="5.15316">
        <ele>747.79998779297</ele>
        <time>2014-05-03T09:34:07.000Z</time>
      </trkpt>
      <trkpt lat="44.4198" lon="5.15328">
        <ele>743.20001220703</ele>
        <time>2014-05-03T09:34:11.000Z</time>
      </trkpt>
      <trkpt lat="44.4196" lon="5.15337">
        <ele>737.79998779297</ele>
        <time>2014-05-03T09:34:16.000Z</time>
      </trkpt>
      <trkpt lat="44.4194" lon="5.15329">
        <ele>733.20001220703</ele>
        <time>2014-05-03T09:34:20.000Z</time>
      </trkpt>
      <trkpt lat="44.41935" lon="5.15334">
        <ele>732.59997558594</ele>
        <time>2014-05-03T09:34:22.000Z</time>
      </trkpt>
      <trkpt lat="44.41924" lon="5.15338">
        <ele>729.40002441406</ele>
        <time>2014-05-03T09:34:25.000Z</time>
      </trkpt>
      <trkpt lat="44.41905" lon="5.15338">
        <ele>726.20001220703</ele>
        <time>2014-05-03T09:34:29.000Z</time>
      </trkpt>
      <trkpt lat="44.41888" lon="5.15351">
        <ele>721.59997558594</ele>
        <time>2014-05-03T09:34:34.000Z</time>
      </trkpt>
      <trkpt lat="44.41876" lon="5.15355">
        <ele>717.79998779297</ele>
        <time>2014-05-03T09:34:37.000Z</time>
      </trkpt>
      <trkpt lat="44.41873" lon="5.15355">
        <ele>716.59997558594</ele>
        <time>2014-05-03T09:34:38.000Z</time>
      </trkpt>
      <trkpt lat="44.41867" lon="5.15353">
        <ele>714.40002441406</ele>
        <time>2014-05-03T09:34:40.000Z</time>
      </trkpt>
      <trkpt lat="44.41857" lon="5.15361">
        <ele>710.40002441406</ele>
        <time>2014-05-03T09:34:44.000Z</time>
      </trkpt>
      <trkpt lat="44.41835" lon="5.15379">
        <ele>704.40002441406</ele>
        <time>2014-05-03T09:34:49.000Z</time>
      </trkpt>
      <trkpt lat="44.41826" lon="5.15387">
        <ele>701</ele>
        <time>2014-05-03T09:34:52.000Z</time>
      </trkpt>
      <trkpt lat="44.41816" lon="5.15396">
        <ele>697</ele>
        <time>2014-05-03T09:34:55.000Z</time>
      </trkpt>
      <trkpt lat="44.41801" lon="5.15404">
        <ele>692.79998779297</ele>
        <time>2014-05-03T09:34:59.000Z</time>
      </trkpt>
      <trkpt lat="44.41789" lon="5.15408">
        <ele>689.20001220703</ele>
        <time>2014-05-03T09:35:03.000Z</time>
      </trkpt>
      <trkpt lat="44.41783" lon="5.15411">
        <ele>686</ele>
        <time>2014-05-03T09:35:06.000Z</time>
      </trkpt>
      <trkpt lat="44.41768" lon="5.15414">
        <ele>681.40002441406</ele>
        <time>2014-05-03T09:35:10.000Z</time>
      </trkpt>
      <trkpt lat="44.41759" lon="5.15416">
        <ele>677.59997558594</ele>
        <time>2014-05-03T09:35:13.000Z</time>
      </trkpt>
      <trkpt lat="44.41746" lon="5.15427">
        <ele>673.20001220703</ele>
        <time>2014-05-03T09:35:17.000Z</time>
      </trkpt>
      <trkpt lat="44.41738" lon="5.15437">
        <ele>668.59997558594</ele>
        <time>2014-05-03T09:35:20.000Z</time>
      </trkpt>
      <trkpt lat="44.41731" lon="5.15448">
        <ele>665.20001220703</ele>
        <time>2014-05-03T09:35:23.000Z</time>
      </trkpt>
      <trkpt lat="44.41723" lon="5.15473">
        <ele>661.40002441406</ele>
        <time>2014-05-03T09:35:28.000Z</time>
      </trkpt>
      <trkpt lat="44.41718" lon="5.15486">
        <ele>658</ele>
        <time>2014-05-03T09:35:31.000Z</time>
      </trkpt>
      <trkpt lat="44.41717" lon="5.15491">
        <ele>657</ele>
        <time>2014-05-03T09:35:32.000Z</time>
      </trkpt>
      <trkpt lat="44.4171" lon="5.15506">
        <ele>651.59997558594</ele>
        <time>2014-05-03T09:35:35.000Z</time>
      </trkpt>
      <trkpt lat="44.41705" lon="5.15521">
        <ele>648.20001220703</ele>
        <time>2014-05-03T09:35:38.000Z</time>
      </trkpt>
      <trkpt lat="44.41702" lon="5.15536">
        <ele>646</ele>
        <time>2014-05-03T09:35:40.000Z</time>
      </trkpt>
      <trkpt lat="44.41698" lon="5.15561">
        <ele>642</ele>
        <time>2014-05-03T09:35:43.000Z</time>
      </trkpt>
      <trkpt lat="44.41696" lon="5.15582">
        <ele>637.79998779297</ele>
        <time>2014-05-03T09:35:46.000Z</time>
      </trkpt>
      <trkpt lat="44.41683" lon="5.15605">
        <ele>633.59997558594</ele>
        <time>2014-05-03T09:35:52.000Z</time>
      </trkpt>
      <trkpt lat="44.4168" lon="5.15608">
        <ele>632.79998779297</ele>
        <time>2014-05-03T09:35:53.000Z</time>
      </trkpt>
      <trkpt lat="44.41673" lon="5.15634">
        <ele>628.40002441406</ele>
        <time>2014-05-03T09:35:58.000Z</time>
      </trkpt>
      <trkpt lat="44.41671" lon="5.15647">
        <ele>626.40002441406</ele>
        <time>2014-05-03T09:36:01.000Z</time>
      </trkpt>
      <trkpt lat="44.41668" lon="5.15657">
        <ele>626.20001220703</ele>
        <time>2014-05-03T09:36:03.000Z</time>
      </trkpt>
      <trkpt lat="44.41663" lon="5.15674">
        <ele>624.40002441406</ele>
        <time>2014-05-03T09:36:06.000Z</time>
      </trkpt>
      <trkpt lat="44.41653" lon="5.15708">
        <ele>620.79998779297</ele>
        <time>2014-05-03T09:36:14.000Z</time>
      </trkpt>
      <trkpt lat="44.41643" lon="5.15722">
        <ele>617.40002441406</ele>
        <time>2014-05-03T09:36:18.000Z</time>
      </trkpt>
      <trkpt lat="44.41637" lon="5.1573">
        <ele>615.59997558594</ele>
        <time>2014-05-03T09:36:21.000Z</time>
      </trkpt>
      <trkpt lat="44.4163" lon="5.15738">
        <ele>615.40002441406</ele>
        <time>2014-05-03T09:36:30.000Z</time>
      </trkpt>
      <trkpt lat="44.41623" lon="5.1575">
        <ele>615</ele>
        <time>2014-05-03T09:36:34.000Z</time>
      </trkpt>
      <trkpt lat="44.41604" lon="5.15784">
        <ele>610.40002441406</ele>
        <time>2014-05-03T09:36:40.000Z</time>
      </trkpt>
      <trkpt lat="44.416" lon="5.15793">
        <ele>609.79998779297</ele>
        <time>2014-05-03T09:36:42.000Z</time>
      </trkpt>
      <trkpt lat="44.416" lon="5.15794">
        <ele>609.59997558594</ele>
        <time>2014-05-03T09:36:43.000Z</time>
      </trkpt>
      <trkpt lat="44.41597" lon="5.15819">
        <ele>607.40002441406</ele>
        <time>2014-05-03T09:36:50.000Z</time>
      </trkpt>
      <trkpt lat="44.4159" lon="5.15842">
        <ele>605.40002441406</ele>
        <time>2014-05-03T09:36:56.000Z</time>
      </trkpt>
      <trkpt lat="44.41589" lon="5.15857">
        <ele>603.59997558594</ele>
        <time>2014-05-03T09:37:05.000Z</time>
      </trkpt>
      <trkpt lat="44.41588" lon="5.15863">
        <ele>600.40002441406</ele>
        <time>2014-05-03T09:37:15.000Z</time>
      </trkpt>
      <trkpt lat="44.41588" lon="5.15868">
        <ele>599</ele>
        <time>2014-05-03T09:37:18.000Z</time>
      </trkpt>
      <trkpt lat="44.41591" lon="5.15882">
        <ele>595.79998779297</ele>
        <time>2014-05-03T09:37:29.000Z</time>
      </trkpt>
      <trkpt lat="44.41592" lon="5.15883">
        <ele>595.59997558594</ele>
        <time>2014-05-03T09:37:30.000Z</time>
      </trkpt>
      <trkpt lat="44.41591" lon="5.15891">
        <ele>593.20001220703</ele>
        <time>2014-05-03T09:37:36.000Z</time>
      </trkpt>
      <trkpt lat="44.4159" lon="5.15896">
        <ele>592.20001220703</ele>
        <time>2014-05-03T09:37:41.000Z</time>
      </trkpt>
      <trkpt lat="44.41589" lon="5.159">
        <ele>591.20001220703</ele>
        <time>2014-05-03T09:37:43.000Z</time>
      </trkpt>
      <trkpt lat="44.41587" lon="5.15905">
        <ele>588.79998779297</ele>
        <time>2014-05-03T09:37:51.000Z</time>
      </trkpt>
      <trkpt lat="44.41592" lon="5.15907">
        <ele>587</ele>
        <time>2014-05-03T09:37:54.000Z</time>
      </trkpt>
      <trkpt lat="44.41597" lon="5.1591">
        <ele>583.40002441406</ele>
        <time>2014-05-03T09:38:00.000Z</time>
      </trkpt>
      <trkpt lat="44.41606" lon="5.15921">
        <ele>580.20001220703</ele>
        <time>2014-05-03T09:38:07.000Z</time>
      </trkpt>
      <trkpt lat="44.41616" lon="5.15927">
        <ele>576.79998779297</ele>
        <time>2014-05-03T09:38:13.000Z</time>
      </trkpt>
      <trkpt lat="44.4162" lon="5.15933">
        <ele>574.79998779297</ele>
        <time>2014-05-03T09:38:16.000Z</time>
      </trkpt>
      <trkpt lat="44.41627" lon="5.1594">
        <ele>572</ele>
        <time>2014-05-03T09:38:21.000Z</time>
      </trkpt>
      <trkpt lat="44.4163" lon="5.15941">
        <ele>571.20001220703</ele>
        <time>2014-05-03T09:38:23.000Z</time>
      </trkpt>
      <trkpt lat="44.41637" lon="5.15948">
        <ele>568.59997558594</ele>
        <time>2014-05-03T09:38:27.000Z</time>
      </trkpt>
      <trkpt lat="44.41647" lon="5.1596">
        <ele>565.79998779297</ele>
        <time>2014-05-03T09:38:31.000Z</time>
      </trkpt>
      <trkpt lat="44.41649" lon="5.15966">
        <ele>565.20001220703</ele>
        <time>2014-05-03T09:38:33.000Z</time>
      </trkpt>
      <trkpt lat="44.41683" lon="5.15976">
        <ele>561.59997558594</ele>
        <time>2014-05-03T09:38:42.000Z</time>
      </trkpt>
      <trkpt lat="44.41689" lon="5.15977">
        <ele>561.40002441406</ele>
        <time>2014-05-03T09:38:43.000Z</time>
      </trkpt>
      <trkpt lat="44.41726" lon="5.15981">
        <ele>563.59997558594</ele>
        <time>2014-05-03T09:38:52.000Z</time>
      </trkpt>
      <trkpt lat="44.41732" lon="5.15984">
        <ele>564.40002441406</ele>
        <time>2014-05-03T09:38:54.000Z</time>
      </trkpt>
      <trkpt lat="44.41751" lon="5.1599">
        <ele>567.79998779297</ele>
        <time>2014-05-03T09:39:01.000Z</time>
      </trkpt>
      <trkpt lat="44.41784" lon="5.15982">
        <ele>570.79998779297</ele>
        <time>2014-05-03T09:39:12.000Z</time>
      </trkpt>
      <trkpt lat="44.41833" lon="5.15977">
        <ele>567.79998779297</ele>
        <time>2014-05-03T09:39:24.000Z</time>
      </trkpt>
      <trkpt lat="44.41862" lon="5.15981">
        <ele>564.59997558594</ele>
        <time>2014-05-03T09:39:28.000Z</time>
      </trkpt>
      <trkpt lat="44.41877" lon="5.15982">
        <ele>563.20001220703</ele>
        <time>2014-05-03T09:39:30.000Z</time>
      </trkpt>
      <trkpt lat="44.41903" lon="5.15994">
        <ele>562.59997558594</ele>
        <time>2014-05-03T09:39:34.000Z</time>
      </trkpt>
      <trkpt lat="44.4192" lon="5.16007">
        <ele>564.20001220703</ele>
        <time>2014-05-03T09:39:37.000Z</time>
      </trkpt>
      <trkpt lat="44.41955" lon="5.16018">
        <ele>565.40002441406</ele>
        <time>2014-05-03T09:39:43.000Z</time>
      </trkpt>
      <trkpt lat="44.41972" lon="5.16018">
        <ele>564.20001220703</ele>
        <time>2014-05-03T09:39:46.000Z</time>
      </trkpt>
      <trkpt lat="44.41995" lon="5.16014">
        <ele>567.79998779297</ele>
        <time>2014-05-03T09:39:52.000Z</time>
      </trkpt>
      <trkpt lat="44.42009" lon="5.16032">
        <ele>570</ele>
        <time>2014-05-03T09:39:57.000Z</time>
      </trkpt>
      <trkpt lat="44.42029" lon="5.16056">
        <ele>572</ele>
        <time>2014-05-03T09:40:03.000Z</time>
      </trkpt>
      <trkpt lat="44.42043" lon="5.16075">
        <ele>572</ele>
        <time>2014-05-03T09:40:07.000Z</time>
      </trkpt>
      <trkpt lat="44.4209" lon="5.16129">
        <ele>574.20001220703</ele>
        <time>2014-05-03T09:40:18.000Z</time>
      </trkpt>
      <trkpt lat="44.42102" lon="5.16165">
        <ele>571.20001220703</ele>
        <time>2014-05-03T09:40:22.000Z</time>
      </trkpt>
      <trkpt lat="44.42111" lon="5.16196">
        <ele>568</ele>
        <time>2014-05-03T09:40:25.000Z</time>
      </trkpt>
      <trkpt lat="44.42116" lon="5.16205">
        <ele>566.79998779297</ele>
        <time>2014-05-03T09:40:26.000Z</time>
      </trkpt>
      <trkpt lat="44.42136" lon="5.16246">
        <ele>562.20001220703</ele>
        <time>2014-05-03T09:40:30.000Z</time>
      </trkpt>
      <trkpt lat="44.42146" lon="5.16268">
        <ele>561.40002441406</ele>
        <time>2014-05-03T09:40:32.000Z</time>
      </trkpt>
      <trkpt lat="44.42179" lon="5.16303">
        <ele>557.59997558594</ele>
        <time>2014-05-03T09:40:37.000Z</time>
      </trkpt>
      <trkpt lat="44.42204" lon="5.16319">
        <ele>556.79998779297</ele>
        <time>2014-05-03T09:40:40.000Z</time>
      </trkpt>
      <trkpt lat="44.42239" lon="5.16328">
        <ele>554</ele>
        <time>2014-05-03T09:40:44.000Z</time>
      </trkpt>
      <trkpt lat="44.42257" lon="5.1633">
        <ele>552.40002441406</ele>
        <time>2014-05-03T09:40:46.000Z</time>
      </trkpt>
      <trkpt lat="44.42294" lon="5.16356">
        <ele>550</ele>
        <time>2014-05-03T09:40:51.000Z</time>
      </trkpt>
      <trkpt lat="44.4231" lon="5.16354">
        <ele>549.59997558594</ele>
        <time>2014-05-03T09:40:54.000Z</time>
      </trkpt>
      <trkpt lat="44.42324" lon="5.16347">
        <ele>549.59997558594</ele>
        <time>2014-05-03T09:40:56.000Z</time>
      </trkpt>
      <trkpt lat="44.42347" lon="5.16361">
        <ele>548.59997558594</ele>
        <time>2014-05-03T09:41:01.000Z</time>
      </trkpt>
      <trkpt lat="44.42348" lon="5.16368">
        <ele>548.59997558594</ele>
        <time>2014-05-03T09:41:02.000Z</time>
      </trkpt>
      <trkpt lat="44.42344" lon="5.16422">
        <ele>550.79998779297</ele>
        <time>2014-05-03T09:41:10.000Z</time>
      </trkpt>
      <trkpt lat="44.42342" lon="5.16441">
        <ele>551.79998779297</ele>
        <time>2014-05-03T09:41:13.000Z</time>
      </trkpt>
      <trkpt lat="44.42331" lon="5.16479">
        <ele>548.79998779297</ele>
        <time>2014-05-03T09:41:17.000Z</time>
      </trkpt>
      <trkpt lat="44.42322" lon="5.16504">
        <ele>544</ele>
        <time>2014-05-03T09:41:19.000Z</time>
      </trkpt>
      <trkpt lat="44.42312" lon="5.16531">
        <ele>539.59997558594</ele>
        <time>2014-05-03T09:41:21.000Z</time>
      </trkpt>
      <trkpt lat="44.423" lon="5.16558">
        <ele>533.20001220703</ele>
        <time>2014-05-03T09:41:23.000Z</time>
      </trkpt>
      <trkpt lat="44.42284" lon="5.16584">
        <ele>529</ele>
        <time>2014-05-03T09:41:25.000Z</time>
      </trkpt>
      <trkpt lat="44.42266" lon="5.16609">
        <ele>525.20001220703</ele>
        <time>2014-05-03T09:41:27.000Z</time>
      </trkpt>
      <trkpt lat="44.42246" lon="5.16634">
        <ele>520.79998779297</ele>
        <time>2014-05-03T09:41:29.000Z</time>
      </trkpt>
      <trkpt lat="44.42226" lon="5.1666">
        <ele>516</ele>
        <time>2014-05-03T09:41:31.000Z</time>
      </trkpt>
      <trkpt lat="44.42208" lon="5.16688">
        <ele>511.60000610352</ele>
        <time>2014-05-03T09:41:33.000Z</time>
      </trkpt>
      <trkpt lat="44.42191" lon="5.16717">
        <ele>508.39999389648</ele>
        <time>2014-05-03T09:41:35.000Z</time>
      </trkpt>
      <trkpt lat="44.4217" lon="5.16758">
        <ele>506.79998779297</ele>
        <time>2014-05-03T09:41:38.000Z</time>
      </trkpt>
      <trkpt lat="44.42172" lon="5.16796">
        <ele>504.20001220703</ele>
        <time>2014-05-03T09:41:42.000Z</time>
      </trkpt>
      <trkpt lat="44.42163" lon="5.16822">
        <ele>505.39999389648</ele>
        <time>2014-05-03T09:41:46.000Z</time>
      </trkpt>
      <trkpt lat="44.42129" lon="5.16833">
        <ele>505.79998779297</ele>
        <time>2014-05-03T09:41:51.000Z</time>
      </trkpt>
      <trkpt lat="44.42108" lon="5.16863">
        <ele>502.60000610352</ele>
        <time>2014-05-03T09:41:55.000Z</time>
      </trkpt>
      <trkpt lat="44.42097" lon="5.16894">
        <ele>499.79998779297</ele>
        <time>2014-05-03T09:41:58.000Z</time>
      </trkpt>
      <trkpt lat="44.42082" lon="5.16935">
        <ele>500</ele>
        <time>2014-05-03T09:42:03.000Z</time>
      </trkpt>
      <trkpt lat="44.42078" lon="5.16953">
        <ele>503.20001220703</ele>
        <time>2014-05-03T09:42:08.000Z</time>
      </trkpt>
      <trkpt lat="44.42077" lon="5.16953">
        <ele>504.39999389648</ele>
        <time>2014-05-03T09:42:23.000Z</time>
      </trkpt>
      <trkpt lat="44.42073" lon="5.16981">
        <ele>505.60000610352</ele>
        <time>2014-05-03T09:42:32.000Z</time>
      </trkpt>
      <trkpt lat="44.42066" lon="5.17012">
        <ele>508.79998779297</ele>
        <time>2014-05-03T09:42:45.000Z</time>
      </trkpt>
      <trkpt lat="44.42068" lon="5.17036">
        <ele>511.79998779297</ele>
        <time>2014-05-03T09:42:55.000Z</time>
      </trkpt>
      <trkpt lat="44.42059" lon="5.17074">
        <ele>514.59997558594</ele>
        <time>2014-05-03T09:43:10.000Z</time>
      </trkpt>
      <trkpt lat="44.42047" lon="5.17094">
        <ele>517.79998779297</ele>
        <time>2014-05-03T09:43:22.000Z</time>
      </trkpt>
      <trkpt lat="44.4203" lon="5.17109">
        <ele>520.79998779297</ele>
        <time>2014-05-03T09:43:35.000Z</time>
      </trkpt>
      <trkpt lat="44.42022" lon="5.17141">
        <ele>523.40002441406</ele>
        <time>2014-05-03T09:43:51.000Z</time>
      </trkpt>
      <trkpt lat="44.42022" lon="5.17145">
        <ele>524</ele>
        <time>2014-05-03T09:43:53.000Z</time>
      </trkpt>
      <trkpt lat="44.42022" lon="5.17154">
        <ele>524.79998779297</ele>
        <time>2014-05-03T09:43:58.000Z</time>
      </trkpt>
      <trkpt lat="44.4202" lon="5.17157">
        <ele>525.59997558594</ele>
        <time>2014-05-03T09:44:00.000Z</time>
      </trkpt>
      <trkpt lat="44.42018" lon="5.17162">
        <ele>526.40002441406</ele>
        <time>2014-05-03T09:44:03.000Z</time>
      </trkpt>
      <trkpt lat="44.4201" lon="5.17168">
        <ele>527.20001220703</ele>
        <time>2014-05-03T09:44:15.000Z</time>
      </trkpt>
      <trkpt lat="44.42001" lon="5.17177">
        <ele>529</ele>
        <time>2014-05-03T09:44:28.000Z</time>
      </trkpt>
      <trkpt lat="44.41997" lon="5.17201">
        <ele>531.20001220703</ele>
        <time>2014-05-03T09:44:46.000Z</time>
      </trkpt>
      <trkpt lat="44.41991" lon="5.17225">
        <ele>534.59997558594</ele>
        <time>2014-05-03T09:45:03.000Z</time>
      </trkpt>
      <trkpt lat="44.41988" lon="5.17229">
        <ele>535.40002441406</ele>
        <time>2014-05-03T09:45:08.000Z</time>
      </trkpt>
      <trkpt lat="44.41974" lon="5.17246">
        <ele>537.20001220703</ele>
        <time>2014-05-03T09:45:18.000Z</time>
      </trkpt>
      <trkpt lat="44.41962" lon="5.17267">
        <ele>540.59997558594</ele>
        <time>2014-05-03T09:45:28.000Z</time>
      </trkpt>
      <trkpt lat="44.41961" lon="5.1727">
        <ele>541.40002441406</ele>
        <time>2014-05-03T09:45:29.000Z</time>
      </trkpt>
      <trkpt lat="44.41962" lon="5.17273">
        <ele>542.20001220703</ele>
        <time>2014-05-03T09:45:31.000Z</time>
      </trkpt>
      <trkpt lat="44.41952" lon="5.17295">
        <ele>544.59997558594</ele>
        <time>2014-05-03T09:45:41.000Z</time>
      </trkpt>
      <trkpt lat="44.41948" lon="5.17311">
        <ele>546.40002441406</ele>
        <time>2014-05-03T09:45:48.000Z</time>
      </trkpt>
      <trkpt lat="44.41945" lon="5.17329">
        <ele>548</ele>
        <time>2014-05-03T09:45:57.000Z</time>
      </trkpt>
      <trkpt lat="44.41943" lon="5.17332">
        <ele>548.59997558594</ele>
        <time>2014-05-03T09:45:59.000Z</time>
      </trkpt>
      <trkpt lat="44.41935" lon="5.17369">
        <ele>550.59997558594</ele>
        <time>2014-05-03T09:46:10.000Z</time>
      </trkpt>
      <trkpt lat="44.41928" lon="5.17379">
        <ele>549.40002441406</ele>
        <time>2014-05-03T09:46:12.000Z</time>
      </trkpt>
      <trkpt lat="44.41918" lon="5.17413">
        <ele>544.79998779297</ele>
        <time>2014-05-03T09:46:18.000Z</time>
      </trkpt>
      <trkpt lat="44.41915" lon="5.17429">
        <ele>541.79998779297</ele>
        <time>2014-05-03T09:46:21.000Z</time>
      </trkpt>
      <trkpt lat="44.4191" lon="5.17441">
        <ele>539.59997558594</ele>
        <time>2014-05-03T09:46:24.000Z</time>
      </trkpt>
      <trkpt lat="44.41904" lon="5.17455">
        <ele>536.79998779297</ele>
        <time>2014-05-03T09:46:29.000Z</time>
      </trkpt>
      <trkpt lat="44.41927" lon="5.17476">
        <ele>534.20001220703</ele>
        <time>2014-05-03T09:46:36.000Z</time>
      </trkpt>
      <trkpt lat="44.41926" lon="5.17514">
        <ele>531.79998779297</ele>
        <time>2014-05-03T09:46:43.000Z</time>
      </trkpt>
      <trkpt lat="44.41915" lon="5.17527">
        <ele>530</ele>
        <time>2014-05-03T09:46:46.000Z</time>
      </trkpt>
      <trkpt lat="44.41909" lon="5.17534">
        <ele>528.59997558594</ele>
        <time>2014-05-03T09:46:48.000Z</time>
      </trkpt>
      <trkpt lat="44.41908" lon="5.17548">
        <ele>527.59997558594</ele>
        <time>2014-05-03T09:46:51.000Z</time>
      </trkpt>
      <trkpt lat="44.41904" lon="5.17567">
        <ele>525.40002441406</ele>
        <time>2014-05-03T09:46:54.000Z</time>
      </trkpt>
      <trkpt lat="44.41904" lon="5.17597">
        <ele>520.79998779297</ele>
        <time>2014-05-03T09:46:58.000Z</time>
      </trkpt>
      <trkpt lat="44.41907" lon="5.17642">
        <ele>517.40002441406</ele>
        <time>2014-05-03T09:47:03.000Z</time>
      </trkpt>
      <trkpt lat="44.41902" lon="5.17671">
        <ele>514.59997558594</ele>
        <time>2014-05-03T09:47:06.000Z</time>
      </trkpt>
      <trkpt lat="44.41905" lon="5.17694">
        <ele>512.20001220703</ele>
        <time>2014-05-03T09:47:09.000Z</time>
      </trkpt>
      <trkpt lat="44.41908" lon="5.17712">
        <ele>510.60000610352</ele>
        <time>2014-05-03T09:47:11.000Z</time>
      </trkpt>
      <trkpt lat="44.419" lon="5.17749">
        <ele>507.79998779297</ele>
        <time>2014-05-03T09:47:16.000Z</time>
      </trkpt>
      <trkpt lat="44.41895" lon="5.17771">
        <ele>505.60000610352</ele>
        <time>2014-05-03T09:47:20.000Z</time>
      </trkpt>
      <trkpt lat="44.41895" lon="5.17801">
        <ele>501</ele>
        <time>2014-05-03T09:47:24.000Z</time>
      </trkpt>
      <trkpt lat="44.4189" lon="5.17815">
        <ele>499.60000610352</ele>
        <time>2014-05-03T09:47:26.000Z</time>
      </trkpt>
      <trkpt lat="44.41885" lon="5.1783">
        <ele>497.20001220703</ele>
        <time>2014-05-03T09:47:28.000Z</time>
      </trkpt>
      <trkpt lat="44.41881" lon="5.17847">
        <ele>495.79998779297</ele>
        <time>2014-05-03T09:47:30.000Z</time>
      </trkpt>
      <trkpt lat="44.41863" lon="5.1788">
        <ele>490.79998779297</ele>
        <time>2014-05-03T09:47:35.000Z</time>
      </trkpt>
      <trkpt lat="44.41855" lon="5.1788">
        <ele>488.79998779297</ele>
        <time>2014-05-03T09:47:38.000Z</time>
      </trkpt>
      <trkpt lat="44.41846" lon="5.17892">
        <ele>487.60000610352</ele>
        <time>2014-05-03T09:47:44.000Z</time>
      </trkpt>
      <trkpt lat="44.41834" lon="5.17902">
        <ele>484.20001220703</ele>
        <time>2014-05-03T09:47:49.000Z</time>
      </trkpt>
      <trkpt lat="44.41814" lon="5.17919">
        <ele>480.60000610352</ele>
        <time>2014-05-03T09:47:56.000Z</time>
      </trkpt>
      <trkpt lat="44.41805" lon="5.17926">
        <ele>477</ele>
        <time>2014-05-03T09:48:00.000Z</time>
      </trkpt>
      <trkpt lat="44.41802" lon="5.17938">
        <ele>475.39999389648</ele>
        <time>2014-05-03T09:48:02.000Z</time>
      </trkpt>
      <trkpt lat="44.41797" lon="5.17955">
        <ele>472.60000610352</ele>
        <time>2014-05-03T09:48:06.000Z</time>
      </trkpt>
      <trkpt lat="44.41788" lon="5.17979">
        <ele>469.60000610352</ele>
        <time>2014-05-03T09:48:11.000Z</time>
      </trkpt>
      <trkpt lat="44.41787" lon="5.17987">
        <ele>468.20001220703</ele>
        <time>2014-05-03T09:48:13.000Z</time>
      </trkpt>
      <trkpt lat="44.41785" lon="5.17997">
        <ele>467.20001220703</ele>
        <time>2014-05-03T09:48:15.000Z</time>
      </trkpt>
      <trkpt lat="44.41781" lon="5.18018">
        <ele>466.60000610352</ele>
        <time>2014-05-03T09:48:22.000Z</time>
      </trkpt>
      <trkpt lat="44.41781" lon="5.18021">
        <ele>466.60000610352</ele>
        <time>2014-05-03T09:48:23.000Z</time>
      </trkpt>
      <trkpt lat="44.41783" lon="5.18048">
        <ele>465</ele>
        <time>2014-05-03T09:48:29.000Z</time>
      </trkpt>
      <trkpt lat="44.41789" lon="5.18064">
        <ele>465.39999389648</ele>
        <time>2014-05-03T09:48:34.000Z</time>
      </trkpt>
      <trkpt lat="44.41787" lon="5.18077">
        <ele>467.20001220703</ele>
        <time>2014-05-03T09:48:39.000Z</time>
      </trkpt>
      <trkpt lat="44.41788" lon="5.1809">
        <ele>470.79998779297</ele>
        <time>2014-05-03T09:48:51.000Z</time>
      </trkpt>
      <trkpt lat="44.41787" lon="5.18093">
        <ele>472.60000610352</ele>
        <time>2014-05-03T09:48:55.000Z</time>
      </trkpt>
      <trkpt lat="44.4178" lon="5.18099">
        <ele>475.60000610352</ele>
        <time>2014-05-03T09:49:08.000Z</time>
      </trkpt>
      <trkpt lat="44.41775" lon="5.18106">
        <ele>478.79998779297</ele>
        <time>2014-05-03T09:49:22.000Z</time>
      </trkpt>
      <trkpt lat="44.41779" lon="5.18107">
        <ele>480.60000610352</ele>
        <time>2014-05-03T09:49:34.000Z</time>
      </trkpt>
      <trkpt lat="44.41785" lon="5.18109">
        <ele>477.20001220703</ele>
        <time>2014-05-03T09:49:38.000Z</time>
      </trkpt>
      <trkpt lat="44.41804" lon="5.18133">
        <ele>474.20001220703</ele>
        <time>2014-05-03T09:49:49.000Z</time>
      </trkpt>
      <trkpt lat="44.4181" lon="5.18144">
        <ele>473.79998779297</ele>
        <time>2014-05-03T09:49:52.000Z</time>
      </trkpt>
      <trkpt lat="44.41836" lon="5.18189">
        <ele>473.20001220703</ele>
        <time>2014-05-03T09:50:01.000Z</time>
      </trkpt>
      <trkpt lat="44.41849" lon="5.18206">
        <ele>472.79998779297</ele>
        <time>2014-05-03T09:50:04.000Z</time>
      </trkpt>
      <trkpt lat="44.41882" lon="5.1826">
        <ele>469.60000610352</ele>
        <time>2014-05-03T09:50:12.000Z</time>
      </trkpt>
      <trkpt lat="44.41884" lon="5.18304">
        <ele>467</ele>
        <time>2014-05-03T09:50:18.000Z</time>
      </trkpt>
      <trkpt lat="44.4187" lon="5.18335">
        <ele>470.20001220703</ele>
        <time>2014-05-03T09:50:26.000Z</time>
      </trkpt>
      <trkpt lat="44.41849" lon="5.18346">
        <ele>472.20001220703</ele>
        <time>2014-05-03T09:50:32.000Z</time>
      </trkpt>
      <trkpt lat="44.41832" lon="5.18352">
        <ele>473.60000610352</ele>
        <time>2014-05-03T09:50:36.000Z</time>
      </trkpt>
      <trkpt lat="44.41796" lon="5.18376">
        <ele>475.79998779297</ele>
        <time>2014-05-03T09:50:46.000Z</time>
      </trkpt>
      <trkpt lat="44.41792" lon="5.18379">
        <ele>475.79998779297</ele>
        <time>2014-05-03T09:50:47.000Z</time>
      </trkpt>
      <trkpt lat="44.41762" lon="5.18395">
        <ele>475.79998779297</ele>
        <time>2014-05-03T09:50:53.000Z</time>
      </trkpt>
      <trkpt lat="44.41713" lon="5.18438">
        <ele>473.79998779297</ele>
        <time>2014-05-03T09:51:03.000Z</time>
      </trkpt>
      <trkpt lat="44.41694" lon="5.18447">
        <ele>472.39999389648</ele>
        <time>2014-05-03T09:51:06.000Z</time>
      </trkpt>
      <trkpt lat="44.41672" lon="5.18487">
        <ele>471.39999389648</ele>
        <time>2014-05-03T09:51:13.000Z</time>
      </trkpt>
      <trkpt lat="44.41668" lon="5.18507">
        <ele>473</ele>
        <time>2014-05-03T09:51:16.000Z</time>
      </trkpt>
      <trkpt lat="44.41667" lon="5.18513">
        <ele>473.39999389648</ele>
        <time>2014-05-03T09:51:17.000Z</time>
      </trkpt>
      <trkpt lat="44.41662" lon="5.18528">
        <ele>474.79998779297</ele>
        <time>2014-05-03T09:51:20.000Z</time>
      </trkpt>
      <trkpt lat="44.41659" lon="5.18534">
        <ele>475</ele>
        <time>2014-05-03T09:51:21.000Z</time>
      </trkpt>
      <trkpt lat="44.41615" lon="5.18611">
        <ele>476</ele>
        <time>2014-05-03T09:51:34.000Z</time>
      </trkpt>
      <trkpt lat="44.4161" lon="5.18624">
        <ele>475.60000610352</ele>
        <time>2014-05-03T09:51:36.000Z</time>
      </trkpt>
      <trkpt lat="44.41602" lon="5.18658">
        <ele>472.79998779297</ele>
        <time>2014-05-03T09:51:40.000Z</time>
      </trkpt>
      <trkpt lat="44.41587" lon="5.18704">
        <ele>471.60000610352</ele>
        <time>2014-05-03T09:51:46.000Z</time>
      </trkpt>
      <trkpt lat="44.41572" lon="5.18733">
        <ele>470.79998779297</ele>
        <time>2014-05-03T09:51:50.000Z</time>
      </trkpt>
      <trkpt lat="44.4155" lon="5.18767">
        <ele>470</ele>
        <time>2014-05-03T09:51:57.000Z</time>
      </trkpt>
      <trkpt lat="44.41497" lon="5.18781">
        <ele>472.60000610352</ele>
        <time>2014-05-03T09:52:07.000Z</time>
      </trkpt>
      <trkpt lat="44.4149" lon="5.1878">
        <ele>473</ele>
        <time>2014-05-03T09:52:08.000Z</time>
      </trkpt>
      <trkpt lat="44.41453" lon="5.18776">
        <ele>472.20001220703</ele>
        <time>2014-05-03T09:52:13.000Z</time>
      </trkpt>
      <trkpt lat="44.41417" lon="5.18797">
        <ele>467.79998779297</ele>
        <time>2014-05-03T09:52:18.000Z</time>
      </trkpt>
      <trkpt lat="44.41407" lon="5.18816">
        <ele>466.20001220703</ele>
        <time>2014-05-03T09:52:20.000Z</time>
      </trkpt>
      <trkpt lat="44.41385" lon="5.18876">
        <ele>464.79998779297</ele>
        <time>2014-05-03T09:52:26.000Z</time>
      </trkpt>
      <trkpt lat="44.41338" lon="5.18976">
        <ele>464.60000610352</ele>
        <time>2014-05-03T09:52:37.000Z</time>
      </trkpt>
      <trkpt lat="44.41299" lon="5.19048">
        <ele>460.39999389648</ele>
        <time>2014-05-03T09:52:45.000Z</time>
      </trkpt>
      <trkpt lat="44.41262" lon="5.19098">
        <ele>462.60000610352</ele>
        <time>2014-05-03T09:52:53.000Z</time>
      </trkpt>
      <trkpt lat="44.41232" lon="5.19127">
        <ele>463.79998779297</ele>
        <time>2014-05-03T09:52:59.000Z</time>
      </trkpt>
      <trkpt lat="44.41195" lon="5.19145">
        <ele>464.60000610352</ele>
        <time>2014-05-03T09:53:05.000Z</time>
      </trkpt>
      <trkpt lat="44.41151" lon="5.19181">
        <ele>465.60000610352</ele>
        <time>2014-05-03T09:53:14.000Z</time>
      </trkpt>
      <trkpt lat="44.41113" lon="5.1921">
        <ele>466.39999389648</ele>
        <time>2014-05-03T09:53:21.000Z</time>
      </trkpt>
      <trkpt lat="44.41079" lon="5.19265">
        <ele>466.39999389648</ele>
        <time>2014-05-03T09:53:28.000Z</time>
      </trkpt>
      <trkpt lat="44.41049" lon="5.19313">
        <ele>463.39999389648</ele>
        <time>2014-05-03T09:53:34.000Z</time>
      </trkpt>
      <trkpt lat="44.41026" lon="5.19344">
        <ele>461.39999389648</ele>
        <time>2014-05-03T09:53:38.000Z</time>
      </trkpt>
      <trkpt lat="44.41022" lon="5.19356">
        <ele>460.79998779297</ele>
        <time>2014-05-03T09:53:39.000Z</time>
      </trkpt>
      <trkpt lat="44.41007" lon="5.19408">
        <ele>455.79998779297</ele>
        <time>2014-05-03T09:53:43.000Z</time>
      </trkpt>
      <trkpt lat="44.40998" lon="5.19437">
        <ele>452.20001220703</ele>
        <time>2014-05-03T09:53:45.000Z</time>
      </trkpt>
      <trkpt lat="44.40993" lon="5.19451">
        <ele>451.60000610352</ele>
        <time>2014-05-03T09:53:46.000Z</time>
      </trkpt>
      <trkpt lat="44.40972" lon="5.1949">
        <ele>445.60000610352</ele>
        <time>2014-05-03T09:53:49.000Z</time>
      </trkpt>
      <trkpt lat="44.40959" lon="5.19538">
        <ele>440.79998779297</ele>
        <time>2014-05-03T09:53:53.000Z</time>
      </trkpt>
      <trkpt lat="44.40976" lon="5.19565">
        <ele>436.20001220703</ele>
        <time>2014-05-03T09:53:56.000Z</time>
      </trkpt>
      <trkpt lat="44.41003" lon="5.19564">
        <ele>433.79998779297</ele>
        <time>2014-05-03T09:53:59.000Z</time>
      </trkpt>
      <trkpt lat="44.4103" lon="5.19595">
        <ele>433.39999389648</ele>
        <time>2014-05-03T09:54:03.000Z</time>
      </trkpt>
      <trkpt lat="44.41045" lon="5.19629">
        <ele>431.79998779297</ele>
        <time>2014-05-03T09:54:07.000Z</time>
      </trkpt>
      <trkpt lat="44.41042" lon="5.19636">
        <ele>431.60000610352</ele>
        <time>2014-05-03T09:54:10.000Z</time>
      </trkpt>
      <trkpt lat="44.4104" lon="5.19637">
        <ele>431.60000610352</ele>
        <time>2014-05-03T09:54:16.000Z</time>
      </trkpt>
      <trkpt lat="44.41017" lon="5.19613">
        <ele>427.79998779297</ele>
        <time>2014-05-03T09:54:22.000Z</time>
      </trkpt>
      <trkpt lat="44.4098" lon="5.19622">
        <ele>422.20001220703</ele>
        <time>2014-05-03T09:54:26.000Z</time>
      </trkpt>
      <trkpt lat="44.40939" lon="5.19616">
        <ele>416.60000610352</ele>
        <time>2014-05-03T09:54:30.000Z</time>
      </trkpt>
      <trkpt lat="44.40928" lon="5.19612">
        <ele>415.79998779297</ele>
        <time>2014-05-03T09:54:31.000Z</time>
      </trkpt>
      <trkpt lat="44.4089" lon="5.19604">
        <ele>409.79998779297</ele>
        <time>2014-05-03T09:54:34.000Z</time>
      </trkpt>
      <trkpt lat="44.40866" lon="5.19599">
        <ele>404.60000610352</ele>
        <time>2014-05-03T09:54:36.000Z</time>
      </trkpt>
      <trkpt lat="44.40856" lon="5.19596">
        <ele>403.60000610352</ele>
        <time>2014-05-03T09:54:37.000Z</time>
      </trkpt>
      <trkpt lat="44.40833" lon="5.19573">
        <ele>402.60000610352</ele>
        <time>2014-05-03T09:54:40.000Z</time>
      </trkpt>
      <trkpt lat="44.40794" lon="5.19587">
        <ele>399.79998779297</ele>
        <time>2014-05-03T09:54:46.000Z</time>
      </trkpt>
      <trkpt lat="44.40794" lon="5.19624">
        <ele>396.60000610352</ele>
        <time>2014-05-03T09:54:50.000Z</time>
      </trkpt>
      <trkpt lat="44.40799" lon="5.19632">
        <ele>396.39999389648</ele>
        <time>2014-05-03T09:54:51.000Z</time>
      </trkpt>
      <trkpt lat="44.40813" lon="5.19646">
        <ele>393.20001220703</ele>
        <time>2014-05-03T09:54:53.000Z</time>
      </trkpt>
      <trkpt lat="44.40821" lon="5.19653">
        <ele>391.20001220703</ele>
        <time>2014-05-03T09:54:54.000Z</time>
      </trkpt>
      <trkpt lat="44.4084" lon="5.19667">
        <ele>388.20001220703</ele>
        <time>2014-05-03T09:54:56.000Z</time>
      </trkpt>
      <trkpt lat="44.40868" lon="5.19694">
        <ele>383.60000610352</ele>
        <time>2014-05-03T09:54:59.000Z</time>
      </trkpt>
      <trkpt lat="44.40887" lon="5.19714">
        <ele>380.20001220703</ele>
        <time>2014-05-03T09:55:01.000Z</time>
      </trkpt>
      <trkpt lat="44.40913" lon="5.19745">
        <ele>377</ele>
        <time>2014-05-03T09:55:04.000Z</time>
      </trkpt>
      <trkpt lat="44.40931" lon="5.19783">
        <ele>373.20001220703</ele>
        <time>2014-05-03T09:55:07.000Z</time>
      </trkpt>
      <trkpt lat="44.40948" lon="5.19801">
        <ele>370.60000610352</ele>
        <time>2014-05-03T09:55:09.000Z</time>
      </trkpt>
      <trkpt lat="44.40978" lon="5.19866">
        <ele>365.79998779297</ele>
        <time>2014-05-03T09:55:15.000Z</time>
      </trkpt>
      <trkpt lat="44.40974" lon="5.19879">
        <ele>365.60000610352</ele>
        <time>2014-05-03T09:55:16.000Z</time>
      </trkpt>
      <trkpt lat="44.40947" lon="5.19946">
        <ele>367.60000610352</ele>
        <time>2014-05-03T09:55:21.000Z</time>
      </trkpt>
      <trkpt lat="44.40899" lon="5.20056">
        <ele>364</ele>
        <time>2014-05-03T09:55:29.000Z</time>
      </trkpt>
      <trkpt lat="44.40888" lon="5.20082">
        <ele>359.60000610352</ele>
        <time>2014-05-03T09:55:31.000Z</time>
      </trkpt>
      <trkpt lat="44.40879" lon="5.20104">
        <ele>355.79998779297</ele>
        <time>2014-05-03T09:55:33.000Z</time>
      </trkpt>
      <trkpt lat="44.40875" lon="5.20113">
        <ele>355.79998779297</ele>
        <time>2014-05-03T09:55:34.000Z</time>
      </trkpt>
      <trkpt lat="44.40871" lon="5.20128">
        <ele>357.60000610352</ele>
        <time>2014-05-03T09:55:38.000Z</time>
      </trkpt>
      <trkpt lat="44.40873" lon="5.20133">
        <ele>358</ele>
        <time>2014-05-03T09:55:40.000Z</time>
      </trkpt>
      <trkpt lat="44.40876" lon="5.20138">
        <ele>358</ele>
        <time>2014-05-03T09:55:50.000Z</time>
      </trkpt>
      <trkpt lat="44.40898" lon="5.20148">
        <ele>358</ele>
        <time>2014-05-03T09:56:04.000Z</time>
      </trkpt>
      <trkpt lat="44.40936" lon="5.20162">
        <ele>358</ele>
        <time>2014-05-03T09:56:14.000Z</time>
      </trkpt>
      <trkpt lat="44.40939" lon="5.20167">
        <ele>358.60000610352</ele>
        <time>2014-05-03T09:56:16.000Z</time>
      </trkpt>
      <trkpt lat="44.40948" lon="5.20178">
        <ele>357</ele>
        <time>2014-05-03T09:56:19.000Z</time>
      </trkpt>
      <trkpt lat="44.40964" lon="5.20195">
        <ele>352.39999389648</ele>
        <time>2014-05-03T09:56:23.000Z</time>
      </trkpt>
      <trkpt lat="44.40986" lon="5.20225">
        <ele>352.79998779297</ele>
        <time>2014-05-03T09:56:32.000Z</time>
      </trkpt>
      <trkpt lat="44.40988" lon="5.20232">
        <ele>353.79998779297</ele>
        <time>2014-05-03T09:56:34.000Z</time>
      </trkpt>
      <trkpt lat="44.40979" lon="5.20241">
        <ele>354.39999389648</ele>
        <time>2014-05-03T09:56:38.000Z</time>
      </trkpt>
      <trkpt lat="44.40895" lon="5.20274">
        <ele>354.39999389648</ele>
        <time>2014-05-03T09:56:55.000Z</time>
      </trkpt>
      <trkpt lat="44.40868" lon="5.20281">
        <ele>354.39999389648</ele>
        <time>2014-05-03T09:56:59.000Z</time>
      </trkpt>
      <trkpt lat="44.40848" lon="5.20292">
        <ele>351.79998779297</ele>
        <time>2014-05-03T09:57:02.000Z</time>
      </trkpt>
      <trkpt lat="44.40829" lon="5.20312">
        <ele>350.60000610352</ele>
        <time>2014-05-03T09:57:05.000Z</time>
      </trkpt>
      <trkpt lat="44.40807" lon="5.20328">
        <ele>349.39999389648</ele>
        <time>2014-05-03T09:57:08.000Z</time>
      </trkpt>
      <trkpt lat="44.40702" lon="5.2036">
        <ele>349.20001220703</ele>
        <time>2014-05-03T09:57:21.000Z</time>
      </trkpt>
      <trkpt lat="44.4068" lon="5.2037">
        <ele>349.20001220703</ele>
        <time>2014-05-03T09:57:24.000Z</time>
      </trkpt>
      <trkpt lat="44.40665" lon="5.20376">
        <ele>349.20001220703</ele>
        <time>2014-05-03T09:57:26.000Z</time>
      </trkpt>
      <trkpt lat="44.40588" lon="5.20365">
        <ele>346</ele>
        <time>2014-05-03T09:57:35.000Z</time>
      </trkpt>
      <trkpt lat="44.4058" lon="5.20363">
        <ele>345.79998779297</ele>
        <time>2014-05-03T09:57:36.000Z</time>
      </trkpt>
      <trkpt lat="44.40464" lon="5.20336">
        <ele>344.79998779297</ele>
        <time>2014-05-03T09:57:50.000Z</time>
      </trkpt>
      <trkpt lat="44.4044" lon="5.20328">
        <ele>344.79998779297</ele>
        <time>2014-05-03T09:57:53.000Z</time>
      </trkpt>
      <trkpt lat="44.40395" lon="5.20304">
        <ele>344</ele>
        <time>2014-05-03T09:57:59.000Z</time>
      </trkpt>
      <trkpt lat="44.40351" lon="5.2024">
        <ele>343</ele>
        <time>2014-05-03T09:58:07.000Z</time>
      </trkpt>
      <trkpt lat="44.40324" lon="5.20207">
        <ele>346</ele>
        <time>2014-05-03T09:58:13.000Z</time>
      </trkpt>
      <trkpt lat="44.40294" lon="5.20204">
        <ele>346.20001220703</ele>
        <time>2014-05-03T09:58:18.000Z</time>
      </trkpt>
      <trkpt lat="44.40257" lon="5.20225">
        <ele>347.39999389648</ele>
        <time>2014-05-03T09:58:24.000Z</time>
      </trkpt>
      <trkpt lat="44.40241" lon="5.20273">
        <ele>347.39999389648</ele>
        <time>2014-05-03T09:58:30.000Z</time>
      </trkpt>
      <trkpt lat="44.4024" lon="5.20296">
        <ele>347.39999389648</ele>
        <time>2014-05-03T09:58:33.000Z</time>
      </trkpt>
      <trkpt lat="44.40234" lon="5.20322">
        <ele>349.20001220703</ele>
        <time>2014-05-03T09:58:38.000Z</time>
      </trkpt>
      <trkpt lat="44.40217" lon="5.20335">
        <ele>352.60000610352</ele>
        <time>2014-05-03T09:58:48.000Z</time>
      </trkpt>
      <trkpt lat="44.40215" lon="5.20336">
        <ele>352.79998779297</ele>
        <time>2014-05-03T09:58:49.000Z</time>
      </trkpt>
      <trkpt lat="44.40206" lon="5.20357">
        <ele>355.60000610352</ele>
        <time>2014-05-03T09:58:57.000Z</time>
      </trkpt>
      <trkpt lat="44.40189" lon="5.20415">
        <ele>356.60000610352</ele>
        <time>2014-05-03T09:59:12.000Z</time>
      </trkpt>
      <trkpt lat="44.40181" lon="5.20429">
        <ele>356.60000610352</ele>
        <time>2014-05-03T09:59:15.000Z</time>
      </trkpt>
      <trkpt lat="44.40166" lon="5.20493">
        <ele>359.60000610352</ele>
        <time>2014-05-03T09:59:29.000Z</time>
      </trkpt>
      <trkpt lat="44.4016" lon="5.20539">
        <ele>362.79998779297</ele>
        <time>2014-05-03T09:59:43.000Z</time>
      </trkpt>
      <trkpt lat="44.40154" lon="5.20572">
        <ele>365.20001220703</ele>
        <time>2014-05-03T09:59:55.000Z</time>
      </trkpt>
      <trkpt lat="44.40144" lon="5.20614">
        <ele>368.20001220703</ele>
        <time>2014-05-03T10:00:09.000Z</time>
      </trkpt>
      <trkpt lat="44.40135" lon="5.20663">
        <ele>371</ele>
        <time>2014-05-03T10:00:24.000Z</time>
      </trkpt>
      <trkpt lat="44.40134" lon="5.20701">
        <ele>373.60000610352</ele>
        <time>2014-05-03T10:00:38.000Z</time>
      </trkpt>
      <trkpt lat="44.40133" lon="5.20709">
        <ele>374.39999389648</ele>
        <time>2014-05-03T10:00:41.000Z</time>
      </trkpt>
      <trkpt lat="44.40133" lon="5.2075">
        <ele>377</ele>
        <time>2014-05-03T10:00:56.000Z</time>
      </trkpt>
      <trkpt lat="44.40127" lon="5.20784">
        <ele>380.20001220703</ele>
        <time>2014-05-03T10:01:10.000Z</time>
      </trkpt>
      <trkpt lat="44.40124" lon="5.20809">
        <ele>383.39999389648</ele>
        <time>2014-05-03T10:01:20.000Z</time>
      </trkpt>
      <trkpt lat="44.40115" lon="5.20846">
        <ele>386.79998779297</ele>
        <time>2014-05-03T10:01:36.000Z</time>
      </trkpt>
      <trkpt lat="44.40113" lon="5.20849">
        <ele>387.60000610352</ele>
        <time>2014-05-03T10:01:38.000Z</time>
      </trkpt>
      <trkpt lat="44.40088" lon="5.20861">
        <ele>389.79998779297</ele>
        <time>2014-05-03T10:01:52.000Z</time>
      </trkpt>
      <trkpt lat="44.40063" lon="5.20881">
        <ele>393</ele>
        <time>2014-05-03T10:02:06.000Z</time>
      </trkpt>
      <trkpt lat="44.40036" lon="5.20917">
        <ele>395.79998779297</ele>
        <time>2014-05-03T10:02:22.000Z</time>
      </trkpt>
      <trkpt lat="44.40002" lon="5.20933">
        <ele>397.60000610352</ele>
        <time>2014-05-03T10:02:39.000Z</time>
      </trkpt>
      <trkpt lat="44.39988" lon="5.20933">
        <ele>400.79998779297</ele>
        <time>2014-05-03T10:02:46.000Z</time>
      </trkpt>
      <trkpt lat="44.39972" lon="5.2093">
        <ele>404</ele>
        <time>2014-05-03T10:02:55.000Z</time>
      </trkpt>
      <trkpt lat="44.39951" lon="5.20952">
        <ele>406.39999389648</ele>
        <time>2014-05-03T10:03:07.000Z</time>
      </trkpt>
      <trkpt lat="44.39962" lon="5.20978">
        <ele>408.60000610352</ele>
        <time>2014-05-03T10:03:19.000Z</time>
      </trkpt>
      <trkpt lat="44.39982" lon="5.20993">
        <ele>411.79998779297</ele>
        <time>2014-05-03T10:03:32.000Z</time>
      </trkpt>
      <trkpt lat="44.40008" lon="5.21002">
        <ele>414.79998779297</ele>
        <time>2014-05-03T10:03:47.000Z</time>
      </trkpt>
      <trkpt lat="44.40035" lon="5.21015">
        <ele>418.20001220703</ele>
        <time>2014-05-03T10:04:01.000Z</time>
      </trkpt>
      <trkpt lat="44.40044" lon="5.21019">
        <ele>419</ele>
        <time>2014-05-03T10:04:06.000Z</time>
      </trkpt>
      <trkpt lat="44.40052" lon="5.21018">
        <ele>420</ele>
        <time>2014-05-03T10:04:10.000Z</time>
      </trkpt>
      <trkpt lat="44.40062" lon="5.21017">
        <ele>421</ele>
        <time>2014-05-03T10:04:15.000Z</time>
      </trkpt>
      <trkpt lat="44.40093" lon="5.21023">
        <ele>424</ele>
        <time>2014-05-03T10:04:30.000Z</time>
      </trkpt>
      <trkpt lat="44.40122" lon="5.21035">
        <ele>427.20001220703</ele>
        <time>2014-05-03T10:04:45.000Z</time>
      </trkpt>
      <trkpt lat="44.40147" lon="5.21049">
        <ele>430.39999389648</ele>
        <time>2014-05-03T10:04:58.000Z</time>
      </trkpt>
      <trkpt lat="44.40159" lon="5.21086">
        <ele>433.39999389648</ele>
        <time>2014-05-03T10:05:14.000Z</time>
      </trkpt>
      <trkpt lat="44.40169" lon="5.21105">
        <ele>436</ele>
        <time>2014-05-03T10:05:23.000Z</time>
      </trkpt>
      <trkpt lat="44.40184" lon="5.211">
        <ele>437.79998779297</ele>
        <time>2014-05-03T10:05:32.000Z</time>
      </trkpt>
      <trkpt lat="44.402" lon="5.21064">
        <ele>441</ele>
        <time>2014-05-03T10:05:46.000Z</time>
      </trkpt>
      <trkpt lat="44.40225" lon="5.2103">
        <ele>442.60000610352</ele>
        <time>2014-05-03T10:06:00.000Z</time>
      </trkpt>
      <trkpt lat="44.4025" lon="5.21003">
        <ele>445.60000610352</ele>
        <time>2014-05-03T10:06:13.000Z</time>
      </trkpt>
      <trkpt lat="44.40276" lon="5.20995">
        <ele>448.20001220703</ele>
        <time>2014-05-03T10:06:27.000Z</time>
      </trkpt>
      <trkpt lat="44.40283" lon="5.20994">
        <ele>449.79998779297</ele>
        <time>2014-05-03T10:06:31.000Z</time>
      </trkpt>
      <trkpt lat="44.40308" lon="5.20987">
        <ele>453.20001220703</ele>
        <time>2014-05-03T10:06:45.000Z</time>
      </trkpt>
      <trkpt lat="44.40324" lon="5.20985">
        <ele>456.20001220703</ele>
        <time>2014-05-03T10:06:55.000Z</time>
      </trkpt>
      <trkpt lat="44.40341" lon="5.2099">
        <ele>459.20001220703</ele>
        <time>2014-05-03T10:07:05.000Z</time>
      </trkpt>
      <trkpt lat="44.40358" lon="5.20999">
        <ele>462.39999389648</ele>
        <time>2014-05-03T10:07:15.000Z</time>
      </trkpt>
      <trkpt lat="44.40384" lon="5.21028">
        <ele>465</ele>
        <time>2014-05-03T10:07:31.000Z</time>
      </trkpt>
      <trkpt lat="44.40406" lon="5.21034">
        <ele>468</ele>
        <time>2014-05-03T10:07:44.000Z</time>
      </trkpt>
      <trkpt lat="44.40425" lon="5.21033">
        <ele>471</ele>
        <time>2014-05-03T10:07:55.000Z</time>
      </trkpt>
      <trkpt lat="44.40438" lon="5.21067">
        <ele>474</ele>
        <time>2014-05-03T10:08:10.000Z</time>
      </trkpt>
      <trkpt lat="44.40419" lon="5.21085">
        <ele>476.39999389648</ele>
        <time>2014-05-03T10:08:23.000Z</time>
      </trkpt>
      <trkpt lat="44.40406" lon="5.2109">
        <ele>479.60000610352</ele>
        <time>2014-05-03T10:08:32.000Z</time>
      </trkpt>
      <trkpt lat="44.40392" lon="5.21104">
        <ele>482.79998779297</ele>
        <time>2014-05-03T10:08:42.000Z</time>
      </trkpt>
      <trkpt lat="44.40372" lon="5.21131">
        <ele>485.20001220703</ele>
        <time>2014-05-03T10:08:58.000Z</time>
      </trkpt>
      <trkpt lat="44.4036" lon="5.21158">
        <ele>487.60000610352</ele>
        <time>2014-05-03T10:09:12.000Z</time>
      </trkpt>
      <trkpt lat="44.40373" lon="5.21182">
        <ele>490.60000610352</ele>
        <time>2014-05-03T10:09:24.000Z</time>
      </trkpt>
      <trkpt lat="44.40411" lon="5.21215">
        <ele>492.60000610352</ele>
        <time>2014-05-03T10:09:42.000Z</time>
      </trkpt>
      <trkpt lat="44.40434" lon="5.21227">
        <ele>495.79998779297</ele>
        <time>2014-05-03T10:09:54.000Z</time>
      </trkpt>
      <trkpt lat="44.40453" lon="5.21255">
        <ele>497.60000610352</ele>
        <time>2014-05-03T10:10:06.000Z</time>
      </trkpt>
      <trkpt lat="44.40438" lon="5.21283">
        <ele>499.20001220703</ele>
        <time>2014-05-03T10:10:18.000Z</time>
      </trkpt>
      <trkpt lat="44.4041" lon="5.21303">
        <ele>502.20001220703</ele>
        <time>2014-05-03T10:10:32.000Z</time>
      </trkpt>
      <trkpt lat="44.4039" lon="5.21316">
        <ele>505.60000610352</ele>
        <time>2014-05-03T10:10:44.000Z</time>
      </trkpt>
      <trkpt lat="44.40375" lon="5.21331">
        <ele>508.79998779297</ele>
        <time>2014-05-03T10:10:54.000Z</time>
      </trkpt>
      <trkpt lat="44.40355" lon="5.21355">
        <ele>512.20001220703</ele>
        <time>2014-05-03T10:11:08.000Z</time>
      </trkpt>
      <trkpt lat="44.40321" lon="5.21359">
        <ele>514.79998779297</ele>
        <time>2014-05-03T10:11:22.000Z</time>
      </trkpt>
      <trkpt lat="44.40298" lon="5.21372">
        <ele>518.20001220703</ele>
        <time>2014-05-03T10:11:34.000Z</time>
      </trkpt>
      <trkpt lat="44.40287" lon="5.2139">
        <ele>521.20001220703</ele>
        <time>2014-05-03T10:11:44.000Z</time>
      </trkpt>
      <trkpt lat="44.40264" lon="5.21409">
        <ele>523.59997558594</ele>
        <time>2014-05-03T10:11:58.000Z</time>
      </trkpt>
      <trkpt lat="44.40248" lon="5.21422">
        <ele>527</ele>
        <time>2014-05-03T10:12:06.000Z</time>
      </trkpt>
      <trkpt lat="44.40228" lon="5.21441">
        <ele>528</ele>
        <time>2014-05-03T10:12:17.000Z</time>
      </trkpt>
      <trkpt lat="44.40236" lon="5.21452">
        <ele>529.59997558594</ele>
        <time>2014-05-03T10:12:26.000Z</time>
      </trkpt>
      <trkpt lat="44.40245" lon="5.21451">
        <ele>531.59997558594</ele>
        <time>2014-05-03T10:12:31.000Z</time>
      </trkpt>
      <trkpt lat="44.40273" lon="5.21468">
        <ele>534.40002441406</ele>
        <time>2014-05-03T10:12:47.000Z</time>
      </trkpt>
      <trkpt lat="44.40286" lon="5.21491">
        <ele>536</ele>
        <time>2014-05-03T10:12:58.000Z</time>
      </trkpt>
      <trkpt lat="44.40286" lon="5.21498">
        <ele>536.40002441406</ele>
        <time>2014-05-03T10:13:01.000Z</time>
      </trkpt>
      <trkpt lat="44.40281" lon="5.21504">
        <ele>537.20001220703</ele>
        <time>2014-05-03T10:13:05.000Z</time>
      </trkpt>
      <trkpt lat="44.40258" lon="5.21508">
        <ele>540.59997558594</ele>
        <time>2014-05-03T10:13:16.000Z</time>
      </trkpt>
      <trkpt lat="44.40243" lon="5.2153">
        <ele>542</ele>
        <time>2014-05-03T10:13:27.000Z</time>
      </trkpt>
      <trkpt lat="44.40245" lon="5.21538">
        <ele>542.20001220703</ele>
        <time>2014-05-03T10:13:31.000Z</time>
      </trkpt>
      <trkpt lat="44.40254" lon="5.2154">
        <ele>543</ele>
        <time>2014-05-03T10:13:36.000Z</time>
      </trkpt>
      <trkpt lat="44.40274" lon="5.21543">
        <ele>546.40002441406</ele>
        <time>2014-05-03T10:13:45.000Z</time>
      </trkpt>
      <trkpt lat="44.40284" lon="5.21571">
        <ele>549.59997558594</ele>
        <time>2014-05-03T10:13:57.000Z</time>
      </trkpt>
      <trkpt lat="44.40283" lon="5.21576">
        <ele>550.40002441406</ele>
        <time>2014-05-03T10:13:59.000Z</time>
      </trkpt>
      <trkpt lat="44.40277" lon="5.21593">
        <ele>553.59997558594</ele>
        <time>2014-05-03T10:14:08.000Z</time>
      </trkpt>
      <trkpt lat="44.4027" lon="5.21603">
        <ele>555.20001220703</ele>
        <time>2014-05-03T10:14:14.000Z</time>
      </trkpt>
      <trkpt lat="44.4027" lon="5.2163">
        <ele>558.59997558594</ele>
        <time>2014-05-03T10:14:29.000Z</time>
      </trkpt>
      <trkpt lat="44.40288" lon="5.21649">
        <ele>560.40002441406</ele>
        <time>2014-05-03T10:14:42.000Z</time>
      </trkpt>
      <trkpt lat="44.40301" lon="5.21678">
        <ele>562</ele>
        <time>2014-05-03T10:14:55.000Z</time>
      </trkpt>
      <trkpt lat="44.40313" lon="5.21711">
        <ele>564.59997558594</ele>
        <time>2014-05-03T10:15:07.000Z</time>
      </trkpt>
      <trkpt lat="44.4032" lon="5.21731">
        <ele>567.40002441406</ele>
        <time>2014-05-03T10:15:14.000Z</time>
      </trkpt>
      <trkpt lat="44.40344" lon="5.21772">
        <ele>570</ele>
        <time>2014-05-03T10:15:29.000Z</time>
      </trkpt>
      <trkpt lat="44.40352" lon="5.21784">
        <ele>571.59997558594</ele>
        <time>2014-05-03T10:15:33.000Z</time>
      </trkpt>
      <trkpt lat="44.40385" lon="5.21827">
        <ele>574.20001220703</ele>
        <time>2014-05-03T10:15:49.000Z</time>
      </trkpt>
      <trkpt lat="44.40411" lon="5.21855">
        <ele>577.20001220703</ele>
        <time>2014-05-03T10:16:01.000Z</time>
      </trkpt>
      <trkpt lat="44.40436" lon="5.21882">
        <ele>580.59997558594</ele>
        <time>2014-05-03T10:16:12.000Z</time>
      </trkpt>
      <trkpt lat="44.4045" lon="5.21898">
        <ele>583.40002441406</ele>
        <time>2014-05-03T10:16:19.000Z</time>
      </trkpt>
      <trkpt lat="44.40467" lon="5.21913">
        <ele>586.40002441406</ele>
        <time>2014-05-03T10:16:26.000Z</time>
      </trkpt>
      <trkpt lat="44.40495" lon="5.21942">
        <ele>589.40002441406</ele>
        <time>2014-05-03T10:16:38.000Z</time>
      </trkpt>
      <trkpt lat="44.40523" lon="5.21961">
        <ele>592.59997558594</ele>
        <time>2014-05-03T10:16:49.000Z</time>
      </trkpt>
      <trkpt lat="44.40562" lon="5.21961">
        <ele>595.79998779297</ele>
        <time>2014-05-03T10:17:02.000Z</time>
      </trkpt>
      <trkpt lat="44.40587" lon="5.21973">
        <ele>598.20001220703</ele>
        <time>2014-05-03T10:17:12.000Z</time>
      </trkpt>
      <trkpt lat="44.40592" lon="5.21974">
        <ele>599</ele>
        <time>2014-05-03T10:17:14.000Z</time>
      </trkpt>
      <trkpt lat="44.40607" lon="5.21972">
        <ele>600.79998779297</ele>
        <time>2014-05-03T10:17:19.000Z</time>
      </trkpt>
      <trkpt lat="44.40617" lon="5.21969">
        <ele>602</ele>
        <time>2014-05-03T10:17:28.000Z</time>
      </trkpt>
      <trkpt lat="44.40613" lon="5.21975">
        <ele>602.79998779297</ele>
        <time>2014-05-03T10:17:45.000Z</time>
      </trkpt>
      <trkpt lat="44.40603" lon="5.21982">
        <ele>605.59997558594</ele>
        <time>2014-05-03T10:17:59.000Z</time>
      </trkpt>
      <trkpt lat="44.40593" lon="5.21985">
        <ele>605.59997558594</ele>
        <time>2014-05-03T10:18:09.000Z</time>
      </trkpt>
      <trkpt lat="44.40572" lon="5.21998">
        <ele>608.59997558594</ele>
        <time>2014-05-03T10:18:31.000Z</time>
      </trkpt>
      <trkpt lat="44.40558" lon="5.22005">
        <ele>611.79998779297</ele>
        <time>2014-05-03T10:18:46.000Z</time>
      </trkpt>
      <trkpt lat="44.40544" lon="5.22011">
        <ele>614.40002441406</ele>
        <time>2014-05-03T10:19:00.000Z</time>
      </trkpt>
      <trkpt lat="44.40523" lon="5.22018">
        <ele>617.59997558594</ele>
        <time>2014-05-03T10:19:14.000Z</time>
      </trkpt>
      <trkpt lat="44.40505" lon="5.22024">
        <ele>621.20001220703</ele>
        <time>2014-05-03T10:19:27.000Z</time>
      </trkpt>
      <trkpt lat="44.40491" lon="5.22027">
        <ele>622.79998779297</ele>
        <time>2014-05-03T10:19:35.000Z</time>
      </trkpt>
      <trkpt lat="44.4047" lon="5.22023">
        <ele>625.79998779297</ele>
        <time>2014-05-03T10:19:50.000Z</time>
      </trkpt>
      <trkpt lat="44.40458" lon="5.22019">
        <ele>628.20001220703</ele>
        <time>2014-05-03T10:19:58.000Z</time>
      </trkpt>
      <trkpt lat="44.40454" lon="5.22028">
        <ele>630</ele>
        <time>2014-05-03T10:20:03.000Z</time>
      </trkpt>
      <trkpt lat="44.40465" lon="5.22046">
        <ele>632.79998779297</ele>
        <time>2014-05-03T10:20:16.000Z</time>
      </trkpt>
      <trkpt lat="44.40472" lon="5.22061">
        <ele>635.20001220703</ele>
        <time>2014-05-03T10:20:26.000Z</time>
      </trkpt>
      <trkpt lat="44.40476" lon="5.22067">
        <ele>635.20001220703</ele>
        <time>2014-05-03T10:20:31.000Z</time>
      </trkpt>
      <trkpt lat="44.40477" lon="5.22069">
        <ele>635.79998779297</ele>
        <time>2014-05-03T10:20:33.000Z</time>
      </trkpt>
      <trkpt lat="44.40486" lon="5.22079">
        <ele>639.20001220703</ele>
        <time>2014-05-03T10:20:43.000Z</time>
      </trkpt>
      <trkpt lat="44.40494" lon="5.22093">
        <ele>641.59997558594</ele>
        <time>2014-05-03T10:20:53.000Z</time>
      </trkpt>
      <trkpt lat="44.40491" lon="5.221">
        <ele>643</ele>
        <time>2014-05-03T10:20:58.000Z</time>
      </trkpt>
      <trkpt lat="44.40487" lon="5.22105">
        <ele>644.40002441406</ele>
        <time>2014-05-03T10:21:03.000Z</time>
      </trkpt>
      <trkpt lat="44.40482" lon="5.22108">
        <ele>646.40002441406</ele>
        <time>2014-05-03T10:21:08.000Z</time>
      </trkpt>
      <trkpt lat="44.40474" lon="5.2211">
        <ele>649.59997558594</ele>
        <time>2014-05-03T10:21:15.000Z</time>
      </trkpt>
      <trkpt lat="44.40471" lon="5.22113">
        <ele>652.20001220703</ele>
        <time>2014-05-03T10:21:19.000Z</time>
      </trkpt>
      <trkpt lat="44.40469" lon="5.22115">
        <ele>652.79998779297</ele>
        <time>2014-05-03T10:21:21.000Z</time>
      </trkpt>
      <trkpt lat="44.40468" lon="5.22118">
        <ele>653.20001220703</ele>
        <time>2014-05-03T10:21:23.000Z</time>
      </trkpt>
      <trkpt lat="44.40484" lon="5.22138">
        <ele>654.79998779297</ele>
        <time>2014-05-03T10:21:35.000Z</time>
      </trkpt>
      <trkpt lat="44.40486" lon="5.2214">
        <ele>654.79998779297</ele>
        <time>2014-05-03T10:21:36.000Z</time>
      </trkpt>
      <trkpt lat="44.40519" lon="5.22168">
        <ele>656.20001220703</ele>
        <time>2014-05-03T10:21:49.000Z</time>
      </trkpt>
      <trkpt lat="44.40525" lon="5.22173">
        <ele>657.20001220703</ele>
        <time>2014-05-03T10:21:51.000Z</time>
      </trkpt>
      <trkpt lat="44.40556" lon="5.22191">
        <ele>657.59997558594</ele>
        <time>2014-05-03T10:22:01.000Z</time>
      </trkpt>
      <trkpt lat="44.40559" lon="5.22193">
        <ele>657.59997558594</ele>
        <time>2014-05-03T10:22:02.000Z</time>
      </trkpt>
      <trkpt lat="44.40572" lon="5.22204">
        <ele>656</ele>
        <time>2014-05-03T10:22:06.000Z</time>
      </trkpt>
      <trkpt lat="44.40579" lon="5.22209">
        <ele>655.20001220703</ele>
        <time>2014-05-03T10:22:08.000Z</time>
      </trkpt>
      <trkpt lat="44.40614" lon="5.22236">
        <ele>658.79998779297</ele>
        <time>2014-05-03T10:22:20.000Z</time>
      </trkpt>
      <trkpt lat="44.40616" lon="5.22239">
        <ele>659</ele>
        <time>2014-05-03T10:22:21.000Z</time>
      </trkpt>
      <trkpt lat="44.40636" lon="5.22252">
        <ele>661.59997558594</ele>
        <time>2014-05-03T10:22:28.000Z</time>
      </trkpt>
      <trkpt lat="44.40671" lon="5.22249">
        <ele>662.59997558594</ele>
        <time>2014-05-03T10:22:39.000Z</time>
      </trkpt>
      <trkpt lat="44.40685" lon="5.22243">
        <ele>659.59997558594</ele>
        <time>2014-05-03T10:22:42.000Z</time>
      </trkpt>
      <trkpt lat="44.40712" lon="5.22211">
        <ele>655.79998779297</ele>
        <time>2014-05-03T10:22:48.000Z</time>
      </trkpt>
      <trkpt lat="44.40725" lon="5.22194">
        <ele>654.20001220703</ele>
        <time>2014-05-03T10:22:51.000Z</time>
      </trkpt>
      <trkpt lat="44.40737" lon="5.2218">
        <ele>654</ele>
        <time>2014-05-03T10:22:56.000Z</time>
      </trkpt>
      <trkpt lat="44.40757" lon="5.22159">
        <ele>651.20001220703</ele>
        <time>2014-05-03T10:23:02.000Z</time>
      </trkpt>
      <trkpt lat="44.40767" lon="5.22144">
        <ele>649.40002441406</ele>
        <time>2014-05-03T10:23:05.000Z</time>
      </trkpt>
      <trkpt lat="44.40773" lon="5.22135">
        <ele>649.20001220703</ele>
        <time>2014-05-03T10:23:07.000Z</time>
      </trkpt>
      <trkpt lat="44.40797" lon="5.2213">
        <ele>650.59997558594</ele>
        <time>2014-05-03T10:23:14.000Z</time>
      </trkpt>
      <trkpt lat="44.40805" lon="5.22133">
        <ele>650</ele>
        <time>2014-05-03T10:23:16.000Z</time>
      </trkpt>
      <trkpt lat="44.40809" lon="5.22134">
        <ele>649.79998779297</ele>
        <time>2014-05-03T10:23:17.000Z</time>
      </trkpt>
      <trkpt lat="44.40845" lon="5.22171">
        <ele>652</ele>
        <time>2014-05-03T10:23:27.000Z</time>
      </trkpt>
      <trkpt lat="44.4086" lon="5.22195">
        <ele>653</ele>
        <time>2014-05-03T10:23:35.000Z</time>
      </trkpt>
      <trkpt lat="44.40866" lon="5.22202">
        <ele>654.59997558594</ele>
        <time>2014-05-03T10:23:40.000Z</time>
      </trkpt>
      <trkpt lat="44.40867" lon="5.22209">
        <ele>655.59997558594</ele>
        <time>2014-05-03T10:23:43.000Z</time>
      </trkpt>
      <trkpt lat="44.40864" lon="5.22229">
        <ele>656.79998779297</ele>
        <time>2014-05-03T10:23:50.000Z</time>
      </trkpt>
      <trkpt lat="44.40865" lon="5.22234">
        <ele>657</ele>
        <time>2014-05-03T10:23:52.000Z</time>
      </trkpt>
      <trkpt lat="44.4086" lon="5.22283">
        <ele>659.59997558594</ele>
        <time>2014-05-03T10:24:08.000Z</time>
      </trkpt>
      <trkpt lat="44.40852" lon="5.22355">
        <ele>656.59997558594</ele>
        <time>2014-05-03T10:24:18.000Z</time>
      </trkpt>
      <trkpt lat="44.40851" lon="5.22362">
        <ele>656.40002441406</ele>
        <time>2014-05-03T10:24:19.000Z</time>
      </trkpt>
      <trkpt lat="44.40852" lon="5.22393">
        <ele>654.79998779297</ele>
        <time>2014-05-03T10:24:23.000Z</time>
      </trkpt>
      <trkpt lat="44.40846" lon="5.22422">
        <ele>652.79998779297</ele>
        <time>2014-05-03T10:24:27.000Z</time>
      </trkpt>
      <trkpt lat="44.40832" lon="5.22432">
        <ele>652.20001220703</ele>
        <time>2014-05-03T10:24:30.000Z</time>
      </trkpt>
      <trkpt lat="44.4082" lon="5.22442">
        <ele>651.79998779297</ele>
        <time>2014-05-03T10:24:32.000Z</time>
      </trkpt>
      <trkpt lat="44.40792" lon="5.22488">
        <ele>648.59997558594</ele>
        <time>2014-05-03T10:24:38.000Z</time>
      </trkpt>
      <trkpt lat="44.40785" lon="5.22522">
        <ele>648.20001220703</ele>
        <time>2014-05-03T10:24:42.000Z</time>
      </trkpt>
      <trkpt lat="44.40786" lon="5.22577">
        <ele>643.59997558594</ele>
        <time>2014-05-03T10:24:48.000Z</time>
      </trkpt>
      <trkpt lat="44.40786" lon="5.22595">
        <ele>639.79998779297</ele>
        <time>2014-05-03T10:24:50.000Z</time>
      </trkpt>
      <trkpt lat="44.40795" lon="5.22658">
        <ele>635.20001220703</ele>
        <time>2014-05-03T10:24:56.000Z</time>
      </trkpt>
      <trkpt lat="44.40792" lon="5.22705">
        <ele>629.59997558594</ele>
        <time>2014-05-03T10:25:00.000Z</time>
      </trkpt>
      <trkpt lat="44.40789" lon="5.22744">
        <ele>626</ele>
        <time>2014-05-03T10:25:03.000Z</time>
      </trkpt>
      <trkpt lat="44.40789" lon="5.22756">
        <ele>625.20001220703</ele>
        <time>2014-05-03T10:25:04.000Z</time>
      </trkpt>
      <trkpt lat="44.40798" lon="5.22812">
        <ele>621.79998779297</ele>
        <time>2014-05-03T10:25:10.000Z</time>
      </trkpt>
      <trkpt lat="44.40812" lon="5.22831">
        <ele>618.40002441406</ele>
        <time>2014-05-03T10:25:14.000Z</time>
      </trkpt>
      <trkpt lat="44.40815" lon="5.22856">
        <ele>616</ele>
        <time>2014-05-03T10:25:18.000Z</time>
      </trkpt>
      <trkpt lat="44.40805" lon="5.22892">
        <ele>613.20001220703</ele>
        <time>2014-05-03T10:25:22.000Z</time>
      </trkpt>
      <trkpt lat="44.40799" lon="5.22923">
        <ele>609</ele>
        <time>2014-05-03T10:25:25.000Z</time>
      </trkpt>
      <trkpt lat="44.40797" lon="5.22934">
        <ele>606.79998779297</ele>
        <time>2014-05-03T10:25:26.000Z</time>
      </trkpt>
      <trkpt lat="44.40799" lon="5.22964">
        <ele>601.20001220703</ele>
        <time>2014-05-03T10:25:29.000Z</time>
      </trkpt>
      <trkpt lat="44.40813" lon="5.22996">
        <ele>598</ele>
        <time>2014-05-03T10:25:33.000Z</time>
      </trkpt>
      <trkpt lat="44.40823" lon="5.23022">
        <ele>592.59997558594</ele>
        <time>2014-05-03T10:25:36.000Z</time>
      </trkpt>
      <trkpt lat="44.40836" lon="5.23052">
        <ele>588.79998779297</ele>
        <time>2014-05-03T10:25:39.000Z</time>
      </trkpt>
      <trkpt lat="44.40839" lon="5.23064">
        <ele>587.59997558594</ele>
        <time>2014-05-03T10:25:40.000Z</time>
      </trkpt>
      <trkpt lat="44.40851" lon="5.23095">
        <ele>582</ele>
        <time>2014-05-03T10:25:43.000Z</time>
      </trkpt>
      <trkpt lat="44.40854" lon="5.23105">
        <ele>580.40002441406</ele>
        <time>2014-05-03T10:25:44.000Z</time>
      </trkpt>
      <trkpt lat="44.40874" lon="5.2314">
        <ele>575</ele>
        <time>2014-05-03T10:25:48.000Z</time>
      </trkpt>
      <trkpt lat="44.40884" lon="5.23148">
        <ele>574</ele>
        <time>2014-05-03T10:25:50.000Z</time>
      </trkpt>
      <trkpt lat="44.40898" lon="5.2315">
        <ele>568.79998779297</ele>
        <time>2014-05-03T10:25:52.000Z</time>
      </trkpt>
      <trkpt lat="44.40908" lon="5.23162">
        <ele>567.20001220703</ele>
        <time>2014-05-03T10:25:54.000Z</time>
      </trkpt>
      <trkpt lat="44.40918" lon="5.2319">
        <ele>567.20001220703</ele>
        <time>2014-05-03T10:25:57.000Z</time>
      </trkpt>
      <trkpt lat="44.40925" lon="5.23226">
        <ele>562.20001220703</ele>
        <time>2014-05-03T10:26:00.000Z</time>
      </trkpt>
      <trkpt lat="44.40954" lon="5.23285">
        <ele>556.40002441406</ele>
        <time>2014-05-03T10:26:06.000Z</time>
      </trkpt>
      <trkpt lat="44.40966" lon="5.23306">
        <ele>555.59997558594</ele>
        <time>2014-05-03T10:26:08.000Z</time>
      </trkpt>
      <trkpt lat="44.40972" lon="5.23317">
        <ele>555.79998779297</ele>
        <time>2014-05-03T10:26:09.000Z</time>
      </trkpt>
      <trkpt lat="44.40982" lon="5.23354">
        <ele>558.40002441406</ele>
        <time>2014-05-03T10:26:13.000Z</time>
      </trkpt>
      <trkpt lat="44.40986" lon="5.23389">
        <ele>562.59997558594</ele>
        <time>2014-05-03T10:26:19.000Z</time>
      </trkpt>
      <trkpt lat="44.41007" lon="5.23415">
        <ele>565.59997558594</ele>
        <time>2014-05-03T10:26:28.000Z</time>
      </trkpt>
      <trkpt lat="44.41018" lon="5.23423">
        <ele>563.59997558594</ele>
        <time>2014-05-03T10:26:31.000Z</time>
      </trkpt>
      <trkpt lat="44.41028" lon="5.23426">
        <ele>563</ele>
        <time>2014-05-03T10:26:33.000Z</time>
      </trkpt>
      <trkpt lat="44.41039" lon="5.23426">
        <ele>562.40002441406</ele>
        <time>2014-05-03T10:26:35.000Z</time>
      </trkpt>
      <trkpt lat="44.41072" lon="5.2341">
        <ele>559</ele>
        <time>2014-05-03T10:26:40.000Z</time>
      </trkpt>
      <trkpt lat="44.41095" lon="5.23401">
        <ele>557.40002441406</ele>
        <time>2014-05-03T10:26:43.000Z</time>
      </trkpt>
      <trkpt lat="44.41102" lon="5.234">
        <ele>557.20001220703</ele>
        <time>2014-05-03T10:26:44.000Z</time>
      </trkpt>
      <trkpt lat="44.41144" lon="5.23409">
        <ele>558.59997558594</ele>
        <time>2014-05-03T10:26:51.000Z</time>
      </trkpt>
      <trkpt lat="44.41154" lon="5.2341">
        <ele>560</ele>
        <time>2014-05-03T10:26:53.000Z</time>
      </trkpt>
      <trkpt lat="44.41167" lon="5.23424">
        <ele>560</ele>
        <time>2014-05-03T10:26:59.000Z</time>
      </trkpt>
      <trkpt lat="44.41174" lon="5.23478">
        <ele>557</ele>
        <time>2014-05-03T10:27:05.000Z</time>
      </trkpt>
      <trkpt lat="44.41183" lon="5.23513">
        <ele>551.40002441406</ele>
        <time>2014-05-03T10:27:09.000Z</time>
      </trkpt>
      <trkpt lat="44.41196" lon="5.23532">
        <ele>547.79998779297</ele>
        <time>2014-05-03T10:27:12.000Z</time>
      </trkpt>
      <trkpt lat="44.41208" lon="5.23547">
        <ele>544.40002441406</ele>
        <time>2014-05-03T10:27:14.000Z</time>
      </trkpt>
      <trkpt lat="44.41221" lon="5.23563">
        <ele>540</ele>
        <time>2014-05-03T10:27:17.000Z</time>
      </trkpt>
      <trkpt lat="44.41226" lon="5.23568">
        <ele>538.79998779297</ele>
        <time>2014-05-03T10:27:18.000Z</time>
      </trkpt>
      <trkpt lat="44.41236" lon="5.23586">
        <ele>537</ele>
        <time>2014-05-03T10:27:21.000Z</time>
      </trkpt>
      <trkpt lat="44.41239" lon="5.23608">
        <ele>533</ele>
        <time>2014-05-03T10:27:24.000Z</time>
      </trkpt>
      <trkpt lat="44.41249" lon="5.23626">
        <ele>528.40002441406</ele>
        <time>2014-05-03T10:27:26.000Z</time>
      </trkpt>
      <trkpt lat="44.41267" lon="5.23669">
        <ele>521.59997558594</ele>
        <time>2014-05-03T10:27:31.000Z</time>
      </trkpt>
      <trkpt lat="44.41271" lon="5.23701">
        <ele>517</ele>
        <time>2014-05-03T10:27:34.000Z</time>
      </trkpt>
      <trkpt lat="44.41284" lon="5.23732">
        <ele>510.20001220703</ele>
        <time>2014-05-03T10:27:39.000Z</time>
      </trkpt>
      <trkpt lat="44.41283" lon="5.23729">
        <ele>508.79998779297</ele>
        <time>2014-05-03T10:27:46.000Z</time>
      </trkpt>
      <trkpt lat="44.41281" lon="5.23726">
        <ele>511.39999389648</ele>
        <time>2014-05-03T10:27:50.000Z</time>
      </trkpt>
      <trkpt lat="44.41281" lon="5.23727">
        <ele>512.20001220703</ele>
        <time>2014-05-03T10:27:54.000Z</time>
      </trkpt>
      <trkpt lat="44.41278" lon="5.23738">
        <ele>512.40002441406</ele>
        <time>2014-05-03T10:27:57.000Z</time>
      </trkpt>
      <trkpt lat="44.41284" lon="5.23755">
        <ele>508.20001220703</ele>
        <time>2014-05-03T10:28:01.000Z</time>
      </trkpt>
      <trkpt lat="44.41291" lon="5.23757">
        <ele>504.20001220703</ele>
        <time>2014-05-03T10:28:03.000Z</time>
      </trkpt>
      <trkpt lat="44.41302" lon="5.23761">
        <ele>501</ele>
        <time>2014-05-03T10:28:06.000Z</time>
      </trkpt>
      <trkpt lat="44.41305" lon="5.23763">
        <ele>500.60000610352</ele>
        <time>2014-05-03T10:28:07.000Z</time>
      </trkpt>
      <trkpt lat="44.41312" lon="5.23767">
        <ele>499.20001220703</ele>
        <time>2014-05-03T10:28:09.000Z</time>
      </trkpt>
      <trkpt lat="44.41323" lon="5.23761">
        <ele>497.60000610352</ele>
        <time>2014-05-03T10:28:12.000Z</time>
      </trkpt>
      <trkpt lat="44.41337" lon="5.23764">
        <ele>499.39999389648</ele>
        <time>2014-05-03T10:28:16.000Z</time>
      </trkpt>
      <trkpt lat="44.41341" lon="5.23765">
        <ele>499.20001220703</ele>
        <time>2014-05-03T10:28:26.000Z</time>
      </trkpt>
      <trkpt lat="44.41345" lon="5.2377">
        <ele>496.60000610352</ele>
        <time>2014-05-03T10:28:44.000Z</time>
      </trkpt>
      <trkpt lat="44.41345" lon="5.2377">
        <ele>496.60000610352</ele>
        <time>2014-05-03T10:29:14.000Z</time>
      </trkpt>
      <trkpt lat="44.41343" lon="5.2377">
        <ele>498.39999389648</ele>
        <time>2014-05-03T10:29:27.000Z</time>
      </trkpt>
      <trkpt lat="44.41342" lon="5.23769">
        <ele>498.79998779297</ele>
        <time>2014-05-03T10:29:29.000Z</time>
      </trkpt>
      <trkpt lat="44.4134" lon="5.23771">
        <ele>499.60000610352</ele>
        <time>2014-05-03T10:29:45.000Z</time>
      </trkpt>
      <trkpt lat="44.41339" lon="5.2377">
        <ele>499.60000610352</ele>
        <time>2014-05-03T10:30:08.000Z</time>
      </trkpt>
      <trkpt lat="44.41337" lon="5.23768">
        <ele>499.60000610352</ele>
        <time>2014-05-03T10:30:32.000Z</time>
      </trkpt>
      <trkpt lat="44.41336" lon="5.23768">
        <ele>499.60000610352</ele>
        <time>2014-05-03T10:30:59.000Z</time>
      </trkpt>
      <trkpt lat="44.41336" lon="5.2377">
        <ele>500.39999389648</ele>
        <time>2014-05-03T10:31:28.000Z</time>
      </trkpt>
      <trkpt lat="44.41335" lon="5.2377">
        <ele>500.39999389648</ele>
        <time>2014-05-03T10:31:55.000Z</time>
      </trkpt>
      <trkpt lat="44.41336" lon="5.23772">
        <ele>500.39999389648</ele>
        <time>2014-05-03T10:32:22.000Z</time>
      </trkpt>
      <trkpt lat="44.41338" lon="5.23772">
        <ele>500.39999389648</ele>
        <time>2014-05-03T10:32:49.000Z</time>
      </trkpt>
      <trkpt lat="44.41337" lon="5.23772">
        <ele>500.39999389648</ele>
        <time>2014-05-03T10:33:08.000Z</time>
      </trkpt>
      <trkpt lat="44.41337" lon="5.2377">
        <ele>500.39999389648</ele>
        <time>2014-05-03T10:33:28.000Z</time>
      </trkpt>
      <trkpt lat="44.41339" lon="5.23764">
        <ele>500.39999389648</ele>
        <time>2014-05-03T10:33:51.000Z</time>
      </trkpt>
      <trkpt lat="44.4134" lon="5.23765">
        <ele>500.39999389648</ele>
        <time>2014-05-03T10:34:20.000Z</time>
      </trkpt>
      <trkpt lat="44.41338" lon="5.23767">
        <ele>500.39999389648</ele>
        <time>2014-05-03T10:34:43.000Z</time>
      </trkpt>
      <trkpt lat="44.41337" lon="5.23768">
        <ele>500.39999389648</ele>
        <time>2014-05-03T10:35:01.000Z</time>
      </trkpt>
      <trkpt lat="44.41337" lon="5.23768">
        <ele>500.39999389648</ele>
        <time>2014-05-03T10:35:27.000Z</time>
      </trkpt>
      <trkpt lat="44.41333" lon="5.23765">
        <ele>500.39999389648</ele>
        <time>2014-05-03T10:35:51.000Z</time>
      </trkpt>
      <trkpt lat="44.41331" lon="5.23766">
        <ele>500.39999389648</ele>
        <time>2014-05-03T10:36:18.000Z</time>
      </trkpt>
      <trkpt lat="44.4133" lon="5.23767">
        <ele>500.39999389648</ele>
        <time>2014-05-03T10:36:47.000Z</time>
      </trkpt>
      <trkpt lat="44.41334" lon="5.23765">
        <ele>500.39999389648</ele>
        <time>2014-05-03T10:37:11.000Z</time>
      </trkpt>
      <trkpt lat="44.41367" lon="5.23777">
        <ele>500.39999389648</ele>
        <time>2014-05-03T10:37:22.000Z</time>
      </trkpt>
      <trkpt lat="44.4141" lon="5.23795">
        <ele>502.39999389648</ele>
        <time>2014-05-03T10:37:35.000Z</time>
      </trkpt>
      <trkpt lat="44.4143" lon="5.2381">
        <ele>499.20001220703</ele>
        <time>2014-05-03T10:37:44.000Z</time>
      </trkpt>
      <trkpt lat="44.41448" lon="5.23812">
        <ele>502.39999389648</ele>
        <time>2014-05-03T10:37:54.000Z</time>
      </trkpt>
      <trkpt lat="44.41456" lon="5.23812">
        <ele>500.39999389648</ele>
        <time>2014-05-03T10:37:58.000Z</time>
      </trkpt>
      <trkpt lat="44.41482" lon="5.23834">
        <ele>501</ele>
        <time>2014-05-03T10:38:12.000Z</time>
      </trkpt>
      <trkpt lat="44.41488" lon="5.23851">
        <ele>504</ele>
        <time>2014-05-03T10:38:18.000Z</time>
      </trkpt>
      <trkpt lat="44.41496" lon="5.23851">
        <ele>505</ele>
        <time>2014-05-03T10:38:22.000Z</time>
      </trkpt>
      <trkpt lat="44.41533" lon="5.23848">
        <ele>505.20001220703</ele>
        <time>2014-05-03T10:38:35.000Z</time>
      </trkpt>
      <trkpt lat="44.41571" lon="5.2385">
        <ele>507</ele>
        <time>2014-05-03T10:38:47.000Z</time>
      </trkpt>
      <trkpt lat="44.41606" lon="5.23842">
        <ele>507</ele>
        <time>2014-05-03T10:38:58.000Z</time>
      </trkpt>
      <trkpt lat="44.41643" lon="5.2383">
        <ele>507</ele>
        <time>2014-05-03T10:39:10.000Z</time>
      </trkpt>
      <trkpt lat="44.41679" lon="5.23807">
        <ele>508</ele>
        <time>2014-05-03T10:39:23.000Z</time>
      </trkpt>
      <trkpt lat="44.41687" lon="5.238">
        <ele>507.60000610352</ele>
        <time>2014-05-03T10:39:25.000Z</time>
      </trkpt>
      <trkpt lat="44.41697" lon="5.23792">
        <ele>506</ele>
        <time>2014-05-03T10:39:28.000Z</time>
      </trkpt>
      <trkpt lat="44.41729" lon="5.23771">
        <ele>508.60000610352</ele>
        <time>2014-05-03T10:39:40.000Z</time>
      </trkpt>
      <trkpt lat="44.41747" lon="5.23772">
        <ele>509</ele>
        <time>2014-05-03T10:39:47.000Z</time>
      </trkpt>
      <trkpt lat="44.41745" lon="5.23796">
        <ele>511.20001220703</ele>
        <time>2014-05-03T10:39:56.000Z</time>
      </trkpt>
      <trkpt lat="44.41743" lon="5.23834">
        <ele>514.59997558594</ele>
        <time>2014-05-03T10:40:09.000Z</time>
      </trkpt>
      <trkpt lat="44.41743" lon="5.23869">
        <ele>518</ele>
        <time>2014-05-03T10:40:21.000Z</time>
      </trkpt>
      <trkpt lat="44.41748" lon="5.23923">
        <ele>520</ele>
        <time>2014-05-03T10:40:40.000Z</time>
      </trkpt>
      <trkpt lat="44.41744" lon="5.23958">
        <ele>523</ele>
        <time>2014-05-03T10:40:53.000Z</time>
      </trkpt>
      <trkpt lat="44.41733" lon="5.23989">
        <ele>526.20001220703</ele>
        <time>2014-05-03T10:41:08.000Z</time>
      </trkpt>
      <trkpt lat="44.41725" lon="5.24009">
        <ele>529.20001220703</ele>
        <time>2014-05-03T10:41:18.000Z</time>
      </trkpt>
      <trkpt lat="44.41729" lon="5.24039">
        <ele>531</ele>
        <time>2014-05-03T10:41:31.000Z</time>
      </trkpt>
      <trkpt lat="44.41751" lon="5.24059">
        <ele>534.40002441406</ele>
        <time>2014-05-03T10:41:45.000Z</time>
      </trkpt>
      <trkpt lat="44.41759" lon="5.24089">
        <ele>535.79998779297</ele>
        <time>2014-05-03T10:41:58.000Z</time>
      </trkpt>
      <trkpt lat="44.41765" lon="5.24126">
        <ele>538.79998779297</ele>
        <time>2014-05-03T10:42:13.000Z</time>
      </trkpt>
      <trkpt lat="44.41769" lon="5.24159">
        <ele>542</ele>
        <time>2014-05-03T10:42:26.000Z</time>
      </trkpt>
      <trkpt lat="44.41767" lon="5.24191">
        <ele>545</ele>
        <time>2014-05-03T10:42:39.000Z</time>
      </trkpt>
      <trkpt lat="44.41766" lon="5.24201">
        <ele>547</ele>
        <time>2014-05-03T10:42:43.000Z</time>
      </trkpt>
      <trkpt lat="44.41768" lon="5.24233">
        <ele>550.20001220703</ele>
        <time>2014-05-03T10:42:56.000Z</time>
      </trkpt>
      <trkpt lat="44.41776" lon="5.24283">
        <ele>553.20001220703</ele>
        <time>2014-05-03T10:43:15.000Z</time>
      </trkpt>
      <trkpt lat="44.41798" lon="5.24343">
        <ele>555</ele>
        <time>2014-05-03T10:43:33.000Z</time>
      </trkpt>
      <trkpt lat="44.4181" lon="5.24403">
        <ele>556.79998779297</ele>
        <time>2014-05-03T10:43:47.000Z</time>
      </trkpt>
      <trkpt lat="44.41825" lon="5.24378">
        <ele>557.79998779297</ele>
        <time>2014-05-03T10:43:56.000Z</time>
      </trkpt>
      <trkpt lat="44.41825" lon="5.2437">
        <ele>558</ele>
        <time>2014-05-03T10:43:58.000Z</time>
      </trkpt>
      <trkpt lat="44.41822" lon="5.2435">
        <ele>558.40002441406</ele>
        <time>2014-05-03T10:44:02.000Z</time>
      </trkpt>
      <trkpt lat="44.41832" lon="5.24313">
        <ele>558.79998779297</ele>
        <time>2014-05-03T10:44:08.000Z</time>
      </trkpt>
      <trkpt lat="44.41845" lon="5.24298">
        <ele>557</ele>
        <time>2014-05-03T10:44:11.000Z</time>
      </trkpt>
      <trkpt lat="44.41858" lon="5.24289">
        <ele>555.40002441406</ele>
        <time>2014-05-03T10:44:14.000Z</time>
      </trkpt>
      <trkpt lat="44.41885" lon="5.24266">
        <ele>554.40002441406</ele>
        <time>2014-05-03T10:44:20.000Z</time>
      </trkpt>
      <trkpt lat="44.41904" lon="5.24237">
        <ele>557.20001220703</ele>
        <time>2014-05-03T10:44:25.000Z</time>
      </trkpt>
      <trkpt lat="44.41919" lon="5.24229">
        <ele>555.59997558594</ele>
        <time>2014-05-03T10:44:28.000Z</time>
      </trkpt>
      <trkpt lat="44.41946" lon="5.24202">
        <ele>553.59997558594</ele>
        <time>2014-05-03T10:44:34.000Z</time>
      </trkpt>
      <trkpt lat="44.41981" lon="5.24167">
        <ele>553</ele>
        <time>2014-05-03T10:44:41.000Z</time>
      </trkpt>
      <trkpt lat="44.41995" lon="5.24163">
        <ele>552</ele>
        <time>2014-05-03T10:44:43.000Z</time>
      </trkpt>
      <trkpt lat="44.42024" lon="5.24153">
        <ele>550.79998779297</ele>
        <time>2014-05-03T10:44:47.000Z</time>
      </trkpt>
      <trkpt lat="44.42054" lon="5.24142">
        <ele>554</ele>
        <time>2014-05-03T10:44:53.000Z</time>
      </trkpt>
      <trkpt lat="44.42077" lon="5.24141">
        <ele>555.20001220703</ele>
        <time>2014-05-03T10:44:58.000Z</time>
      </trkpt>
      <trkpt lat="44.421" lon="5.24132">
        <ele>558.59997558594</ele>
        <time>2014-05-03T10:45:07.000Z</time>
      </trkpt>
      <trkpt lat="44.42116" lon="5.24135">
        <ele>561.59997558594</ele>
        <time>2014-05-03T10:45:19.000Z</time>
      </trkpt>
      <trkpt lat="44.42143" lon="5.24126">
        <ele>564</ele>
        <time>2014-05-03T10:45:31.000Z</time>
      </trkpt>
      <trkpt lat="44.42157" lon="5.24112">
        <ele>560.40002441406</ele>
        <time>2014-05-03T10:45:35.000Z</time>
      </trkpt>
      <trkpt lat="44.42166" lon="5.24098">
        <ele>559</ele>
        <time>2014-05-03T10:45:38.000Z</time>
      </trkpt>
      <trkpt lat="44.4217" lon="5.24079">
        <ele>558.20001220703</ele>
        <time>2014-05-03T10:45:42.000Z</time>
      </trkpt>
      <trkpt lat="44.42177" lon="5.24069">
        <ele>555.20001220703</ele>
        <time>2014-05-03T10:45:44.000Z</time>
      </trkpt>
      <trkpt lat="44.42196" lon="5.24037">
        <ele>551.40002441406</ele>
        <time>2014-05-03T10:45:48.000Z</time>
      </trkpt>
      <trkpt lat="44.42204" lon="5.24015">
        <ele>548.59997558594</ele>
        <time>2014-05-03T10:45:51.000Z</time>
      </trkpt>
      <trkpt lat="44.4221" lon="5.24002">
        <ele>547.79998779297</ele>
        <time>2014-05-03T10:45:53.000Z</time>
      </trkpt>
      <trkpt lat="44.4222" lon="5.2399">
        <ele>547.59997558594</ele>
        <time>2014-05-03T10:45:55.000Z</time>
      </trkpt>
      <trkpt lat="44.42239" lon="5.23944">
        <ele>546</ele>
        <time>2014-05-03T10:46:02.000Z</time>
      </trkpt>
      <trkpt lat="44.42253" lon="5.23906">
        <ele>544.59997558594</ele>
        <time>2014-05-03T10:46:07.000Z</time>
      </trkpt>
      <trkpt lat="44.42262" lon="5.23882">
        <ele>542.59997558594</ele>
        <time>2014-05-03T10:46:10.000Z</time>
      </trkpt>
      <trkpt lat="44.42274" lon="5.23861">
        <ele>541</ele>
        <time>2014-05-03T10:46:13.000Z</time>
      </trkpt>
      <trkpt lat="44.42287" lon="5.2386">
        <ele>538.79998779297</ele>
        <time>2014-05-03T10:46:17.000Z</time>
      </trkpt>
      <trkpt lat="44.4229" lon="5.2386">
        <ele>538.59997558594</ele>
        <time>2014-05-03T10:46:18.000Z</time>
      </trkpt>
      <trkpt lat="44.42303" lon="5.2386">
        <ele>538.59997558594</ele>
        <time>2014-05-03T10:46:22.000Z</time>
      </trkpt>
      <trkpt lat="44.42303" lon="5.23829">
        <ele>540</ele>
        <time>2014-05-03T10:46:29.000Z</time>
      </trkpt>
      <trkpt lat="44.42312" lon="5.23803">
        <ele>536.79998779297</ele>
        <time>2014-05-03T10:46:33.000Z</time>
      </trkpt>
      <trkpt lat="44.4232" lon="5.23792">
        <ele>536.20001220703</ele>
        <time>2014-05-03T10:46:35.000Z</time>
      </trkpt>
      <trkpt lat="44.42341" lon="5.23769">
        <ele>532.40002441406</ele>
        <time>2014-05-03T10:46:39.000Z</time>
      </trkpt>
      <trkpt lat="44.42365" lon="5.23758">
        <ele>530.79998779297</ele>
        <time>2014-05-03T10:46:46.000Z</time>
      </trkpt>
      <trkpt lat="44.42375" lon="5.23757">
        <ele>534</ele>
        <time>2014-05-03T10:46:50.000Z</time>
      </trkpt>
      <trkpt lat="44.42418" lon="5.2374">
        <ele>534.20001220703</ele>
        <time>2014-05-03T10:47:04.000Z</time>
      </trkpt>
      <trkpt lat="44.42423" lon="5.2373">
        <ele>532</ele>
        <time>2014-05-03T10:47:08.000Z</time>
      </trkpt>
      <trkpt lat="44.4243" lon="5.23713">
        <ele>535.20001220703</ele>
        <time>2014-05-03T10:47:16.000Z</time>
      </trkpt>
      <trkpt lat="44.42431" lon="5.2371">
        <ele>535.59997558594</ele>
        <time>2014-05-03T10:47:18.000Z</time>
      </trkpt>
      <trkpt lat="44.42437" lon="5.23707">
        <ele>536.59997558594</ele>
        <time>2014-05-03T10:47:23.000Z</time>
      </trkpt>
      <trkpt lat="44.42452" lon="5.237">
        <ele>539.79998779297</ele>
        <time>2014-05-03T10:47:36.000Z</time>
      </trkpt>
      <trkpt lat="44.42477" lon="5.23698">
        <ele>542.40002441406</ele>
        <time>2014-05-03T10:47:52.000Z</time>
      </trkpt>
      <trkpt lat="44.42493" lon="5.23692">
        <ele>544</ele>
        <time>2014-05-03T10:48:05.000Z</time>
      </trkpt>
      <trkpt lat="44.42498" lon="5.2369">
        <ele>545.20001220703</ele>
        <time>2014-05-03T10:48:10.000Z</time>
      </trkpt>
      <trkpt lat="44.42509" lon="5.23682">
        <ele>548.20001220703</ele>
        <time>2014-05-03T10:48:21.000Z</time>
      </trkpt>
      <trkpt lat="44.42518" lon="5.23683">
        <ele>548.40002441406</ele>
        <time>2014-05-03T10:48:26.000Z</time>
      </trkpt>
      <trkpt lat="44.42558" lon="5.23722">
        <ele>548.40002441406</ele>
        <time>2014-05-03T10:48:41.000Z</time>
      </trkpt>
      <trkpt lat="44.42574" lon="5.23742">
        <ele>550.40002441406</ele>
        <time>2014-05-03T10:48:48.000Z</time>
      </trkpt>
      <trkpt lat="44.42598" lon="5.23774">
        <ele>550.79998779297</ele>
        <time>2014-05-03T10:49:01.000Z</time>
      </trkpt>
      <trkpt lat="44.42608" lon="5.23801">
        <ele>553.20001220703</ele>
        <time>2014-05-03T10:49:14.000Z</time>
      </trkpt>
      <trkpt lat="44.42633" lon="5.2383">
        <ele>554.59997558594</ele>
        <time>2014-05-03T10:49:29.000Z</time>
      </trkpt>
      <trkpt lat="44.42664" lon="5.23848">
        <ele>557.59997558594</ele>
        <time>2014-05-03T10:49:44.000Z</time>
      </trkpt>
      <trkpt lat="44.42704" lon="5.23862">
        <ele>559.79998779297</ele>
        <time>2014-05-03T10:49:59.000Z</time>
      </trkpt>
      <trkpt lat="44.42742" lon="5.23876">
        <ele>563</ele>
        <time>2014-05-03T10:50:12.000Z</time>
      </trkpt>
      <trkpt lat="44.42782" lon="5.23912">
        <ele>564.79998779297</ele>
        <time>2014-05-03T10:50:28.000Z</time>
      </trkpt>
      <trkpt lat="44.42798" lon="5.23937">
        <ele>565.20001220703</ele>
        <time>2014-05-03T10:50:35.000Z</time>
      </trkpt>
      <trkpt lat="44.42825" lon="5.24018">
        <ele>567</ele>
        <time>2014-05-03T10:50:51.000Z</time>
      </trkpt>
      <trkpt lat="44.42856" lon="5.24096">
        <ele>568.79998779297</ele>
        <time>2014-05-03T10:51:10.000Z</time>
      </trkpt>
      <trkpt lat="44.4286" lon="5.24121">
        <ele>570.20001220703</ele>
        <time>2014-05-03T10:51:20.000Z</time>
      </trkpt>
      <trkpt lat="44.4286" lon="5.2413">
        <ele>571</ele>
        <time>2014-05-03T10:51:24.000Z</time>
      </trkpt>
      <trkpt lat="44.42857" lon="5.24161">
        <ele>573.59997558594</ele>
        <time>2014-05-03T10:51:40.000Z</time>
      </trkpt>
      <trkpt lat="44.4286" lon="5.2417">
        <ele>573.59997558594</ele>
        <time>2014-05-03T10:51:45.000Z</time>
      </trkpt>
      <trkpt lat="44.42863" lon="5.24176">
        <ele>574.40002441406</ele>
        <time>2014-05-03T10:51:49.000Z</time>
      </trkpt>
      <trkpt lat="44.42876" lon="5.24188">
        <ele>578</ele>
        <time>2014-05-03T10:51:59.000Z</time>
      </trkpt>
      <trkpt lat="44.42895" lon="5.24192">
        <ele>579.20001220703</ele>
        <time>2014-05-03T10:52:12.000Z</time>
      </trkpt>
      <trkpt lat="44.42915" lon="5.24204">
        <ele>582.40002441406</ele>
        <time>2014-05-03T10:52:26.000Z</time>
      </trkpt>
      <trkpt lat="44.42935" lon="5.24222">
        <ele>585.40002441406</ele>
        <time>2014-05-03T10:52:40.000Z</time>
      </trkpt>
      <trkpt lat="44.42937" lon="5.24223">
        <ele>585.59997558594</ele>
        <time>2014-05-03T10:52:41.000Z</time>
      </trkpt>
      <trkpt lat="44.42964" lon="5.24233">
        <ele>586.59997558594</ele>
        <time>2014-05-03T10:52:54.000Z</time>
      </trkpt>
      <trkpt lat="44.43001" lon="5.24245">
        <ele>586.79998779297</ele>
        <time>2014-05-03T10:53:11.000Z</time>
      </trkpt>
      <trkpt lat="44.43006" lon="5.24246">
        <ele>585.79998779297</ele>
        <time>2014-05-03T10:53:13.000Z</time>
      </trkpt>
      <trkpt lat="44.43023" lon="5.24251">
        <ele>584</ele>
        <time>2014-05-03T10:53:20.000Z</time>
      </trkpt>
      <trkpt lat="44.43034" lon="5.24254">
        <ele>587.59997558594</ele>
        <time>2014-05-03T10:53:25.000Z</time>
      </trkpt>
      <trkpt lat="44.43042" lon="5.24256">
        <ele>590.59997558594</ele>
        <time>2014-05-03T10:53:28.000Z</time>
      </trkpt>
      <trkpt lat="44.43045" lon="5.24257">
        <ele>590.79998779297</ele>
        <time>2014-05-03T10:53:29.000Z</time>
      </trkpt>
      <trkpt lat="44.43089" lon="5.24273">
        <ele>589.79998779297</ele>
        <time>2014-05-03T10:53:47.000Z</time>
      </trkpt>
      <trkpt lat="44.43112" lon="5.24278">
        <ele>592.59997558594</ele>
        <time>2014-05-03T10:53:56.000Z</time>
      </trkpt>
      <trkpt lat="44.4314" lon="5.24284">
        <ele>594.59997558594</ele>
        <time>2014-05-03T10:54:03.000Z</time>
      </trkpt>
      <trkpt lat="44.43167" lon="5.24293">
        <ele>595.59997558594</ele>
        <time>2014-05-03T10:54:09.000Z</time>
      </trkpt>
      <trkpt lat="44.43182" lon="5.24305">
        <ele>593.40002441406</ele>
        <time>2014-05-03T10:54:14.000Z</time>
      </trkpt>
      <trkpt lat="44.43183" lon="5.24307">
        <ele>593.40002441406</ele>
        <time>2014-05-03T10:54:15.000Z</time>
      </trkpt>
      <trkpt lat="44.43183" lon="5.24309">
        <ele>593.20001220703</ele>
        <time>2014-05-03T10:54:17.000Z</time>
      </trkpt>
      <trkpt lat="44.43177" lon="5.24311">
        <ele>593.20001220703</ele>
        <time>2014-05-03T10:54:22.000Z</time>
      </trkpt>
      <trkpt lat="44.4317" lon="5.24305">
        <ele>593.20001220703</ele>
        <time>2014-05-03T10:54:28.000Z</time>
      </trkpt>
      <trkpt lat="44.4315" lon="5.24306">
        <ele>596.20001220703</ele>
        <time>2014-05-03T10:54:40.000Z</time>
      </trkpt>
      <trkpt lat="44.43125" lon="5.24313">
        <ele>599.20001220703</ele>
        <time>2014-05-03T10:54:55.000Z</time>
      </trkpt>
      <trkpt lat="44.43101" lon="5.24322">
        <ele>602</ele>
        <time>2014-05-03T10:55:12.000Z</time>
      </trkpt>
      <trkpt lat="44.43086" lon="5.24328">
        <ele>605</ele>
        <time>2014-05-03T10:55:23.000Z</time>
      </trkpt>
      <trkpt lat="44.43072" lon="5.24335">
        <ele>607</ele>
        <time>2014-05-03T10:55:35.000Z</time>
      </trkpt>
      <trkpt lat="44.43057" lon="5.24341">
        <ele>609.59997558594</ele>
        <time>2014-05-03T10:55:48.000Z</time>
      </trkpt>
      <trkpt lat="44.43048" lon="5.24344">
        <ele>610.20001220703</ele>
        <time>2014-05-03T10:55:55.000Z</time>
      </trkpt>
      <trkpt lat="44.43031" lon="5.24355">
        <ele>613.40002441406</ele>
        <time>2014-05-03T10:56:09.000Z</time>
      </trkpt>
      <trkpt lat="44.43012" lon="5.24364">
        <ele>616.40002441406</ele>
        <time>2014-05-03T10:56:24.000Z</time>
      </trkpt>
      <trkpt lat="44.43008" lon="5.24365">
        <ele>617.20001220703</ele>
        <time>2014-05-03T10:56:27.000Z</time>
      </trkpt>
      <trkpt lat="44.42997" lon="5.2437">
        <ele>618.59997558594</ele>
        <time>2014-05-03T10:56:36.000Z</time>
      </trkpt>
      <trkpt lat="44.4298" lon="5.24382">
        <ele>621.40002441406</ele>
        <time>2014-05-03T10:56:51.000Z</time>
      </trkpt>
      <trkpt lat="44.42965" lon="5.24393">
        <ele>624.40002441406</ele>
        <time>2014-05-03T10:57:05.000Z</time>
      </trkpt>
      <trkpt lat="44.42948" lon="5.24407">
        <ele>626.79998779297</ele>
        <time>2014-05-03T10:57:19.000Z</time>
      </trkpt>
      <trkpt lat="44.42932" lon="5.24429">
        <ele>629.59997558594</ele>
        <time>2014-05-03T10:57:33.000Z</time>
      </trkpt>
      <trkpt lat="44.4292" lon="5.24448">
        <ele>632.59997558594</ele>
        <time>2014-05-03T10:57:48.000Z</time>
      </trkpt>
      <trkpt lat="44.42917" lon="5.24454">
        <ele>633.40002441406</ele>
        <time>2014-05-03T10:57:53.000Z</time>
      </trkpt>
      <trkpt lat="44.42914" lon="5.24459">
        <ele>634.20001220703</ele>
        <time>2014-05-03T10:57:57.000Z</time>
      </trkpt>
      <trkpt lat="44.42912" lon="5.24466">
        <ele>634.79998779297</ele>
        <time>2014-05-03T10:58:01.000Z</time>
      </trkpt>
      <trkpt lat="44.42902" lon="5.24491">
        <ele>637.79998779297</ele>
        <time>2014-05-03T10:58:16.000Z</time>
      </trkpt>
      <trkpt lat="44.42898" lon="5.24504">
        <ele>639.40002441406</ele>
        <time>2014-05-03T10:58:23.000Z</time>
      </trkpt>
      <trkpt lat="44.42896" lon="5.24515">
        <ele>641</ele>
        <time>2014-05-03T10:58:29.000Z</time>
      </trkpt>
      <trkpt lat="44.42894" lon="5.24531">
        <ele>642.59997558594</ele>
        <time>2014-05-03T10:58:38.000Z</time>
      </trkpt>
      <trkpt lat="44.42891" lon="5.24551">
        <ele>644.40002441406</ele>
        <time>2014-05-03T10:58:49.000Z</time>
      </trkpt>
      <trkpt lat="44.42891" lon="5.24567">
        <ele>646.20001220703</ele>
        <time>2014-05-03T10:58:58.000Z</time>
      </trkpt>
      <trkpt lat="44.42895" lon="5.24596">
        <ele>649.40002441406</ele>
        <time>2014-05-03T10:59:12.000Z</time>
      </trkpt>
      <trkpt lat="44.42899" lon="5.24624">
        <ele>652.59997558594</ele>
        <time>2014-05-03T10:59:25.000Z</time>
      </trkpt>
      <trkpt lat="44.42908" lon="5.24645">
        <ele>655.79998779297</ele>
        <time>2014-05-03T10:59:38.000Z</time>
      </trkpt>
      <trkpt lat="44.42921" lon="5.24661">
        <ele>657.79998779297</ele>
        <time>2014-05-03T10:59:51.000Z</time>
      </trkpt>
      <trkpt lat="44.42927" lon="5.24668">
        <ele>659.59997558594</ele>
        <time>2014-05-03T10:59:56.000Z</time>
      </trkpt>
      <trkpt lat="44.42925" lon="5.24693">
        <ele>661.59997558594</ele>
        <time>2014-05-03T11:00:10.000Z</time>
      </trkpt>
      <trkpt lat="44.42923" lon="5.24698">
        <ele>662.40002441406</ele>
        <time>2014-05-03T11:00:13.000Z</time>
      </trkpt>
      <trkpt lat="44.4292" lon="5.24706">
        <ele>663</ele>
        <time>2014-05-03T11:00:17.000Z</time>
      </trkpt>
      <trkpt lat="44.42919" lon="5.24709">
        <ele>663.40002441406</ele>
        <time>2014-05-03T11:00:19.000Z</time>
      </trkpt>
      <trkpt lat="44.42924" lon="5.24722">
        <ele>664.59997558594</ele>
        <time>2014-05-03T11:00:27.000Z</time>
      </trkpt>
      <trkpt lat="44.42932" lon="5.24736">
        <ele>666.40002441406</ele>
        <time>2014-05-03T11:00:34.000Z</time>
      </trkpt>
      <trkpt lat="44.42923" lon="5.24764">
        <ele>667.59997558594</ele>
        <time>2014-05-03T11:00:47.000Z</time>
      </trkpt>
      <trkpt lat="44.42917" lon="5.24786">
        <ele>669.79998779297</ele>
        <time>2014-05-03T11:01:00.000Z</time>
      </trkpt>
      <trkpt lat="44.42911" lon="5.24799">
        <ele>672.20001220703</ele>
        <time>2014-05-03T11:01:09.000Z</time>
      </trkpt>
      <trkpt lat="44.42909" lon="5.2482">
        <ele>675.59997558594</ele>
        <time>2014-05-03T11:01:22.000Z</time>
      </trkpt>
      <trkpt lat="44.42909" lon="5.24836">
        <ele>678.79998779297</ele>
        <time>2014-05-03T11:01:33.000Z</time>
      </trkpt>
      <trkpt lat="44.42907" lon="5.24853">
        <ele>681.40002441406</ele>
        <time>2014-05-03T11:01:43.000Z</time>
      </trkpt>
      <trkpt lat="44.42898" lon="5.24866">
        <ele>685</ele>
        <time>2014-05-03T11:01:55.000Z</time>
      </trkpt>
      <trkpt lat="44.4289" lon="5.24876">
        <ele>687.59997558594</ele>
        <time>2014-05-03T11:02:08.000Z</time>
      </trkpt>
      <trkpt lat="44.42886" lon="5.24893">
        <ele>690.79998779297</ele>
        <time>2014-05-03T11:02:22.000Z</time>
      </trkpt>
      <trkpt lat="44.42884" lon="5.2491">
        <ele>693.79998779297</ele>
        <time>2014-05-03T11:02:37.000Z</time>
      </trkpt>
      <trkpt lat="44.42879" lon="5.24926">
        <ele>697</ele>
        <time>2014-05-03T11:02:51.000Z</time>
      </trkpt>
      <trkpt lat="44.42873" lon="5.24944">
        <ele>700</ele>
        <time>2014-05-03T11:03:05.000Z</time>
      </trkpt>
      <trkpt lat="44.42866" lon="5.2496">
        <ele>703.20001220703</ele>
        <time>2014-05-03T11:03:20.000Z</time>
      </trkpt>
      <trkpt lat="44.4286" lon="5.24978">
        <ele>706.20001220703</ele>
        <time>2014-05-03T11:03:35.000Z</time>
      </trkpt>
      <trkpt lat="44.42858" lon="5.24996">
        <ele>708.79998779297</ele>
        <time>2014-05-03T11:03:52.000Z</time>
      </trkpt>
      <trkpt lat="44.42854" lon="5.25022">
        <ele>709.59997558594</ele>
        <time>2014-05-03T11:04:02.000Z</time>
      </trkpt>
      <trkpt lat="44.42832" lon="5.25066">
        <ele>709.59997558594</ele>
        <time>2014-05-03T11:04:14.000Z</time>
      </trkpt>
      <trkpt lat="44.42819" lon="5.25086">
        <ele>711.79998779297</ele>
        <time>2014-05-03T11:04:26.000Z</time>
      </trkpt>
      <trkpt lat="44.42818" lon="5.25087">
        <ele>712.20001220703</ele>
        <time>2014-05-03T11:04:27.000Z</time>
      </trkpt>
      <trkpt lat="44.42805" lon="5.25112">
        <ele>714.59997558594</ele>
        <time>2014-05-03T11:04:43.000Z</time>
      </trkpt>
      <trkpt lat="44.4279" lon="5.25129">
        <ele>717</ele>
        <time>2014-05-03T11:04:56.000Z</time>
      </trkpt>
      <trkpt lat="44.42786" lon="5.25135">
        <ele>717.79998779297</ele>
        <time>2014-05-03T11:05:01.000Z</time>
      </trkpt>
      <trkpt lat="44.42779" lon="5.25149">
        <ele>720.20001220703</ele>
        <time>2014-05-03T11:05:11.000Z</time>
      </trkpt>
      <trkpt lat="44.42771" lon="5.25164">
        <ele>722.20001220703</ele>
        <time>2014-05-03T11:05:21.000Z</time>
      </trkpt>
      <trkpt lat="44.42762" lon="5.25181">
        <ele>723</ele>
        <time>2014-05-03T11:05:29.000Z</time>
      </trkpt>
      <trkpt lat="44.42748" lon="5.25194">
        <ele>725.59997558594</ele>
        <time>2014-05-03T11:05:43.000Z</time>
      </trkpt>
      <trkpt lat="44.42746" lon="5.25195">
        <ele>726</ele>
        <time>2014-05-03T11:05:45.000Z</time>
      </trkpt>
      <trkpt lat="44.42743" lon="5.25208">
        <ele>727.79998779297</ele>
        <time>2014-05-03T11:05:59.000Z</time>
      </trkpt>
      <trkpt lat="44.42735" lon="5.25221">
        <ele>731</ele>
        <time>2014-05-03T11:06:10.000Z</time>
      </trkpt>
      <trkpt lat="44.42726" lon="5.25233">
        <ele>734.40002441406</ele>
        <time>2014-05-03T11:06:25.000Z</time>
      </trkpt>
      <trkpt lat="44.42717" lon="5.25249">
        <ele>737.59997558594</ele>
        <time>2014-05-03T11:06:42.000Z</time>
      </trkpt>
      <trkpt lat="44.42704" lon="5.25271">
        <ele>740.79998779297</ele>
        <time>2014-05-03T11:07:07.000Z</time>
      </trkpt>
      <trkpt lat="44.427" lon="5.25274">
        <ele>743.59997558594</ele>
        <time>2014-05-03T11:07:13.000Z</time>
      </trkpt>
      <trkpt lat="44.42696" lon="5.25277">
        <ele>744.40002441406</ele>
        <time>2014-05-03T11:07:16.000Z</time>
      </trkpt>
      <trkpt lat="44.42686" lon="5.25282">
        <ele>745</ele>
        <time>2014-05-03T11:07:23.000Z</time>
      </trkpt>
      <trkpt lat="44.42683" lon="5.25287">
        <ele>746.40002441406</ele>
        <time>2014-05-03T11:07:27.000Z</time>
      </trkpt>
      <trkpt lat="44.42677" lon="5.25303">
        <ele>749.79998779297</ele>
        <time>2014-05-03T11:07:38.000Z</time>
      </trkpt>
      <trkpt lat="44.42676" lon="5.25304">
        <ele>750</ele>
        <time>2014-05-03T11:07:39.000Z</time>
      </trkpt>
      <trkpt lat="44.42668" lon="5.25314">
        <ele>751.79998779297</ele>
        <time>2014-05-03T11:07:48.000Z</time>
      </trkpt>
      <trkpt lat="44.42662" lon="5.25319">
        <ele>753</ele>
        <time>2014-05-03T11:07:53.000Z</time>
      </trkpt>
      <trkpt lat="44.42658" lon="5.25341">
        <ele>753.79998779297</ele>
        <time>2014-05-03T11:08:05.000Z</time>
      </trkpt>
      <trkpt lat="44.42662" lon="5.25363">
        <ele>756.20001220703</ele>
        <time>2014-05-03T11:08:14.000Z</time>
      </trkpt>
      <trkpt lat="44.42669" lon="5.25372">
        <ele>757.20001220703</ele>
        <time>2014-05-03T11:08:19.000Z</time>
      </trkpt>
      <trkpt lat="44.4268" lon="5.25407">
        <ele>757.20001220703</ele>
        <time>2014-05-03T11:08:28.000Z</time>
      </trkpt>
      <trkpt lat="44.42695" lon="5.25437">
        <ele>757.20001220703</ele>
        <time>2014-05-03T11:08:33.000Z</time>
      </trkpt>
      <trkpt lat="44.42712" lon="5.2546">
        <ele>756.79998779297</ele>
        <time>2014-05-03T11:08:37.000Z</time>
      </trkpt>
      <trkpt lat="44.42724" lon="5.25476">
        <ele>755.20001220703</ele>
        <time>2014-05-03T11:08:40.000Z</time>
      </trkpt>
      <trkpt lat="44.42738" lon="5.25506">
        <ele>758.40002441406</ele>
        <time>2014-05-03T11:08:47.000Z</time>
      </trkpt>
      <trkpt lat="44.4274" lon="5.25511">
        <ele>759</ele>
        <time>2014-05-03T11:08:49.000Z</time>
      </trkpt>
      <trkpt lat="44.42756" lon="5.25533">
        <ele>760.20001220703</ele>
        <time>2014-05-03T11:09:02.000Z</time>
      </trkpt>
      <trkpt lat="44.4277" lon="5.25557">
        <ele>763.20001220703</ele>
        <time>2014-05-03T11:09:14.000Z</time>
      </trkpt>
      <trkpt lat="44.4278" lon="5.25589">
        <ele>766.20001220703</ele>
        <time>2014-05-03T11:09:25.000Z</time>
      </trkpt>
      <trkpt lat="44.42796" lon="5.2564">
        <ele>768.40002441406</ele>
        <time>2014-05-03T11:09:40.000Z</time>
      </trkpt>
      <trkpt lat="44.4281" lon="5.25724">
        <ele>770</ele>
        <time>2014-05-03T11:09:55.000Z</time>
      </trkpt>
      <trkpt lat="44.42814" lon="5.25769">
        <ele>771.20001220703</ele>
        <time>2014-05-03T11:10:07.000Z</time>
      </trkpt>
      <trkpt lat="44.42803" lon="5.25806">
        <ele>774</ele>
        <time>2014-05-03T11:10:20.000Z</time>
      </trkpt>
      <trkpt lat="44.42795" lon="5.25839">
        <ele>776.20001220703</ele>
        <time>2014-05-03T11:10:32.000Z</time>
      </trkpt>
      <trkpt lat="44.42797" lon="5.25858">
        <ele>777.40002441406</ele>
        <time>2014-05-03T11:10:42.000Z</time>
      </trkpt>
      <trkpt lat="44.42812" lon="5.2586">
        <ele>781</ele>
        <time>2014-05-03T11:10:53.000Z</time>
      </trkpt>
      <trkpt lat="44.42836" lon="5.25855">
        <ele>783</ele>
        <time>2014-05-03T11:11:07.000Z</time>
      </trkpt>
      <trkpt lat="44.42843" lon="5.25853">
        <ele>783.59997558594</ele>
        <time>2014-05-03T11:11:11.000Z</time>
      </trkpt>
      <trkpt lat="44.42854" lon="5.25843">
        <ele>786.40002441406</ele>
        <time>2014-05-03T11:11:20.000Z</time>
      </trkpt>
      <trkpt lat="44.42875" lon="5.25838">
        <ele>790</ele>
        <time>2014-05-03T11:11:34.000Z</time>
      </trkpt>
      <trkpt lat="44.42876" lon="5.25837">
        <ele>790.40002441406</ele>
        <time>2014-05-03T11:11:35.000Z</time>
      </trkpt>
      <trkpt lat="44.42885" lon="5.25836">
        <ele>791.79998779297</ele>
        <time>2014-05-03T11:11:42.000Z</time>
      </trkpt>
      <trkpt lat="44.42897" lon="5.25835">
        <ele>793.79998779297</ele>
        <time>2014-05-03T11:11:50.000Z</time>
      </trkpt>
      <trkpt lat="44.42903" lon="5.25833">
        <ele>794.59997558594</ele>
        <time>2014-05-03T11:11:54.000Z</time>
      </trkpt>
      <trkpt lat="44.42921" lon="5.25821">
        <ele>797.79998779297</ele>
        <time>2014-05-03T11:12:08.000Z</time>
      </trkpt>
      <trkpt lat="44.42927" lon="5.25819">
        <ele>799</ele>
        <time>2014-05-03T11:12:12.000Z</time>
      </trkpt>
      <trkpt lat="44.42942" lon="5.25801">
        <ele>802</ele>
        <time>2014-05-03T11:12:23.000Z</time>
      </trkpt>
      <trkpt lat="44.42954" lon="5.2578">
        <ele>804.40002441406</ele>
        <time>2014-05-03T11:12:36.000Z</time>
      </trkpt>
      <trkpt lat="44.42963" lon="5.25763">
        <ele>804.40002441406</ele>
        <time>2014-05-03T11:12:42.000Z</time>
      </trkpt>
      <trkpt lat="44.42988" lon="5.25745">
        <ele>800.40002441406</ele>
        <time>2014-05-03T11:12:47.000Z</time>
      </trkpt>
      <trkpt lat="44.43018" lon="5.2572">
        <ele>795.40002441406</ele>
        <time>2014-05-03T11:12:55.000Z</time>
      </trkpt>
      <trkpt lat="44.4303" lon="5.25708">
        <ele>792.40002441406</ele>
        <time>2014-05-03T11:12:58.000Z</time>
      </trkpt>
      <trkpt lat="44.43056" lon="5.25693">
        <ele>790.59997558594</ele>
        <time>2014-05-03T11:13:03.000Z</time>
      </trkpt>
      <trkpt lat="44.43089" lon="5.25668">
        <ele>786.59997558594</ele>
        <time>2014-05-03T11:13:08.000Z</time>
      </trkpt>
      <trkpt lat="44.43104" lon="5.2566">
        <ele>785.79998779297</ele>
        <time>2014-05-03T11:13:10.000Z</time>
      </trkpt>
      <trkpt lat="44.4311" lon="5.25657">
        <ele>785.59997558594</ele>
        <time>2014-05-03T11:13:11.000Z</time>
      </trkpt>
      <trkpt lat="44.43153" lon="5.25637">
        <ele>788.59997558594</ele>
        <time>2014-05-03T11:13:21.000Z</time>
      </trkpt>
      <trkpt lat="44.43176" lon="5.25633">
        <ele>790.40002441406</ele>
        <time>2014-05-03T11:13:28.000Z</time>
      </trkpt>
      <trkpt lat="44.43191" lon="5.25632">
        <ele>791</ele>
        <time>2014-05-03T11:13:31.000Z</time>
      </trkpt>
      <trkpt lat="44.43209" lon="5.25628">
        <ele>791.20001220703</ele>
        <time>2014-05-03T11:13:35.000Z</time>
      </trkpt>
      <trkpt lat="44.43249" lon="5.25634">
        <ele>791.20001220703</ele>
        <time>2014-05-03T11:13:43.000Z</time>
      </trkpt>
      <trkpt lat="44.43258" lon="5.25637">
        <ele>791.20001220703</ele>
        <time>2014-05-03T11:13:45.000Z</time>
      </trkpt>
      <trkpt lat="44.43276" lon="5.25653">
        <ele>793</ele>
        <time>2014-05-03T11:13:52.000Z</time>
      </trkpt>
      <trkpt lat="44.43283" lon="5.25658">
        <ele>794</ele>
        <time>2014-05-03T11:13:57.000Z</time>
      </trkpt>
      <trkpt lat="44.43305" lon="5.2566">
        <ele>795.59997558594</ele>
        <time>2014-05-03T11:14:10.000Z</time>
      </trkpt>
      <trkpt lat="44.43331" lon="5.25668">
        <ele>796.59997558594</ele>
        <time>2014-05-03T11:14:24.000Z</time>
      </trkpt>
      <trkpt lat="44.43334" lon="5.25675">
        <ele>798.40002441406</ele>
        <time>2014-05-03T11:14:28.000Z</time>
      </trkpt>
      <trkpt lat="44.43336" lon="5.25681">
        <ele>799.20001220703</ele>
        <time>2014-05-03T11:14:32.000Z</time>
      </trkpt>
      <trkpt lat="44.4334" lon="5.25687">
        <ele>799.59997558594</ele>
        <time>2014-05-03T11:14:36.000Z</time>
      </trkpt>
      <trkpt lat="44.43349" lon="5.25694">
        <ele>802.40002441406</ele>
        <time>2014-05-03T11:14:50.000Z</time>
      </trkpt>
      <trkpt lat="44.43359" lon="5.25703">
        <ele>805.59997558594</ele>
        <time>2014-05-03T11:15:04.000Z</time>
      </trkpt>
      <trkpt lat="44.4337" lon="5.25705">
        <ele>807.59997558594</ele>
        <time>2014-05-03T11:15:17.000Z</time>
      </trkpt>
      <trkpt lat="44.4338" lon="5.25705">
        <ele>809</ele>
        <time>2014-05-03T11:15:23.000Z</time>
      </trkpt>
      <trkpt lat="44.434" lon="5.25714">
        <ele>811.59997558594</ele>
        <time>2014-05-03T11:15:38.000Z</time>
      </trkpt>
      <trkpt lat="44.43411" lon="5.25732">
        <ele>814</ele>
        <time>2014-05-03T11:15:50.000Z</time>
      </trkpt>
      <trkpt lat="44.43429" lon="5.25745">
        <ele>816.40002441406</ele>
        <time>2014-05-03T11:16:02.000Z</time>
      </trkpt>
      <trkpt lat="44.43429" lon="5.25752">
        <ele>817.79998779297</ele>
        <time>2014-05-03T11:16:06.000Z</time>
      </trkpt>
      <trkpt lat="44.43458" lon="5.25757">
        <ele>820.20001220703</ele>
        <time>2014-05-03T11:16:21.000Z</time>
      </trkpt>
      <trkpt lat="44.43487" lon="5.25763">
        <ele>821.40002441406</ele>
        <time>2014-05-03T11:16:32.000Z</time>
      </trkpt>
      <trkpt lat="44.43495" lon="5.25773">
        <ele>822.20001220703</ele>
        <time>2014-05-03T11:16:37.000Z</time>
      </trkpt>
      <trkpt lat="44.43527" lon="5.25797">
        <ele>824.40002441406</ele>
        <time>2014-05-03T11:16:51.000Z</time>
      </trkpt>
      <trkpt lat="44.43555" lon="5.258">
        <ele>824.40002441406</ele>
        <time>2014-05-03T11:16:59.000Z</time>
      </trkpt>
      <trkpt lat="44.43576" lon="5.25811">
        <ele>822</ele>
        <time>2014-05-03T11:17:04.000Z</time>
      </trkpt>
      <trkpt lat="44.43587" lon="5.25819">
        <ele>824.79998779297</ele>
        <time>2014-05-03T11:17:08.000Z</time>
      </trkpt>
      <trkpt lat="44.43622" lon="5.25831">
        <ele>826.59997558594</ele>
        <time>2014-05-03T11:17:22.000Z</time>
      </trkpt>
      <trkpt lat="44.43627" lon="5.25836">
        <ele>826.59997558594</ele>
        <time>2014-05-03T11:17:26.000Z</time>
      </trkpt>
      <trkpt lat="44.43626" lon="5.25854">
        <ele>829.79998779297</ele>
        <time>2014-05-03T11:17:34.000Z</time>
      </trkpt>
      <trkpt lat="44.43627" lon="5.25858">
        <ele>831.40002441406</ele>
        <time>2014-05-03T11:17:37.000Z</time>
      </trkpt>
      <trkpt lat="44.43631" lon="5.25869">
        <ele>833.20001220703</ele>
        <time>2014-05-03T11:17:51.000Z</time>
      </trkpt>
      <trkpt lat="44.43639" lon="5.25884">
        <ele>835.40002441406</ele>
        <time>2014-05-03T11:18:09.000Z</time>
      </trkpt>
      <trkpt lat="44.43651" lon="5.25904">
        <ele>837.79998779297</ele>
        <time>2014-05-03T11:18:22.000Z</time>
      </trkpt>
      <trkpt lat="44.43667" lon="5.25924">
        <ele>841</ele>
        <time>2014-05-03T11:18:37.000Z</time>
      </trkpt>
      <trkpt lat="44.43677" lon="5.25945">
        <ele>844</ele>
        <time>2014-05-03T11:18:50.000Z</time>
      </trkpt>
      <trkpt lat="44.43679" lon="5.25947">
        <ele>844.40002441406</ele>
        <time>2014-05-03T11:18:52.000Z</time>
      </trkpt>
      <trkpt lat="44.43684" lon="5.25954">
        <ele>844.79998779297</ele>
        <time>2014-05-03T11:18:58.000Z</time>
      </trkpt>
      <trkpt lat="44.43702" lon="5.2598">
        <ele>848</ele>
        <time>2014-05-03T11:19:14.000Z</time>
      </trkpt>
      <trkpt lat="44.43715" lon="5.26008">
        <ele>850.79998779297</ele>
        <time>2014-05-03T11:19:30.000Z</time>
      </trkpt>
      <trkpt lat="44.43724" lon="5.26027">
        <ele>853.79998779297</ele>
        <time>2014-05-03T11:19:43.000Z</time>
      </trkpt>
      <trkpt lat="44.43727" lon="5.26035">
        <ele>855.20001220703</ele>
        <time>2014-05-03T11:19:49.000Z</time>
      </trkpt>
      <trkpt lat="44.43737" lon="5.26054">
        <ele>858.20001220703</ele>
        <time>2014-05-03T11:20:02.000Z</time>
      </trkpt>
      <trkpt lat="44.43738" lon="5.26057">
        <ele>858.79998779297</ele>
        <time>2014-05-03T11:20:04.000Z</time>
      </trkpt>
      <trkpt lat="44.43755" lon="5.26081">
        <ele>862</ele>
        <time>2014-05-03T11:20:19.000Z</time>
      </trkpt>
      <trkpt lat="44.43778" lon="5.26102">
        <ele>864</ele>
        <time>2014-05-03T11:20:32.000Z</time>
      </trkpt>
      <trkpt lat="44.43798" lon="5.26129">
        <ele>865.20001220703</ele>
        <time>2014-05-03T11:20:44.000Z</time>
      </trkpt>
      <trkpt lat="44.438" lon="5.26134">
        <ele>865.79998779297</ele>
        <time>2014-05-03T11:20:46.000Z</time>
      </trkpt>
      <trkpt lat="44.43818" lon="5.26148">
        <ele>866.79998779297</ele>
        <time>2014-05-03T11:20:52.000Z</time>
      </trkpt>
      <trkpt lat="44.43841" lon="5.26156">
        <ele>866.79998779297</ele>
        <time>2014-05-03T11:20:57.000Z</time>
      </trkpt>
      <trkpt lat="44.43857" lon="5.26161">
        <ele>864</ele>
        <time>2014-05-03T11:21:00.000Z</time>
      </trkpt>
      <trkpt lat="44.43866" lon="5.26165">
        <ele>862.79998779297</ele>
        <time>2014-05-03T11:21:02.000Z</time>
      </trkpt>
      <trkpt lat="44.43881" lon="5.26169">
        <ele>861.79998779297</ele>
        <time>2014-05-03T11:21:05.000Z</time>
      </trkpt>
      <trkpt lat="44.4391" lon="5.26174">
        <ele>859.79998779297</ele>
        <time>2014-05-03T11:21:10.000Z</time>
      </trkpt>
      <trkpt lat="44.43942" lon="5.26192">
        <ele>856</ele>
        <time>2014-05-03T11:21:16.000Z</time>
      </trkpt>
      <trkpt lat="44.43958" lon="5.26209">
        <ele>855.59997558594</ele>
        <time>2014-05-03T11:21:20.000Z</time>
      </trkpt>
      <trkpt lat="44.43972" lon="5.26242">
        <ele>855.59997558594</ele>
        <time>2014-05-03T11:21:27.000Z</time>
      </trkpt>
      <trkpt lat="44.43985" lon="5.26268">
        <ele>859.79998779297</ele>
        <time>2014-05-03T11:21:36.000Z</time>
      </trkpt>
      <trkpt lat="44.44001" lon="5.26293">
        <ele>860</ele>
        <time>2014-05-03T11:21:44.000Z</time>
      </trkpt>
      <trkpt lat="44.44012" lon="5.26305">
        <ele>855.40002441406</ele>
        <time>2014-05-03T11:21:47.000Z</time>
      </trkpt>
      <trkpt lat="44.44031" lon="5.26316">
        <ele>853.40002441406</ele>
        <time>2014-05-03T11:21:51.000Z</time>
      </trkpt>
      <trkpt lat="44.44038" lon="5.26324">
        <ele>853</ele>
        <time>2014-05-03T11:21:53.000Z</time>
      </trkpt>
      <trkpt lat="44.44073" lon="5.26345">
        <ele>852</ele>
        <time>2014-05-03T11:22:04.000Z</time>
      </trkpt>
      <trkpt lat="44.441" lon="5.26359">
        <ele>853.40002441406</ele>
        <time>2014-05-03T11:22:19.000Z</time>
      </trkpt>
      <trkpt lat="44.44117" lon="5.26371">
        <ele>855.40002441406</ele>
        <time>2014-05-03T11:22:32.000Z</time>
      </trkpt>
      <trkpt lat="44.44124" lon="5.26376">
        <ele>856.79998779297</ele>
        <time>2014-05-03T11:22:38.000Z</time>
      </trkpt>
      <trkpt lat="44.44127" lon="5.26382">
        <ele>857.40002441406</ele>
        <time>2014-05-03T11:22:42.000Z</time>
      </trkpt>
      <trkpt lat="44.4414" lon="5.26393">
        <ele>860.59997558594</ele>
        <time>2014-05-03T11:22:54.000Z</time>
      </trkpt>
      <trkpt lat="44.44149" lon="5.264">
        <ele>861.40002441406</ele>
        <time>2014-05-03T11:23:01.000Z</time>
      </trkpt>
      <trkpt lat="44.44161" lon="5.26423">
        <ele>864.40002441406</ele>
        <time>2014-05-03T11:23:16.000Z</time>
      </trkpt>
      <trkpt lat="44.44169" lon="5.26438">
        <ele>867.40002441406</ele>
        <time>2014-05-03T11:23:29.000Z</time>
      </trkpt>
      <trkpt lat="44.44177" lon="5.26454">
        <ele>869.79998779297</ele>
        <time>2014-05-03T11:23:40.000Z</time>
      </trkpt>
      <trkpt lat="44.44185" lon="5.26466">
        <ele>871.59997558594</ele>
        <time>2014-05-03T11:23:49.000Z</time>
      </trkpt>
      <trkpt lat="44.44193" lon="5.26476">
        <ele>873.79998779297</ele>
        <time>2014-05-03T11:23:56.000Z</time>
      </trkpt>
      <trkpt lat="44.44198" lon="5.26485">
        <ele>876.40002441406</ele>
        <time>2014-05-03T11:24:07.000Z</time>
      </trkpt>
      <trkpt lat="44.44203" lon="5.26493">
        <ele>879.59997558594</ele>
        <time>2014-05-03T11:24:20.000Z</time>
      </trkpt>
      <trkpt lat="44.44208" lon="5.26509">
        <ele>882.79998779297</ele>
        <time>2014-05-03T11:24:35.000Z</time>
      </trkpt>
      <trkpt lat="44.44216" lon="5.26522">
        <ele>885.79998779297</ele>
        <time>2014-05-03T11:24:50.000Z</time>
      </trkpt>
      <trkpt lat="44.44229" lon="5.26533">
        <ele>888.79998779297</ele>
        <time>2014-05-03T11:25:07.000Z</time>
      </trkpt>
      <trkpt lat="44.44239" lon="5.26541">
        <ele>892</ele>
        <time>2014-05-03T11:25:19.000Z</time>
      </trkpt>
      <trkpt lat="44.44242" lon="5.26544">
        <ele>892.79998779297</ele>
        <time>2014-05-03T11:25:23.000Z</time>
      </trkpt>
      <trkpt lat="44.44252" lon="5.26553">
        <ele>895</ele>
        <time>2014-05-03T11:25:34.000Z</time>
      </trkpt>
      <trkpt lat="44.44268" lon="5.26558">
        <ele>897.20001220703</ele>
        <time>2014-05-03T11:25:51.000Z</time>
      </trkpt>
      <trkpt lat="44.44293" lon="5.26553">
        <ele>898.20001220703</ele>
        <time>2014-05-03T11:26:05.000Z</time>
      </trkpt>
      <trkpt lat="44.44319" lon="5.26567">
        <ele>898.20001220703</ele>
        <time>2014-05-03T11:26:16.000Z</time>
      </trkpt>
      <trkpt lat="44.44339" lon="5.26588">
        <ele>898.20001220703</ele>
        <time>2014-05-03T11:26:25.000Z</time>
      </trkpt>
      <trkpt lat="44.44352" lon="5.26591">
        <ele>900.20001220703</ele>
        <time>2014-05-03T11:26:31.000Z</time>
      </trkpt>
      <trkpt lat="44.44376" lon="5.26578">
        <ele>900.40002441406</ele>
        <time>2014-05-03T11:26:42.000Z</time>
      </trkpt>
      <trkpt lat="44.44378" lon="5.26578">
        <ele>900.79998779297</ele>
        <time>2014-05-03T11:26:43.000Z</time>
      </trkpt>
      <trkpt lat="44.44384" lon="5.26577">
        <ele>901.40002441406</ele>
        <time>2014-05-03T11:26:46.000Z</time>
      </trkpt>
      <trkpt lat="44.44406" lon="5.26575">
        <ele>903.79998779297</ele>
        <time>2014-05-03T11:27:01.000Z</time>
      </trkpt>
      <trkpt lat="44.44411" lon="5.26571">
        <ele>904.59997558594</ele>
        <time>2014-05-03T11:27:05.000Z</time>
      </trkpt>
      <trkpt lat="44.44425" lon="5.26577">
        <ele>906.79998779297</ele>
        <time>2014-05-03T11:27:16.000Z</time>
      </trkpt>
      <trkpt lat="44.44445" lon="5.26575">
        <ele>909.20001220703</ele>
        <time>2014-05-03T11:27:29.000Z</time>
      </trkpt>
      <trkpt lat="44.44461" lon="5.26586">
        <ele>910.79998779297</ele>
        <time>2014-05-03T11:27:40.000Z</time>
      </trkpt>
      <trkpt lat="44.4447" lon="5.26587">
        <ele>913.59997558594</ele>
        <time>2014-05-03T11:27:54.000Z</time>
      </trkpt>
      <trkpt lat="44.44483" lon="5.26592">
        <ele>915</ele>
        <time>2014-05-03T11:28:09.000Z</time>
      </trkpt>
      <trkpt lat="44.44491" lon="5.26597">
        <ele>916.40002441406</ele>
        <time>2014-05-03T11:28:15.000Z</time>
      </trkpt>
      <trkpt lat="44.44506" lon="5.26599">
        <ele>919.79998779297</ele>
        <time>2014-05-03T11:28:25.000Z</time>
      </trkpt>
      <trkpt lat="44.44522" lon="5.2661">
        <ele>921.79998779297</ele>
        <time>2014-05-03T11:28:38.000Z</time>
      </trkpt>
      <trkpt lat="44.44524" lon="5.26612">
        <ele>922.20001220703</ele>
        <time>2014-05-03T11:28:40.000Z</time>
      </trkpt>
      <trkpt lat="44.4453" lon="5.26612">
        <ele>923.20001220703</ele>
        <time>2014-05-03T11:28:46.000Z</time>
      </trkpt>
      <trkpt lat="44.44536" lon="5.26607">
        <ele>924</ele>
        <time>2014-05-03T11:28:52.000Z</time>
      </trkpt>
      <trkpt lat="44.44554" lon="5.26612">
        <ele>927.20001220703</ele>
        <time>2014-05-03T11:29:07.000Z</time>
      </trkpt>
      <trkpt lat="44.44569" lon="5.26618">
        <ele>929.79998779297</ele>
        <time>2014-05-03T11:29:22.000Z</time>
      </trkpt>
      <trkpt lat="44.44571" lon="5.26616">
        <ele>930.20001220703</ele>
        <time>2014-05-03T11:29:32.000Z</time>
      </trkpt>
      <trkpt lat="44.44583" lon="5.26593">
        <ele>930.20001220703</ele>
        <time>2014-05-03T11:29:44.000Z</time>
      </trkpt>
      <trkpt lat="44.44585" lon="5.26591">
        <ele>930.20001220703</ele>
        <time>2014-05-03T11:29:45.000Z</time>
      </trkpt>
      <trkpt lat="44.4459" lon="5.26588">
        <ele>930.20001220703</ele>
        <time>2014-05-03T11:29:48.000Z</time>
      </trkpt>
      <trkpt lat="44.44603" lon="5.26571">
        <ele>931.20001220703</ele>
        <time>2014-05-03T11:29:57.000Z</time>
      </trkpt>
      <trkpt lat="44.44606" lon="5.26569">
        <ele>931.40002441406</ele>
        <time>2014-05-03T11:29:59.000Z</time>
      </trkpt>
      <trkpt lat="44.44609" lon="5.26565">
        <ele>932.20001220703</ele>
        <time>2014-05-03T11:30:02.000Z</time>
      </trkpt>
      <trkpt lat="44.44623" lon="5.26541">
        <ele>934.40002441406</ele>
        <time>2014-05-03T11:30:11.000Z</time>
      </trkpt>
      <trkpt lat="44.44628" lon="5.26532">
        <ele>932.59997558594</ele>
        <time>2014-05-03T11:30:14.000Z</time>
      </trkpt>
      <trkpt lat="44.44647" lon="5.26498">
        <ele>931</ele>
        <time>2014-05-03T11:30:26.000Z</time>
      </trkpt>
      <trkpt lat="44.44654" lon="5.26486">
        <ele>929.59997558594</ele>
        <time>2014-05-03T11:30:30.000Z</time>
      </trkpt>
      <trkpt lat="44.44664" lon="5.26444">
        <ele>928</ele>
        <time>2014-05-03T11:30:40.000Z</time>
      </trkpt>
      <trkpt lat="44.44669" lon="5.26438">
        <ele>927.20001220703</ele>
        <time>2014-05-03T11:30:42.000Z</time>
      </trkpt>
      <trkpt lat="44.44676" lon="5.26429">
        <ele>928.59997558594</ele>
        <time>2014-05-03T11:30:46.000Z</time>
      </trkpt>
      <trkpt lat="44.44678" lon="5.2642">
        <ele>929</ele>
        <time>2014-05-03T11:30:48.000Z</time>
      </trkpt>
      <trkpt lat="44.4469" lon="5.26399">
        <ele>926.20001220703</ele>
        <time>2014-05-03T11:30:54.000Z</time>
      </trkpt>
      <trkpt lat="44.44698" lon="5.26385">
        <ele>928.59997558594</ele>
        <time>2014-05-03T11:31:00.000Z</time>
      </trkpt>
      <trkpt lat="44.44701" lon="5.2638">
        <ele>929.59997558594</ele>
        <time>2014-05-03T11:31:02.000Z</time>
      </trkpt>
      <trkpt lat="44.44712" lon="5.26351">
        <ele>931.59997558594</ele>
        <time>2014-05-03T11:31:15.000Z</time>
      </trkpt>
      <trkpt lat="44.44717" lon="5.26324">
        <ele>932.59997558594</ele>
        <time>2014-05-03T11:31:25.000Z</time>
      </trkpt>
      <trkpt lat="44.44718" lon="5.2632">
        <ele>932.59997558594</ele>
        <time>2014-05-03T11:31:26.000Z</time>
      </trkpt>
      <trkpt lat="44.44725" lon="5.26309">
        <ele>930.59997558594</ele>
        <time>2014-05-03T11:31:30.000Z</time>
      </trkpt>
      <trkpt lat="44.44731" lon="5.26275">
        <ele>932.40002441406</ele>
        <time>2014-05-03T11:31:37.000Z</time>
      </trkpt>
      <trkpt lat="44.44744" lon="5.26245">
        <ele>932.40002441406</ele>
        <time>2014-05-03T11:31:44.000Z</time>
      </trkpt>
      <trkpt lat="44.44754" lon="5.26229">
        <ele>932.40002441406</ele>
        <time>2014-05-03T11:31:48.000Z</time>
      </trkpt>
      <trkpt lat="44.44771" lon="5.26205">
        <ele>933.20001220703</ele>
        <time>2014-05-03T11:31:54.000Z</time>
      </trkpt>
      <trkpt lat="44.44785" lon="5.26173">
        <ele>933.20001220703</ele>
        <time>2014-05-03T11:32:00.000Z</time>
      </trkpt>
      <trkpt lat="44.44792" lon="5.26132">
        <ele>930.20001220703</ele>
        <time>2014-05-03T11:32:08.000Z</time>
      </trkpt>
      <trkpt lat="44.44802" lon="5.26116">
        <ele>929.20001220703</ele>
        <time>2014-05-03T11:32:11.000Z</time>
      </trkpt>
      <trkpt lat="44.4481" lon="5.26108">
        <ele>927.59997558594</ele>
        <time>2014-05-03T11:32:13.000Z</time>
      </trkpt>
      <trkpt lat="44.44836" lon="5.26074">
        <ele>924.20001220703</ele>
        <time>2014-05-03T11:32:19.000Z</time>
      </trkpt>
      <trkpt lat="44.44845" lon="5.26066">
        <ele>924</ele>
        <time>2014-05-03T11:32:21.000Z</time>
      </trkpt>
      <trkpt lat="44.44857" lon="5.26054">
        <ele>922</ele>
        <time>2014-05-03T11:32:25.000Z</time>
      </trkpt>
      <trkpt lat="44.44868" lon="5.2605">
        <ele>920</ele>
        <time>2014-05-03T11:32:28.000Z</time>
      </trkpt>
      <trkpt lat="44.44891" lon="5.2605">
        <ele>915.40002441406</ele>
        <time>2014-05-03T11:32:32.000Z</time>
      </trkpt>
      <trkpt lat="44.44903" lon="5.26049">
        <ele>914.59997558594</ele>
        <time>2014-05-03T11:32:34.000Z</time>
      </trkpt>
      <trkpt lat="44.44912" lon="5.26044">
        <ele>914.40002441406</ele>
        <time>2014-05-03T11:32:36.000Z</time>
      </trkpt>
      <trkpt lat="44.44938" lon="5.26053">
        <ele>912.40002441406</ele>
        <time>2014-05-03T11:32:44.000Z</time>
      </trkpt>
      <trkpt lat="44.4494" lon="5.26057">
        <ele>910.59997558594</ele>
        <time>2014-05-03T11:32:46.000Z</time>
      </trkpt>
      <trkpt lat="44.44944" lon="5.26058">
        <ele>907.40002441406</ele>
        <time>2014-05-03T11:32:50.000Z</time>
      </trkpt>
      <trkpt lat="44.44944" lon="5.26058">
        <ele>906.59997558594</ele>
        <time>2014-05-03T11:33:04.000Z</time>
      </trkpt>
      <trkpt lat="44.44953" lon="5.26069">
        <ele>902.59997558594</ele>
        <time>2014-05-03T11:33:09.000Z</time>
      </trkpt>
      <trkpt lat="44.44956" lon="5.26071">
        <ele>899.20001220703</ele>
        <time>2014-05-03T11:33:10.000Z</time>
      </trkpt>
      <trkpt lat="44.44971" lon="5.26081">
        <ele>895.40002441406</ele>
        <time>2014-05-03T11:33:14.000Z</time>
      </trkpt>
      <trkpt lat="44.44977" lon="5.26088">
        <ele>891.20001220703</ele>
        <time>2014-05-03T11:33:17.000Z</time>
      </trkpt>
      <trkpt lat="44.44983" lon="5.26093">
        <ele>888.59997558594</ele>
        <time>2014-05-03T11:33:20.000Z</time>
      </trkpt>
      <trkpt lat="44.44998" lon="5.26098">
        <ele>885</ele>
        <time>2014-05-03T11:33:24.000Z</time>
      </trkpt>
      <trkpt lat="44.4501" lon="5.26101">
        <ele>881.79998779297</ele>
        <time>2014-05-03T11:33:26.000Z</time>
      </trkpt>
      <trkpt lat="44.45023" lon="5.26104">
        <ele>879</ele>
        <time>2014-05-03T11:33:28.000Z</time>
      </trkpt>
      <trkpt lat="44.45036" lon="5.26109">
        <ele>878</ele>
        <time>2014-05-03T11:33:30.000Z</time>
      </trkpt>
      <trkpt lat="44.45063" lon="5.26116">
        <ele>873.40002441406</ele>
        <time>2014-05-03T11:33:34.000Z</time>
      </trkpt>
      <trkpt lat="44.45068" lon="5.26118">
        <ele>872</ele>
        <time>2014-05-03T11:33:35.000Z</time>
      </trkpt>
      <trkpt lat="44.45084" lon="5.26125">
        <ele>869.59997558594</ele>
        <time>2014-05-03T11:33:38.000Z</time>
      </trkpt>
      <trkpt lat="44.45099" lon="5.26135">
        <ele>863</ele>
        <time>2014-05-03T11:33:41.000Z</time>
      </trkpt>
      <trkpt lat="44.45109" lon="5.26139">
        <ele>859</ele>
        <time>2014-05-03T11:33:43.000Z</time>
      </trkpt>
      <trkpt lat="44.4512" lon="5.26138">
        <ele>855.79998779297</ele>
        <time>2014-05-03T11:33:45.000Z</time>
      </trkpt>
      <trkpt lat="44.45127" lon="5.26135">
        <ele>854.59997558594</ele>
        <time>2014-05-03T11:33:47.000Z</time>
      </trkpt>
      <trkpt lat="44.45132" lon="5.26132">
        <ele>854</ele>
        <time>2014-05-03T11:33:49.000Z</time>
      </trkpt>
      <trkpt lat="44.45142" lon="5.26129">
        <ele>851.79998779297</ele>
        <time>2014-05-03T11:33:52.000Z</time>
      </trkpt>
      <trkpt lat="44.45156" lon="5.26124">
        <ele>847.79998779297</ele>
        <time>2014-05-03T11:33:55.000Z</time>
      </trkpt>
      <trkpt lat="44.45162" lon="5.26119">
        <ele>844</ele>
        <time>2014-05-03T11:33:57.000Z</time>
      </trkpt>
      <trkpt lat="44.45176" lon="5.26111">
        <ele>840.79998779297</ele>
        <time>2014-05-03T11:34:02.000Z</time>
      </trkpt>
      <trkpt lat="44.45191" lon="5.26107">
        <ele>836.20001220703</ele>
        <time>2014-05-03T11:34:06.000Z</time>
      </trkpt>
      <trkpt lat="44.452" lon="5.26105">
        <ele>831.40002441406</ele>
        <time>2014-05-03T11:34:08.000Z</time>
      </trkpt>
      <trkpt lat="44.45211" lon="5.26102">
        <ele>828</ele>
        <time>2014-05-03T11:34:11.000Z</time>
      </trkpt>
      <trkpt lat="44.45217" lon="5.26099">
        <ele>824.79998779297</ele>
        <time>2014-05-03T11:34:13.000Z</time>
      </trkpt>
      <trkpt lat="44.45227" lon="5.26092">
        <ele>822.20001220703</ele>
        <time>2014-05-03T11:34:16.000Z</time>
      </trkpt>
      <trkpt lat="44.45238" lon="5.26088">
        <ele>817.20001220703</ele>
        <time>2014-05-03T11:34:19.000Z</time>
      </trkpt>
      <trkpt lat="44.45244" lon="5.26087">
        <ele>813.40002441406</ele>
        <time>2014-05-03T11:34:21.000Z</time>
      </trkpt>
      <trkpt lat="44.45252" lon="5.26085">
        <ele>810.20001220703</ele>
        <time>2014-05-03T11:34:24.000Z</time>
      </trkpt>
      <trkpt lat="44.4526" lon="5.26085">
        <ele>807.59997558594</ele>
        <time>2014-05-03T11:34:26.000Z</time>
      </trkpt>
      <trkpt lat="44.45275" lon="5.26082">
        <ele>801.20001220703</ele>
        <time>2014-05-03T11:34:30.000Z</time>
      </trkpt>
      <trkpt lat="44.4529" lon="5.26076">
        <ele>797.20001220703</ele>
        <time>2014-05-03T11:34:33.000Z</time>
      </trkpt>
      <trkpt lat="44.4532" lon="5.26069">
        <ele>789.20001220703</ele>
        <time>2014-05-03T11:34:37.000Z</time>
      </trkpt>
      <trkpt lat="44.45327" lon="5.26067">
        <ele>785</ele>
        <time>2014-05-03T11:34:38.000Z</time>
      </trkpt>
      <trkpt lat="44.45341" lon="5.26066">
        <ele>783.40002441406</ele>
        <time>2014-05-03T11:34:40.000Z</time>
      </trkpt>
      <trkpt lat="44.45347" lon="5.26067">
        <ele>784.20001220703</ele>
        <time>2014-05-03T11:34:41.000Z</time>
      </trkpt>
      <trkpt lat="44.45362" lon="5.26067">
        <ele>780.59997558594</ele>
        <time>2014-05-03T11:34:44.000Z</time>
      </trkpt>
      <trkpt lat="44.45382" lon="5.26062">
        <ele>776.59997558594</ele>
        <time>2014-05-03T11:34:47.000Z</time>
      </trkpt>
      <trkpt lat="44.45389" lon="5.26061">
        <ele>777</ele>
        <time>2014-05-03T11:34:48.000Z</time>
      </trkpt>
      <trkpt lat="44.45402" lon="5.26061">
        <ele>776.20001220703</ele>
        <time>2014-05-03T11:34:50.000Z</time>
      </trkpt>
      <trkpt lat="44.45421" lon="5.2607">
        <ele>772.59997558594</ele>
        <time>2014-05-03T11:34:53.000Z</time>
      </trkpt>
      <trkpt lat="44.45441" lon="5.26079">
        <ele>769.20001220703</ele>
        <time>2014-05-03T11:34:56.000Z</time>
      </trkpt>
      <trkpt lat="44.45461" lon="5.26081">
        <ele>766.79998779297</ele>
        <time>2014-05-03T11:35:00.000Z</time>
      </trkpt>
      <trkpt lat="44.45464" lon="5.26081">
        <ele>766.59997558594</ele>
        <time>2014-05-03T11:35:05.000Z</time>
      </trkpt>
      <trkpt lat="44.45453" lon="5.26083">
        <ele>766.59997558594</ele>
        <time>2014-05-03T11:35:14.000Z</time>
      </trkpt>
      <trkpt lat="44.45443" lon="5.26086">
        <ele>768.59997558594</ele>
        <time>2014-05-03T11:35:18.000Z</time>
      </trkpt>
      <trkpt lat="44.45426" lon="5.26116">
        <ele>766</ele>
        <time>2014-05-03T11:35:24.000Z</time>
      </trkpt>
      <trkpt lat="44.45402" lon="5.26153">
        <ele>762.40002441406</ele>
        <time>2014-05-03T11:35:31.000Z</time>
      </trkpt>
      <trkpt lat="44.45402" lon="5.26163">
        <ele>760.20001220703</ele>
        <time>2014-05-03T11:35:33.000Z</time>
      </trkpt>
      <trkpt lat="44.45397" lon="5.26165">
        <ele>759.20001220703</ele>
        <time>2014-05-03T11:35:35.000Z</time>
      </trkpt>
      <trkpt lat="44.45386" lon="5.26175">
        <ele>757.59997558594</ele>
        <time>2014-05-03T11:35:38.000Z</time>
      </trkpt>
      <trkpt lat="44.45372" lon="5.26196">
        <ele>755.59997558594</ele>
        <time>2014-05-03T11:35:43.000Z</time>
      </trkpt>
      <trkpt lat="44.45364" lon="5.26207">
        <ele>753.20001220703</ele>
        <time>2014-05-03T11:35:45.000Z</time>
      </trkpt>
      <trkpt lat="44.45355" lon="5.2622">
        <ele>751.79998779297</ele>
        <time>2014-05-03T11:35:47.000Z</time>
      </trkpt>
      <trkpt lat="44.45331" lon="5.26255">
        <ele>747</ele>
        <time>2014-05-03T11:35:53.000Z</time>
      </trkpt>
      <trkpt lat="44.45324" lon="5.26263">
        <ele>744.59997558594</ele>
        <time>2014-05-03T11:35:55.000Z</time>
      </trkpt>
      <trkpt lat="44.45301" lon="5.26284">
        <ele>741.59997558594</ele>
        <time>2014-05-03T11:36:00.000Z</time>
      </trkpt>
      <trkpt lat="44.45292" lon="5.26287">
        <ele>740.59997558594</ele>
        <time>2014-05-03T11:36:02.000Z</time>
      </trkpt>
      <trkpt lat="44.45287" lon="5.26291">
        <ele>739.59997558594</ele>
        <time>2014-05-03T11:36:04.000Z</time>
      </trkpt>
      <trkpt lat="44.45274" lon="5.26299">
        <ele>738.40002441406</ele>
        <time>2014-05-03T11:36:12.000Z</time>
      </trkpt>
      <trkpt lat="44.45274" lon="5.26299">
        <ele>738.20001220703</ele>
        <time>2014-05-03T11:36:13.000Z</time>
      </trkpt>
      <trkpt lat="44.45272" lon="5.26297">
        <ele>738.20001220703</ele>
        <time>2014-05-03T11:36:16.000Z</time>
      </trkpt>
      <trkpt lat="44.45268" lon="5.26297">
        <ele>738.20001220703</ele>
        <time>2014-05-03T11:36:19.000Z</time>
      </trkpt>
      <trkpt lat="44.45265" lon="5.26303">
        <ele>738.20001220703</ele>
        <time>2014-05-03T11:36:28.000Z</time>
      </trkpt>
      <trkpt lat="44.45261" lon="5.26314">
        <ele>734.59997558594</ele>
        <time>2014-05-03T11:36:34.000Z</time>
      </trkpt>
      <trkpt lat="44.45248" lon="5.2632">
        <ele>731.79998779297</ele>
        <time>2014-05-03T11:36:39.000Z</time>
      </trkpt>
      <trkpt lat="44.45245" lon="5.26321">
        <ele>731.59997558594</ele>
        <time>2014-05-03T11:36:42.000Z</time>
      </trkpt>
      <trkpt lat="44.45238" lon="5.26325">
        <ele>731.59997558594</ele>
        <time>2014-05-03T11:36:46.000Z</time>
      </trkpt>
      <trkpt lat="44.4523" lon="5.26328">
        <ele>729.79998779297</ele>
        <time>2014-05-03T11:36:52.000Z</time>
      </trkpt>
      <trkpt lat="44.45229" lon="5.26326">
        <ele>729.59997558594</ele>
        <time>2014-05-03T11:36:55.000Z</time>
      </trkpt>
      <trkpt lat="44.45224" lon="5.2633">
        <ele>727.40002441406</ele>
        <time>2014-05-03T11:37:05.000Z</time>
      </trkpt>
      <trkpt lat="44.45215" lon="5.26344">
        <ele>726.79998779297</ele>
        <time>2014-05-03T11:37:09.000Z</time>
      </trkpt>
      <trkpt lat="44.45198" lon="5.26351">
        <ele>723.40002441406</ele>
        <time>2014-05-03T11:37:17.000Z</time>
      </trkpt>
      <trkpt lat="44.45197" lon="5.26352">
        <ele>723.20001220703</ele>
        <time>2014-05-03T11:37:20.000Z</time>
      </trkpt>
      <trkpt lat="44.45187" lon="5.2638">
        <ele>720.79998779297</ele>
        <time>2014-05-03T11:37:29.000Z</time>
      </trkpt>
      <trkpt lat="44.45181" lon="5.26391">
        <ele>717</ele>
        <time>2014-05-03T11:37:33.000Z</time>
      </trkpt>
      <trkpt lat="44.4518" lon="5.26393">
        <ele>716</ele>
        <time>2014-05-03T11:37:34.000Z</time>
      </trkpt>
      <trkpt lat="44.45179" lon="5.26404">
        <ele>713.40002441406</ele>
        <time>2014-05-03T11:37:39.000Z</time>
      </trkpt>
      <trkpt lat="44.45176" lon="5.26408">
        <ele>711.59997558594</ele>
        <time>2014-05-03T11:37:41.000Z</time>
      </trkpt>
      <trkpt lat="44.45163" lon="5.26412">
        <ele>708.59997558594</ele>
        <time>2014-05-03T11:37:47.000Z</time>
      </trkpt>
      <trkpt lat="44.45157" lon="5.2641">
        <ele>708.20001220703</ele>
        <time>2014-05-03T11:37:50.000Z</time>
      </trkpt>
      <trkpt lat="44.45155" lon="5.26412">
        <ele>706.79998779297</ele>
        <time>2014-05-03T11:37:52.000Z</time>
      </trkpt>
      <trkpt lat="44.4515" lon="5.26417">
        <ele>705.20001220703</ele>
        <time>2014-05-03T11:37:58.000Z</time>
      </trkpt>
      <trkpt lat="44.4514" lon="5.26421">
        <ele>703.40002441406</ele>
        <time>2014-05-03T11:38:05.000Z</time>
      </trkpt>
      <trkpt lat="44.45127" lon="5.26416">
        <ele>703.20001220703</ele>
        <time>2014-05-03T11:38:17.000Z</time>
      </trkpt>
      <trkpt lat="44.45125" lon="5.26417">
        <ele>703.20001220703</ele>
        <time>2014-05-03T11:38:21.000Z</time>
      </trkpt>
      <trkpt lat="44.45117" lon="5.26423">
        <ele>700</ele>
        <time>2014-05-03T11:38:27.000Z</time>
      </trkpt>
      <trkpt lat="44.45116" lon="5.26423">
        <ele>699.59997558594</ele>
        <time>2014-05-03T11:38:28.000Z</time>
      </trkpt>
      <trkpt lat="44.45111" lon="5.26425">
        <ele>695.79998779297</ele>
        <time>2014-05-03T11:38:34.000Z</time>
      </trkpt>
      <trkpt lat="44.4511" lon="5.26426">
        <ele>695</ele>
        <time>2014-05-03T11:38:36.000Z</time>
      </trkpt>
      <trkpt lat="44.45107" lon="5.26429">
        <ele>694.79998779297</ele>
        <time>2014-05-03T11:38:41.000Z</time>
      </trkpt>
      <trkpt lat="44.45114" lon="5.26464">
        <ele>695.59997558594</ele>
        <time>2014-05-03T11:38:50.000Z</time>
      </trkpt>
      <trkpt lat="44.45113" lon="5.26473">
        <ele>696.59997558594</ele>
        <time>2014-05-03T11:38:52.000Z</time>
      </trkpt>
      <trkpt lat="44.45121" lon="5.26494">
        <ele>697.20001220703</ele>
        <time>2014-05-03T11:39:02.000Z</time>
      </trkpt>
      <trkpt lat="44.45122" lon="5.26515">
        <ele>694.20001220703</ele>
        <time>2014-05-03T11:39:09.000Z</time>
      </trkpt>
      <trkpt lat="44.45122" lon="5.2652">
        <ele>693.59997558594</ele>
        <time>2014-05-03T11:39:10.000Z</time>
      </trkpt>
      <trkpt lat="44.45114" lon="5.26548">
        <ele>691.40002441406</ele>
        <time>2014-05-03T11:39:18.000Z</time>
      </trkpt>
      <trkpt lat="44.45109" lon="5.26563">
        <ele>691</ele>
        <time>2014-05-03T11:39:22.000Z</time>
      </trkpt>
      <trkpt lat="44.45106" lon="5.26575">
        <ele>688.40002441406</ele>
        <time>2014-05-03T11:39:27.000Z</time>
      </trkpt>
      <trkpt lat="44.45106" lon="5.26582">
        <ele>685.20001220703</ele>
        <time>2014-05-03T11:39:35.000Z</time>
      </trkpt>
      <trkpt lat="44.45106" lon="5.26583">
        <ele>684.79998779297</ele>
        <time>2014-05-03T11:39:36.000Z</time>
      </trkpt>
      <trkpt lat="44.45109" lon="5.26588">
        <ele>683.59997558594</ele>
        <time>2014-05-03T11:39:39.000Z</time>
      </trkpt>
      <trkpt lat="44.45102" lon="5.2661">
        <ele>679.59997558594</ele>
        <time>2014-05-03T11:39:45.000Z</time>
      </trkpt>
      <trkpt lat="44.45101" lon="5.26615">
        <ele>678.59997558594</ele>
        <time>2014-05-03T11:39:46.000Z</time>
      </trkpt>
      <trkpt lat="44.45097" lon="5.26624">
        <ele>677.79998779297</ele>
        <time>2014-05-03T11:39:48.000Z</time>
      </trkpt>
      <trkpt lat="44.45088" lon="5.26643">
        <ele>675.79998779297</ele>
        <time>2014-05-03T11:39:53.000Z</time>
      </trkpt>
      <trkpt lat="44.45081" lon="5.26653">
        <ele>674</ele>
        <time>2014-05-03T11:39:57.000Z</time>
      </trkpt>
      <trkpt lat="44.45073" lon="5.2667">
        <ele>673.79998779297</ele>
        <time>2014-05-03T11:40:02.000Z</time>
      </trkpt>
      <trkpt lat="44.45069" lon="5.26693">
        <ele>672</ele>
        <time>2014-05-03T11:40:07.000Z</time>
      </trkpt>
      <trkpt lat="44.45068" lon="5.26699">
        <ele>671.79998779297</ele>
        <time>2014-05-03T11:40:08.000Z</time>
      </trkpt>
      <trkpt lat="44.45065" lon="5.26726">
        <ele>670.20001220703</ele>
        <time>2014-05-03T11:40:12.000Z</time>
      </trkpt>
      <trkpt lat="44.45063" lon="5.26739">
        <ele>668.79998779297</ele>
        <time>2014-05-03T11:40:14.000Z</time>
      </trkpt>
      <trkpt lat="44.45062" lon="5.26752">
        <ele>666.79998779297</ele>
        <time>2014-05-03T11:40:16.000Z</time>
      </trkpt>
      <trkpt lat="44.4506" lon="5.26778">
        <ele>664.59997558594</ele>
        <time>2014-05-03T11:40:20.000Z</time>
      </trkpt>
      <trkpt lat="44.45045" lon="5.26812">
        <ele>662.79998779297</ele>
        <time>2014-05-03T11:40:28.000Z</time>
      </trkpt>
      <trkpt lat="44.45035" lon="5.26819">
        <ele>662</ele>
        <time>2014-05-03T11:40:32.000Z</time>
      </trkpt>
      <trkpt lat="44.45022" lon="5.2683">
        <ele>659.40002441406</ele>
        <time>2014-05-03T11:40:38.000Z</time>
      </trkpt>
      <trkpt lat="44.45013" lon="5.26841">
        <ele>658.59997558594</ele>
        <time>2014-05-03T11:40:41.000Z</time>
      </trkpt>
      <trkpt lat="44.45007" lon="5.26851">
        <ele>657.59997558594</ele>
        <time>2014-05-03T11:40:43.000Z</time>
      </trkpt>
      <trkpt lat="44.44995" lon="5.26878">
        <ele>653.20001220703</ele>
        <time>2014-05-03T11:40:48.000Z</time>
      </trkpt>
      <trkpt lat="44.45001" lon="5.2689">
        <ele>649</ele>
        <time>2014-05-03T11:40:50.000Z</time>
      </trkpt>
      <trkpt lat="44.45018" lon="5.26939">
        <ele>641.40002441406</ele>
        <time>2014-05-03T11:40:55.000Z</time>
      </trkpt>
      <trkpt lat="44.45023" lon="5.26972">
        <ele>637.59997558594</ele>
        <time>2014-05-03T11:40:58.000Z</time>
      </trkpt>
      <trkpt lat="44.45024" lon="5.26982">
        <ele>637.59997558594</ele>
        <time>2014-05-03T11:40:59.000Z</time>
      </trkpt>
      <trkpt lat="44.45025" lon="5.26993">
        <ele>638.40002441406</ele>
        <time>2014-05-03T11:41:00.000Z</time>
      </trkpt>
      <trkpt lat="44.45025" lon="5.27053">
        <ele>635.20001220703</ele>
        <time>2014-05-03T11:41:05.000Z</time>
      </trkpt>
      <trkpt lat="44.45022" lon="5.27092">
        <ele>631.20001220703</ele>
        <time>2014-05-03T11:41:08.000Z</time>
      </trkpt>
      <trkpt lat="44.45014" lon="5.27128">
        <ele>627.20001220703</ele>
        <time>2014-05-03T11:41:11.000Z</time>
      </trkpt>
      <trkpt lat="44.45009" lon="5.27199">
        <ele>624</ele>
        <time>2014-05-03T11:41:17.000Z</time>
      </trkpt>
      <trkpt lat="44.44997" lon="5.27235">
        <ele>621.20001220703</ele>
        <time>2014-05-03T11:41:21.000Z</time>
      </trkpt>
      <trkpt lat="44.44993" lon="5.27243">
        <ele>621.79998779297</ele>
        <time>2014-05-03T11:41:22.000Z</time>
      </trkpt>
      <trkpt lat="44.44967" lon="5.27303">
        <ele>618.20001220703</ele>
        <time>2014-05-03T11:41:29.000Z</time>
      </trkpt>
      <trkpt lat="44.44963" lon="5.27317">
        <ele>617.59997558594</ele>
        <time>2014-05-03T11:41:31.000Z</time>
      </trkpt>
      <trkpt lat="44.44954" lon="5.27329">
        <ele>615.59997558594</ele>
        <time>2014-05-03T11:41:35.000Z</time>
      </trkpt>
      <trkpt lat="44.44937" lon="5.2735">
        <ele>612.79998779297</ele>
        <time>2014-05-03T11:41:41.000Z</time>
      </trkpt>
      <trkpt lat="44.44921" lon="5.27361">
        <ele>608.79998779297</ele>
        <time>2014-05-03T11:41:46.000Z</time>
      </trkpt>
      <trkpt lat="44.44911" lon="5.27368">
        <ele>608</ele>
        <time>2014-05-03T11:41:49.000Z</time>
      </trkpt>
      <trkpt lat="44.44898" lon="5.27372">
        <ele>606.59997558594</ele>
        <time>2014-05-03T11:41:54.000Z</time>
      </trkpt>
      <trkpt lat="44.44886" lon="5.27367">
        <ele>605</ele>
        <time>2014-05-03T11:42:02.000Z</time>
      </trkpt>
      <trkpt lat="44.44886" lon="5.27368">
        <ele>604.40002441406</ele>
        <time>2014-05-03T11:42:06.000Z</time>
      </trkpt>
      <trkpt lat="44.4489" lon="5.27385">
        <ele>604.59997558594</ele>
        <time>2014-05-03T11:42:17.000Z</time>
      </trkpt>
      <trkpt lat="44.4489" lon="5.27385">
        <ele>604.59997558594</ele>
        <time>2014-05-03T11:42:18.000Z</time>
      </trkpt>
      <trkpt lat="44.44891" lon="5.27408">
        <ele>603</ele>
        <time>2014-05-03T11:42:24.000Z</time>
      </trkpt>
      <trkpt lat="44.4489" lon="5.27424">
        <ele>600.59997558594</ele>
        <time>2014-05-03T11:42:27.000Z</time>
      </trkpt>
      <trkpt lat="44.44883" lon="5.27441">
        <ele>597</ele>
        <time>2014-05-03T11:42:30.000Z</time>
      </trkpt>
      <trkpt lat="44.44877" lon="5.27458">
        <ele>595</ele>
        <time>2014-05-03T11:42:33.000Z</time>
      </trkpt>
      <trkpt lat="44.44867" lon="5.27488">
        <ele>592.59997558594</ele>
        <time>2014-05-03T11:42:38.000Z</time>
      </trkpt>
      <trkpt lat="44.44862" lon="5.27501">
        <ele>592.20001220703</ele>
        <time>2014-05-03T11:42:42.000Z</time>
      </trkpt>
      <trkpt lat="44.44854" lon="5.27518">
        <ele>589.20001220703</ele>
        <time>2014-05-03T11:42:47.000Z</time>
      </trkpt>
      <trkpt lat="44.44849" lon="5.2753">
        <ele>588</ele>
        <time>2014-05-03T11:42:50.000Z</time>
      </trkpt>
      <trkpt lat="44.44847" lon="5.27545">
        <ele>584.20001220703</ele>
        <time>2014-05-03T11:42:55.000Z</time>
      </trkpt>
      <trkpt lat="44.44845" lon="5.27552">
        <ele>582.20001220703</ele>
        <time>2014-05-03T11:42:57.000Z</time>
      </trkpt>
      <trkpt lat="44.4484" lon="5.2757">
        <ele>579</ele>
        <time>2014-05-03T11:43:03.000Z</time>
      </trkpt>
      <trkpt lat="44.44839" lon="5.27584">
        <ele>578.40002441406</ele>
        <time>2014-05-03T11:43:07.000Z</time>
      </trkpt>
      <trkpt lat="44.4483" lon="5.27609">
        <ele>575</ele>
        <time>2014-05-03T11:43:11.000Z</time>
      </trkpt>
      <trkpt lat="44.44821" lon="5.27638">
        <ele>571.40002441406</ele>
        <time>2014-05-03T11:43:15.000Z</time>
      </trkpt>
      <trkpt lat="44.4481" lon="5.27653">
        <ele>567.20001220703</ele>
        <time>2014-05-03T11:43:19.000Z</time>
      </trkpt>
      <trkpt lat="44.44803" lon="5.27663">
        <ele>565</ele>
        <time>2014-05-03T11:43:23.000Z</time>
      </trkpt>
      <trkpt lat="44.44792" lon="5.27676">
        <ele>564.20001220703</ele>
        <time>2014-05-03T11:43:26.000Z</time>
      </trkpt>
      <trkpt lat="44.44781" lon="5.27685">
        <ele>563.20001220703</ele>
        <time>2014-05-03T11:43:28.000Z</time>
      </trkpt>
      <trkpt lat="44.4477" lon="5.27696">
        <ele>561</ele>
        <time>2014-05-03T11:43:30.000Z</time>
      </trkpt>
      <trkpt lat="44.44759" lon="5.2771">
        <ele>557.79998779297</ele>
        <time>2014-05-03T11:43:34.000Z</time>
      </trkpt>
      <trkpt lat="44.44757" lon="5.27711">
        <ele>557.59997558594</ele>
        <time>2014-05-03T11:43:35.000Z</time>
      </trkpt>
      <trkpt lat="44.44755" lon="5.27714">
        <ele>555.79998779297</ele>
        <time>2014-05-03T11:43:38.000Z</time>
      </trkpt>
      <trkpt lat="44.44755" lon="5.27715">
        <ele>555.79998779297</ele>
        <time>2014-05-03T11:43:39.000Z</time>
      </trkpt>
      <trkpt lat="44.44752" lon="5.27745">
        <ele>552</ele>
        <time>2014-05-03T11:43:46.000Z</time>
      </trkpt>
      <trkpt lat="44.44749" lon="5.27764">
        <ele>548.79998779297</ele>
        <time>2014-05-03T11:43:50.000Z</time>
      </trkpt>
      <trkpt lat="44.44743" lon="5.27783">
        <ele>546.20001220703</ele>
        <time>2014-05-03T11:43:54.000Z</time>
      </trkpt>
      <trkpt lat="44.4474" lon="5.27796">
        <ele>543.59997558594</ele>
        <time>2014-05-03T11:43:56.000Z</time>
      </trkpt>
      <trkpt lat="44.44734" lon="5.27807">
        <ele>542</ele>
        <time>2014-05-03T11:43:58.000Z</time>
      </trkpt>
      <trkpt lat="44.44731" lon="5.2782">
        <ele>539.79998779297</ele>
        <time>2014-05-03T11:44:00.000Z</time>
      </trkpt>
      <trkpt lat="44.44724" lon="5.27834">
        <ele>538.59997558594</ele>
        <time>2014-05-03T11:44:03.000Z</time>
      </trkpt>
      <trkpt lat="44.44713" lon="5.27855">
        <ele>534.20001220703</ele>
        <time>2014-05-03T11:44:08.000Z</time>
      </trkpt>
      <trkpt lat="44.44711" lon="5.27858">
        <ele>533.79998779297</ele>
        <time>2014-05-03T11:44:09.000Z</time>
      </trkpt>
      <trkpt lat="44.44696" lon="5.27881">
        <ele>530</ele>
        <time>2014-05-03T11:44:14.000Z</time>
      </trkpt>
      <trkpt lat="44.44691" lon="5.27894">
        <ele>527.59997558594</ele>
        <time>2014-05-03T11:44:18.000Z</time>
      </trkpt>
      <trkpt lat="44.44676" lon="5.27927">
        <ele>523</ele>
        <time>2014-05-03T11:44:25.000Z</time>
      </trkpt>
      <trkpt lat="44.44663" lon="5.27941">
        <ele>520</ele>
        <time>2014-05-03T11:44:30.000Z</time>
      </trkpt>
      <trkpt lat="44.44643" lon="5.27963">
        <ele>516.79998779297</ele>
        <time>2014-05-03T11:44:37.000Z</time>
      </trkpt>
      <trkpt lat="44.44633" lon="5.27978">
        <ele>513.40002441406</ele>
        <time>2014-05-03T11:44:41.000Z</time>
      </trkpt>
      <trkpt lat="44.4462" lon="5.27996">
        <ele>511</ele>
        <time>2014-05-03T11:44:46.000Z</time>
      </trkpt>
      <trkpt lat="44.44603" lon="5.28008">
        <ele>507.20001220703</ele>
        <time>2014-05-03T11:44:52.000Z</time>
      </trkpt>
      <trkpt lat="44.44599" lon="5.28011">
        <ele>504.20001220703</ele>
        <time>2014-05-03T11:44:54.000Z</time>
      </trkpt>
      <trkpt lat="44.44597" lon="5.28014">
        <ele>502.60000610352</ele>
        <time>2014-05-03T11:44:57.000Z</time>
      </trkpt>
      <trkpt lat="44.44586" lon="5.28034">
        <ele>500.79998779297</ele>
        <time>2014-05-03T11:45:03.000Z</time>
      </trkpt>
      <trkpt lat="44.44575" lon="5.2805">
        <ele>500.20001220703</ele>
        <time>2014-05-03T11:45:07.000Z</time>
      </trkpt>
      <trkpt lat="44.44572" lon="5.28055">
        <ele>499.20001220703</ele>
        <time>2014-05-03T11:45:11.000Z</time>
      </trkpt>
      <trkpt lat="44.44583" lon="5.2806">
        <ele>494.60000610352</ele>
        <time>2014-05-03T11:45:16.000Z</time>
      </trkpt>
      <trkpt lat="44.44585" lon="5.28077">
        <ele>491.20001220703</ele>
        <time>2014-05-03T11:45:23.000Z</time>
      </trkpt>
      <trkpt lat="44.44574" lon="5.28085">
        <ele>489</ele>
        <time>2014-05-03T11:45:26.000Z</time>
      </trkpt>
      <trkpt lat="44.44555" lon="5.28096">
        <ele>484.79998779297</ele>
        <time>2014-05-03T11:45:32.000Z</time>
      </trkpt>
      <trkpt lat="44.4454" lon="5.28115">
        <ele>479.79998779297</ele>
        <time>2014-05-03T11:45:39.000Z</time>
      </trkpt>
      <trkpt lat="44.44531" lon="5.28122">
        <ele>477.39999389648</ele>
        <time>2014-05-03T11:45:42.000Z</time>
      </trkpt>
      <trkpt lat="44.44518" lon="5.28131">
        <ele>472.39999389648</ele>
        <time>2014-05-03T11:45:46.000Z</time>
      </trkpt>
      <trkpt lat="44.44514" lon="5.28135">
        <ele>471.79998779297</ele>
        <time>2014-05-03T11:45:48.000Z</time>
      </trkpt>
      <trkpt lat="44.44513" lon="5.2815">
        <ele>470</ele>
        <time>2014-05-03T11:45:54.000Z</time>
      </trkpt>
      <trkpt lat="44.44511" lon="5.28157">
        <ele>469.60000610352</ele>
        <time>2014-05-03T11:45:56.000Z</time>
      </trkpt>
      <trkpt lat="44.44505" lon="5.2818">
        <ele>466.39999389648</ele>
        <time>2014-05-03T11:46:03.000Z</time>
      </trkpt>
      <trkpt lat="44.44504" lon="5.28185">
        <ele>464.79998779297</ele>
        <time>2014-05-03T11:46:07.000Z</time>
      </trkpt>
      <trkpt lat="44.44495" lon="5.28193">
        <ele>463.79998779297</ele>
        <time>2014-05-03T11:46:25.000Z</time>
      </trkpt>
      <trkpt lat="44.44487" lon="5.28192">
        <ele>465.79998779297</ele>
        <time>2014-05-03T11:46:34.000Z</time>
      </trkpt>
      <trkpt lat="44.44477" lon="5.28198">
        <ele>469</ele>
        <time>2014-05-03T11:46:45.000Z</time>
      </trkpt>
      <trkpt lat="44.44469" lon="5.28207">
        <ele>472.20001220703</ele>
        <time>2014-05-03T11:46:57.000Z</time>
      </trkpt>
      <trkpt lat="44.44469" lon="5.28209">
        <ele>473</ele>
        <time>2014-05-03T11:46:59.000Z</time>
      </trkpt>
      <trkpt lat="44.44461" lon="5.28226">
        <ele>475.60000610352</ele>
        <time>2014-05-03T11:47:08.000Z</time>
      </trkpt>
      <trkpt lat="44.44457" lon="5.28236">
        <ele>477.79998779297</ele>
        <time>2014-05-03T11:47:12.000Z</time>
      </trkpt>
      <trkpt lat="44.44448" lon="5.28263">
        <ele>480.39999389648</ele>
        <time>2014-05-03T11:47:25.000Z</time>
      </trkpt>
      <trkpt lat="44.44448" lon="5.28264">
        <ele>480.60000610352</ele>
        <time>2014-05-03T11:47:45.000Z</time>
      </trkpt>
      <trkpt lat="44.44441" lon="5.28285">
        <ele>482.39999389648</ele>
        <time>2014-05-03T11:47:59.000Z</time>
      </trkpt>
      <trkpt lat="44.44435" lon="5.28309">
        <ele>485.39999389648</ele>
        <time>2014-05-03T11:48:10.000Z</time>
      </trkpt>
      <trkpt lat="44.44431" lon="5.28321">
        <ele>486.79998779297</ele>
        <time>2014-05-03T11:48:15.000Z</time>
      </trkpt>
      <trkpt lat="44.44424" lon="5.28346">
        <ele>489.60000610352</ele>
        <time>2014-05-03T11:48:27.000Z</time>
      </trkpt>
      <trkpt lat="44.44411" lon="5.28391">
        <ele>492.39999389648</ele>
        <time>2014-05-03T11:48:44.000Z</time>
      </trkpt>
      <trkpt lat="44.44403" lon="5.28436">
        <ele>494.20001220703</ele>
        <time>2014-05-03T11:49:00.000Z</time>
      </trkpt>
      <trkpt lat="44.444" lon="5.28457">
        <ele>493.60000610352</ele>
        <time>2014-05-03T11:49:04.000Z</time>
      </trkpt>
      <trkpt lat="44.44396" lon="5.28494">
        <ele>490</ele>
        <time>2014-05-03T11:49:10.000Z</time>
      </trkpt>
      <trkpt lat="44.44389" lon="5.28515">
        <ele>488.20001220703</ele>
        <time>2014-05-03T11:49:14.000Z</time>
      </trkpt>
      <trkpt lat="44.44369" lon="5.28552">
        <ele>490.79998779297</ele>
        <time>2014-05-03T11:49:26.000Z</time>
      </trkpt>
      <trkpt lat="44.44354" lon="5.28569">
        <ele>487</ele>
        <time>2014-05-03T11:49:31.000Z</time>
      </trkpt>
      <trkpt lat="44.4434" lon="5.28581">
        <ele>483.60000610352</ele>
        <time>2014-05-03T11:49:36.000Z</time>
      </trkpt>
      <trkpt lat="44.44331" lon="5.28585">
        <ele>480.60000610352</ele>
        <time>2014-05-03T11:49:39.000Z</time>
      </trkpt>
      <trkpt lat="44.44328" lon="5.28589">
        <ele>480</ele>
        <time>2014-05-03T11:49:41.000Z</time>
      </trkpt>
      <trkpt lat="44.44321" lon="5.28599">
        <ele>477.20001220703</ele>
        <time>2014-05-03T11:49:46.000Z</time>
      </trkpt>
      <trkpt lat="44.4431" lon="5.28611">
        <ele>476</ele>
        <time>2014-05-03T11:49:52.000Z</time>
      </trkpt>
      <trkpt lat="44.44301" lon="5.28613">
        <ele>477.39999389648</ele>
        <time>2014-05-03T11:49:59.000Z</time>
      </trkpt>
      <trkpt lat="44.44297" lon="5.28613">
        <ele>478.79998779297</ele>
        <time>2014-05-03T11:50:02.000Z</time>
      </trkpt>
      <trkpt lat="44.44289" lon="5.28611">
        <ele>479.79998779297</ele>
        <time>2014-05-03T11:50:07.000Z</time>
      </trkpt>
      <trkpt lat="44.44273" lon="5.28619">
        <ele>483.60000610352</ele>
        <time>2014-05-03T11:50:18.000Z</time>
      </trkpt>
      <trkpt lat="44.44258" lon="5.28631">
        <ele>486.60000610352</ele>
        <time>2014-05-03T11:50:27.000Z</time>
      </trkpt>
      <trkpt lat="44.44257" lon="5.28632">
        <ele>487</ele>
        <time>2014-05-03T11:50:28.000Z</time>
      </trkpt>
      <trkpt lat="44.44237" lon="5.28639">
        <ele>489.60000610352</ele>
        <time>2014-05-03T11:50:41.000Z</time>
      </trkpt>
      <trkpt lat="44.44219" lon="5.2866">
        <ele>492.60000610352</ele>
        <time>2014-05-03T11:50:55.000Z</time>
      </trkpt>
      <trkpt lat="44.44191" lon="5.28683">
        <ele>492.60000610352</ele>
        <time>2014-05-03T11:51:08.000Z</time>
      </trkpt>
      <trkpt lat="44.44172" lon="5.28696">
        <ele>492.79998779297</ele>
        <time>2014-05-03T11:51:16.000Z</time>
      </trkpt>
      <trkpt lat="44.44169" lon="5.28711">
        <ele>495.79998779297</ele>
        <time>2014-05-03T11:51:22.000Z</time>
      </trkpt>
      <trkpt lat="44.44168" lon="5.28723">
        <ele>496</ele>
        <time>2014-05-03T11:51:25.000Z</time>
      </trkpt>
      <trkpt lat="44.44168" lon="5.28741">
        <ele>493.79998779297</ele>
        <time>2014-05-03T11:51:28.000Z</time>
      </trkpt>
      <trkpt lat="44.44169" lon="5.28778">
        <ele>491.79998779297</ele>
        <time>2014-05-03T11:51:33.000Z</time>
      </trkpt>
      <trkpt lat="44.44185" lon="5.28844">
        <ele>494.39999389648</ele>
        <time>2014-05-03T11:51:45.000Z</time>
      </trkpt>
      <trkpt lat="44.44189" lon="5.28862">
        <ele>497</ele>
        <time>2014-05-03T11:51:50.000Z</time>
      </trkpt>
      <trkpt lat="44.44187" lon="5.2891">
        <ele>500</ele>
        <time>2014-05-03T11:52:03.000Z</time>
      </trkpt>
      <trkpt lat="44.44187" lon="5.28914">
        <ele>500.20001220703</ele>
        <time>2014-05-03T11:52:04.000Z</time>
      </trkpt>
      <trkpt lat="44.44186" lon="5.28962">
        <ele>502</ele>
        <time>2014-05-03T11:52:18.000Z</time>
      </trkpt>
      <trkpt lat="44.44187" lon="5.2902">
        <ele>504.60000610352</ele>
        <time>2014-05-03T11:52:35.000Z</time>
      </trkpt>
      <trkpt lat="44.44192" lon="5.29067">
        <ele>507.60000610352</ele>
        <time>2014-05-03T11:52:50.000Z</time>
      </trkpt>
      <trkpt lat="44.44197" lon="5.29113">
        <ele>509.60000610352</ele>
        <time>2014-05-03T11:53:06.000Z</time>
      </trkpt>
      <trkpt lat="44.44201" lon="5.29132">
        <ele>512.79998779297</ele>
        <time>2014-05-03T11:53:13.000Z</time>
      </trkpt>
      <trkpt lat="44.44221" lon="5.29191">
        <ele>515.40002441406</ele>
        <time>2014-05-03T11:53:33.000Z</time>
      </trkpt>
      <trkpt lat="44.44244" lon="5.29234">
        <ele>518</ele>
        <time>2014-05-03T11:53:48.000Z</time>
      </trkpt>
      <trkpt lat="44.44269" lon="5.29284">
        <ele>516.40002441406</ele>
        <time>2014-05-03T11:54:02.000Z</time>
      </trkpt>
      <trkpt lat="44.44271" lon="5.29293">
        <ele>517.20001220703</ele>
        <time>2014-05-03T11:54:04.000Z</time>
      </trkpt>
      <trkpt lat="44.44269" lon="5.2931">
        <ele>518.40002441406</ele>
        <time>2014-05-03T11:54:07.000Z</time>
      </trkpt>
      <trkpt lat="44.44256" lon="5.29322">
        <ele>519.59997558594</ele>
        <time>2014-05-03T11:54:11.000Z</time>
      </trkpt>
      <trkpt lat="44.44223" lon="5.29366">
        <ele>521.40002441406</ele>
        <time>2014-05-03T11:54:26.000Z</time>
      </trkpt>
      <trkpt lat="44.44247" lon="5.29418">
        <ele>522.20001220703</ele>
        <time>2014-05-03T11:54:39.000Z</time>
      </trkpt>
      <trkpt lat="44.4425" lon="5.29437">
        <ele>522.20001220703</ele>
        <time>2014-05-03T11:54:43.000Z</time>
      </trkpt>
      <trkpt lat="44.44238" lon="5.29446">
        <ele>523</ele>
        <time>2014-05-03T11:54:47.000Z</time>
      </trkpt>
      <trkpt lat="44.44202" lon="5.29471">
        <ele>524</ele>
        <time>2014-05-03T11:54:59.000Z</time>
      </trkpt>
      <trkpt lat="44.44177" lon="5.29466">
        <ele>526.59997558594</ele>
        <time>2014-05-03T11:55:07.000Z</time>
      </trkpt>
      <trkpt lat="44.44143" lon="5.29444">
        <ele>527.20001220703</ele>
        <time>2014-05-03T11:55:17.000Z</time>
      </trkpt>
      <trkpt lat="44.44085" lon="5.29449">
        <ele>530</ele>
        <time>2014-05-03T11:55:31.000Z</time>
      </trkpt>
      <trkpt lat="44.44051" lon="5.2946">
        <ele>530.79998779297</ele>
        <time>2014-05-03T11:55:39.000Z</time>
      </trkpt>
      <trkpt lat="44.44035" lon="5.2947">
        <ele>531.20001220703</ele>
        <time>2014-05-03T11:55:43.000Z</time>
      </trkpt>
      <trkpt lat="44.44024" lon="5.29476">
        <ele>531.79998779297</ele>
        <time>2014-05-03T11:55:46.000Z</time>
      </trkpt>
      <trkpt lat="44.44007" lon="5.29478">
        <ele>531.79998779297</ele>
        <time>2014-05-03T11:55:50.000Z</time>
      </trkpt>
      <trkpt lat="44.43993" lon="5.29474">
        <ele>532.20001220703</ele>
        <time>2014-05-03T11:55:53.000Z</time>
      </trkpt>
      <trkpt lat="44.43962" lon="5.29502">
        <ele>535.79998779297</ele>
        <time>2014-05-03T11:56:01.000Z</time>
      </trkpt>
      <trkpt lat="44.43959" lon="5.29518">
        <ele>536.79998779297</ele>
        <time>2014-05-03T11:56:03.000Z</time>
      </trkpt>
      <trkpt lat="44.43956" lon="5.29534">
        <ele>537.20001220703</ele>
        <time>2014-05-03T11:56:05.000Z</time>
      </trkpt>
      <trkpt lat="44.43953" lon="5.29601">
        <ele>534.40002441406</ele>
        <time>2014-05-03T11:56:16.000Z</time>
      </trkpt>
      <trkpt lat="44.43956" lon="5.29605">
        <ele>533.59997558594</ele>
        <time>2014-05-03T11:56:18.000Z</time>
      </trkpt>
      <trkpt lat="44.43975" lon="5.29605">
        <ele>537.20001220703</ele>
        <time>2014-05-03T11:56:25.000Z</time>
      </trkpt>
      <trkpt lat="44.43978" lon="5.29604">
        <ele>537.40002441406</ele>
        <time>2014-05-03T11:56:26.000Z</time>
      </trkpt>
      <trkpt lat="44.44022" lon="5.29612">
        <ele>539.59997558594</ele>
        <time>2014-05-03T11:56:41.000Z</time>
      </trkpt>
      <trkpt lat="44.44035" lon="5.2962">
        <ele>541.79998779297</ele>
        <time>2014-05-03T11:56:46.000Z</time>
      </trkpt>
      <trkpt lat="44.44048" lon="5.29636">
        <ele>544.59997558594</ele>
        <time>2014-05-03T11:56:52.000Z</time>
      </trkpt>
      <trkpt lat="44.44063" lon="5.29667">
        <ele>547.59997558594</ele>
        <time>2014-05-03T11:57:02.000Z</time>
      </trkpt>
      <trkpt lat="44.44055" lon="5.29699">
        <ele>544.79998779297</ele>
        <time>2014-05-03T11:57:12.000Z</time>
      </trkpt>
      <trkpt lat="44.44043" lon="5.29723">
        <ele>546.20001220703</ele>
        <time>2014-05-03T11:57:20.000Z</time>
      </trkpt>
      <trkpt lat="44.44041" lon="5.2973">
        <ele>546.59997558594</ele>
        <time>2014-05-03T11:57:22.000Z</time>
      </trkpt>
      <trkpt lat="44.44048" lon="5.29732">
        <ele>549.40002441406</ele>
        <time>2014-05-03T11:57:29.000Z</time>
      </trkpt>
      <trkpt lat="44.4405" lon="5.2973">
        <ele>549.59997558594</ele>
        <time>2014-05-03T11:57:30.000Z</time>
      </trkpt>
      <trkpt lat="44.44068" lon="5.29709">
        <ele>552.79998779297</ele>
        <time>2014-05-03T11:57:42.000Z</time>
      </trkpt>
      <trkpt lat="44.44089" lon="5.29687">
        <ele>556</ele>
        <time>2014-05-03T11:57:57.000Z</time>
      </trkpt>
      <trkpt lat="44.44089" lon="5.29684">
        <ele>556.20001220703</ele>
        <time>2014-05-03T11:57:58.000Z</time>
      </trkpt>
      <trkpt lat="44.44089" lon="5.29667">
        <ele>559.20001220703</ele>
        <time>2014-05-03T11:58:04.000Z</time>
      </trkpt>
      <trkpt lat="44.44089" lon="5.29664">
        <ele>559.40002441406</ele>
        <time>2014-05-03T11:58:05.000Z</time>
      </trkpt>
      <trkpt lat="44.44084" lon="5.29626">
        <ele>560.79998779297</ele>
        <time>2014-05-03T11:58:19.000Z</time>
      </trkpt>
      <trkpt lat="44.44081" lon="5.2959">
        <ele>564.20001220703</ele>
        <time>2014-05-03T11:58:32.000Z</time>
      </trkpt>
      <trkpt lat="44.44083" lon="5.29585">
        <ele>566.59997558594</ele>
        <time>2014-05-03T11:58:34.000Z</time>
      </trkpt>
      <trkpt lat="44.44092" lon="5.29584">
        <ele>564.59997558594</ele>
        <time>2014-05-03T11:58:39.000Z</time>
      </trkpt>
      <trkpt lat="44.44101" lon="5.29592">
        <ele>566.40002441406</ele>
        <time>2014-05-03T11:58:45.000Z</time>
      </trkpt>
      <trkpt lat="44.44109" lon="5.29607">
        <ele>570</ele>
        <time>2014-05-03T11:58:54.000Z</time>
      </trkpt>
      <trkpt lat="44.44114" lon="5.29614">
        <ele>571.79998779297</ele>
        <time>2014-05-03T11:58:58.000Z</time>
      </trkpt>
      <trkpt lat="44.44123" lon="5.29631">
        <ele>570</ele>
        <time>2014-05-03T11:59:06.000Z</time>
      </trkpt>
      <trkpt lat="44.4413" lon="5.29642">
        <ele>568.20001220703</ele>
        <time>2014-05-03T11:59:12.000Z</time>
      </trkpt>
      <trkpt lat="44.44158" lon="5.29651">
        <ele>567.40002441406</ele>
        <time>2014-05-03T11:59:26.000Z</time>
      </trkpt>
      <trkpt lat="44.44166" lon="5.29656">
        <ele>570</ele>
        <time>2014-05-03T11:59:32.000Z</time>
      </trkpt>
      <trkpt lat="44.4417" lon="5.29659">
        <ele>572.20001220703</ele>
        <time>2014-05-03T11:59:42.000Z</time>
      </trkpt>
      <trkpt lat="44.44172" lon="5.29663">
        <ele>570.79998779297</ele>
        <time>2014-05-03T11:59:53.000Z</time>
      </trkpt>
      <trkpt lat="44.44176" lon="5.29669">
        <ele>572.40002441406</ele>
        <time>2014-05-03T12:00:00.000Z</time>
      </trkpt>
      <trkpt lat="44.44178" lon="5.29672">
        <ele>574</ele>
        <time>2014-05-03T12:00:03.000Z</time>
      </trkpt>
      <trkpt lat="44.44183" lon="5.29684">
        <ele>575.59997558594</ele>
        <time>2014-05-03T12:00:14.000Z</time>
      </trkpt>
      <trkpt lat="44.44187" lon="5.29701">
        <ele>578.20001220703</ele>
        <time>2014-05-03T12:00:31.000Z</time>
      </trkpt>
      <trkpt lat="44.44188" lon="5.29706">
        <ele>579.40002441406</ele>
        <time>2014-05-03T12:00:35.000Z</time>
      </trkpt>
      <trkpt lat="44.44192" lon="5.29711">
        <ele>582.79998779297</ele>
        <time>2014-05-03T12:00:41.000Z</time>
      </trkpt>
      <trkpt lat="44.44198" lon="5.29731">
        <ele>580.20001220703</ele>
        <time>2014-05-03T12:00:57.000Z</time>
      </trkpt>
      <trkpt lat="44.442" lon="5.2974">
        <ele>582</ele>
        <time>2014-05-03T12:01:03.000Z</time>
      </trkpt>
      <trkpt lat="44.44202" lon="5.29748">
        <ele>586.20001220703</ele>
        <time>2014-05-03T12:01:08.000Z</time>
      </trkpt>
      <trkpt lat="44.44203" lon="5.29749">
        <ele>586.59997558594</ele>
        <time>2014-05-03T12:01:09.000Z</time>
      </trkpt>
      <trkpt lat="44.44204" lon="5.29752">
        <ele>586.79998779297</ele>
        <time>2014-05-03T12:01:11.000Z</time>
      </trkpt>
      <trkpt lat="44.44206" lon="5.29759">
        <ele>588.40002441406</ele>
        <time>2014-05-03T12:01:15.000Z</time>
      </trkpt>
      <trkpt lat="44.44212" lon="5.29773">
        <ele>589</ele>
        <time>2014-05-03T12:01:25.000Z</time>
      </trkpt>
      <trkpt lat="44.44217" lon="5.29785">
        <ele>589.79998779297</ele>
        <time>2014-05-03T12:01:33.000Z</time>
      </trkpt>
      <trkpt lat="44.44227" lon="5.29803">
        <ele>593</ele>
        <time>2014-05-03T12:01:45.000Z</time>
      </trkpt>
      <trkpt lat="44.44228" lon="5.29806">
        <ele>593.79998779297</ele>
        <time>2014-05-03T12:01:47.000Z</time>
      </trkpt>
      <trkpt lat="44.4424" lon="5.29829">
        <ele>596.40002441406</ele>
        <time>2014-05-03T12:02:03.000Z</time>
      </trkpt>
      <trkpt lat="44.44247" lon="5.29846">
        <ele>599.40002441406</ele>
        <time>2014-05-03T12:02:14.000Z</time>
      </trkpt>
      <trkpt lat="44.44255" lon="5.2987">
        <ele>602.40002441406</ele>
        <time>2014-05-03T12:02:30.000Z</time>
      </trkpt>
      <trkpt lat="44.44261" lon="5.29892">
        <ele>603.20001220703</ele>
        <time>2014-05-03T12:02:45.000Z</time>
      </trkpt>
      <trkpt lat="44.44266" lon="5.29903">
        <ele>606.40002441406</ele>
        <time>2014-05-03T12:02:53.000Z</time>
      </trkpt>
      <trkpt lat="44.44269" lon="5.29907">
        <ele>608.79998779297</ele>
        <time>2014-05-03T12:02:57.000Z</time>
      </trkpt>
      <trkpt lat="44.4427" lon="5.2991">
        <ele>609.59997558594</ele>
        <time>2014-05-03T12:02:59.000Z</time>
      </trkpt>
      <trkpt lat="44.4428" lon="5.29932">
        <ele>612.59997558594</ele>
        <time>2014-05-03T12:03:15.000Z</time>
      </trkpt>
      <trkpt lat="44.4428" lon="5.29934">
        <ele>612.79998779297</ele>
        <time>2014-05-03T12:03:16.000Z</time>
      </trkpt>
      <trkpt lat="44.44292" lon="5.29959">
        <ele>615.79998779297</ele>
        <time>2014-05-03T12:03:33.000Z</time>
      </trkpt>
      <trkpt lat="44.44301" lon="5.29987">
        <ele>616.79998779297</ele>
        <time>2014-05-03T12:03:49.000Z</time>
      </trkpt>
      <trkpt lat="44.44301" lon="5.29997">
        <ele>618.79998779297</ele>
        <time>2014-05-03T12:03:54.000Z</time>
      </trkpt>
      <trkpt lat="44.44304" lon="5.30011">
        <ele>621.40002441406</ele>
        <time>2014-05-03T12:04:02.000Z</time>
      </trkpt>
      <trkpt lat="44.44306" lon="5.30018">
        <ele>620</ele>
        <time>2014-05-03T12:04:06.000Z</time>
      </trkpt>
      <trkpt lat="44.44309" lon="5.30029">
        <ele>622</ele>
        <time>2014-05-03T12:04:12.000Z</time>
      </trkpt>
      <trkpt lat="44.4431" lon="5.30032">
        <ele>622.59997558594</ele>
        <time>2014-05-03T12:04:14.000Z</time>
      </trkpt>
      <trkpt lat="44.44312" lon="5.30038">
        <ele>623.20001220703</ele>
        <time>2014-05-03T12:04:28.000Z</time>
      </trkpt>
      <trkpt lat="44.44312" lon="5.3005">
        <ele>625</ele>
        <time>2014-05-03T12:04:52.000Z</time>
      </trkpt>
      <trkpt lat="44.44314" lon="5.30064">
        <ele>628</ele>
        <time>2014-05-03T12:05:06.000Z</time>
      </trkpt>
      <trkpt lat="44.44313" lon="5.30076">
        <ele>631.40002441406</ele>
        <time>2014-05-03T12:05:17.000Z</time>
      </trkpt>
      <trkpt lat="44.44312" lon="5.30095">
        <ele>632.79998779297</ele>
        <time>2014-05-03T12:05:32.000Z</time>
      </trkpt>
      <trkpt lat="44.44308" lon="5.30114">
        <ele>635</ele>
        <time>2014-05-03T12:05:45.000Z</time>
      </trkpt>
      <trkpt lat="44.44302" lon="5.30129">
        <ele>637.20001220703</ele>
        <time>2014-05-03T12:05:52.000Z</time>
      </trkpt>
      <trkpt lat="44.44295" lon="5.30154">
        <ele>640</ele>
        <time>2014-05-03T12:06:05.000Z</time>
      </trkpt>
      <trkpt lat="44.44291" lon="5.30169">
        <ele>641.40002441406</ele>
        <time>2014-05-03T12:06:14.000Z</time>
      </trkpt>
      <trkpt lat="44.44289" lon="5.30176">
        <ele>642.79998779297</ele>
        <time>2014-05-03T12:06:18.000Z</time>
      </trkpt>
      <trkpt lat="44.44287" lon="5.30178">
        <ele>643.20001220703</ele>
        <time>2014-05-03T12:06:20.000Z</time>
      </trkpt>
      <trkpt lat="44.44282" lon="5.30197">
        <ele>645.79998779297</ele>
        <time>2014-05-03T12:06:31.000Z</time>
      </trkpt>
      <trkpt lat="44.44282" lon="5.30203">
        <ele>647.40002441406</ele>
        <time>2014-05-03T12:06:35.000Z</time>
      </trkpt>
      <trkpt lat="44.44284" lon="5.30215">
        <ele>649.20001220703</ele>
        <time>2014-05-03T12:06:42.000Z</time>
      </trkpt>
      <trkpt lat="44.44287" lon="5.30232">
        <ele>651</ele>
        <time>2014-05-03T12:06:53.000Z</time>
      </trkpt>
      <trkpt lat="44.44292" lon="5.30251">
        <ele>654.20001220703</ele>
        <time>2014-05-03T12:07:07.000Z</time>
      </trkpt>
      <trkpt lat="44.4429" lon="5.30274">
        <ele>655.79998779297</ele>
        <time>2014-05-03T12:07:20.000Z</time>
      </trkpt>
      <trkpt lat="44.44287" lon="5.30286">
        <ele>658.40002441406</ele>
        <time>2014-05-03T12:07:34.000Z</time>
      </trkpt>
      <trkpt lat="44.44286" lon="5.30304">
        <ele>661.40002441406</ele>
        <time>2014-05-03T12:07:49.000Z</time>
      </trkpt>
      <trkpt lat="44.44284" lon="5.30329">
        <ele>663.20001220703</ele>
        <time>2014-05-03T12:08:07.000Z</time>
      </trkpt>
      <trkpt lat="44.44277" lon="5.30359">
        <ele>665</ele>
        <time>2014-05-03T12:08:20.000Z</time>
      </trkpt>
      <trkpt lat="44.44273" lon="5.30386">
        <ele>666</ele>
        <time>2014-05-03T12:08:29.000Z</time>
      </trkpt>
      <trkpt lat="44.44275" lon="5.30392">
        <ele>666.20001220703</ele>
        <time>2014-05-03T12:08:32.000Z</time>
      </trkpt>
      <trkpt lat="44.44281" lon="5.30427">
        <ele>669.20001220703</ele>
        <time>2014-05-03T12:08:45.000Z</time>
      </trkpt>
      <trkpt lat="44.44285" lon="5.30459">
        <ele>668.20001220703</ele>
        <time>2014-05-03T12:08:58.000Z</time>
      </trkpt>
      <trkpt lat="44.44285" lon="5.3047">
        <ele>670.59997558594</ele>
        <time>2014-05-03T12:09:02.000Z</time>
      </trkpt>
      <trkpt lat="44.44285" lon="5.30478">
        <ele>672.20001220703</ele>
        <time>2014-05-03T12:09:05.000Z</time>
      </trkpt>
      <trkpt lat="44.44288" lon="5.30515">
        <ele>674.40002441406</ele>
        <time>2014-05-03T12:09:18.000Z</time>
      </trkpt>
      <trkpt lat="44.44294" lon="5.30557">
        <ele>672</ele>
        <time>2014-05-03T12:09:33.000Z</time>
      </trkpt>
      <trkpt lat="44.44294" lon="5.3056">
        <ele>671.79998779297</ele>
        <time>2014-05-03T12:09:34.000Z</time>
      </trkpt>
      <trkpt lat="44.44294" lon="5.30563">
        <ele>671.59997558594</ele>
        <time>2014-05-03T12:09:35.000Z</time>
      </trkpt>
      <trkpt lat="44.44297" lon="5.30569">
        <ele>673.40002441406</ele>
        <time>2014-05-03T12:09:38.000Z</time>
      </trkpt>
      <trkpt lat="44.44298" lon="5.30576">
        <ele>673.79998779297</ele>
        <time>2014-05-03T12:09:41.000Z</time>
      </trkpt>
      <trkpt lat="44.44305" lon="5.30599">
        <ele>677.20001220703</ele>
        <time>2014-05-03T12:09:49.000Z</time>
      </trkpt>
      <trkpt lat="44.44306" lon="5.30602">
        <ele>677.59997558594</ele>
        <time>2014-05-03T12:09:50.000Z</time>
      </trkpt>
      <trkpt lat="44.44319" lon="5.30647">
        <ele>679.20001220703</ele>
        <time>2014-05-03T12:10:03.000Z</time>
      </trkpt>
      <trkpt lat="44.44324" lon="5.3066">
        <ele>681.59997558594</ele>
        <time>2014-05-03T12:10:07.000Z</time>
      </trkpt>
      <trkpt lat="44.44334" lon="5.30696">
        <ele>682.59997558594</ele>
        <time>2014-05-03T12:10:21.000Z</time>
      </trkpt>
      <trkpt lat="44.44338" lon="5.3071">
        <ele>686</ele>
        <time>2014-05-03T12:10:28.000Z</time>
      </trkpt>
      <trkpt lat="44.4434" lon="5.30741">
        <ele>685.20001220703</ele>
        <time>2014-05-03T12:10:41.000Z</time>
      </trkpt>
      <trkpt lat="44.44329" lon="5.30766">
        <ele>687.20001220703</ele>
        <time>2014-05-03T12:10:53.000Z</time>
      </trkpt>
      <trkpt lat="44.44328" lon="5.3077">
        <ele>688</ele>
        <time>2014-05-03T12:10:55.000Z</time>
      </trkpt>
      <trkpt lat="44.44319" lon="5.308">
        <ele>689</ele>
        <time>2014-05-03T12:11:08.000Z</time>
      </trkpt>
      <trkpt lat="44.44313" lon="5.30825">
        <ele>692</ele>
        <time>2014-05-03T12:11:19.000Z</time>
      </trkpt>
      <trkpt lat="44.44312" lon="5.30832">
        <ele>693.40002441406</ele>
        <time>2014-05-03T12:11:22.000Z</time>
      </trkpt>
      <trkpt lat="44.44302" lon="5.30856">
        <ele>690.20001220703</ele>
        <time>2014-05-03T12:11:33.000Z</time>
      </trkpt>
      <trkpt lat="44.44297" lon="5.30867">
        <ele>693.20001220703</ele>
        <time>2014-05-03T12:11:38.000Z</time>
      </trkpt>
      <trkpt lat="44.44296" lon="5.30872">
        <ele>694.79998779297</ele>
        <time>2014-05-03T12:11:41.000Z</time>
      </trkpt>
      <trkpt lat="44.44289" lon="5.309">
        <ele>698</ele>
        <time>2014-05-03T12:11:54.000Z</time>
      </trkpt>
      <trkpt lat="44.44284" lon="5.3091">
        <ele>699.79998779297</ele>
        <time>2014-05-03T12:12:00.000Z</time>
      </trkpt>
      <trkpt lat="44.44274" lon="5.30937">
        <ele>700</ele>
        <time>2014-05-03T12:12:15.000Z</time>
      </trkpt>
      <trkpt lat="44.44263" lon="5.30965">
        <ele>702.79998779297</ele>
        <time>2014-05-03T12:12:32.000Z</time>
      </trkpt>
      <trkpt lat="44.44257" lon="5.30983">
        <ele>705.20001220703</ele>
        <time>2014-05-03T12:12:42.000Z</time>
      </trkpt>
      <trkpt lat="44.4425" lon="5.31003">
        <ele>706.79998779297</ele>
        <time>2014-05-03T12:12:54.000Z</time>
      </trkpt>
      <trkpt lat="44.44243" lon="5.31019">
        <ele>710</ele>
        <time>2014-05-03T12:13:04.000Z</time>
      </trkpt>
      <trkpt lat="44.44237" lon="5.31032">
        <ele>712.40002441406</ele>
        <time>2014-05-03T12:13:12.000Z</time>
      </trkpt>
      <trkpt lat="44.44235" lon="5.31038">
        <ele>713.59997558594</ele>
        <time>2014-05-03T12:13:16.000Z</time>
      </trkpt>
      <trkpt lat="44.44227" lon="5.31054">
        <ele>715.59997558594</ele>
        <time>2014-05-03T12:13:26.000Z</time>
      </trkpt>
      <trkpt lat="44.44223" lon="5.31075">
        <ele>716.59997558594</ele>
        <time>2014-05-03T12:13:38.000Z</time>
      </trkpt>
      <trkpt lat="44.44223" lon="5.31086">
        <ele>718.79998779297</ele>
        <time>2014-05-03T12:13:48.000Z</time>
      </trkpt>
      <trkpt lat="44.44223" lon="5.31112">
        <ele>721</ele>
        <time>2014-05-03T12:14:01.000Z</time>
      </trkpt>
      <trkpt lat="44.44227" lon="5.31138">
        <ele>721.79998779297</ele>
        <time>2014-05-03T12:14:14.000Z</time>
      </trkpt>
      <trkpt lat="44.44232" lon="5.3117">
        <ele>725</ele>
        <time>2014-05-03T12:14:27.000Z</time>
      </trkpt>
      <trkpt lat="44.4423" lon="5.31215">
        <ele>726.59997558594</ele>
        <time>2014-05-03T12:14:41.000Z</time>
      </trkpt>
      <trkpt lat="44.44225" lon="5.31233">
        <ele>726.59997558594</ele>
        <time>2014-05-03T12:14:44.000Z</time>
      </trkpt>
      <trkpt lat="44.4422" lon="5.31263">
        <ele>726.59997558594</ele>
        <time>2014-05-03T12:14:49.000Z</time>
      </trkpt>
      <trkpt lat="44.44214" lon="5.31282">
        <ele>724.40002441406</ele>
        <time>2014-05-03T12:14:52.000Z</time>
      </trkpt>
      <trkpt lat="44.44212" lon="5.31288">
        <ele>724.20001220703</ele>
        <time>2014-05-03T12:14:53.000Z</time>
      </trkpt>
      <trkpt lat="44.44193" lon="5.31334">
        <ele>727</ele>
        <time>2014-05-03T12:15:06.000Z</time>
      </trkpt>
      <trkpt lat="44.44192" lon="5.31345">
        <ele>728.79998779297</ele>
        <time>2014-05-03T12:15:09.000Z</time>
      </trkpt>
      <trkpt lat="44.44179" lon="5.31393">
        <ele>726.79998779297</ele>
        <time>2014-05-03T12:15:19.000Z</time>
      </trkpt>
      <trkpt lat="44.44175" lon="5.31402">
        <ele>726.79998779297</ele>
        <time>2014-05-03T12:15:21.000Z</time>
      </trkpt>
      <trkpt lat="44.44165" lon="5.31431">
        <ele>730.20001220703</ele>
        <time>2014-05-03T12:15:26.000Z</time>
      </trkpt>
      <trkpt lat="44.44163" lon="5.31443">
        <ele>730.79998779297</ele>
        <time>2014-05-03T12:15:28.000Z</time>
      </trkpt>
      <trkpt lat="44.44153" lon="5.31475">
        <ele>727.79998779297</ele>
        <time>2014-05-03T12:15:34.000Z</time>
      </trkpt>
      <trkpt lat="44.44151" lon="5.3148">
        <ele>727.59997558594</ele>
        <time>2014-05-03T12:15:35.000Z</time>
      </trkpt>
      <trkpt lat="44.44146" lon="5.31513">
        <ele>727.40002441406</ele>
        <time>2014-05-03T12:15:41.000Z</time>
      </trkpt>
      <trkpt lat="44.44149" lon="5.31534">
        <ele>726.59997558594</ele>
        <time>2014-05-03T12:15:45.000Z</time>
      </trkpt>
      <trkpt lat="44.44159" lon="5.31562">
        <ele>727.59997558594</ele>
        <time>2014-05-03T12:15:53.000Z</time>
      </trkpt>
      <trkpt lat="44.44166" lon="5.31574">
        <ele>730</ele>
        <time>2014-05-03T12:15:58.000Z</time>
      </trkpt>
      <trkpt lat="44.44194" lon="5.31606">
        <ele>728</ele>
        <time>2014-05-03T12:16:09.000Z</time>
      </trkpt>
      <trkpt lat="44.442" lon="5.31612">
        <ele>729.20001220703</ele>
        <time>2014-05-03T12:16:11.000Z</time>
      </trkpt>
      <trkpt lat="44.44227" lon="5.31639">
        <ele>732</ele>
        <time>2014-05-03T12:16:19.000Z</time>
      </trkpt>
      <trkpt lat="44.44256" lon="5.3166">
        <ele>735.20001220703</ele>
        <time>2014-05-03T12:16:27.000Z</time>
      </trkpt>
      <trkpt lat="44.44259" lon="5.31662">
        <ele>735.59997558594</ele>
        <time>2014-05-03T12:16:28.000Z</time>
      </trkpt>
      <trkpt lat="44.44269" lon="5.31664">
        <ele>733.59997558594</ele>
        <time>2014-05-03T12:16:32.000Z</time>
      </trkpt>
      <trkpt lat="44.44275" lon="5.31661">
        <ele>737.59997558594</ele>
        <time>2014-05-03T12:16:35.000Z</time>
      </trkpt>
      <trkpt lat="44.4428" lon="5.31657">
        <ele>739</ele>
        <time>2014-05-03T12:16:37.000Z</time>
      </trkpt>
      <trkpt lat="44.4429" lon="5.31647">
        <ele>734.40002441406</ele>
        <time>2014-05-03T12:16:41.000Z</time>
      </trkpt>
      <trkpt lat="44.44302" lon="5.31635">
        <ele>731.20001220703</ele>
        <time>2014-05-03T12:16:45.000Z</time>
      </trkpt>
      <trkpt lat="44.44311" lon="5.31626">
        <ele>732.59997558594</ele>
        <time>2014-05-03T12:16:48.000Z</time>
      </trkpt>
      <trkpt lat="44.44321" lon="5.31618">
        <ele>729.79998779297</ele>
        <time>2014-05-03T12:16:53.000Z</time>
      </trkpt>
      <trkpt lat="44.44323" lon="5.31617">
        <ele>731.79998779297</ele>
        <time>2014-05-03T12:16:59.000Z</time>
      </trkpt>
      <trkpt lat="44.44322" lon="5.31618">
        <ele>732.59997558594</ele>
        <time>2014-05-03T12:17:14.000Z</time>
      </trkpt>
      <trkpt lat="44.44322" lon="5.31616">
        <ele>730.59997558594</ele>
        <time>2014-05-03T12:17:21.000Z</time>
      </trkpt>
      <trkpt lat="44.44322" lon="5.31616">
        <ele>729.59997558594</ele>
        <time>2014-05-03T12:17:48.000Z</time>
      </trkpt>
      <trkpt lat="44.44321" lon="5.31617">
        <ele>731.20001220703</ele>
        <time>2014-05-03T12:18:16.000Z</time>
      </trkpt>
      <trkpt lat="44.4432" lon="5.31618">
        <ele>729</ele>
        <time>2014-05-03T12:18:34.000Z</time>
      </trkpt>
      <trkpt lat="44.44321" lon="5.31617">
        <ele>732</ele>
        <time>2014-05-03T12:18:40.000Z</time>
      </trkpt>
      <trkpt lat="44.44322" lon="5.31618">
        <ele>730</ele>
        <time>2014-05-03T12:18:58.000Z</time>
      </trkpt>
      <trkpt lat="44.44325" lon="5.31619">
        <ele>732.40002441406</ele>
        <time>2014-05-03T12:19:10.000Z</time>
      </trkpt>
      <trkpt lat="44.44323" lon="5.31618">
        <ele>732.40002441406</ele>
        <time>2014-05-03T12:19:12.000Z</time>
      </trkpt>
      <trkpt lat="44.44321" lon="5.31617">
        <ele>730.40002441406</ele>
        <time>2014-05-03T12:19:24.000Z</time>
      </trkpt>
      <trkpt lat="44.44323" lon="5.31618">
        <ele>730.20001220703</ele>
        <time>2014-05-03T12:19:47.000Z</time>
      </trkpt>
      <trkpt lat="44.44321" lon="5.31618">
        <ele>727.59997558594</ele>
        <time>2014-05-03T12:20:15.000Z</time>
      </trkpt>
      <trkpt lat="44.4432" lon="5.31616">
        <ele>730.79998779297</ele>
        <time>2014-05-03T12:20:22.000Z</time>
      </trkpt>
      <trkpt lat="44.44322" lon="5.31619">
        <ele>731.79998779297</ele>
        <time>2014-05-03T12:20:30.000Z</time>
      </trkpt>
      <trkpt lat="44.44351" lon="5.31612">
        <ele>730.40002441406</ele>
        <time>2014-05-03T12:20:39.000Z</time>
      </trkpt>
      <trkpt lat="44.44355" lon="5.3161">
        <ele>730.20001220703</ele>
        <time>2014-05-03T12:20:40.000Z</time>
      </trkpt>
      <trkpt lat="44.44365" lon="5.3161">
        <ele>733</ele>
        <time>2014-05-03T12:20:43.000Z</time>
      </trkpt>
      <trkpt lat="44.44375" lon="5.31618">
        <ele>735</ele>
        <time>2014-05-03T12:20:46.000Z</time>
      </trkpt>
      <trkpt lat="44.44409" lon="5.31618">
        <ele>730.79998779297</ele>
        <time>2014-05-03T12:20:55.000Z</time>
      </trkpt>
      <trkpt lat="44.44425" lon="5.31611">
        <ele>727.20001220703</ele>
        <time>2014-05-03T12:20:59.000Z</time>
      </trkpt>
      <trkpt lat="44.44435" lon="5.31604">
        <ele>726</ele>
        <time>2014-05-03T12:21:02.000Z</time>
      </trkpt>
      <trkpt lat="44.44458" lon="5.3161">
        <ele>726.40002441406</ele>
        <time>2014-05-03T12:21:07.000Z</time>
      </trkpt>
      <trkpt lat="44.44476" lon="5.31599">
        <ele>732.20001220703</ele>
        <time>2014-05-03T12:21:12.000Z</time>
      </trkpt>
      <trkpt lat="44.44484" lon="5.31594">
        <ele>732.40002441406</ele>
        <time>2014-05-03T12:21:14.000Z</time>
      </trkpt>
      <trkpt lat="44.44495" lon="5.3159">
        <ele>730.40002441406</ele>
        <time>2014-05-03T12:21:16.000Z</time>
      </trkpt>
      <trkpt lat="44.4452" lon="5.31589">
        <ele>726.40002441406</ele>
        <time>2014-05-03T12:21:20.000Z</time>
      </trkpt>
      <trkpt lat="44.44535" lon="5.31584">
        <ele>721.79998779297</ele>
        <time>2014-05-03T12:21:23.000Z</time>
      </trkpt>
      <trkpt lat="44.4454" lon="5.31581">
        <ele>721</ele>
        <time>2014-05-03T12:21:24.000Z</time>
      </trkpt>
      <trkpt lat="44.44591" lon="5.31556">
        <ele>717.40002441406</ele>
        <time>2014-05-03T12:21:33.000Z</time>
      </trkpt>
      <trkpt lat="44.44613" lon="5.3155">
        <ele>713.59997558594</ele>
        <time>2014-05-03T12:21:37.000Z</time>
      </trkpt>
      <trkpt lat="44.44617" lon="5.31548">
        <ele>712.79998779297</ele>
        <time>2014-05-03T12:21:38.000Z</time>
      </trkpt>
      <trkpt lat="44.44635" lon="5.31531">
        <ele>715.20001220703</ele>
        <time>2014-05-03T12:21:42.000Z</time>
      </trkpt>
      <trkpt lat="44.44645" lon="5.31514">
        <ele>716.79998779297</ele>
        <time>2014-05-03T12:21:45.000Z</time>
      </trkpt>
      <trkpt lat="44.44662" lon="5.31492">
        <ele>714.40002441406</ele>
        <time>2014-05-03T12:21:50.000Z</time>
      </trkpt>
      <trkpt lat="44.44668" lon="5.31483">
        <ele>719.20001220703</ele>
        <time>2014-05-03T12:21:54.000Z</time>
      </trkpt>
      <trkpt lat="44.44669" lon="5.3148">
        <ele>719.40002441406</ele>
        <time>2014-05-03T12:21:55.000Z</time>
      </trkpt>
      <trkpt lat="44.44682" lon="5.31455">
        <ele>721</ele>
        <time>2014-05-03T12:22:08.000Z</time>
      </trkpt>
      <trkpt lat="44.44681" lon="5.31451">
        <ele>721</ele>
        <time>2014-05-03T12:22:34.000Z</time>
      </trkpt>
      <trkpt lat="44.44699" lon="5.31425">
        <ele>722.59997558594</ele>
        <time>2014-05-03T12:22:47.000Z</time>
      </trkpt>
      <trkpt lat="44.44723" lon="5.31392">
        <ele>724.79998779297</ele>
        <time>2014-05-03T12:23:01.000Z</time>
      </trkpt>
      <trkpt lat="44.44749" lon="5.31371">
        <ele>726.20001220703</ele>
        <time>2014-05-03T12:23:14.000Z</time>
      </trkpt>
      <trkpt lat="44.44759" lon="5.31362">
        <ele>729</ele>
        <time>2014-05-03T12:23:19.000Z</time>
      </trkpt>
      <trkpt lat="44.4477" lon="5.31354">
        <ele>731</ele>
        <time>2014-05-03T12:23:24.000Z</time>
      </trkpt>
      <trkpt lat="44.44797" lon="5.3134">
        <ele>733.20001220703</ele>
        <time>2014-05-03T12:23:36.000Z</time>
      </trkpt>
      <trkpt lat="44.44828" lon="5.31329">
        <ele>736.20001220703</ele>
        <time>2014-05-03T12:23:50.000Z</time>
      </trkpt>
      <trkpt lat="44.4485" lon="5.31334">
        <ele>739.40002441406</ele>
        <time>2014-05-03T12:24:01.000Z</time>
      </trkpt>
      <trkpt lat="44.44876" lon="5.31365">
        <ele>741.20001220703</ele>
        <time>2014-05-03T12:24:14.000Z</time>
      </trkpt>
      <trkpt lat="44.44908" lon="5.31393">
        <ele>743</ele>
        <time>2014-05-03T12:24:26.000Z</time>
      </trkpt>
      <trkpt lat="44.4491" lon="5.31394">
        <ele>743.40002441406</ele>
        <time>2014-05-03T12:24:27.000Z</time>
      </trkpt>
      <trkpt lat="44.44943" lon="5.31403">
        <ele>745.59997558594</ele>
        <time>2014-05-03T12:24:43.000Z</time>
      </trkpt>
      <trkpt lat="44.44946" lon="5.31403">
        <ele>746.20001220703</ele>
        <time>2014-05-03T12:24:45.000Z</time>
      </trkpt>
      <trkpt lat="44.44974" lon="5.31408">
        <ele>747.59997558594</ele>
        <time>2014-05-03T12:24:59.000Z</time>
      </trkpt>
      <trkpt lat="44.4501" lon="5.3141">
        <ele>750.20001220703</ele>
        <time>2014-05-03T12:25:16.000Z</time>
      </trkpt>
      <trkpt lat="44.45031" lon="5.31412">
        <ele>752.40002441406</ele>
        <time>2014-05-03T12:25:27.000Z</time>
      </trkpt>
      <trkpt lat="44.45054" lon="5.31425">
        <ele>755.20001220703</ele>
        <time>2014-05-03T12:25:40.000Z</time>
      </trkpt>
      <trkpt lat="44.45078" lon="5.31432">
        <ele>756.59997558594</ele>
        <time>2014-05-03T12:25:53.000Z</time>
      </trkpt>
      <trkpt lat="44.45083" lon="5.31433">
        <ele>760</ele>
        <time>2014-05-03T12:25:56.000Z</time>
      </trkpt>
      <trkpt lat="44.45107" lon="5.31442">
        <ele>761.59997558594</ele>
        <time>2014-05-03T12:26:09.000Z</time>
      </trkpt>
      <trkpt lat="44.45133" lon="5.31438">
        <ele>764</ele>
        <time>2014-05-03T12:26:24.000Z</time>
      </trkpt>
      <trkpt lat="44.4516" lon="5.31433">
        <ele>767.40002441406</ele>
        <time>2014-05-03T12:26:37.000Z</time>
      </trkpt>
      <trkpt lat="44.45185" lon="5.31453">
        <ele>769.59997558594</ele>
        <time>2014-05-03T12:26:51.000Z</time>
      </trkpt>
      <trkpt lat="44.45205" lon="5.3148">
        <ele>770.40002441406</ele>
        <time>2014-05-03T12:27:06.000Z</time>
      </trkpt>
      <trkpt lat="44.45226" lon="5.31484">
        <ele>773.40002441406</ele>
        <time>2014-05-03T12:27:19.000Z</time>
      </trkpt>
      <trkpt lat="44.45255" lon="5.31484">
        <ele>776.40002441406</ele>
        <time>2014-05-03T12:27:35.000Z</time>
      </trkpt>
      <trkpt lat="44.45257" lon="5.31484">
        <ele>776.20001220703</ele>
        <time>2014-05-03T12:27:36.000Z</time>
      </trkpt>
      <trkpt lat="44.45263" lon="5.31485">
        <ele>773.40002441406</ele>
        <time>2014-05-03T12:27:40.000Z</time>
      </trkpt>
      <trkpt lat="44.45271" lon="5.31485">
        <ele>777.20001220703</ele>
        <time>2014-05-03T12:27:44.000Z</time>
      </trkpt>
      <trkpt lat="44.45301" lon="5.31467">
        <ele>780.20001220703</ele>
        <time>2014-05-03T12:27:59.000Z</time>
      </trkpt>
      <trkpt lat="44.45319" lon="5.31456">
        <ele>776.79998779297</ele>
        <time>2014-05-03T12:28:07.000Z</time>
      </trkpt>
      <trkpt lat="44.45343" lon="5.31456">
        <ele>780</ele>
        <time>2014-05-03T12:28:16.000Z</time>
      </trkpt>
      <trkpt lat="44.45366" lon="5.31458">
        <ele>779</ele>
        <time>2014-05-03T12:28:25.000Z</time>
      </trkpt>
      <trkpt lat="44.45391" lon="5.31473">
        <ele>781.20001220703</ele>
        <time>2014-05-03T12:28:38.000Z</time>
      </trkpt>
      <trkpt lat="44.45413" lon="5.31514">
        <ele>783.40002441406</ele>
        <time>2014-05-03T12:28:54.000Z</time>
      </trkpt>
      <trkpt lat="44.4544" lon="5.31559">
        <ele>781.79998779297</ele>
        <time>2014-05-03T12:29:08.000Z</time>
      </trkpt>
      <trkpt lat="44.45474" lon="5.31584">
        <ele>784.20001220703</ele>
        <time>2014-05-03T12:29:20.000Z</time>
      </trkpt>
      <trkpt lat="44.45478" lon="5.31583">
        <ele>784.40002441406</ele>
        <time>2014-05-03T12:29:21.000Z</time>
      </trkpt>
      <trkpt lat="44.45505" lon="5.31572">
        <ele>781</ele>
        <time>2014-05-03T12:29:28.000Z</time>
      </trkpt>
      <trkpt lat="44.45513" lon="5.31571">
        <ele>780.20001220703</ele>
        <time>2014-05-03T12:29:30.000Z</time>
      </trkpt>
      <trkpt lat="44.45563" lon="5.31559">
        <ele>780.59997558594</ele>
        <time>2014-05-03T12:29:42.000Z</time>
      </trkpt>
      <trkpt lat="44.45615" lon="5.3153">
        <ele>778.59997558594</ele>
        <time>2014-05-03T12:29:54.000Z</time>
      </trkpt>
      <trkpt lat="44.45651" lon="5.31524">
        <ele>780.59997558594</ele>
        <time>2014-05-03T12:30:01.000Z</time>
      </trkpt>
      <trkpt lat="44.45688" lon="5.31524">
        <ele>780.79998779297</ele>
        <time>2014-05-03T12:30:08.000Z</time>
      </trkpt>
      <trkpt lat="44.45708" lon="5.3152">
        <ele>779.20001220703</ele>
        <time>2014-05-03T12:30:12.000Z</time>
      </trkpt>
      <trkpt lat="44.45725" lon="5.31516">
        <ele>776</ele>
        <time>2014-05-03T12:30:16.000Z</time>
      </trkpt>
      <trkpt lat="44.45744" lon="5.31508">
        <ele>774.20001220703</ele>
        <time>2014-05-03T12:30:20.000Z</time>
      </trkpt>
      <trkpt lat="44.45782" lon="5.31519">
        <ele>771.79998779297</ele>
        <time>2014-05-03T12:30:27.000Z</time>
      </trkpt>
      <trkpt lat="44.4581" lon="5.3155">
        <ele>774.79998779297</ele>
        <time>2014-05-03T12:30:35.000Z</time>
      </trkpt>
      <trkpt lat="44.45818" lon="5.31561">
        <ele>776.79998779297</ele>
        <time>2014-05-03T12:30:39.000Z</time>
      </trkpt>
      <trkpt lat="44.45839" lon="5.31551">
        <ele>775</ele>
        <time>2014-05-03T12:30:45.000Z</time>
      </trkpt>
      <trkpt lat="44.4586" lon="5.3153">
        <ele>774.59997558594</ele>
        <time>2014-05-03T12:30:51.000Z</time>
      </trkpt>
      <trkpt lat="44.45889" lon="5.31515">
        <ele>775.20001220703</ele>
        <time>2014-05-03T12:31:01.000Z</time>
      </trkpt>
      <trkpt lat="44.45904" lon="5.31497">
        <ele>778.40002441406</ele>
        <time>2014-05-03T12:31:08.000Z</time>
      </trkpt>
      <trkpt lat="44.45908" lon="5.31485">
        <ele>779.59997558594</ele>
        <time>2014-05-03T12:31:11.000Z</time>
      </trkpt>
      <trkpt lat="44.4593" lon="5.31434">
        <ele>776.59997558594</ele>
        <time>2014-05-03T12:31:25.000Z</time>
      </trkpt>
      <trkpt lat="44.45945" lon="5.31419">
        <ele>779.40002441406</ele>
        <time>2014-05-03T12:31:31.000Z</time>
      </trkpt>
      <trkpt lat="44.45983" lon="5.31403">
        <ele>782</ele>
        <time>2014-05-03T12:31:44.000Z</time>
      </trkpt>
      <trkpt lat="44.46025" lon="5.31392">
        <ele>782.79998779297</ele>
        <time>2014-05-03T12:31:58.000Z</time>
      </trkpt>
      <trkpt lat="44.4606" lon="5.31381">
        <ele>782.79998779297</ele>
        <time>2014-05-03T12:32:12.000Z</time>
      </trkpt>
      <trkpt lat="44.46094" lon="5.31375">
        <ele>785.40002441406</ele>
        <time>2014-05-03T12:32:26.000Z</time>
      </trkpt>
      <trkpt lat="44.46134" lon="5.31352">
        <ele>786.79998779297</ele>
        <time>2014-05-03T12:32:41.000Z</time>
      </trkpt>
      <trkpt lat="44.46143" lon="5.31342">
        <ele>784.40002441406</ele>
        <time>2014-05-03T12:32:46.000Z</time>
      </trkpt>
      <trkpt lat="44.46158" lon="5.31331">
        <ele>787.59997558594</ele>
        <time>2014-05-03T12:32:53.000Z</time>
      </trkpt>
      <trkpt lat="44.46191" lon="5.31308">
        <ele>786.20001220703</ele>
        <time>2014-05-03T12:33:07.000Z</time>
      </trkpt>
      <trkpt lat="44.46224" lon="5.31286">
        <ele>789.40002441406</ele>
        <time>2014-05-03T12:33:22.000Z</time>
      </trkpt>
      <trkpt lat="44.46245" lon="5.31269">
        <ele>791.59997558594</ele>
        <time>2014-05-03T12:33:34.000Z</time>
      </trkpt>
      <trkpt lat="44.46248" lon="5.31281">
        <ele>794.59997558594</ele>
        <time>2014-05-03T12:33:42.000Z</time>
      </trkpt>
      <trkpt lat="44.46246" lon="5.31284">
        <ele>795</ele>
        <time>2014-05-03T12:33:43.000Z</time>
      </trkpt>
      <trkpt lat="44.46219" lon="5.3132">
        <ele>795.20001220703</ele>
        <time>2014-05-03T12:33:56.000Z</time>
      </trkpt>
      <trkpt lat="44.46223" lon="5.31348">
        <ele>797</ele>
        <time>2014-05-03T12:34:11.000Z</time>
      </trkpt>
      <trkpt lat="44.46234" lon="5.31367">
        <ele>800.40002441406</ele>
        <time>2014-05-03T12:34:24.000Z</time>
      </trkpt>
      <trkpt lat="44.4625" lon="5.31379">
        <ele>803.40002441406</ele>
        <time>2014-05-03T12:34:37.000Z</time>
      </trkpt>
      <trkpt lat="44.46265" lon="5.3139">
        <ele>805.79998779297</ele>
        <time>2014-05-03T12:34:50.000Z</time>
      </trkpt>
      <trkpt lat="44.46274" lon="5.314">
        <ele>808.79998779297</ele>
        <time>2014-05-03T12:35:00.000Z</time>
      </trkpt>
      <trkpt lat="44.46276" lon="5.31404">
        <ele>809.79998779297</ele>
        <time>2014-05-03T12:35:20.000Z</time>
      </trkpt>
      <trkpt lat="44.46287" lon="5.31417">
        <ele>813</ele>
        <time>2014-05-03T12:35:38.000Z</time>
      </trkpt>
      <trkpt lat="44.463" lon="5.31426">
        <ele>816</ele>
        <time>2014-05-03T12:35:53.000Z</time>
      </trkpt>
      <trkpt lat="44.4631" lon="5.31432">
        <ele>819</ele>
        <time>2014-05-03T12:36:08.000Z</time>
      </trkpt>
      <trkpt lat="44.46317" lon="5.31436">
        <ele>822</ele>
        <time>2014-05-03T12:36:17.000Z</time>
      </trkpt>
      <trkpt lat="44.46332" lon="5.31447">
        <ele>825.20001220703</ele>
        <time>2014-05-03T12:36:36.000Z</time>
      </trkpt>
      <trkpt lat="44.46347" lon="5.31452">
        <ele>828.20001220703</ele>
        <time>2014-05-03T12:36:52.000Z</time>
      </trkpt>
      <trkpt lat="44.46359" lon="5.3146">
        <ele>831.59997558594</ele>
        <time>2014-05-03T12:37:09.000Z</time>
      </trkpt>
      <trkpt lat="44.46361" lon="5.31462">
        <ele>833.40002441406</ele>
        <time>2014-05-03T12:37:12.000Z</time>
      </trkpt>
      <trkpt lat="44.46374" lon="5.3147">
        <ele>836.40002441406</ele>
        <time>2014-05-03T12:37:28.000Z</time>
      </trkpt>
      <trkpt lat="44.46389" lon="5.31478">
        <ele>834.79998779297</ele>
        <time>2014-05-03T12:37:45.000Z</time>
      </trkpt>
      <trkpt lat="44.46392" lon="5.31479">
        <ele>837.79998779297</ele>
        <time>2014-05-03T12:37:49.000Z</time>
      </trkpt>
      <trkpt lat="44.46395" lon="5.31479">
        <ele>839.20001220703</ele>
        <time>2014-05-03T12:37:52.000Z</time>
      </trkpt>
      <trkpt lat="44.46396" lon="5.31479">
        <ele>839.40002441406</ele>
        <time>2014-05-03T12:37:53.000Z</time>
      </trkpt>
      <trkpt lat="44.46407" lon="5.3148">
        <ele>842.59997558594</ele>
        <time>2014-05-03T12:38:04.000Z</time>
      </trkpt>
      <trkpt lat="44.46431" lon="5.31482">
        <ele>845.20001220703</ele>
        <time>2014-05-03T12:38:20.000Z</time>
      </trkpt>
      <trkpt lat="44.46458" lon="5.31485">
        <ele>845.59997558594</ele>
        <time>2014-05-03T12:38:36.000Z</time>
      </trkpt>
      <trkpt lat="44.46463" lon="5.31487">
        <ele>847</ele>
        <time>2014-05-03T12:38:39.000Z</time>
      </trkpt>
      <trkpt lat="44.46482" lon="5.3149">
        <ele>849.59997558594</ele>
        <time>2014-05-03T12:38:52.000Z</time>
      </trkpt>
      <trkpt lat="44.46502" lon="5.31496">
        <ele>852.59997558594</ele>
        <time>2014-05-03T12:39:05.000Z</time>
      </trkpt>
      <trkpt lat="44.46508" lon="5.31501">
        <ele>854.59997558594</ele>
        <time>2014-05-03T12:39:19.000Z</time>
      </trkpt>
      <trkpt lat="44.46519" lon="5.3151">
        <ele>857.79998779297</ele>
        <time>2014-05-03T12:39:34.000Z</time>
      </trkpt>
      <trkpt lat="44.4652" lon="5.3151">
        <ele>858</ele>
        <time>2014-05-03T12:39:35.000Z</time>
      </trkpt>
      <trkpt lat="44.46527" lon="5.31517">
        <ele>861.59997558594</ele>
        <time>2014-05-03T12:39:47.000Z</time>
      </trkpt>
      <trkpt lat="44.46528" lon="5.31519">
        <ele>858.59997558594</ele>
        <time>2014-05-03T12:39:50.000Z</time>
      </trkpt>
      <trkpt lat="44.46534" lon="5.31525">
        <ele>861.59997558594</ele>
        <time>2014-05-03T12:40:01.000Z</time>
      </trkpt>
      <trkpt lat="44.46539" lon="5.31527">
        <ele>864.59997558594</ele>
        <time>2014-05-03T12:40:08.000Z</time>
      </trkpt>
      <trkpt lat="44.46549" lon="5.31535">
        <ele>867.40002441406</ele>
        <time>2014-05-03T12:40:25.000Z</time>
      </trkpt>
      <trkpt lat="44.46568" lon="5.3155">
        <ele>870.79998779297</ele>
        <time>2014-05-03T12:40:50.000Z</time>
      </trkpt>
      <trkpt lat="44.46571" lon="5.31552">
        <ele>872.40002441406</ele>
        <time>2014-05-03T12:40:53.000Z</time>
      </trkpt>
      <trkpt lat="44.46575" lon="5.31556">
        <ele>869.20001220703</ele>
        <time>2014-05-03T12:41:00.000Z</time>
      </trkpt>
      <trkpt lat="44.46581" lon="5.31561">
        <ele>872.59997558594</ele>
        <time>2014-05-03T12:41:08.000Z</time>
      </trkpt>
      <trkpt lat="44.46582" lon="5.31562">
        <ele>873.40002441406</ele>
        <time>2014-05-03T12:41:10.000Z</time>
      </trkpt>
      <trkpt lat="44.46588" lon="5.31565">
        <ele>873.40002441406</ele>
        <time>2014-05-03T12:41:17.000Z</time>
      </trkpt>
      <trkpt lat="44.46595" lon="5.31571">
        <ele>876.40002441406</ele>
        <time>2014-05-03T12:41:29.000Z</time>
      </trkpt>
      <trkpt lat="44.46601" lon="5.31573">
        <ele>879.40002441406</ele>
        <time>2014-05-03T12:41:37.000Z</time>
      </trkpt>
      <trkpt lat="44.4661" lon="5.3158">
        <ele>882.40002441406</ele>
        <time>2014-05-03T12:41:50.000Z</time>
      </trkpt>
      <trkpt lat="44.46616" lon="5.31583">
        <ele>883.20001220703</ele>
        <time>2014-05-03T12:41:56.000Z</time>
      </trkpt>
      <trkpt lat="44.4664" lon="5.31585">
        <ele>884.20001220703</ele>
        <time>2014-05-03T12:42:09.000Z</time>
      </trkpt>
      <trkpt lat="44.46651" lon="5.31587">
        <ele>885.59997558594</ele>
        <time>2014-05-03T12:42:23.000Z</time>
      </trkpt>
      <trkpt lat="44.46659" lon="5.3159">
        <ele>888.79998779297</ele>
        <time>2014-05-03T12:42:33.000Z</time>
      </trkpt>
      <trkpt lat="44.46668" lon="5.31598">
        <ele>891.79998779297</ele>
        <time>2014-05-03T12:42:49.000Z</time>
      </trkpt>
      <trkpt lat="44.4667" lon="5.31599">
        <ele>893.59997558594</ele>
        <time>2014-05-03T12:42:52.000Z</time>
      </trkpt>
      <trkpt lat="44.46674" lon="5.31601">
        <ele>890.40002441406</ele>
        <time>2014-05-03T12:42:57.000Z</time>
      </trkpt>
      <trkpt lat="44.46678" lon="5.31605">
        <ele>893.79998779297</ele>
        <time>2014-05-03T12:43:04.000Z</time>
      </trkpt>
      <trkpt lat="44.46679" lon="5.31606">
        <ele>894</ele>
        <time>2014-05-03T12:43:05.000Z</time>
      </trkpt>
      <trkpt lat="44.46689" lon="5.31624">
        <ele>896.59997558594</ele>
        <time>2014-05-03T12:43:25.000Z</time>
      </trkpt>
      <trkpt lat="44.46698" lon="5.31641">
        <ele>899.20001220703</ele>
        <time>2014-05-03T12:43:40.000Z</time>
      </trkpt>
      <trkpt lat="44.46706" lon="5.31654">
        <ele>901.59997558594</ele>
        <time>2014-05-03T12:43:50.000Z</time>
      </trkpt>
      <trkpt lat="44.46707" lon="5.31657">
        <ele>903.40002441406</ele>
        <time>2014-05-03T12:43:55.000Z</time>
      </trkpt>
      <trkpt lat="44.46712" lon="5.31665">
        <ele>902.59997558594</ele>
        <time>2014-05-03T12:44:01.000Z</time>
      </trkpt>
      <trkpt lat="44.46714" lon="5.31669">
        <ele>897.59997558594</ele>
        <time>2014-05-03T12:44:04.000Z</time>
      </trkpt>
      <trkpt lat="44.46716" lon="5.31672">
        <ele>896.79998779297</ele>
        <time>2014-05-03T12:44:06.000Z</time>
      </trkpt>
      <trkpt lat="44.46719" lon="5.31685">
        <ele>900</ele>
        <time>2014-05-03T12:44:13.000Z</time>
      </trkpt>
      <trkpt lat="44.46721" lon="5.31691">
        <ele>903.40002441406</ele>
        <time>2014-05-03T12:44:16.000Z</time>
      </trkpt>
      <trkpt lat="44.46722" lon="5.31694">
        <ele>904</ele>
        <time>2014-05-03T12:44:18.000Z</time>
      </trkpt>
      <trkpt lat="44.46733" lon="5.31712">
        <ele>906.59997558594</ele>
        <time>2014-05-03T12:44:30.000Z</time>
      </trkpt>
      <trkpt lat="44.46736" lon="5.31718">
        <ele>908</ele>
        <time>2014-05-03T12:44:34.000Z</time>
      </trkpt>
      <trkpt lat="44.46744" lon="5.3173">
        <ele>908.79998779297</ele>
        <time>2014-05-03T12:44:42.000Z</time>
      </trkpt>
      <trkpt lat="44.46761" lon="5.3175">
        <ele>911</ele>
        <time>2014-05-03T12:44:56.000Z</time>
      </trkpt>
      <trkpt lat="44.4678" lon="5.31777">
        <ele>913</ele>
        <time>2014-05-03T12:45:11.000Z</time>
      </trkpt>
      <trkpt lat="44.46787" lon="5.31787">
        <ele>916.20001220703</ele>
        <time>2014-05-03T12:45:17.000Z</time>
      </trkpt>
      <trkpt lat="44.46795" lon="5.31797">
        <ele>913.20001220703</ele>
        <time>2014-05-03T12:45:22.000Z</time>
      </trkpt>
      <trkpt lat="44.46818" lon="5.31829">
        <ele>912.79998779297</ele>
        <time>2014-05-03T12:45:36.000Z</time>
      </trkpt>
      <trkpt lat="44.46853" lon="5.31867">
        <ele>915.79998779297</ele>
        <time>2014-05-03T12:45:51.000Z</time>
      </trkpt>
      <trkpt lat="44.46891" lon="5.31914">
        <ele>916.79998779297</ele>
        <time>2014-05-03T12:46:06.000Z</time>
      </trkpt>
      <trkpt lat="44.469" lon="5.31923">
        <ele>917.59997558594</ele>
        <time>2014-05-03T12:46:09.000Z</time>
      </trkpt>
      <trkpt lat="44.46941" lon="5.31975">
        <ele>918.40002441406</ele>
        <time>2014-05-03T12:46:24.000Z</time>
      </trkpt>
      <trkpt lat="44.46961" lon="5.3199">
        <ele>921.59997558594</ele>
        <time>2014-05-03T12:46:34.000Z</time>
      </trkpt>
      <trkpt lat="44.46965" lon="5.31993">
        <ele>922.40002441406</ele>
        <time>2014-05-03T12:46:36.000Z</time>
      </trkpt>
      <trkpt lat="44.4698" lon="5.32011">
        <ele>922.59997558594</ele>
        <time>2014-05-03T12:46:42.000Z</time>
      </trkpt>
      <trkpt lat="44.46989" lon="5.32034">
        <ele>922.59997558594</ele>
        <time>2014-05-03T12:46:47.000Z</time>
      </trkpt>
      <trkpt lat="44.4699" lon="5.32062">
        <ele>922.59997558594</ele>
        <time>2014-05-03T12:46:51.000Z</time>
      </trkpt>
      <trkpt lat="44.46985" lon="5.3209">
        <ele>920</ele>
        <time>2014-05-03T12:46:54.000Z</time>
      </trkpt>
      <trkpt lat="44.46979" lon="5.3214">
        <ele>915.79998779297</ele>
        <time>2014-05-03T12:46:59.000Z</time>
      </trkpt>
      <trkpt lat="44.46966" lon="5.32158">
        <ele>915.20001220703</ele>
        <time>2014-05-03T12:47:02.000Z</time>
      </trkpt>
      <trkpt lat="44.46926" lon="5.32182">
        <ele>912.20001220703</ele>
        <time>2014-05-03T12:47:08.000Z</time>
      </trkpt>
      <trkpt lat="44.46918" lon="5.32185">
        <ele>911.40002441406</ele>
        <time>2014-05-03T12:47:09.000Z</time>
      </trkpt>
      <trkpt lat="44.46885" lon="5.32217">
        <ele>907</ele>
        <time>2014-05-03T12:47:14.000Z</time>
      </trkpt>
      <trkpt lat="44.46859" lon="5.3225">
        <ele>904.20001220703</ele>
        <time>2014-05-03T12:47:18.000Z</time>
      </trkpt>
      <trkpt lat="44.46849" lon="5.32302">
        <ele>901.59997558594</ele>
        <time>2014-05-03T12:47:24.000Z</time>
      </trkpt>
      <trkpt lat="44.46836" lon="5.32329">
        <ele>900.40002441406</ele>
        <time>2014-05-03T12:47:27.000Z</time>
      </trkpt>
      <trkpt lat="44.46825" lon="5.32345">
        <ele>898.59997558594</ele>
        <time>2014-05-03T12:47:29.000Z</time>
      </trkpt>
      <trkpt lat="44.46801" lon="5.32396">
        <ele>893.59997558594</ele>
        <time>2014-05-03T12:47:34.000Z</time>
      </trkpt>
      <trkpt lat="44.46797" lon="5.32407">
        <ele>892.20001220703</ele>
        <time>2014-05-03T12:47:35.000Z</time>
      </trkpt>
      <trkpt lat="44.46783" lon="5.32471">
        <ele>887</ele>
        <time>2014-05-03T12:47:40.000Z</time>
      </trkpt>
      <trkpt lat="44.46777" lon="5.32512">
        <ele>882.79998779297</ele>
        <time>2014-05-03T12:47:43.000Z</time>
      </trkpt>
      <trkpt lat="44.46774" lon="5.3254">
        <ele>879</ele>
        <time>2014-05-03T12:47:45.000Z</time>
      </trkpt>
      <trkpt lat="44.46772" lon="5.32553">
        <ele>877.59997558594</ele>
        <time>2014-05-03T12:47:46.000Z</time>
      </trkpt>
      <trkpt lat="44.46749" lon="5.3259">
        <ele>876.79998779297</ele>
        <time>2014-05-03T12:47:51.000Z</time>
      </trkpt>
      <trkpt lat="44.46724" lon="5.32626">
        <ele>880</ele>
        <time>2014-05-03T12:48:00.000Z</time>
      </trkpt>
      <trkpt lat="44.46725" lon="5.32659">
        <ele>877.79998779297</ele>
        <time>2014-05-03T12:48:05.000Z</time>
      </trkpt>
      <trkpt lat="44.46724" lon="5.32685">
        <ele>874.40002441406</ele>
        <time>2014-05-03T12:48:08.000Z</time>
      </trkpt>
      <trkpt lat="44.46722" lon="5.32698">
        <ele>873.59997558594</ele>
        <time>2014-05-03T12:48:10.000Z</time>
      </trkpt>
      <trkpt lat="44.46717" lon="5.32718">
        <ele>873.40002441406</ele>
        <time>2014-05-03T12:48:14.000Z</time>
      </trkpt>
      <trkpt lat="44.46734" lon="5.32764">
        <ele>873.59997558594</ele>
        <time>2014-05-03T12:48:22.000Z</time>
      </trkpt>
      <trkpt lat="44.46744" lon="5.32803">
        <ele>870.20001220703</ele>
        <time>2014-05-03T12:48:27.000Z</time>
      </trkpt>
      <trkpt lat="44.46742" lon="5.3281">
        <ele>869.79998779297</ele>
        <time>2014-05-03T12:48:28.000Z</time>
      </trkpt>
      <trkpt lat="44.46723" lon="5.32812">
        <ele>868.59997558594</ele>
        <time>2014-05-03T12:48:33.000Z</time>
      </trkpt>
      <trkpt lat="44.46715" lon="5.32814">
        <ele>867.59997558594</ele>
        <time>2014-05-03T12:48:35.000Z</time>
      </trkpt>
      <trkpt lat="44.4668" lon="5.32829">
        <ele>864.59997558594</ele>
        <time>2014-05-03T12:48:44.000Z</time>
      </trkpt>
      <trkpt lat="44.46673" lon="5.32871">
        <ele>860.20001220703</ele>
        <time>2014-05-03T12:48:48.000Z</time>
      </trkpt>
      <trkpt lat="44.46682" lon="5.32909">
        <ele>854.59997558594</ele>
        <time>2014-05-03T12:48:52.000Z</time>
      </trkpt>
      <trkpt lat="44.46687" lon="5.32917">
        <ele>854.40002441406</ele>
        <time>2014-05-03T12:48:53.000Z</time>
      </trkpt>
      <trkpt lat="44.46699" lon="5.32959">
        <ele>850.20001220703</ele>
        <time>2014-05-03T12:48:57.000Z</time>
      </trkpt>
      <trkpt lat="44.46704" lon="5.32991">
        <ele>847.79998779297</ele>
        <time>2014-05-03T12:49:01.000Z</time>
      </trkpt>
      <trkpt lat="44.46715" lon="5.32992">
        <ele>847</ele>
        <time>2014-05-03T12:49:03.000Z</time>
      </trkpt>
      <trkpt lat="44.46742" lon="5.32985">
        <ele>844.59997558594</ele>
        <time>2014-05-03T12:49:07.000Z</time>
      </trkpt>
      <trkpt lat="44.46762" lon="5.32997">
        <ele>840.59997558594</ele>
        <time>2014-05-03T12:49:12.000Z</time>
      </trkpt>
      <trkpt lat="44.46768" lon="5.33008">
        <ele>839.40002441406</ele>
        <time>2014-05-03T12:49:14.000Z</time>
      </trkpt>
      <trkpt lat="44.46788" lon="5.33023">
        <ele>833.79998779297</ele>
        <time>2014-05-03T12:49:18.000Z</time>
      </trkpt>
      <trkpt lat="44.46804" lon="5.33046">
        <ele>831.20001220703</ele>
        <time>2014-05-03T12:49:22.000Z</time>
      </trkpt>
      <trkpt lat="44.46811" lon="5.33062">
        <ele>831</ele>
        <time>2014-05-03T12:49:24.000Z</time>
      </trkpt>
      <trkpt lat="44.46825" lon="5.33088">
        <ele>829.79998779297</ele>
        <time>2014-05-03T12:49:27.000Z</time>
      </trkpt>
      <trkpt lat="44.46843" lon="5.33133">
        <ele>826.40002441406</ele>
        <time>2014-05-03T12:49:31.000Z</time>
      </trkpt>
      <trkpt lat="44.46849" lon="5.3317">
        <ele>821</ele>
        <time>2014-05-03T12:49:34.000Z</time>
      </trkpt>
      <trkpt lat="44.46847" lon="5.33187">
        <ele>820.20001220703</ele>
        <time>2014-05-03T12:49:36.000Z</time>
      </trkpt>
      <trkpt lat="44.46832" lon="5.33207">
        <ele>820.20001220703</ele>
        <time>2014-05-03T12:49:41.000Z</time>
      </trkpt>
      <trkpt lat="44.46843" lon="5.33239">
        <ele>816.59997558594</ele>
        <time>2014-05-03T12:49:46.000Z</time>
      </trkpt>
      <trkpt lat="44.46845" lon="5.33258">
        <ele>812.79998779297</ele>
        <time>2014-05-03T12:49:48.000Z</time>
      </trkpt>
      <trkpt lat="44.4685" lon="5.33295">
        <ele>809.20001220703</ele>
        <time>2014-05-03T12:49:52.000Z</time>
      </trkpt>
      <trkpt lat="44.46851" lon="5.33305">
        <ele>808.20001220703</ele>
        <time>2014-05-03T12:49:53.000Z</time>
      </trkpt>
      <trkpt lat="44.46854" lon="5.3334">
        <ele>805</ele>
        <time>2014-05-03T12:49:56.000Z</time>
      </trkpt>
      <trkpt lat="44.46854" lon="5.33366">
        <ele>803</ele>
        <time>2014-05-03T12:49:58.000Z</time>
      </trkpt>
      <trkpt lat="44.46853" lon="5.33386">
        <ele>802.40002441406</ele>
        <time>2014-05-03T12:50:00.000Z</time>
      </trkpt>
      <trkpt lat="44.4686" lon="5.33397">
        <ele>805.20001220703</ele>
        <time>2014-05-03T12:50:04.000Z</time>
      </trkpt>
      <trkpt lat="44.46859" lon="5.33399">
        <ele>805.59997558594</ele>
        <time>2014-05-03T12:50:16.000Z</time>
      </trkpt>
      <trkpt lat="44.4685" lon="5.33403">
        <ele>807.59997558594</ele>
        <time>2014-05-03T12:50:30.000Z</time>
      </trkpt>
      <trkpt lat="44.46852" lon="5.33404">
        <ele>808</ele>
        <time>2014-05-03T12:50:32.000Z</time>
      </trkpt>
      <trkpt lat="44.46881" lon="5.33428">
        <ele>806.20001220703</ele>
        <time>2014-05-03T12:50:42.000Z</time>
      </trkpt>
      <trkpt lat="44.4689" lon="5.33437">
        <ele>803.79998779297</ele>
        <time>2014-05-03T12:50:44.000Z</time>
      </trkpt>
      <trkpt lat="44.46907" lon="5.3346">
        <ele>802</ele>
        <time>2014-05-03T12:50:48.000Z</time>
      </trkpt>
      <trkpt lat="44.46927" lon="5.33518">
        <ele>801.40002441406</ele>
        <time>2014-05-03T12:50:57.000Z</time>
      </trkpt>
      <trkpt lat="44.46923" lon="5.33527">
        <ele>802</ele>
        <time>2014-05-03T12:50:59.000Z</time>
      </trkpt>
      <trkpt lat="44.4692" lon="5.33532">
        <ele>800.79998779297</ele>
        <time>2014-05-03T12:51:00.000Z</time>
      </trkpt>
      <trkpt lat="44.46909" lon="5.33549">
        <ele>797.79998779297</ele>
        <time>2014-05-03T12:51:04.000Z</time>
      </trkpt>
      <trkpt lat="44.46889" lon="5.33555">
        <ele>795.59997558594</ele>
        <time>2014-05-03T12:51:09.000Z</time>
      </trkpt>
      <trkpt lat="44.46859" lon="5.33578">
        <ele>792.20001220703</ele>
        <time>2014-05-03T12:51:19.000Z</time>
      </trkpt>
      <trkpt lat="44.46863" lon="5.33594">
        <ele>791.20001220703</ele>
        <time>2014-05-03T12:51:22.000Z</time>
      </trkpt>
      <trkpt lat="44.46875" lon="5.33611">
        <ele>788.59997558594</ele>
        <time>2014-05-03T12:51:25.000Z</time>
      </trkpt>
      <trkpt lat="44.46883" lon="5.33622">
        <ele>786.79998779297</ele>
        <time>2014-05-03T12:51:27.000Z</time>
      </trkpt>
      <trkpt lat="44.46897" lon="5.33638">
        <ele>784.79998779297</ele>
        <time>2014-05-03T12:51:35.000Z</time>
      </trkpt>
      <trkpt lat="44.46902" lon="5.33648">
        <ele>784.79998779297</ele>
        <time>2014-05-03T12:51:50.000Z</time>
      </trkpt>
      <trkpt lat="44.46914" lon="5.33659">
        <ele>784.79998779297</ele>
        <time>2014-05-03T12:51:56.000Z</time>
      </trkpt>
      <trkpt lat="44.46947" lon="5.33668">
        <ele>783.79998779297</ele>
        <time>2014-05-03T12:52:07.000Z</time>
      </trkpt>
      <trkpt lat="44.46978" lon="5.33654">
        <ele>781.59997558594</ele>
        <time>2014-05-03T12:52:13.000Z</time>
      </trkpt>
      <trkpt lat="44.46991" lon="5.3365">
        <ele>781</ele>
        <time>2014-05-03T12:52:15.000Z</time>
      </trkpt>
      <trkpt lat="44.47019" lon="5.33658">
        <ele>777</ele>
        <time>2014-05-03T12:52:19.000Z</time>
      </trkpt>
      <trkpt lat="44.47042" lon="5.33697">
        <ele>773.79998779297</ele>
        <time>2014-05-03T12:52:24.000Z</time>
      </trkpt>
      <trkpt lat="44.47022" lon="5.33741">
        <ele>772.59997558594</ele>
        <time>2014-05-03T12:52:30.000Z</time>
      </trkpt>
      <trkpt lat="44.47017" lon="5.33744">
        <ele>772.59997558594</ele>
        <time>2014-05-03T12:52:31.000Z</time>
      </trkpt>
      <trkpt lat="44.47008" lon="5.33747">
        <ele>775.40002441406</ele>
        <time>2014-05-03T12:52:36.000Z</time>
      </trkpt>
      <trkpt lat="44.47004" lon="5.33747">
        <ele>775.59997558594</ele>
        <time>2014-05-03T12:52:51.000Z</time>
      </trkpt>
      <trkpt lat="44.46995" lon="5.33751">
        <ele>778</ele>
        <time>2014-05-03T12:52:59.000Z</time>
      </trkpt>
      <trkpt lat="44.46982" lon="5.3376">
        <ele>781.20001220703</ele>
        <time>2014-05-03T12:53:11.000Z</time>
      </trkpt>
      <trkpt lat="44.4696" lon="5.33771">
        <ele>784.20001220703</ele>
        <time>2014-05-03T12:53:32.000Z</time>
      </trkpt>
      <trkpt lat="44.46953" lon="5.33795">
        <ele>785.59997558594</ele>
        <time>2014-05-03T12:53:46.000Z</time>
      </trkpt>
      <trkpt lat="44.46966" lon="5.3382">
        <ele>788.40002441406</ele>
        <time>2014-05-03T12:53:59.000Z</time>
      </trkpt>
      <trkpt lat="44.46974" lon="5.33832">
        <ele>790</ele>
        <time>2014-05-03T12:54:05.000Z</time>
      </trkpt>
      <trkpt lat="44.46978" lon="5.33838">
        <ele>790.59997558594</ele>
        <time>2014-05-03T12:54:08.000Z</time>
      </trkpt>
      <trkpt lat="44.47003" lon="5.3386">
        <ele>793.40002441406</ele>
        <time>2014-05-03T12:54:22.000Z</time>
      </trkpt>
      <trkpt lat="44.47008" lon="5.33899">
        <ele>795.79998779297</ele>
        <time>2014-05-03T12:54:36.000Z</time>
      </trkpt>
      <trkpt lat="44.47002" lon="5.33942">
        <ele>796.79998779297</ele>
        <time>2014-05-03T12:54:50.000Z</time>
      </trkpt>
      <trkpt lat="44.47017" lon="5.33976">
        <ele>798.40002441406</ele>
        <time>2014-05-03T12:55:02.000Z</time>
      </trkpt>
      <trkpt lat="44.47047" lon="5.33991">
        <ele>800.59997558594</ele>
        <time>2014-05-03T12:55:14.000Z</time>
      </trkpt>
      <trkpt lat="44.47076" lon="5.33987">
        <ele>803.59997558594</ele>
        <time>2014-05-03T12:55:27.000Z</time>
      </trkpt>
      <trkpt lat="44.47092" lon="5.33975">
        <ele>805.59997558594</ele>
        <time>2014-05-03T12:55:36.000Z</time>
      </trkpt>
      <trkpt lat="44.47113" lon="5.33965">
        <ele>807.40002441406</ele>
        <time>2014-05-03T12:55:49.000Z</time>
      </trkpt>
      <trkpt lat="44.47128" lon="5.3395">
        <ele>810.59997558594</ele>
        <time>2014-05-03T12:56:00.000Z</time>
      </trkpt>
      <trkpt lat="44.47134" lon="5.33948">
        <ele>812.20001220703</ele>
        <time>2014-05-03T12:56:04.000Z</time>
      </trkpt>
      <trkpt lat="44.4713" lon="5.33963">
        <ele>813.79998779297</ele>
        <time>2014-05-03T12:56:14.000Z</time>
      </trkpt>
      <trkpt lat="44.47114" lon="5.33969">
        <ele>813.79998779297</ele>
        <time>2014-05-03T12:56:19.000Z</time>
      </trkpt>
      <trkpt lat="44.47103" lon="5.33978">
        <ele>813.79998779297</ele>
        <time>2014-05-03T12:56:22.000Z</time>
      </trkpt>
      <trkpt lat="44.47096" lon="5.33986">
        <ele>813.79998779297</ele>
        <time>2014-05-03T12:56:24.000Z</time>
      </trkpt>
      <trkpt lat="44.47085" lon="5.34001">
        <ele>813.79998779297</ele>
        <time>2014-05-03T12:56:27.000Z</time>
      </trkpt>
      <trkpt lat="44.4708" lon="5.3402">
        <ele>813.79998779297</ele>
        <time>2014-05-03T12:56:31.000Z</time>
      </trkpt>
      <trkpt lat="44.47078" lon="5.34049">
        <ele>816.20001220703</ele>
        <time>2014-05-03T12:56:45.000Z</time>
      </trkpt>
      <trkpt lat="44.4707" lon="5.3407">
        <ele>819.20001220703</ele>
        <time>2014-05-03T12:56:57.000Z</time>
      </trkpt>
      <trkpt lat="44.47054" lon="5.34087">
        <ele>821.40002441406</ele>
        <time>2014-05-03T12:57:09.000Z</time>
      </trkpt>
      <trkpt lat="44.47042" lon="5.34106">
        <ele>824.59997558594</ele>
        <time>2014-05-03T12:57:22.000Z</time>
      </trkpt>
      <trkpt lat="44.47053" lon="5.34115">
        <ele>826.79998779297</ele>
        <time>2014-05-03T12:57:31.000Z</time>
      </trkpt>
      <trkpt lat="44.47067" lon="5.34108">
        <ele>829.20001220703</ele>
        <time>2014-05-03T12:57:42.000Z</time>
      </trkpt>
      <trkpt lat="44.47083" lon="5.34097">
        <ele>831.20001220703</ele>
        <time>2014-05-03T12:57:55.000Z</time>
      </trkpt>
      <trkpt lat="44.47094" lon="5.34082">
        <ele>832.79998779297</ele>
        <time>2014-05-03T12:58:04.000Z</time>
      </trkpt>
      <trkpt lat="44.47109" lon="5.3406">
        <ele>835.40002441406</ele>
        <time>2014-05-03T12:58:18.000Z</time>
      </trkpt>
      <trkpt lat="44.47118" lon="5.34053">
        <ele>837</ele>
        <time>2014-05-03T12:58:25.000Z</time>
      </trkpt>
      <trkpt lat="44.47122" lon="5.34048">
        <ele>837.79998779297</ele>
        <time>2014-05-03T12:58:30.000Z</time>
      </trkpt>
      <trkpt lat="44.47134" lon="5.34044">
        <ele>839.59997558594</ele>
        <time>2014-05-03T12:58:38.000Z</time>
      </trkpt>
      <trkpt lat="44.47138" lon="5.34044">
        <ele>839.79998779297</ele>
        <time>2014-05-03T12:58:40.000Z</time>
      </trkpt>
      <trkpt lat="44.47146" lon="5.34048">
        <ele>840.59997558594</ele>
        <time>2014-05-03T12:58:44.000Z</time>
      </trkpt>
      <trkpt lat="44.47159" lon="5.34075">
        <ele>843.59997558594</ele>
        <time>2014-05-03T12:58:59.000Z</time>
      </trkpt>
      <trkpt lat="44.47163" lon="5.34094">
        <ele>846.40002441406</ele>
        <time>2014-05-03T12:59:09.000Z</time>
      </trkpt>
      <trkpt lat="44.47168" lon="5.34115">
        <ele>848.59997558594</ele>
        <time>2014-05-03T12:59:21.000Z</time>
      </trkpt>
      <trkpt lat="44.47168" lon="5.34122">
        <ele>849.79998779297</ele>
        <time>2014-05-03T12:59:25.000Z</time>
      </trkpt>
      <trkpt lat="44.47172" lon="5.34141">
        <ele>852.40002441406</ele>
        <time>2014-05-03T12:59:34.000Z</time>
      </trkpt>
      <trkpt lat="44.47173" lon="5.34161">
        <ele>854.59997558594</ele>
        <time>2014-05-03T12:59:44.000Z</time>
      </trkpt>
      <trkpt lat="44.47161" lon="5.34156">
        <ele>856.59997558594</ele>
        <time>2014-05-03T12:59:54.000Z</time>
      </trkpt>
      <trkpt lat="44.4715" lon="5.34144">
        <ele>858.79998779297</ele>
        <time>2014-05-03T13:00:04.000Z</time>
      </trkpt>
      <trkpt lat="44.47137" lon="5.34139">
        <ele>861</ele>
        <time>2014-05-03T13:00:15.000Z</time>
      </trkpt>
      <trkpt lat="44.47134" lon="5.3414">
        <ele>862</ele>
        <time>2014-05-03T13:00:19.000Z</time>
      </trkpt>
      <trkpt lat="44.4713" lon="5.34143">
        <ele>862.59997558594</ele>
        <time>2014-05-03T13:00:22.000Z</time>
      </trkpt>
      <trkpt lat="44.47116" lon="5.3416">
        <ele>865.40002441406</ele>
        <time>2014-05-03T13:00:37.000Z</time>
      </trkpt>
      <trkpt lat="44.47098" lon="5.34181">
        <ele>868.40002441406</ele>
        <time>2014-05-03T13:00:51.000Z</time>
      </trkpt>
      <trkpt lat="44.47091" lon="5.34187">
        <ele>869.79998779297</ele>
        <time>2014-05-03T13:00:57.000Z</time>
      </trkpt>
      <trkpt lat="44.4709" lon="5.34191">
        <ele>870.20001220703</ele>
        <time>2014-05-03T13:00:59.000Z</time>
      </trkpt>
      <trkpt lat="44.47092" lon="5.34199">
        <ele>871.20001220703</ele>
        <time>2014-05-03T13:01:03.000Z</time>
      </trkpt>
      <trkpt lat="44.47097" lon="5.34204">
        <ele>872.20001220703</ele>
        <time>2014-05-03T13:01:07.000Z</time>
      </trkpt>
      <trkpt lat="44.47115" lon="5.34207">
        <ele>875.40002441406</ele>
        <time>2014-05-03T13:01:21.000Z</time>
      </trkpt>
      <trkpt lat="44.4711" lon="5.34226">
        <ele>877.79998779297</ele>
        <time>2014-05-03T13:01:32.000Z</time>
      </trkpt>
      <trkpt lat="44.47099" lon="5.34234">
        <ele>881</ele>
        <time>2014-05-03T13:01:44.000Z</time>
      </trkpt>
      <trkpt lat="44.47086" lon="5.34244">
        <ele>883.59997558594</ele>
        <time>2014-05-03T13:01:56.000Z</time>
      </trkpt>
      <trkpt lat="44.4708" lon="5.34248">
        <ele>885</ele>
        <time>2014-05-03T13:02:01.000Z</time>
      </trkpt>
      <trkpt lat="44.47062" lon="5.34263">
        <ele>888.40002441406</ele>
        <time>2014-05-03T13:02:15.000Z</time>
      </trkpt>
      <trkpt lat="44.47044" lon="5.34284">
        <ele>889.79998779297</ele>
        <time>2014-05-03T13:02:27.000Z</time>
      </trkpt>
      <trkpt lat="44.47022" lon="5.34308">
        <ele>891</ele>
        <time>2014-05-03T13:02:39.000Z</time>
      </trkpt>
      <trkpt lat="44.47003" lon="5.3433">
        <ele>893.59997558594</ele>
        <time>2014-05-03T13:02:53.000Z</time>
      </trkpt>
      <trkpt lat="44.46994" lon="5.34347">
        <ele>896.59997558594</ele>
        <time>2014-05-03T13:03:04.000Z</time>
      </trkpt>
      <trkpt lat="44.4699" lon="5.34362">
        <ele>899.59997558594</ele>
        <time>2014-05-03T13:03:13.000Z</time>
      </trkpt>
      <trkpt lat="44.46983" lon="5.34381">
        <ele>902.59997558594</ele>
        <time>2014-05-03T13:03:24.000Z</time>
      </trkpt>
      <trkpt lat="44.46976" lon="5.34398">
        <ele>905.79998779297</ele>
        <time>2014-05-03T13:03:37.000Z</time>
      </trkpt>
      <trkpt lat="44.46967" lon="5.34419">
        <ele>908.79998779297</ele>
        <time>2014-05-03T13:03:49.000Z</time>
      </trkpt>
      <trkpt lat="44.46961" lon="5.34453">
        <ele>911.79998779297</ele>
        <time>2014-05-03T13:04:04.000Z</time>
      </trkpt>
      <trkpt lat="44.46956" lon="5.34486">
        <ele>913.20001220703</ele>
        <time>2014-05-03T13:04:16.000Z</time>
      </trkpt>
      <trkpt lat="44.4695" lon="5.34496">
        <ele>915</ele>
        <time>2014-05-03T13:04:22.000Z</time>
      </trkpt>
      <trkpt lat="44.4694" lon="5.34511">
        <ele>917.59997558594</ele>
        <time>2014-05-03T13:04:34.000Z</time>
      </trkpt>
      <trkpt lat="44.46935" lon="5.34518">
        <ele>917.59997558594</ele>
        <time>2014-05-03T13:04:39.000Z</time>
      </trkpt>
      <trkpt lat="44.46925" lon="5.3454">
        <ele>920.79998779297</ele>
        <time>2014-05-03T13:04:49.000Z</time>
      </trkpt>
      <trkpt lat="44.46904" lon="5.34581">
        <ele>923.40002441406</ele>
        <time>2014-05-03T13:05:02.000Z</time>
      </trkpt>
      <trkpt lat="44.46898" lon="5.34594">
        <ele>925</ele>
        <time>2014-05-03T13:05:06.000Z</time>
      </trkpt>
      <trkpt lat="44.46888" lon="5.34615">
        <ele>927.20001220703</ele>
        <time>2014-05-03T13:05:13.000Z</time>
      </trkpt>
      <trkpt lat="44.46887" lon="5.34628">
        <ele>927.59997558594</ele>
        <time>2014-05-03T13:05:17.000Z</time>
      </trkpt>
      <trkpt lat="44.46885" lon="5.34639">
        <ele>927.59997558594</ele>
        <time>2014-05-03T13:05:21.000Z</time>
      </trkpt>
      <trkpt lat="44.46885" lon="5.34651">
        <ele>924.40002441406</ele>
        <time>2014-05-03T13:05:25.000Z</time>
      </trkpt>
      <trkpt lat="44.4689" lon="5.34665">
        <ele>919.59997558594</ele>
        <time>2014-05-03T13:05:30.000Z</time>
      </trkpt>
      <trkpt lat="44.46896" lon="5.3467">
        <ele>914.40002441406</ele>
        <time>2014-05-03T13:05:33.000Z</time>
      </trkpt>
      <trkpt lat="44.469" lon="5.34677">
        <ele>912.20001220703</ele>
        <time>2014-05-03T13:05:36.000Z</time>
      </trkpt>
      <trkpt lat="44.46907" lon="5.34687">
        <ele>910.40002441406</ele>
        <time>2014-05-03T13:05:39.000Z</time>
      </trkpt>
      <trkpt lat="44.4692" lon="5.34697">
        <ele>908.20001220703</ele>
        <time>2014-05-03T13:05:46.000Z</time>
      </trkpt>
      <trkpt lat="44.46919" lon="5.34698">
        <ele>909.79998779297</ele>
        <time>2014-05-03T13:06:01.000Z</time>
      </trkpt>
      <trkpt lat="44.46914" lon="5.34705">
        <ele>909.40002441406</ele>
        <time>2014-05-03T13:06:06.000Z</time>
      </trkpt>
      <trkpt lat="44.46905" lon="5.34713">
        <ele>904.59997558594</ele>
        <time>2014-05-03T13:06:10.000Z</time>
      </trkpt>
      <trkpt lat="44.46897" lon="5.3472">
        <ele>901.20001220703</ele>
        <time>2014-05-03T13:06:15.000Z</time>
      </trkpt>
      <trkpt lat="44.46887" lon="5.3473">
        <ele>897.59997558594</ele>
        <time>2014-05-03T13:06:20.000Z</time>
      </trkpt>
      <trkpt lat="44.46885" lon="5.34732">
        <ele>897.40002441406</ele>
        <time>2014-05-03T13:06:21.000Z</time>
      </trkpt>
      <trkpt lat="44.4687" lon="5.34747">
        <ele>894</ele>
        <time>2014-05-03T13:06:28.000Z</time>
      </trkpt>
      <trkpt lat="44.46866" lon="5.34751">
        <ele>892.59997558594</ele>
        <time>2014-05-03T13:06:30.000Z</time>
      </trkpt>
      <trkpt lat="44.46859" lon="5.34759">
        <ele>887.20001220703</ele>
        <time>2014-05-03T13:06:35.000Z</time>
      </trkpt>
      <trkpt lat="44.46853" lon="5.34766">
        <ele>883.79998779297</ele>
        <time>2014-05-03T13:06:38.000Z</time>
      </trkpt>
      <trkpt lat="44.46849" lon="5.34775">
        <ele>880.59997558594</ele>
        <time>2014-05-03T13:06:42.000Z</time>
      </trkpt>
      <trkpt lat="44.46846" lon="5.34778">
        <ele>879.79998779297</ele>
        <time>2014-05-03T13:06:44.000Z</time>
      </trkpt>
      <trkpt lat="44.46843" lon="5.34781">
        <ele>878.20001220703</ele>
        <time>2014-05-03T13:06:47.000Z</time>
      </trkpt>
      <trkpt lat="44.46835" lon="5.34787">
        <ele>877.79998779297</ele>
        <time>2014-05-03T13:06:50.000Z</time>
      </trkpt>
      <trkpt lat="44.46829" lon="5.34803">
        <ele>873.59997558594</ele>
        <time>2014-05-03T13:06:55.000Z</time>
      </trkpt>
      <trkpt lat="44.46826" lon="5.3481">
        <ele>870.20001220703</ele>
        <time>2014-05-03T13:06:59.000Z</time>
      </trkpt>
      <trkpt lat="44.46824" lon="5.3481">
        <ele>867.20001220703</ele>
        <time>2014-05-03T13:07:04.000Z</time>
      </trkpt>
      <trkpt lat="44.46824" lon="5.3481">
        <ele>867</ele>
        <time>2014-05-03T13:07:05.000Z</time>
      </trkpt>
      <trkpt lat="44.46825" lon="5.34811">
        <ele>866.59997558594</ele>
        <time>2014-05-03T13:07:08.000Z</time>
      </trkpt>
      <trkpt lat="44.46825" lon="5.34828">
        <ele>862.59997558594</ele>
        <time>2014-05-03T13:07:13.000Z</time>
      </trkpt>
      <trkpt lat="44.46823" lon="5.34851">
        <ele>858.59997558594</ele>
        <time>2014-05-03T13:07:18.000Z</time>
      </trkpt>
      <trkpt lat="44.46823" lon="5.34855">
        <ele>857.59997558594</ele>
        <time>2014-05-03T13:07:19.000Z</time>
      </trkpt>
      <trkpt lat="44.46818" lon="5.34864">
        <ele>853.79998779297</ele>
        <time>2014-05-03T13:07:23.000Z</time>
      </trkpt>
      <trkpt lat="44.46813" lon="5.34873">
        <ele>849.59997558594</ele>
        <time>2014-05-03T13:07:28.000Z</time>
      </trkpt>
      <trkpt lat="44.46812" lon="5.3488">
        <ele>847.59997558594</ele>
        <time>2014-05-03T13:07:32.000Z</time>
      </trkpt>
      <trkpt lat="44.46812" lon="5.34894">
        <ele>843.59997558594</ele>
        <time>2014-05-03T13:07:37.000Z</time>
      </trkpt>
      <trkpt lat="44.46813" lon="5.349">
        <ele>841.59997558594</ele>
        <time>2014-05-03T13:07:39.000Z</time>
      </trkpt>
      <trkpt lat="44.46813" lon="5.34905">
        <ele>840</ele>
        <time>2014-05-03T13:07:41.000Z</time>
      </trkpt>
      <trkpt lat="44.46818" lon="5.34921">
        <ele>836.79998779297</ele>
        <time>2014-05-03T13:07:47.000Z</time>
      </trkpt>
      <trkpt lat="44.46819" lon="5.34931">
        <ele>835.40002441406</ele>
        <time>2014-05-03T13:07:50.000Z</time>
      </trkpt>
      <trkpt lat="44.46821" lon="5.34945">
        <ele>832.79998779297</ele>
        <time>2014-05-03T13:07:54.000Z</time>
      </trkpt>
      <trkpt lat="44.46822" lon="5.34954">
        <ele>831.59997558594</ele>
        <time>2014-05-03T13:07:57.000Z</time>
      </trkpt>
      <trkpt lat="44.46823" lon="5.34957">
        <ele>831.40002441406</ele>
        <time>2014-05-03T13:07:58.000Z</time>
      </trkpt>
      <trkpt lat="44.46818" lon="5.34973">
        <ele>828</ele>
        <time>2014-05-03T13:08:06.000Z</time>
      </trkpt>
      <trkpt lat="44.46819" lon="5.34974">
        <ele>827.20001220703</ele>
        <time>2014-05-03T13:08:07.000Z</time>
      </trkpt>
      <trkpt lat="44.4682" lon="5.34979">
        <ele>825.79998779297</ele>
        <time>2014-05-03T13:08:09.000Z</time>
      </trkpt>
      <trkpt lat="44.46818" lon="5.34993">
        <ele>822</ele>
        <time>2014-05-03T13:08:14.000Z</time>
      </trkpt>
      <trkpt lat="44.4682" lon="5.34999">
        <ele>821</ele>
        <time>2014-05-03T13:08:16.000Z</time>
      </trkpt>
      <trkpt lat="44.46822" lon="5.35006">
        <ele>820</ele>
        <time>2014-05-03T13:08:18.000Z</time>
      </trkpt>
      <trkpt lat="44.46824" lon="5.35028">
        <ele>817.20001220703</ele>
        <time>2014-05-03T13:08:24.000Z</time>
      </trkpt>
      <trkpt lat="44.46827" lon="5.35053">
        <ele>814</ele>
        <time>2014-05-03T13:08:31.000Z</time>
      </trkpt>
      <trkpt lat="44.46831" lon="5.35072">
        <ele>811.40002441406</ele>
        <time>2014-05-03T13:08:36.000Z</time>
      </trkpt>
      <trkpt lat="44.46833" lon="5.35089">
        <ele>809.20001220703</ele>
        <time>2014-05-03T13:08:41.000Z</time>
      </trkpt>
      <trkpt lat="44.46838" lon="5.3511">
        <ele>805.40002441406</ele>
        <time>2014-05-03T13:08:47.000Z</time>
      </trkpt>
      <trkpt lat="44.46839" lon="5.35113">
        <ele>805</ele>
        <time>2014-05-03T13:08:48.000Z</time>
      </trkpt>
      <trkpt lat="44.46838" lon="5.35128">
        <ele>801.79998779297</ele>
        <time>2014-05-03T13:08:52.000Z</time>
      </trkpt>
      <trkpt lat="44.46839" lon="5.35143">
        <ele>798</ele>
        <time>2014-05-03T13:08:57.000Z</time>
      </trkpt>
      <trkpt lat="44.46831" lon="5.35161">
        <ele>795</ele>
        <time>2014-05-03T13:09:04.000Z</time>
      </trkpt>
      <trkpt lat="44.4683" lon="5.35165">
        <ele>794</ele>
        <time>2014-05-03T13:09:06.000Z</time>
      </trkpt>
      <trkpt lat="44.46825" lon="5.35176">
        <ele>792.20001220703</ele>
        <time>2014-05-03T13:09:11.000Z</time>
      </trkpt>
      <trkpt lat="44.46821" lon="5.3521">
        <ele>789.20001220703</ele>
        <time>2014-05-03T13:09:21.000Z</time>
      </trkpt>
      <trkpt lat="44.46819" lon="5.35233">
        <ele>788.79998779297</ele>
        <time>2014-05-03T13:09:28.000Z</time>
      </trkpt>
      <trkpt lat="44.46817" lon="5.3524">
        <ele>788.59997558594</ele>
        <time>2014-05-03T13:09:30.000Z</time>
      </trkpt>
      <trkpt lat="44.46823" lon="5.35266">
        <ele>784.79998779297</ele>
        <time>2014-05-03T13:09:38.000Z</time>
      </trkpt>
      <trkpt lat="44.46825" lon="5.35269">
        <ele>784.40002441406</ele>
        <time>2014-05-03T13:09:39.000Z</time>
      </trkpt>
      <trkpt lat="44.46831" lon="5.35287">
        <ele>780.40002441406</ele>
        <time>2014-05-03T13:09:45.000Z</time>
      </trkpt>
      <trkpt lat="44.46836" lon="5.35297">
        <ele>777.59997558594</ele>
        <time>2014-05-03T13:09:48.000Z</time>
      </trkpt>
      <trkpt lat="44.46843" lon="5.35313">
        <ele>773.59997558594</ele>
        <time>2014-05-03T13:09:53.000Z</time>
      </trkpt>
      <trkpt lat="44.46844" lon="5.35316">
        <ele>772.20001220703</ele>
        <time>2014-05-03T13:09:54.000Z</time>
      </trkpt>
      <trkpt lat="44.46848" lon="5.35326">
        <ele>767.79998779297</ele>
        <time>2014-05-03T13:09:58.000Z</time>
      </trkpt>
      <trkpt lat="44.46864" lon="5.35337">
        <ele>764.79998779297</ele>
        <time>2014-05-03T13:10:08.000Z</time>
      </trkpt>
      <trkpt lat="44.46865" lon="5.35339">
        <ele>764</ele>
        <time>2014-05-03T13:10:11.000Z</time>
      </trkpt>
      <trkpt lat="44.46877" lon="5.35357">
        <ele>760.20001220703</ele>
        <time>2014-05-03T13:10:19.000Z</time>
      </trkpt>
      <trkpt lat="44.46881" lon="5.35367">
        <ele>757.20001220703</ele>
        <time>2014-05-03T13:10:23.000Z</time>
      </trkpt>
      <trkpt lat="44.46884" lon="5.3538">
        <ele>753.20001220703</ele>
        <time>2014-05-03T13:10:27.000Z</time>
      </trkpt>
      <trkpt lat="44.46886" lon="5.35387">
        <ele>751</ele>
        <time>2014-05-03T13:10:30.000Z</time>
      </trkpt>
      <trkpt lat="44.46892" lon="5.35401">
        <ele>746.59997558594</ele>
        <time>2014-05-03T13:10:35.000Z</time>
      </trkpt>
      <trkpt lat="44.46894" lon="5.35407">
        <ele>745</ele>
        <time>2014-05-03T13:10:37.000Z</time>
      </trkpt>
      <trkpt lat="44.46893" lon="5.35424">
        <ele>741</ele>
        <time>2014-05-03T13:10:43.000Z</time>
      </trkpt>
      <trkpt lat="44.46887" lon="5.35432">
        <ele>738</ele>
        <time>2014-05-03T13:10:46.000Z</time>
      </trkpt>
      <trkpt lat="44.46884" lon="5.35435">
        <ele>737.20001220703</ele>
        <time>2014-05-03T13:10:48.000Z</time>
      </trkpt>
      <trkpt lat="44.46884" lon="5.35444">
        <ele>735.59997558594</ele>
        <time>2014-05-03T13:10:51.000Z</time>
      </trkpt>
      <trkpt lat="44.46886" lon="5.35453">
        <ele>734.20001220703</ele>
        <time>2014-05-03T13:10:54.000Z</time>
      </trkpt>
      <trkpt lat="44.4688" lon="5.3547">
        <ele>730</ele>
        <time>2014-05-03T13:11:01.000Z</time>
      </trkpt>
      <trkpt lat="44.46879" lon="5.35472">
        <ele>729.59997558594</ele>
        <time>2014-05-03T13:11:02.000Z</time>
      </trkpt>
      <trkpt lat="44.46874" lon="5.35485">
        <ele>725.20001220703</ele>
        <time>2014-05-03T13:11:10.000Z</time>
      </trkpt>
      <trkpt lat="44.46874" lon="5.35485">
        <ele>725</ele>
        <time>2014-05-03T13:11:11.000Z</time>
      </trkpt>
      <trkpt lat="44.46869" lon="5.35497">
        <ele>721.59997558594</ele>
        <time>2014-05-03T13:11:24.000Z</time>
      </trkpt>
      <trkpt lat="44.46866" lon="5.35499">
        <ele>720.79998779297</ele>
        <time>2014-05-03T13:11:26.000Z</time>
      </trkpt>
      <trkpt lat="44.46864" lon="5.35503">
        <ele>719.79998779297</ele>
        <time>2014-05-03T13:11:28.000Z</time>
      </trkpt>
      <trkpt lat="44.46854" lon="5.35523">
        <ele>716.20001220703</ele>
        <time>2014-05-03T13:11:35.000Z</time>
      </trkpt>
      <trkpt lat="44.4685" lon="5.35529">
        <ele>714.59997558594</ele>
        <time>2014-05-03T13:11:37.000Z</time>
      </trkpt>
      <trkpt lat="44.46836" lon="5.3556">
        <ele>709</ele>
        <time>2014-05-03T13:11:42.000Z</time>
      </trkpt>
      <trkpt lat="44.46821" lon="5.35589">
        <ele>706</ele>
        <time>2014-05-03T13:11:46.000Z</time>
      </trkpt>
      <trkpt lat="44.46794" lon="5.35624">
        <ele>705.40002441406</ele>
        <time>2014-05-03T13:11:55.000Z</time>
      </trkpt>
      <trkpt lat="44.46792" lon="5.35626">
        <ele>705.40002441406</ele>
        <time>2014-05-03T13:11:56.000Z</time>
      </trkpt>
      <trkpt lat="44.46786" lon="5.35629">
        <ele>707.40002441406</ele>
        <time>2014-05-03T13:11:59.000Z</time>
      </trkpt>
      <trkpt lat="44.4676" lon="5.35645">
        <ele>710</ele>
        <time>2014-05-03T13:12:11.000Z</time>
      </trkpt>
      <trkpt lat="44.46725" lon="5.3567">
        <ele>710.79998779297</ele>
        <time>2014-05-03T13:12:25.000Z</time>
      </trkpt>
      <trkpt lat="44.46694" lon="5.35685">
        <ele>711</ele>
        <time>2014-05-03T13:12:36.000Z</time>
      </trkpt>
      <trkpt lat="44.4667" lon="5.35706">
        <ele>711</ele>
        <time>2014-05-03T13:12:46.000Z</time>
      </trkpt>
      <trkpt lat="44.46648" lon="5.35729">
        <ele>712.59997558594</ele>
        <time>2014-05-03T13:12:56.000Z</time>
      </trkpt>
      <trkpt lat="44.46625" lon="5.35755">
        <ele>712.59997558594</ele>
        <time>2014-05-03T13:13:07.000Z</time>
      </trkpt>
      <trkpt lat="44.4661" lon="5.35772">
        <ele>710.59997558594</ele>
        <time>2014-05-03T13:13:14.000Z</time>
      </trkpt>
      <trkpt lat="44.46588" lon="5.35787">
        <ele>708.79998779297</ele>
        <time>2014-05-03T13:13:21.000Z</time>
      </trkpt>
      <trkpt lat="44.46573" lon="5.35796">
        <ele>706</ele>
        <time>2014-05-03T13:13:24.000Z</time>
      </trkpt>
      <trkpt lat="44.46561" lon="5.35806">
        <ele>704.40002441406</ele>
        <time>2014-05-03T13:13:27.000Z</time>
      </trkpt>
      <trkpt lat="44.46537" lon="5.35833">
        <ele>703.20001220703</ele>
        <time>2014-05-03T13:13:38.000Z</time>
      </trkpt>
      <trkpt lat="44.46519" lon="5.35854">
        <ele>705.59997558594</ele>
        <time>2014-05-03T13:13:48.000Z</time>
      </trkpt>
      <trkpt lat="44.46498" lon="5.3588">
        <ele>706.40002441406</ele>
        <time>2014-05-03T13:14:00.000Z</time>
      </trkpt>
      <trkpt lat="44.4649" lon="5.35887">
        <ele>704.20001220703</ele>
        <time>2014-05-03T13:14:04.000Z</time>
      </trkpt>
      <trkpt lat="44.46485" lon="5.35893">
        <ele>704</ele>
        <time>2014-05-03T13:14:08.000Z</time>
      </trkpt>
      <trkpt lat="44.46479" lon="5.35903">
        <ele>704.79998779297</ele>
        <time>2014-05-03T13:14:12.000Z</time>
      </trkpt>
      <trkpt lat="44.46473" lon="5.35912">
        <ele>706.79998779297</ele>
        <time>2014-05-03T13:14:16.000Z</time>
      </trkpt>
      <trkpt lat="44.46466" lon="5.35932">
        <ele>707</ele>
        <time>2014-05-03T13:14:22.000Z</time>
      </trkpt>
      <trkpt lat="44.46465" lon="5.35951">
        <ele>705.20001220703</ele>
        <time>2014-05-03T13:14:28.000Z</time>
      </trkpt>
      <trkpt lat="44.46466" lon="5.35952">
        <ele>704.59997558594</ele>
        <time>2014-05-03T13:14:34.000Z</time>
      </trkpt>
      <trkpt lat="44.46477" lon="5.35966">
        <ele>703.20001220703</ele>
        <time>2014-05-03T13:14:42.000Z</time>
      </trkpt>
      <trkpt lat="44.46493" lon="5.35974">
        <ele>700.20001220703</ele>
        <time>2014-05-03T13:14:49.000Z</time>
      </trkpt>
      <trkpt lat="44.46505" lon="5.35976">
        <ele>699.40002441406</ele>
        <time>2014-05-03T13:14:53.000Z</time>
      </trkpt>
      <trkpt lat="44.46512" lon="5.35979">
        <ele>698.40002441406</ele>
        <time>2014-05-03T13:15:01.000Z</time>
      </trkpt>
      <trkpt lat="44.46508" lon="5.35984">
        <ele>696.59997558594</ele>
        <time>2014-05-03T13:15:09.000Z</time>
      </trkpt>
      <trkpt lat="44.46505" lon="5.35988">
        <ele>695.59997558594</ele>
        <time>2014-05-03T13:15:12.000Z</time>
      </trkpt>
      <trkpt lat="44.46496" lon="5.3599">
        <ele>692</ele>
        <time>2014-05-03T13:15:18.000Z</time>
      </trkpt>
      <trkpt lat="44.46487" lon="5.35989">
        <ele>689.79998779297</ele>
        <time>2014-05-03T13:15:22.000Z</time>
      </trkpt>
      <trkpt lat="44.46486" lon="5.35991">
        <ele>689.59997558594</ele>
        <time>2014-05-03T13:15:25.000Z</time>
      </trkpt>
      <trkpt lat="44.46496" lon="5.36008">
        <ele>686</ele>
        <time>2014-05-03T13:15:33.000Z</time>
      </trkpt>
      <trkpt lat="44.46496" lon="5.36012">
        <ele>683.59997558594</ele>
        <time>2014-05-03T13:15:46.000Z</time>
      </trkpt>
      <trkpt lat="44.46493" lon="5.36012">
        <ele>683.59997558594</ele>
        <time>2014-05-03T13:15:49.000Z</time>
      </trkpt>
      <trkpt lat="44.46477" lon="5.36002">
        <ele>680.59997558594</ele>
        <time>2014-05-03T13:15:57.000Z</time>
      </trkpt>
      <trkpt lat="44.46473" lon="5.36001">
        <ele>678.59997558594</ele>
        <time>2014-05-03T13:16:00.000Z</time>
      </trkpt>
      <trkpt lat="44.46482" lon="5.36017">
        <ele>676.59997558594</ele>
        <time>2014-05-03T13:16:05.000Z</time>
      </trkpt>
      <trkpt lat="44.46496" lon="5.36035">
        <ele>672.40002441406</ele>
        <time>2014-05-03T13:16:11.000Z</time>
      </trkpt>
      <trkpt lat="44.46495" lon="5.36038">
        <ele>671.59997558594</ele>
        <time>2014-05-03T13:16:13.000Z</time>
      </trkpt>
      <trkpt lat="44.46489" lon="5.36037">
        <ele>670.40002441406</ele>
        <time>2014-05-03T13:16:17.000Z</time>
      </trkpt>
      <trkpt lat="44.46486" lon="5.36038">
        <ele>668.79998779297</ele>
        <time>2014-05-03T13:16:29.000Z</time>
      </trkpt>
      <trkpt lat="44.46486" lon="5.36039">
        <ele>668.79998779297</ele>
        <time>2014-05-03T13:16:32.000Z</time>
      </trkpt>
      <trkpt lat="44.46494" lon="5.36045">
        <ele>668.79998779297</ele>
        <time>2014-05-03T13:16:37.000Z</time>
      </trkpt>
      <trkpt lat="44.46506" lon="5.36042">
        <ele>668.20001220703</ele>
        <time>2014-05-03T13:16:42.000Z</time>
      </trkpt>
      <trkpt lat="44.46513" lon="5.36038">
        <ele>664</ele>
        <time>2014-05-03T13:16:49.000Z</time>
      </trkpt>
      <trkpt lat="44.46513" lon="5.36039">
        <ele>664</ele>
        <time>2014-05-03T13:16:50.000Z</time>
      </trkpt>
      <trkpt lat="44.46522" lon="5.36042">
        <ele>660.59997558594</ele>
        <time>2014-05-03T13:16:55.000Z</time>
      </trkpt>
      <trkpt lat="44.46526" lon="5.36041">
        <ele>659.79998779297</ele>
        <time>2014-05-03T13:16:57.000Z</time>
      </trkpt>
      <trkpt lat="44.46537" lon="5.3604">
        <ele>659.40002441406</ele>
        <time>2014-05-03T13:17:01.000Z</time>
      </trkpt>
      <trkpt lat="44.46544" lon="5.36037">
        <ele>657.79998779297</ele>
        <time>2014-05-03T13:17:04.000Z</time>
      </trkpt>
      <trkpt lat="44.46567" lon="5.36026">
        <ele>655.59997558594</ele>
        <time>2014-05-03T13:17:13.000Z</time>
      </trkpt>
      <trkpt lat="44.46578" lon="5.36025">
        <ele>652.59997558594</ele>
        <time>2014-05-03T13:17:19.000Z</time>
      </trkpt>
      <trkpt lat="44.46592" lon="5.36023">
        <ele>648.79998779297</ele>
        <time>2014-05-03T13:17:25.000Z</time>
      </trkpt>
      <trkpt lat="44.46599" lon="5.36025">
        <ele>646.79998779297</ele>
        <time>2014-05-03T13:17:28.000Z</time>
      </trkpt>
      <trkpt lat="44.46596" lon="5.36032">
        <ele>644.20001220703</ele>
        <time>2014-05-03T13:17:33.000Z</time>
      </trkpt>
      <trkpt lat="44.46591" lon="5.3604">
        <ele>640.79998779297</ele>
        <time>2014-05-03T13:17:38.000Z</time>
      </trkpt>
      <trkpt lat="44.46589" lon="5.36045">
        <ele>639.20001220703</ele>
        <time>2014-05-03T13:17:40.000Z</time>
      </trkpt>
      <trkpt lat="44.46584" lon="5.3605">
        <ele>635.20001220703</ele>
        <time>2014-05-03T13:17:45.000Z</time>
      </trkpt>
      <trkpt lat="44.4658" lon="5.3605">
        <ele>632.40002441406</ele>
        <time>2014-05-03T13:17:50.000Z</time>
      </trkpt>
      <trkpt lat="44.46577" lon="5.36053">
        <ele>631.59997558594</ele>
        <time>2014-05-03T13:18:07.000Z</time>
      </trkpt>
      <trkpt lat="44.4657" lon="5.36066">
        <ele>628</ele>
        <time>2014-05-03T13:18:20.000Z</time>
      </trkpt>
      <trkpt lat="44.46559" lon="5.36076">
        <ele>624.59997558594</ele>
        <time>2014-05-03T13:18:33.000Z</time>
      </trkpt>
      <trkpt lat="44.46546" lon="5.36089">
        <ele>622</ele>
        <time>2014-05-03T13:18:43.000Z</time>
      </trkpt>
      <trkpt lat="44.46532" lon="5.36103">
        <ele>618.40002441406</ele>
        <time>2014-05-03T13:18:51.000Z</time>
      </trkpt>
      <trkpt lat="44.46523" lon="5.36114">
        <ele>615</ele>
        <time>2014-05-03T13:18:56.000Z</time>
      </trkpt>
      <trkpt lat="44.46512" lon="5.36126">
        <ele>612</ele>
        <time>2014-05-03T13:19:01.000Z</time>
      </trkpt>
      <trkpt lat="44.46506" lon="5.3613">
        <ele>611.40002441406</ele>
        <time>2014-05-03T13:19:03.000Z</time>
      </trkpt>
      <trkpt lat="44.46493" lon="5.36142">
        <ele>609.59997558594</ele>
        <time>2014-05-03T13:19:08.000Z</time>
      </trkpt>
      <trkpt lat="44.46484" lon="5.36151">
        <ele>606.40002441406</ele>
        <time>2014-05-03T13:19:13.000Z</time>
      </trkpt>
      <trkpt lat="44.46478" lon="5.36156">
        <ele>605.59997558594</ele>
        <time>2014-05-03T13:19:15.000Z</time>
      </trkpt>
      <trkpt lat="44.46472" lon="5.36162">
        <ele>602.59997558594</ele>
        <time>2014-05-03T13:19:18.000Z</time>
      </trkpt>
      <trkpt lat="44.46461" lon="5.3617">
        <ele>599</ele>
        <time>2014-05-03T13:19:23.000Z</time>
      </trkpt>
      <trkpt lat="44.46452" lon="5.36173">
        <ele>596</ele>
        <time>2014-05-03T13:19:27.000Z</time>
      </trkpt>
      <trkpt lat="44.46444" lon="5.36179">
        <ele>592.59997558594</ele>
        <time>2014-05-03T13:19:31.000Z</time>
      </trkpt>
      <trkpt lat="44.46436" lon="5.36188">
        <ele>589</ele>
        <time>2014-05-03T13:19:36.000Z</time>
      </trkpt>
      <trkpt lat="44.46431" lon="5.36196">
        <ele>586.40002441406</ele>
        <time>2014-05-03T13:19:41.000Z</time>
      </trkpt>
      <trkpt lat="44.46422" lon="5.36208">
        <ele>582.40002441406</ele>
        <time>2014-05-03T13:19:48.000Z</time>
      </trkpt>
      <trkpt lat="44.46421" lon="5.36221">
        <ele>579.20001220703</ele>
        <time>2014-05-03T13:19:52.000Z</time>
      </trkpt>
      <trkpt lat="44.4642" lon="5.36233">
        <ele>575.79998779297</ele>
        <time>2014-05-03T13:19:55.000Z</time>
      </trkpt>
      <trkpt lat="44.46418" lon="5.36242">
        <ele>573.59997558594</ele>
        <time>2014-05-03T13:19:57.000Z</time>
      </trkpt>
      <trkpt lat="44.46416" lon="5.36258">
        <ele>569.20001220703</ele>
        <time>2014-05-03T13:20:02.000Z</time>
      </trkpt>
      <trkpt lat="44.46408" lon="5.36262">
        <ele>566.20001220703</ele>
        <time>2014-05-03T13:20:07.000Z</time>
      </trkpt>
      <trkpt lat="44.46398" lon="5.36269">
        <ele>562.40002441406</ele>
        <time>2014-05-03T13:20:13.000Z</time>
      </trkpt>
      <trkpt lat="44.4639" lon="5.36279">
        <ele>558.79998779297</ele>
        <time>2014-05-03T13:20:19.000Z</time>
      </trkpt>
      <trkpt lat="44.46389" lon="5.36283">
        <ele>558.20001220703</ele>
        <time>2014-05-03T13:20:20.000Z</time>
      </trkpt>
      <trkpt lat="44.46389" lon="5.36294">
        <ele>555.20001220703</ele>
        <time>2014-05-03T13:20:24.000Z</time>
      </trkpt>
      <trkpt lat="44.46378" lon="5.36314">
        <ele>551.20001220703</ele>
        <time>2014-05-03T13:20:30.000Z</time>
      </trkpt>
      <trkpt lat="44.46372" lon="5.36324">
        <ele>549</ele>
        <time>2014-05-03T13:20:32.000Z</time>
      </trkpt>
      <trkpt lat="44.46366" lon="5.36333">
        <ele>546.79998779297</ele>
        <time>2014-05-03T13:20:34.000Z</time>
      </trkpt>
      <trkpt lat="44.4636" lon="5.36344">
        <ele>544</ele>
        <time>2014-05-03T13:20:38.000Z</time>
      </trkpt>
      <trkpt lat="44.4638" lon="5.36338">
        <ele>540.40002441406</ele>
        <time>2014-05-03T13:20:46.000Z</time>
      </trkpt>
      <trkpt lat="44.46394" lon="5.36336">
        <ele>537</ele>
        <time>2014-05-03T13:20:51.000Z</time>
      </trkpt>
      <trkpt lat="44.46405" lon="5.36332">
        <ele>534</ele>
        <time>2014-05-03T13:20:54.000Z</time>
      </trkpt>
      <trkpt lat="44.46416" lon="5.36335">
        <ele>530.79998779297</ele>
        <time>2014-05-03T13:20:58.000Z</time>
      </trkpt>
      <trkpt lat="44.46423" lon="5.36337">
        <ele>528.20001220703</ele>
        <time>2014-05-03T13:21:07.000Z</time>
      </trkpt>
      <trkpt lat="44.46423" lon="5.36337">
        <ele>528.20001220703</ele>
        <time>2014-05-03T13:21:09.000Z</time>
      </trkpt>
      <trkpt lat="44.46431" lon="5.3634">
        <ele>525.79998779297</ele>
        <time>2014-05-03T13:21:15.000Z</time>
      </trkpt>
      <trkpt lat="44.46444" lon="5.36337">
        <ele>523.59997558594</ele>
        <time>2014-05-03T13:21:19.000Z</time>
      </trkpt>
      <trkpt lat="44.46446" lon="5.36336">
        <ele>523.59997558594</ele>
        <time>2014-05-03T13:21:20.000Z</time>
      </trkpt>
      <trkpt lat="44.46446" lon="5.36347">
        <ele>521.59997558594</ele>
        <time>2014-05-03T13:21:26.000Z</time>
      </trkpt>
      <trkpt lat="44.46422" lon="5.36369">
        <ele>520.20001220703</ele>
        <time>2014-05-03T13:21:37.000Z</time>
      </trkpt>
      <trkpt lat="44.46419" lon="5.36403">
        <ele>520</ele>
        <time>2014-05-03T13:21:46.000Z</time>
      </trkpt>
      <trkpt lat="44.46402" lon="5.36443">
        <ele>520</ele>
        <time>2014-05-03T13:21:56.000Z</time>
      </trkpt>
      <trkpt lat="44.46382" lon="5.36479">
        <ele>519.20001220703</ele>
        <time>2014-05-03T13:22:06.000Z</time>
      </trkpt>
      <trkpt lat="44.46388" lon="5.36501">
        <ele>518.40002441406</ele>
        <time>2014-05-03T13:22:15.000Z</time>
      </trkpt>
      <trkpt lat="44.46388" lon="5.36502">
        <ele>518.40002441406</ele>
        <time>2014-05-03T13:22:27.000Z</time>
      </trkpt>
      <trkpt lat="44.46404" lon="5.36525">
        <ele>518.40002441406</ele>
        <time>2014-05-03T13:22:38.000Z</time>
      </trkpt>
      <trkpt lat="44.46407" lon="5.36527">
        <ele>518.40002441406</ele>
        <time>2014-05-03T13:22:53.000Z</time>
      </trkpt>
      <trkpt lat="44.46408" lon="5.36528">
        <ele>518.40002441406</ele>
        <time>2014-05-03T13:22:54.000Z</time>
      </trkpt>
      <trkpt lat="44.46428" lon="5.36557">
        <ele>518.40002441406</ele>
        <time>2014-05-03T13:23:05.000Z</time>
      </trkpt>
      <trkpt lat="44.46446" lon="5.36588">
        <ele>518.40002441406</ele>
        <time>2014-05-03T13:23:14.000Z</time>
      </trkpt>
      <trkpt lat="44.46454" lon="5.36604">
        <ele>518.40002441406</ele>
        <time>2014-05-03T13:23:17.000Z</time>
      </trkpt>
      <trkpt lat="44.46466" lon="5.36618">
        <ele>518.40002441406</ele>
        <time>2014-05-03T13:23:21.000Z</time>
      </trkpt>
      <trkpt lat="44.46515" lon="5.36631">
        <ele>519.20001220703</ele>
        <time>2014-05-03T13:23:35.000Z</time>
      </trkpt>
      <trkpt lat="44.46522" lon="5.36635">
        <ele>519.20001220703</ele>
        <time>2014-05-03T13:23:37.000Z</time>
      </trkpt>
      <trkpt lat="44.46537" lon="5.36653">
        <ele>519.20001220703</ele>
        <time>2014-05-03T13:23:42.000Z</time>
      </trkpt>
      <trkpt lat="44.46553" lon="5.36664">
        <ele>517</ele>
        <time>2014-05-03T13:23:47.000Z</time>
      </trkpt>
      <trkpt lat="44.46561" lon="5.36672">
        <ele>518.40002441406</ele>
        <time>2014-05-03T13:23:50.000Z</time>
      </trkpt>
      <trkpt lat="44.46565" lon="5.36685">
        <ele>521.59997558594</ele>
        <time>2014-05-03T13:23:55.000Z</time>
      </trkpt>
      <trkpt lat="44.4656" lon="5.36704">
        <ele>523</ele>
        <time>2014-05-03T13:24:01.000Z</time>
      </trkpt>
      <trkpt lat="44.46538" lon="5.36749">
        <ele>525</ele>
        <time>2014-05-03T13:24:13.000Z</time>
      </trkpt>
      <trkpt lat="44.46522" lon="5.36801">
        <ele>525</ele>
        <time>2014-05-03T13:24:24.000Z</time>
      </trkpt>
      <trkpt lat="44.46497" lon="5.3687">
        <ele>525</ele>
        <time>2014-05-03T13:24:37.000Z</time>
      </trkpt>
      <trkpt lat="44.46505" lon="5.36875">
        <ele>523.79998779297</ele>
        <time>2014-05-03T13:24:41.000Z</time>
      </trkpt>
      <trkpt lat="44.46514" lon="5.36872">
        <ele>523</ele>
        <time>2014-05-03T13:24:43.000Z</time>
      </trkpt>
      <trkpt lat="44.46544" lon="5.36881">
        <ele>519.40002441406</ele>
        <time>2014-05-03T13:24:48.000Z</time>
      </trkpt>
      <trkpt lat="44.46563" lon="5.36893">
        <ele>518</ele>
        <time>2014-05-03T13:24:51.000Z</time>
      </trkpt>
      <trkpt lat="44.466" lon="5.36906">
        <ele>516.20001220703</ele>
        <time>2014-05-03T13:24:56.000Z</time>
      </trkpt>
      <trkpt lat="44.46619" lon="5.36917">
        <ele>516</ele>
        <time>2014-05-03T13:24:59.000Z</time>
      </trkpt>
      <trkpt lat="44.4665" lon="5.36946">
        <ele>516</ele>
        <time>2014-05-03T13:25:05.000Z</time>
      </trkpt>
      <trkpt lat="44.46684" lon="5.36949">
        <ele>519.40002441406</ele>
        <time>2014-05-03T13:25:12.000Z</time>
      </trkpt>
      <trkpt lat="44.46705" lon="5.36957">
        <ele>520</ele>
        <time>2014-05-03T13:25:16.000Z</time>
      </trkpt>
      <trkpt lat="44.46724" lon="5.36974">
        <ele>520.59997558594</ele>
        <time>2014-05-03T13:25:21.000Z</time>
      </trkpt>
      <trkpt lat="44.46746" lon="5.36987">
        <ele>520.79998779297</ele>
        <time>2014-05-03T13:25:26.000Z</time>
      </trkpt>
      <trkpt lat="44.46775" lon="5.37">
        <ele>520.79998779297</ele>
        <time>2014-05-03T13:25:32.000Z</time>
      </trkpt>
      <trkpt lat="44.46794" lon="5.37009">
        <ele>520.79998779297</ele>
        <time>2014-05-03T13:25:36.000Z</time>
      </trkpt>
      <trkpt lat="44.46822" lon="5.37026">
        <ele>517.79998779297</ele>
        <time>2014-05-03T13:25:42.000Z</time>
      </trkpt>
      <trkpt lat="44.46852" lon="5.37047">
        <ele>519.59997558594</ele>
        <time>2014-05-03T13:25:49.000Z</time>
      </trkpt>
      <trkpt lat="44.46869" lon="5.37056">
        <ele>519.79998779297</ele>
        <time>2014-05-03T13:25:53.000Z</time>
      </trkpt>
      <trkpt lat="44.46887" lon="5.37068">
        <ele>522</ele>
        <time>2014-05-03T13:25:57.000Z</time>
      </trkpt>
      <trkpt lat="44.46947" lon="5.37109">
        <ele>522.40002441406</ele>
        <time>2014-05-03T13:26:11.000Z</time>
      </trkpt>
      <trkpt lat="44.46978" lon="5.37141">
        <ele>523.79998779297</ele>
        <time>2014-05-03T13:26:22.000Z</time>
      </trkpt>
      <trkpt lat="44.46995" lon="5.37151">
        <ele>524</ele>
        <time>2014-05-03T13:26:27.000Z</time>
      </trkpt>
      <trkpt lat="44.4703" lon="5.37164">
        <ele>524</ele>
        <time>2014-05-03T13:26:34.000Z</time>
      </trkpt>
      <trkpt lat="44.47047" lon="5.37178">
        <ele>524</ele>
        <time>2014-05-03T13:26:38.000Z</time>
      </trkpt>
      <trkpt lat="44.4706" lon="5.37191">
        <ele>524.79998779297</ele>
        <time>2014-05-03T13:26:45.000Z</time>
      </trkpt>
      <trkpt lat="44.47081" lon="5.37196">
        <ele>525.59997558594</ele>
        <time>2014-05-03T13:26:57.000Z</time>
      </trkpt>
      <trkpt lat="44.47116" lon="5.37225">
        <ele>525.59997558594</ele>
        <time>2014-05-03T13:27:08.000Z</time>
      </trkpt>
      <trkpt lat="44.47161" lon="5.3725">
        <ele>525.59997558594</ele>
        <time>2014-05-03T13:27:18.000Z</time>
      </trkpt>
      <trkpt lat="44.47176" lon="5.37256">
        <ele>523.59997558594</ele>
        <time>2014-05-03T13:27:22.000Z</time>
      </trkpt>
      <trkpt lat="44.47203" lon="5.37273">
        <ele>525.40002441406</ele>
        <time>2014-05-03T13:27:32.000Z</time>
      </trkpt>
      <trkpt lat="44.47233" lon="5.37293">
        <ele>527.40002441406</ele>
        <time>2014-05-03T13:27:43.000Z</time>
      </trkpt>
      <trkpt lat="44.47242" lon="5.37305">
        <ele>530.40002441406</ele>
        <time>2014-05-03T13:27:51.000Z</time>
      </trkpt>
      <trkpt lat="44.47244" lon="5.37306">
        <ele>530.79998779297</ele>
        <time>2014-05-03T13:27:52.000Z</time>
      </trkpt>
      <trkpt lat="44.47252" lon="5.37316">
        <ele>531.79998779297</ele>
        <time>2014-05-03T13:27:59.000Z</time>
      </trkpt>
      <trkpt lat="44.4726" lon="5.37324">
        <ele>533.40002441406</ele>
        <time>2014-05-03T13:28:06.000Z</time>
      </trkpt>
      <trkpt lat="44.47279" lon="5.3734">
        <ele>536.79998779297</ele>
        <time>2014-05-03T13:28:20.000Z</time>
      </trkpt>
      <trkpt lat="44.4731" lon="5.37351">
        <ele>535</ele>
        <time>2014-05-03T13:28:30.000Z</time>
      </trkpt>
      <trkpt lat="44.47323" lon="5.37346">
        <ele>532</ele>
        <time>2014-05-03T13:28:34.000Z</time>
      </trkpt>
      <trkpt lat="44.47343" lon="5.37347">
        <ele>527.79998779297</ele>
        <time>2014-05-03T13:28:39.000Z</time>
      </trkpt>
      <trkpt lat="44.47366" lon="5.37358">
        <ele>528.59997558594</ele>
        <time>2014-05-03T13:28:49.000Z</time>
      </trkpt>
      <trkpt lat="44.47369" lon="5.37358">
        <ele>529.59997558594</ele>
        <time>2014-05-03T13:28:51.000Z</time>
      </trkpt>
      <trkpt lat="44.47393" lon="5.37368">
        <ele>532.40002441406</ele>
        <time>2014-05-03T13:29:03.000Z</time>
      </trkpt>
      <trkpt lat="44.47402" lon="5.37376">
        <ele>532.40002441406</ele>
        <time>2014-05-03T13:29:08.000Z</time>
      </trkpt>
      <trkpt lat="44.47414" lon="5.37417">
        <ele>532.40002441406</ele>
        <time>2014-05-03T13:29:22.000Z</time>
      </trkpt>
      <trkpt lat="44.47416" lon="5.37435">
        <ele>533</ele>
        <time>2014-05-03T13:29:30.000Z</time>
      </trkpt>
      <trkpt lat="44.47417" lon="5.37443">
        <ele>533.20001220703</ele>
        <time>2014-05-03T13:29:34.000Z</time>
      </trkpt>
      <trkpt lat="44.47433" lon="5.37479">
        <ele>533.20001220703</ele>
        <time>2014-05-03T13:29:42.000Z</time>
      </trkpt>
      <trkpt lat="44.47455" lon="5.37494">
        <ele>530.40002441406</ele>
        <time>2014-05-03T13:29:46.000Z</time>
      </trkpt>
      <trkpt lat="44.4747" lon="5.37498">
        <ele>530</ele>
        <time>2014-05-03T13:29:49.000Z</time>
      </trkpt>
      <trkpt lat="44.47487" lon="5.37505">
        <ele>530</ele>
        <time>2014-05-03T13:29:53.000Z</time>
      </trkpt>
      <trkpt lat="44.4752" lon="5.3752">
        <ele>530</ele>
        <time>2014-05-03T13:30:00.000Z</time>
      </trkpt>
      <trkpt lat="44.47546" lon="5.37507">
        <ele>530</ele>
        <time>2014-05-03T13:30:05.000Z</time>
      </trkpt>
      <trkpt lat="44.4757" lon="5.37476">
        <ele>528.40002441406</ele>
        <time>2014-05-03T13:30:11.000Z</time>
      </trkpt>
      <trkpt lat="44.47589" lon="5.37463">
        <ele>528.40002441406</ele>
        <time>2014-05-03T13:30:15.000Z</time>
      </trkpt>
      <trkpt lat="44.47614" lon="5.37454">
        <ele>530.20001220703</ele>
        <time>2014-05-03T13:30:20.000Z</time>
      </trkpt>
      <trkpt lat="44.47661" lon="5.37451">
        <ele>530.59997558594</ele>
        <time>2014-05-03T13:30:28.000Z</time>
      </trkpt>
      <trkpt lat="44.47742" lon="5.37455">
        <ele>531.20001220703</ele>
        <time>2014-05-03T13:30:43.000Z</time>
      </trkpt>
      <trkpt lat="44.47792" lon="5.37458">
        <ele>532.20001220703</ele>
        <time>2014-05-03T13:30:52.000Z</time>
      </trkpt>
      <trkpt lat="44.47835" lon="5.3746">
        <ele>533</ele>
        <time>2014-05-03T13:31:00.000Z</time>
      </trkpt>
      <trkpt lat="44.47851" lon="5.3747">
        <ele>533.20001220703</ele>
        <time>2014-05-03T13:31:04.000Z</time>
      </trkpt>
      <trkpt lat="44.47858" lon="5.37478">
        <ele>533.20001220703</ele>
        <time>2014-05-03T13:31:06.000Z</time>
      </trkpt>
      <trkpt lat="44.47879" lon="5.3749">
        <ele>534</ele>
        <time>2014-05-03T13:31:11.000Z</time>
      </trkpt>
      <trkpt lat="44.47887" lon="5.37498">
        <ele>534</ele>
        <time>2014-05-03T13:31:13.000Z</time>
      </trkpt>
      <trkpt lat="44.47916" lon="5.37538">
        <ele>534.79998779297</ele>
        <time>2014-05-03T13:31:23.000Z</time>
      </trkpt>
      <trkpt lat="44.47938" lon="5.37581">
        <ele>534.79998779297</ele>
        <time>2014-05-03T13:31:34.000Z</time>
      </trkpt>
      <trkpt lat="44.47947" lon="5.37617">
        <ele>536</ele>
        <time>2014-05-03T13:31:44.000Z</time>
      </trkpt>
      <trkpt lat="44.47952" lon="5.37658">
        <ele>539</ele>
        <time>2014-05-03T13:31:57.000Z</time>
      </trkpt>
      <trkpt lat="44.47957" lon="5.3769">
        <ele>541</ele>
        <time>2014-05-03T13:32:08.000Z</time>
      </trkpt>
      <trkpt lat="44.47957" lon="5.37707">
        <ele>541</ele>
        <time>2014-05-03T13:32:13.000Z</time>
      </trkpt>
      <trkpt lat="44.47957" lon="5.37712">
        <ele>541</ele>
        <time>2014-05-03T13:32:16.000Z</time>
      </trkpt>
      <trkpt lat="44.47977" lon="5.37741">
        <ele>542</ele>
        <time>2014-05-03T13:32:27.000Z</time>
      </trkpt>
      <trkpt lat="44.47997" lon="5.37775">
        <ele>542</ele>
        <time>2014-05-03T13:32:37.000Z</time>
      </trkpt>
      <trkpt lat="44.48005" lon="5.37802">
        <ele>542</ele>
        <time>2014-05-03T13:32:42.000Z</time>
      </trkpt>
      <trkpt lat="44.48008" lon="5.37821">
        <ele>543.59997558594</ele>
        <time>2014-05-03T13:32:53.000Z</time>
      </trkpt>
      <trkpt lat="44.48006" lon="5.37838">
        <ele>546.59997558594</ele>
        <time>2014-05-03T13:33:13.000Z</time>
      </trkpt>
      <trkpt lat="44.48008" lon="5.3785">
        <ele>547</ele>
        <time>2014-05-03T13:33:22.000Z</time>
      </trkpt>
      <trkpt lat="44.48005" lon="5.37858">
        <ele>547</ele>
        <time>2014-05-03T13:33:25.000Z</time>
      </trkpt>
      <trkpt lat="44.48005" lon="5.37868">
        <ele>547.59997558594</ele>
        <time>2014-05-03T13:33:30.000Z</time>
      </trkpt>
      <trkpt lat="44.48002" lon="5.37884">
        <ele>548.20001220703</ele>
        <time>2014-05-03T13:33:37.000Z</time>
      </trkpt>
      <trkpt lat="44.4801" lon="5.3792">
        <ele>547.59997558594</ele>
        <time>2014-05-03T13:33:49.000Z</time>
      </trkpt>
      <trkpt lat="44.48011" lon="5.37924">
        <ele>547.40002441406</ele>
        <time>2014-05-03T13:33:50.000Z</time>
      </trkpt>
      <trkpt lat="44.48018" lon="5.37951">
        <ele>544</ele>
        <time>2014-05-03T13:33:58.000Z</time>
      </trkpt>
      <trkpt lat="44.48041" lon="5.37959">
        <ele>541.59997558594</ele>
        <time>2014-05-03T13:34:07.000Z</time>
      </trkpt>
      <trkpt lat="44.48063" lon="5.37978">
        <ele>537.59997558594</ele>
        <time>2014-05-03T13:34:12.000Z</time>
      </trkpt>
      <trkpt lat="44.48094" lon="5.38032">
        <ele>536.40002441406</ele>
        <time>2014-05-03T13:34:21.000Z</time>
      </trkpt>
      <trkpt lat="44.48102" lon="5.38049">
        <ele>537.79998779297</ele>
        <time>2014-05-03T13:34:24.000Z</time>
      </trkpt>
      <trkpt lat="44.48106" lon="5.3806">
        <ele>538.40002441406</ele>
        <time>2014-05-03T13:34:26.000Z</time>
      </trkpt>
      <trkpt lat="44.48122" lon="5.38099">
        <ele>539.59997558594</ele>
        <time>2014-05-03T13:34:34.000Z</time>
      </trkpt>
      <trkpt lat="44.4814" lon="5.38124">
        <ele>539.59997558594</ele>
        <time>2014-05-03T13:34:40.000Z</time>
      </trkpt>
      <trkpt lat="44.48157" lon="5.38161">
        <ele>540.40002441406</ele>
        <time>2014-05-03T13:34:50.000Z</time>
      </trkpt>
      <trkpt lat="44.48166" lon="5.3816">
        <ele>540.40002441406</ele>
        <time>2014-05-03T13:34:54.000Z</time>
      </trkpt>
      <trkpt lat="44.48184" lon="5.38147">
        <ele>540.40002441406</ele>
        <time>2014-05-03T13:35:01.000Z</time>
      </trkpt>
      <trkpt lat="44.4819" lon="5.38151">
        <ele>541.20001220703</ele>
        <time>2014-05-03T13:35:05.000Z</time>
      </trkpt>
      <trkpt lat="44.48218" lon="5.38192">
        <ele>541.20001220703</ele>
        <time>2014-05-03T13:35:15.000Z</time>
      </trkpt>
      <trkpt lat="44.48246" lon="5.38201">
        <ele>541.20001220703</ele>
        <time>2014-05-03T13:35:22.000Z</time>
      </trkpt>
      <trkpt lat="44.48267" lon="5.38187">
        <ele>539.20001220703</ele>
        <time>2014-05-03T13:35:27.000Z</time>
      </trkpt>
      <trkpt lat="44.48334" lon="5.38151">
        <ele>539</ele>
        <time>2014-05-03T13:35:41.000Z</time>
      </trkpt>
      <trkpt lat="44.48394" lon="5.38129">
        <ele>542.20001220703</ele>
        <time>2014-05-03T13:35:55.000Z</time>
      </trkpt>
      <trkpt lat="44.48402" lon="5.38129">
        <ele>542.79998779297</ele>
        <time>2014-05-03T13:35:57.000Z</time>
      </trkpt>
      <trkpt lat="44.48411" lon="5.38128">
        <ele>543</ele>
        <time>2014-05-03T13:35:59.000Z</time>
      </trkpt>
      <trkpt lat="44.48425" lon="5.38124">
        <ele>543.59997558594</ele>
        <time>2014-05-03T13:36:02.000Z</time>
      </trkpt>
      <trkpt lat="44.4844" lon="5.3811">
        <ele>543.79998779297</ele>
        <time>2014-05-03T13:36:06.000Z</time>
      </trkpt>
      <trkpt lat="44.48463" lon="5.38077">
        <ele>546.79998779297</ele>
        <time>2014-05-03T13:36:16.000Z</time>
      </trkpt>
      <trkpt lat="44.48481" lon="5.3805">
        <ele>549.79998779297</ele>
        <time>2014-05-03T13:36:26.000Z</time>
      </trkpt>
      <trkpt lat="44.48485" lon="5.38043">
        <ele>551.79998779297</ele>
        <time>2014-05-03T13:36:35.000Z</time>
      </trkpt>
      <trkpt lat="44.48505" lon="5.38059">
        <ele>552.59997558594</ele>
        <time>2014-05-03T13:36:45.000Z</time>
      </trkpt>
      <trkpt lat="44.48514" lon="5.38064">
        <ele>552.59997558594</ele>
        <time>2014-05-03T13:36:48.000Z</time>
      </trkpt>
      <trkpt lat="44.4857" lon="5.38078">
        <ele>552.79998779297</ele>
        <time>2014-05-03T13:37:04.000Z</time>
      </trkpt>
      <trkpt lat="44.48588" lon="5.38085">
        <ele>553.40002441406</ele>
        <time>2014-05-03T13:37:10.000Z</time>
      </trkpt>
      <trkpt lat="44.48594" lon="5.38075">
        <ele>554.20001220703</ele>
        <time>2014-05-03T13:37:14.000Z</time>
      </trkpt>
      <trkpt lat="44.48598" lon="5.38067">
        <ele>554.20001220703</ele>
        <time>2014-05-03T13:37:17.000Z</time>
      </trkpt>
      <trkpt lat="44.48608" lon="5.38054">
        <ele>554.20001220703</ele>
        <time>2014-05-03T13:37:29.000Z</time>
      </trkpt>
      <trkpt lat="44.48608" lon="5.38055">
        <ele>554.20001220703</ele>
        <time>2014-05-03T13:37:33.000Z</time>
      </trkpt>
    </trkseg>
  </trk>
</gpx>